<?xml version="1.0" encoding="UTF-8" standalone="no" ?>
<gpx xmlns="http://www.topografix.com/GPX/1/1" xmlns:xsi="http://www.w3.org/2001/XMLSchema-instance" xsi:schemaLocation="http://www.topografix.com/GPX/1/1 http://www.topografix.com/GPX/1/1/gpx.xsd" version="1.1" creator="VisuGPX - https://www.visugpx.com">
  <metadata>
    <name>83-D-plan d'Aups</name>
    <desc><![CDATA[83-D-plan d'Aups : le pic de Bertagne
2022-10-16]]></desc>
  </metadata>
  <trk>
    <name><![CDATA[2022-10-16-D-plan d'aups]]></name>
    <extensions>
      <line xmlns="http://www.topografix.com/GPX/gpx_style/0/2">
        <width>4</width>
      </line>
    </extensions>
    <trkseg>
      <trkpt lat="43.32368" lon="5.70717">
        <ele>681.7</ele>
        <time>2022-10-16T07:41:37.000Z</time>
      </trkpt>
      <trkpt lat="43.32368" lon="5.70717">
        <ele>681.6</ele>
        <time>2022-10-16T07:41:38.000Z</time>
      </trkpt>
      <trkpt lat="43.32368" lon="5.70717">
        <ele>681.5</ele>
        <time>2022-10-16T07:41:40.000Z</time>
      </trkpt>
      <trkpt lat="43.32368" lon="5.70716">
        <ele>681.7</ele>
        <time>2022-10-16T07:41:42.000Z</time>
      </trkpt>
      <trkpt lat="43.32368" lon="5.70716">
        <ele>681.4</ele>
        <time>2022-10-16T07:41:44.000Z</time>
      </trkpt>
      <trkpt lat="43.32368" lon="5.70716">
        <ele>681.5</ele>
        <time>2022-10-16T07:41:45.000Z</time>
      </trkpt>
      <trkpt lat="43.32369" lon="5.70716">
        <ele>681.7</ele>
        <time>2022-10-16T07:41:47.000Z</time>
      </trkpt>
      <trkpt lat="43.32368" lon="5.70711">
        <ele>681</ele>
        <time>2022-10-16T07:41:57.000Z</time>
      </trkpt>
      <trkpt lat="43.32369" lon="5.70712">
        <ele>681</ele>
        <time>2022-10-16T07:41:59.000Z</time>
      </trkpt>
      <trkpt lat="43.32369" lon="5.70712">
        <ele>680.9</ele>
        <time>2022-10-16T07:42:00.000Z</time>
      </trkpt>
      <trkpt lat="43.32368" lon="5.70711">
        <ele>681</ele>
        <time>2022-10-16T07:42:01.000Z</time>
      </trkpt>
      <trkpt lat="43.32367" lon="5.70709">
        <ele>681</ele>
        <time>2022-10-16T07:42:17.000Z</time>
      </trkpt>
      <trkpt lat="43.32368" lon="5.70709">
        <ele>681.2</ele>
        <time>2022-10-16T07:42:18.000Z</time>
      </trkpt>
      <trkpt lat="43.32365" lon="5.70711">
        <ele>680.6</ele>
        <time>2022-10-16T07:42:30.000Z</time>
      </trkpt>
      <trkpt lat="43.32365" lon="5.70711">
        <ele>680.6</ele>
        <time>2022-10-16T07:42:30.000Z</time>
      </trkpt>
      <trkpt lat="43.32365" lon="5.70711">
        <ele>680.6</ele>
        <time>2022-10-16T07:42:32.000Z</time>
      </trkpt>
      <trkpt lat="43.32366" lon="5.70713">
        <ele>680.7</ele>
        <time>2022-10-16T07:42:42.000Z</time>
      </trkpt>
      <trkpt lat="43.32367" lon="5.70712">
        <ele>680.5</ele>
        <time>2022-10-16T07:42:49.000Z</time>
      </trkpt>
      <trkpt lat="43.32367" lon="5.70711">
        <ele>680.2</ele>
        <time>2022-10-16T07:42:53.000Z</time>
      </trkpt>
      <trkpt lat="43.32367" lon="5.70711">
        <ele>680.4</ele>
        <time>2022-10-16T07:42:55.000Z</time>
      </trkpt>
      <trkpt lat="43.32366" lon="5.70711">
        <ele>680.2</ele>
        <time>2022-10-16T07:42:58.000Z</time>
      </trkpt>
      <trkpt lat="43.32366" lon="5.7071">
        <ele>680.2</ele>
        <time>2022-10-16T07:42:59.000Z</time>
      </trkpt>
      <trkpt lat="43.32366" lon="5.7071">
        <ele>680.4</ele>
        <time>2022-10-16T07:43:00.000Z</time>
      </trkpt>
      <trkpt lat="43.32366" lon="5.7071">
        <ele>680.3</ele>
        <time>2022-10-16T07:43:01.000Z</time>
      </trkpt>
      <trkpt lat="43.32366" lon="5.7071">
        <ele>680.1</ele>
        <time>2022-10-16T07:43:02.000Z</time>
      </trkpt>
      <trkpt lat="43.32366" lon="5.7071">
        <ele>680.2</ele>
        <time>2022-10-16T07:43:05.000Z</time>
      </trkpt>
      <trkpt lat="43.32369" lon="5.70712">
        <ele>680.6</ele>
        <time>2022-10-16T07:43:13.000Z</time>
      </trkpt>
      <trkpt lat="43.32369" lon="5.70712">
        <ele>680.6</ele>
        <time>2022-10-16T07:43:15.000Z</time>
      </trkpt>
      <trkpt lat="43.32369" lon="5.70712">
        <ele>680.5</ele>
        <time>2022-10-16T07:43:16.000Z</time>
      </trkpt>
      <trkpt lat="43.32368" lon="5.70712">
        <ele>680.6</ele>
        <time>2022-10-16T07:43:19.000Z</time>
      </trkpt>
      <trkpt lat="43.32369" lon="5.70712">
        <ele>680.6</ele>
        <time>2022-10-16T07:43:23.000Z</time>
      </trkpt>
      <trkpt lat="43.32369" lon="5.70711">
        <ele>680.5</ele>
        <time>2022-10-16T07:43:27.000Z</time>
      </trkpt>
      <trkpt lat="43.32369" lon="5.70711">
        <ele>680.6</ele>
        <time>2022-10-16T07:43:28.000Z</time>
      </trkpt>
      <trkpt lat="43.32369" lon="5.70711">
        <ele>680.4</ele>
        <time>2022-10-16T07:43:35.000Z</time>
      </trkpt>
      <trkpt lat="43.32369" lon="5.70711">
        <ele>680.2</ele>
        <time>2022-10-16T07:43:36.000Z</time>
      </trkpt>
      <trkpt lat="43.32369" lon="5.70712">
        <ele>680.3</ele>
        <time>2022-10-16T07:43:41.000Z</time>
      </trkpt>
      <trkpt lat="43.32369" lon="5.70712">
        <ele>680.4</ele>
        <time>2022-10-16T07:43:42.000Z</time>
      </trkpt>
      <trkpt lat="43.3237" lon="5.70712">
        <ele>680.4</ele>
        <time>2022-10-16T07:43:44.000Z</time>
      </trkpt>
      <trkpt lat="43.3237" lon="5.70712">
        <ele>680.4</ele>
        <time>2022-10-16T07:43:45.000Z</time>
      </trkpt>
      <trkpt lat="43.3237" lon="5.70712">
        <ele>680.4</ele>
        <time>2022-10-16T07:43:46.000Z</time>
      </trkpt>
      <trkpt lat="43.3237" lon="5.70712">
        <ele>680.5</ele>
        <time>2022-10-16T07:43:47.000Z</time>
      </trkpt>
      <trkpt lat="43.3237" lon="5.70712">
        <ele>680.6</ele>
        <time>2022-10-16T07:44:01.000Z</time>
      </trkpt>
      <trkpt lat="43.3237" lon="5.70712">
        <ele>680.7</ele>
        <time>2022-10-16T07:44:02.000Z</time>
      </trkpt>
      <trkpt lat="43.3237" lon="5.70712">
        <ele>680.4</ele>
        <time>2022-10-16T07:44:11.000Z</time>
      </trkpt>
      <trkpt lat="43.32369" lon="5.70712">
        <ele>680.6</ele>
        <time>2022-10-16T07:44:14.000Z</time>
      </trkpt>
      <trkpt lat="43.32369" lon="5.70712">
        <ele>680.4</ele>
        <time>2022-10-16T07:44:18.000Z</time>
      </trkpt>
      <trkpt lat="43.32368" lon="5.70716">
        <ele>680.4</ele>
        <time>2022-10-16T07:44:23.000Z</time>
      </trkpt>
      <trkpt lat="43.32369" lon="5.70716">
        <ele>680.1</ele>
        <time>2022-10-16T07:44:27.000Z</time>
      </trkpt>
      <trkpt lat="43.32371" lon="5.70716">
        <ele>679.7</ele>
        <time>2022-10-16T07:44:31.000Z</time>
      </trkpt>
      <trkpt lat="43.32371" lon="5.70716">
        <ele>679.9</ele>
        <time>2022-10-16T07:44:32.000Z</time>
      </trkpt>
      <trkpt lat="43.32371" lon="5.70716">
        <ele>679.8</ele>
        <time>2022-10-16T07:44:33.000Z</time>
      </trkpt>
      <trkpt lat="43.32371" lon="5.70715">
        <ele>679.8</ele>
        <time>2022-10-16T07:44:34.000Z</time>
      </trkpt>
      <trkpt lat="43.32367" lon="5.70712">
        <ele>680.3</ele>
        <time>2022-10-16T07:44:48.000Z</time>
      </trkpt>
      <trkpt lat="43.32367" lon="5.70712">
        <ele>680.2</ele>
        <time>2022-10-16T07:44:51.000Z</time>
      </trkpt>
      <trkpt lat="43.32367" lon="5.70712">
        <ele>680.3</ele>
        <time>2022-10-16T07:44:54.000Z</time>
      </trkpt>
      <trkpt lat="43.32368" lon="5.70712">
        <ele>680.4</ele>
        <time>2022-10-16T07:44:55.000Z</time>
      </trkpt>
      <trkpt lat="43.32368" lon="5.70712">
        <ele>680.5</ele>
        <time>2022-10-16T07:44:56.000Z</time>
      </trkpt>
      <trkpt lat="43.32368" lon="5.70712">
        <ele>680.6</ele>
        <time>2022-10-16T07:44:58.000Z</time>
      </trkpt>
      <trkpt lat="43.32369" lon="5.70714">
        <ele>680.9</ele>
        <time>2022-10-16T07:45:03.000Z</time>
      </trkpt>
      <trkpt lat="43.3237" lon="5.70714">
        <ele>680.9</ele>
        <time>2022-10-16T07:45:05.000Z</time>
      </trkpt>
      <trkpt lat="43.3237" lon="5.70714">
        <ele>680.9</ele>
        <time>2022-10-16T07:45:06.000Z</time>
      </trkpt>
      <trkpt lat="43.3237" lon="5.70714">
        <ele>680.9</ele>
        <time>2022-10-16T07:45:12.000Z</time>
      </trkpt>
      <trkpt lat="43.3237" lon="5.70714">
        <ele>680.9</ele>
        <time>2022-10-16T07:45:13.000Z</time>
      </trkpt>
      <trkpt lat="43.32369" lon="5.70714">
        <ele>680.9</ele>
        <time>2022-10-16T07:45:24.000Z</time>
      </trkpt>
      <trkpt lat="43.32369" lon="5.70714">
        <ele>680.8</ele>
        <time>2022-10-16T07:45:25.000Z</time>
      </trkpt>
      <trkpt lat="43.3237" lon="5.70714">
        <ele>680.8</ele>
        <time>2022-10-16T07:45:26.000Z</time>
      </trkpt>
      <trkpt lat="43.3237" lon="5.70714">
        <ele>680.9</ele>
        <time>2022-10-16T07:45:27.000Z</time>
      </trkpt>
      <trkpt lat="43.3237" lon="5.70714">
        <ele>681.1</ele>
        <time>2022-10-16T07:45:28.000Z</time>
      </trkpt>
      <trkpt lat="43.3237" lon="5.70714">
        <ele>681.1</ele>
        <time>2022-10-16T07:45:29.000Z</time>
      </trkpt>
      <trkpt lat="43.32369" lon="5.70714">
        <ele>681.2</ele>
        <time>2022-10-16T07:45:30.000Z</time>
      </trkpt>
      <trkpt lat="43.3237" lon="5.70715">
        <ele>681.1</ele>
        <time>2022-10-16T07:45:33.000Z</time>
      </trkpt>
      <trkpt lat="43.3237" lon="5.70715">
        <ele>680.6</ele>
        <time>2022-10-16T07:45:39.000Z</time>
      </trkpt>
      <trkpt lat="43.3237" lon="5.70715">
        <ele>680.7</ele>
        <time>2022-10-16T07:45:40.000Z</time>
      </trkpt>
      <trkpt lat="43.3237" lon="5.70715">
        <ele>681</ele>
        <time>2022-10-16T07:46:30.000Z</time>
      </trkpt>
      <trkpt lat="43.3237" lon="5.70715">
        <ele>681.1</ele>
        <time>2022-10-16T07:46:31.000Z</time>
      </trkpt>
      <trkpt lat="43.3237" lon="5.70716">
        <ele>681.3</ele>
        <time>2022-10-16T07:46:39.000Z</time>
      </trkpt>
      <trkpt lat="43.32373" lon="5.70713">
        <ele>681.3</ele>
        <time>2022-10-16T07:46:54.000Z</time>
      </trkpt>
      <trkpt lat="43.32373" lon="5.70713">
        <ele>681.6</ele>
        <time>2022-10-16T07:47:02.000Z</time>
      </trkpt>
      <trkpt lat="43.32373" lon="5.70713">
        <ele>681.4</ele>
        <time>2022-10-16T07:47:03.000Z</time>
      </trkpt>
      <trkpt lat="43.32373" lon="5.70712">
        <ele>681.7</ele>
        <time>2022-10-16T07:47:36.000Z</time>
      </trkpt>
      <trkpt lat="43.32373" lon="5.70711">
        <ele>681.4</ele>
        <time>2022-10-16T07:47:40.000Z</time>
      </trkpt>
      <trkpt lat="43.32373" lon="5.70711">
        <ele>681.4</ele>
        <time>2022-10-16T07:47:43.000Z</time>
      </trkpt>
      <trkpt lat="43.32373" lon="5.70711">
        <ele>681.4</ele>
        <time>2022-10-16T07:47:44.000Z</time>
      </trkpt>
      <trkpt lat="43.32373" lon="5.7071">
        <ele>681.7</ele>
        <time>2022-10-16T07:47:48.000Z</time>
      </trkpt>
      <trkpt lat="43.32373" lon="5.7071">
        <ele>681.7</ele>
        <time>2022-10-16T07:47:49.000Z</time>
      </trkpt>
      <trkpt lat="43.32373" lon="5.7071">
        <ele>681.4</ele>
        <time>2022-10-16T07:47:55.000Z</time>
      </trkpt>
      <trkpt lat="43.32373" lon="5.7071">
        <ele>681.4</ele>
        <time>2022-10-16T07:47:56.000Z</time>
      </trkpt>
      <trkpt lat="43.32373" lon="5.7071">
        <ele>681.5</ele>
        <time>2022-10-16T07:48:00.000Z</time>
      </trkpt>
      <trkpt lat="43.32371" lon="5.70706">
        <ele>681.2</ele>
        <time>2022-10-16T07:48:10.000Z</time>
      </trkpt>
      <trkpt lat="43.32371" lon="5.70706">
        <ele>681.1</ele>
        <time>2022-10-16T07:48:23.000Z</time>
      </trkpt>
      <trkpt lat="43.32371" lon="5.70706">
        <ele>681.1</ele>
        <time>2022-10-16T07:48:24.000Z</time>
      </trkpt>
      <trkpt lat="43.32371" lon="5.70706">
        <ele>680.9</ele>
        <time>2022-10-16T07:48:43.000Z</time>
      </trkpt>
      <trkpt lat="43.32371" lon="5.70706">
        <ele>681</ele>
        <time>2022-10-16T07:48:44.000Z</time>
      </trkpt>
      <trkpt lat="43.32371" lon="5.70706">
        <ele>680.9</ele>
        <time>2022-10-16T07:48:50.000Z</time>
      </trkpt>
      <trkpt lat="43.32371" lon="5.70706">
        <ele>680.9</ele>
        <time>2022-10-16T07:48:51.000Z</time>
      </trkpt>
      <trkpt lat="43.32371" lon="5.70706">
        <ele>681</ele>
        <time>2022-10-16T07:48:54.000Z</time>
      </trkpt>
      <trkpt lat="43.32371" lon="5.70706">
        <ele>681</ele>
        <time>2022-10-16T07:48:55.000Z</time>
      </trkpt>
      <trkpt lat="43.3237" lon="5.70706">
        <ele>681.2</ele>
        <time>2022-10-16T07:48:56.000Z</time>
      </trkpt>
      <trkpt lat="43.3237" lon="5.70706">
        <ele>681.2</ele>
        <time>2022-10-16T07:48:57.000Z</time>
      </trkpt>
      <trkpt lat="43.3237" lon="5.70706">
        <ele>681.2</ele>
        <time>2022-10-16T07:49:10.000Z</time>
      </trkpt>
      <trkpt lat="43.32368" lon="5.70707">
        <ele>681.3</ele>
        <time>2022-10-16T07:49:15.000Z</time>
      </trkpt>
      <trkpt lat="43.32368" lon="5.70707">
        <ele>680.9</ele>
        <time>2022-10-16T07:49:53.000Z</time>
      </trkpt>
      <trkpt lat="43.32368" lon="5.70707">
        <ele>680.7</ele>
        <time>2022-10-16T07:49:55.000Z</time>
      </trkpt>
      <trkpt lat="43.32368" lon="5.70707">
        <ele>680.8</ele>
        <time>2022-10-16T07:50:09.000Z</time>
      </trkpt>
      <trkpt lat="43.32368" lon="5.70707">
        <ele>680.8</ele>
        <time>2022-10-16T07:50:10.000Z</time>
      </trkpt>
      <trkpt lat="43.32367" lon="5.70707">
        <ele>680.7</ele>
        <time>2022-10-16T07:50:32.000Z</time>
      </trkpt>
      <trkpt lat="43.32372" lon="5.70719">
        <ele>680.9</ele>
        <time>2022-10-16T07:50:45.000Z</time>
      </trkpt>
      <trkpt lat="43.3238" lon="5.70725">
        <ele>680.7</ele>
        <time>2022-10-16T07:50:53.000Z</time>
      </trkpt>
      <trkpt lat="43.32384" lon="5.70738">
        <ele>680.4</ele>
        <time>2022-10-16T07:51:00.000Z</time>
      </trkpt>
      <trkpt lat="43.32389" lon="5.70749">
        <ele>678.8</ele>
        <time>2022-10-16T07:51:09.000Z</time>
      </trkpt>
      <trkpt lat="43.32394" lon="5.7076">
        <ele>678.7</ele>
        <time>2022-10-16T07:51:19.000Z</time>
      </trkpt>
      <trkpt lat="43.32395" lon="5.70773">
        <ele>678.1</ele>
        <time>2022-10-16T07:51:26.000Z</time>
      </trkpt>
      <trkpt lat="43.32399" lon="5.70784">
        <ele>677.7</ele>
        <time>2022-10-16T07:51:34.000Z</time>
      </trkpt>
      <trkpt lat="43.32401" lon="5.70798">
        <ele>677.5</ele>
        <time>2022-10-16T07:51:43.000Z</time>
      </trkpt>
      <trkpt lat="43.32406" lon="5.70809">
        <ele>677.4</ele>
        <time>2022-10-16T07:51:51.000Z</time>
      </trkpt>
      <trkpt lat="43.32413" lon="5.70817">
        <ele>677.2</ele>
        <time>2022-10-16T07:51:59.000Z</time>
      </trkpt>
      <trkpt lat="43.32419" lon="5.70828">
        <ele>677.1</ele>
        <time>2022-10-16T07:52:07.000Z</time>
      </trkpt>
      <trkpt lat="43.32427" lon="5.70834">
        <ele>676.6</ele>
        <time>2022-10-16T07:52:14.000Z</time>
      </trkpt>
      <trkpt lat="43.32435" lon="5.70842">
        <ele>676.6</ele>
        <time>2022-10-16T07:52:21.000Z</time>
      </trkpt>
      <trkpt lat="43.32442" lon="5.70851">
        <ele>676.7</ele>
        <time>2022-10-16T07:52:27.000Z</time>
      </trkpt>
      <trkpt lat="43.32448" lon="5.70861">
        <ele>676.8</ele>
        <time>2022-10-16T07:52:35.000Z</time>
      </trkpt>
      <trkpt lat="43.32455" lon="5.7087">
        <ele>677.3</ele>
        <time>2022-10-16T07:52:43.000Z</time>
      </trkpt>
      <trkpt lat="43.32461" lon="5.70881">
        <ele>677.7</ele>
        <time>2022-10-16T07:52:52.000Z</time>
      </trkpt>
      <trkpt lat="43.32468" lon="5.70892">
        <ele>677.2</ele>
        <time>2022-10-16T07:52:59.000Z</time>
      </trkpt>
      <trkpt lat="43.3247" lon="5.70898">
        <ele>676.5</ele>
        <time>2022-10-16T07:53:05.000Z</time>
      </trkpt>
      <trkpt lat="43.3247" lon="5.70899">
        <ele>676.4</ele>
        <time>2022-10-16T07:53:06.000Z</time>
      </trkpt>
      <trkpt lat="43.32473" lon="5.70911">
        <ele>676.4</ele>
        <time>2022-10-16T07:53:13.000Z</time>
      </trkpt>
      <trkpt lat="43.32477" lon="5.70923">
        <ele>676.2</ele>
        <time>2022-10-16T07:53:20.000Z</time>
      </trkpt>
      <trkpt lat="43.32483" lon="5.70933">
        <ele>675.7</ele>
        <time>2022-10-16T07:53:27.000Z</time>
      </trkpt>
      <trkpt lat="43.32487" lon="5.70946">
        <ele>675.3</ele>
        <time>2022-10-16T07:53:35.000Z</time>
      </trkpt>
      <trkpt lat="43.32493" lon="5.70957">
        <ele>675.2</ele>
        <time>2022-10-16T07:53:43.000Z</time>
      </trkpt>
      <trkpt lat="43.325" lon="5.70964">
        <ele>675.2</ele>
        <time>2022-10-16T07:53:50.000Z</time>
      </trkpt>
      <trkpt lat="43.32509" lon="5.7097">
        <ele>675.2</ele>
        <time>2022-10-16T07:53:57.000Z</time>
      </trkpt>
      <trkpt lat="43.32516" lon="5.70977">
        <ele>675.6</ele>
        <time>2022-10-16T07:54:04.000Z</time>
      </trkpt>
      <trkpt lat="43.32524" lon="5.70984">
        <ele>676.2</ele>
        <time>2022-10-16T07:54:12.000Z</time>
      </trkpt>
      <trkpt lat="43.32528" lon="5.70997">
        <ele>676.5</ele>
        <time>2022-10-16T07:54:19.000Z</time>
      </trkpt>
      <trkpt lat="43.32534" lon="5.71006">
        <ele>676.7</ele>
        <time>2022-10-16T07:54:28.000Z</time>
      </trkpt>
      <trkpt lat="43.3254" lon="5.71016">
        <ele>677</ele>
        <time>2022-10-16T07:54:36.000Z</time>
      </trkpt>
      <trkpt lat="43.32546" lon="5.71026">
        <ele>677.5</ele>
        <time>2022-10-16T07:54:44.000Z</time>
      </trkpt>
      <trkpt lat="43.32552" lon="5.71035">
        <ele>678.1</ele>
        <time>2022-10-16T07:54:52.000Z</time>
      </trkpt>
      <trkpt lat="43.32558" lon="5.71045">
        <ele>677.3</ele>
        <time>2022-10-16T07:55:00.000Z</time>
      </trkpt>
      <trkpt lat="43.32564" lon="5.71056">
        <ele>677.3</ele>
        <time>2022-10-16T07:55:08.000Z</time>
      </trkpt>
      <trkpt lat="43.32569" lon="5.71066">
        <ele>677.3</ele>
        <time>2022-10-16T07:55:14.000Z</time>
      </trkpt>
      <trkpt lat="43.32575" lon="5.71077">
        <ele>677.4</ele>
        <time>2022-10-16T07:55:23.000Z</time>
      </trkpt>
      <trkpt lat="43.32581" lon="5.71087">
        <ele>677.4</ele>
        <time>2022-10-16T07:55:29.000Z</time>
      </trkpt>
      <trkpt lat="43.32589" lon="5.71096">
        <ele>676.9</ele>
        <time>2022-10-16T07:55:37.000Z</time>
      </trkpt>
      <trkpt lat="43.32596" lon="5.71104">
        <ele>677.1</ele>
        <time>2022-10-16T07:55:45.000Z</time>
      </trkpt>
      <trkpt lat="43.32603" lon="5.71114">
        <ele>677.6</ele>
        <time>2022-10-16T07:55:53.000Z</time>
      </trkpt>
      <trkpt lat="43.3261" lon="5.71123">
        <ele>677.8</ele>
        <time>2022-10-16T07:56:01.000Z</time>
      </trkpt>
      <trkpt lat="43.32617" lon="5.71133">
        <ele>678</ele>
        <time>2022-10-16T07:56:09.000Z</time>
      </trkpt>
      <trkpt lat="43.32624" lon="5.71143">
        <ele>678.4</ele>
        <time>2022-10-16T07:56:17.000Z</time>
      </trkpt>
      <trkpt lat="43.32625" lon="5.71145">
        <ele>678.6</ele>
        <time>2022-10-16T07:56:20.000Z</time>
      </trkpt>
      <trkpt lat="43.32625" lon="5.71145">
        <ele>678.6</ele>
        <time>2022-10-16T07:56:21.000Z</time>
      </trkpt>
      <trkpt lat="43.32632" lon="5.71155">
        <ele>678.9</ele>
        <time>2022-10-16T07:56:29.000Z</time>
      </trkpt>
      <trkpt lat="43.32638" lon="5.71166">
        <ele>679.3</ele>
        <time>2022-10-16T07:56:37.000Z</time>
      </trkpt>
      <trkpt lat="43.32645" lon="5.71173">
        <ele>679.3</ele>
        <time>2022-10-16T07:56:43.000Z</time>
      </trkpt>
      <trkpt lat="43.32653" lon="5.71181">
        <ele>680</ele>
        <time>2022-10-16T07:56:51.000Z</time>
      </trkpt>
      <trkpt lat="43.32658" lon="5.71193">
        <ele>680.8</ele>
        <time>2022-10-16T07:57:00.000Z</time>
      </trkpt>
      <trkpt lat="43.32655" lon="5.71205">
        <ele>680.9</ele>
        <time>2022-10-16T07:57:12.000Z</time>
      </trkpt>
      <trkpt lat="43.32655" lon="5.71219">
        <ele>681.3</ele>
        <time>2022-10-16T07:57:21.000Z</time>
      </trkpt>
      <trkpt lat="43.32657" lon="5.71232">
        <ele>681.6</ele>
        <time>2022-10-16T07:57:30.000Z</time>
      </trkpt>
      <trkpt lat="43.3266" lon="5.71244">
        <ele>681.6</ele>
        <time>2022-10-16T07:57:40.000Z</time>
      </trkpt>
      <trkpt lat="43.3266" lon="5.71257">
        <ele>681.6</ele>
        <time>2022-10-16T07:57:46.000Z</time>
      </trkpt>
      <trkpt lat="43.32661" lon="5.7127">
        <ele>681.4</ele>
        <time>2022-10-16T07:57:55.000Z</time>
      </trkpt>
      <trkpt lat="43.32662" lon="5.71284">
        <ele>681.2</ele>
        <time>2022-10-16T07:58:03.000Z</time>
      </trkpt>
      <trkpt lat="43.32663" lon="5.71297">
        <ele>681</ele>
        <time>2022-10-16T07:58:11.000Z</time>
      </trkpt>
      <trkpt lat="43.32666" lon="5.7131">
        <ele>680.7</ele>
        <time>2022-10-16T07:58:18.000Z</time>
      </trkpt>
      <trkpt lat="43.32669" lon="5.71322">
        <ele>680.5</ele>
        <time>2022-10-16T07:58:24.000Z</time>
      </trkpt>
      <trkpt lat="43.32664" lon="5.71333">
        <ele>680.2</ele>
        <time>2022-10-16T07:58:39.000Z</time>
      </trkpt>
      <trkpt lat="43.32655" lon="5.71332">
        <ele>679.7</ele>
        <time>2022-10-16T07:58:47.000Z</time>
      </trkpt>
      <trkpt lat="43.32645" lon="5.7133">
        <ele>679.6</ele>
        <time>2022-10-16T07:58:56.000Z</time>
      </trkpt>
      <trkpt lat="43.32635" lon="5.71331">
        <ele>679.8</ele>
        <time>2022-10-16T07:59:04.000Z</time>
      </trkpt>
      <trkpt lat="43.32627" lon="5.71326">
        <ele>680</ele>
        <time>2022-10-16T07:59:12.000Z</time>
      </trkpt>
      <trkpt lat="43.32618" lon="5.71322">
        <ele>680.2</ele>
        <time>2022-10-16T07:59:19.000Z</time>
      </trkpt>
      <trkpt lat="43.32608" lon="5.71322">
        <ele>680.4</ele>
        <time>2022-10-16T07:59:28.000Z</time>
      </trkpt>
      <trkpt lat="43.32598" lon="5.71323">
        <ele>680.6</ele>
        <time>2022-10-16T07:59:36.000Z</time>
      </trkpt>
      <trkpt lat="43.32589" lon="5.71322">
        <ele>681</ele>
        <time>2022-10-16T07:59:44.000Z</time>
      </trkpt>
      <trkpt lat="43.32579" lon="5.7132">
        <ele>680.9</ele>
        <time>2022-10-16T07:59:51.000Z</time>
      </trkpt>
      <trkpt lat="43.32568" lon="5.71318">
        <ele>681.4</ele>
        <time>2022-10-16T08:00:00.000Z</time>
      </trkpt>
      <trkpt lat="43.32558" lon="5.7132">
        <ele>681.5</ele>
        <time>2022-10-16T08:00:08.000Z</time>
      </trkpt>
      <trkpt lat="43.32549" lon="5.71322">
        <ele>681.4</ele>
        <time>2022-10-16T08:00:16.000Z</time>
      </trkpt>
      <trkpt lat="43.32539" lon="5.71322">
        <ele>681.6</ele>
        <time>2022-10-16T08:00:25.000Z</time>
      </trkpt>
      <trkpt lat="43.3253" lon="5.71321">
        <ele>682.7</ele>
        <time>2022-10-16T08:00:33.000Z</time>
      </trkpt>
      <trkpt lat="43.3252" lon="5.71322">
        <ele>683.7</ele>
        <time>2022-10-16T08:00:42.000Z</time>
      </trkpt>
      <trkpt lat="43.3251" lon="5.71323">
        <ele>685.2</ele>
        <time>2022-10-16T08:00:52.000Z</time>
      </trkpt>
      <trkpt lat="43.32501" lon="5.71328">
        <ele>686.3</ele>
        <time>2022-10-16T08:01:04.000Z</time>
      </trkpt>
      <trkpt lat="43.32491" lon="5.7133">
        <ele>686.5</ele>
        <time>2022-10-16T08:01:15.000Z</time>
      </trkpt>
      <trkpt lat="43.32482" lon="5.71331">
        <ele>686.3</ele>
        <time>2022-10-16T08:01:22.000Z</time>
      </trkpt>
      <trkpt lat="43.32472" lon="5.71329">
        <ele>686.7</ele>
        <time>2022-10-16T08:01:29.000Z</time>
      </trkpt>
      <trkpt lat="43.32463" lon="5.71327">
        <ele>687.2</ele>
        <time>2022-10-16T08:01:37.000Z</time>
      </trkpt>
      <trkpt lat="43.32453" lon="5.71324">
        <ele>688.6</ele>
        <time>2022-10-16T08:01:45.000Z</time>
      </trkpt>
      <trkpt lat="43.32444" lon="5.71324">
        <ele>689.3</ele>
        <time>2022-10-16T08:01:53.000Z</time>
      </trkpt>
      <trkpt lat="43.32436" lon="5.7132">
        <ele>690</ele>
        <time>2022-10-16T08:02:03.000Z</time>
      </trkpt>
      <trkpt lat="43.32426" lon="5.71317">
        <ele>690</ele>
        <time>2022-10-16T08:02:13.000Z</time>
      </trkpt>
      <trkpt lat="43.32416" lon="5.71317">
        <ele>689.8</ele>
        <time>2022-10-16T08:02:22.000Z</time>
      </trkpt>
      <trkpt lat="43.32406" lon="5.71317">
        <ele>690.2</ele>
        <time>2022-10-16T08:02:31.000Z</time>
      </trkpt>
      <trkpt lat="43.32397" lon="5.71314">
        <ele>690.8</ele>
        <time>2022-10-16T08:02:39.000Z</time>
      </trkpt>
      <trkpt lat="43.32387" lon="5.71317">
        <ele>691.6</ele>
        <time>2022-10-16T08:02:52.000Z</time>
      </trkpt>
      <trkpt lat="43.32377" lon="5.71318">
        <ele>691.3</ele>
        <time>2022-10-16T08:03:00.000Z</time>
      </trkpt>
      <trkpt lat="43.32368" lon="5.71314">
        <ele>691.8</ele>
        <time>2022-10-16T08:03:09.000Z</time>
      </trkpt>
      <trkpt lat="43.3236" lon="5.71309">
        <ele>692.5</ele>
        <time>2022-10-16T08:03:16.000Z</time>
      </trkpt>
      <trkpt lat="43.32357" lon="5.7131">
        <ele>692.7</ele>
        <time>2022-10-16T08:03:22.000Z</time>
      </trkpt>
      <trkpt lat="43.32357" lon="5.71309">
        <ele>692.8</ele>
        <time>2022-10-16T08:03:23.000Z</time>
      </trkpt>
      <trkpt lat="43.32356" lon="5.71309">
        <ele>693</ele>
        <time>2022-10-16T08:03:25.000Z</time>
      </trkpt>
      <trkpt lat="43.32355" lon="5.71309">
        <ele>693.2</ele>
        <time>2022-10-16T08:03:26.000Z</time>
      </trkpt>
      <trkpt lat="43.32346" lon="5.71309">
        <ele>694</ele>
        <time>2022-10-16T08:03:35.000Z</time>
      </trkpt>
      <trkpt lat="43.32337" lon="5.71307">
        <ele>694.3</ele>
        <time>2022-10-16T08:03:43.000Z</time>
      </trkpt>
      <trkpt lat="43.32328" lon="5.71311">
        <ele>694.8</ele>
        <time>2022-10-16T08:03:53.000Z</time>
      </trkpt>
      <trkpt lat="43.32318" lon="5.71315">
        <ele>695.7</ele>
        <time>2022-10-16T08:04:02.000Z</time>
      </trkpt>
      <trkpt lat="43.3231" lon="5.71322">
        <ele>696.6</ele>
        <time>2022-10-16T08:04:13.000Z</time>
      </trkpt>
      <trkpt lat="43.323" lon="5.71322">
        <ele>697.2</ele>
        <time>2022-10-16T08:04:25.000Z</time>
      </trkpt>
      <trkpt lat="43.32291" lon="5.71322">
        <ele>697.5</ele>
        <time>2022-10-16T08:04:33.000Z</time>
      </trkpt>
      <trkpt lat="43.32284" lon="5.71331">
        <ele>697.5</ele>
        <time>2022-10-16T08:04:42.000Z</time>
      </trkpt>
      <trkpt lat="43.32284" lon="5.71331">
        <ele>697.7</ele>
        <time>2022-10-16T08:04:43.000Z</time>
      </trkpt>
      <trkpt lat="43.32284" lon="5.71331">
        <ele>697.8</ele>
        <time>2022-10-16T08:04:44.000Z</time>
      </trkpt>
      <trkpt lat="43.32275" lon="5.71335">
        <ele>699</ele>
        <time>2022-10-16T08:04:54.000Z</time>
      </trkpt>
      <trkpt lat="43.32266" lon="5.71339">
        <ele>700.8</ele>
        <time>2022-10-16T08:05:11.000Z</time>
      </trkpt>
      <trkpt lat="43.32257" lon="5.71335">
        <ele>701.9</ele>
        <time>2022-10-16T08:05:20.000Z</time>
      </trkpt>
      <trkpt lat="43.32256" lon="5.71335">
        <ele>702.8</ele>
        <time>2022-10-16T08:05:26.000Z</time>
      </trkpt>
      <trkpt lat="43.32256" lon="5.71335">
        <ele>702.9</ele>
        <time>2022-10-16T08:05:43.000Z</time>
      </trkpt>
      <trkpt lat="43.32247" lon="5.71331">
        <ele>703.7</ele>
        <time>2022-10-16T08:05:58.000Z</time>
      </trkpt>
      <trkpt lat="43.32244" lon="5.71331">
        <ele>704.2</ele>
        <time>2022-10-16T08:06:04.000Z</time>
      </trkpt>
      <trkpt lat="43.32245" lon="5.71331">
        <ele>704.5</ele>
        <time>2022-10-16T08:06:05.000Z</time>
      </trkpt>
      <trkpt lat="43.32235" lon="5.71332">
        <ele>706.3</ele>
        <time>2022-10-16T08:06:19.000Z</time>
      </trkpt>
      <trkpt lat="43.32226" lon="5.71331">
        <ele>707.9</ele>
        <time>2022-10-16T08:06:32.000Z</time>
      </trkpt>
      <trkpt lat="43.32216" lon="5.71331">
        <ele>708.9</ele>
        <time>2022-10-16T08:06:42.000Z</time>
      </trkpt>
      <trkpt lat="43.32216" lon="5.71331">
        <ele>709.4</ele>
        <time>2022-10-16T08:06:45.000Z</time>
      </trkpt>
      <trkpt lat="43.32216" lon="5.7133">
        <ele>709.4</ele>
        <time>2022-10-16T08:06:46.000Z</time>
      </trkpt>
      <trkpt lat="43.32207" lon="5.71327">
        <ele>712</ele>
        <time>2022-10-16T08:07:07.000Z</time>
      </trkpt>
      <trkpt lat="43.32198" lon="5.71324">
        <ele>713.1</ele>
        <time>2022-10-16T08:07:18.000Z</time>
      </trkpt>
      <trkpt lat="43.32189" lon="5.7132">
        <ele>715.2</ele>
        <time>2022-10-16T08:07:31.000Z</time>
      </trkpt>
      <trkpt lat="43.32181" lon="5.71315">
        <ele>716.8</ele>
        <time>2022-10-16T08:07:52.000Z</time>
      </trkpt>
      <trkpt lat="43.32172" lon="5.71318">
        <ele>718.3</ele>
        <time>2022-10-16T08:08:08.000Z</time>
      </trkpt>
      <trkpt lat="43.3217" lon="5.7132">
        <ele>719.1</ele>
        <time>2022-10-16T08:08:15.000Z</time>
      </trkpt>
      <trkpt lat="43.3217" lon="5.7132">
        <ele>719.2</ele>
        <time>2022-10-16T08:08:17.000Z</time>
      </trkpt>
      <trkpt lat="43.32169" lon="5.71317">
        <ele>720</ele>
        <time>2022-10-16T08:08:25.000Z</time>
      </trkpt>
      <trkpt lat="43.32168" lon="5.71317">
        <ele>720.2</ele>
        <time>2022-10-16T08:08:26.000Z</time>
      </trkpt>
      <trkpt lat="43.3216" lon="5.71313">
        <ele>721.5</ele>
        <time>2022-10-16T08:08:37.000Z</time>
      </trkpt>
      <trkpt lat="43.32152" lon="5.71306">
        <ele>723</ele>
        <time>2022-10-16T08:08:51.000Z</time>
      </trkpt>
      <trkpt lat="43.32144" lon="5.713">
        <ele>724.1</ele>
        <time>2022-10-16T08:09:04.000Z</time>
      </trkpt>
      <trkpt lat="43.32137" lon="5.71292">
        <ele>725.4</ele>
        <time>2022-10-16T08:09:22.000Z</time>
      </trkpt>
      <trkpt lat="43.32137" lon="5.71279">
        <ele>726.3</ele>
        <time>2022-10-16T08:09:32.000Z</time>
      </trkpt>
      <trkpt lat="43.32133" lon="5.71266">
        <ele>726.6</ele>
        <time>2022-10-16T08:09:46.000Z</time>
      </trkpt>
      <trkpt lat="43.32125" lon="5.7126">
        <ele>728.6</ele>
        <time>2022-10-16T08:09:58.000Z</time>
      </trkpt>
      <trkpt lat="43.32116" lon="5.71256">
        <ele>730.3</ele>
        <time>2022-10-16T08:10:09.000Z</time>
      </trkpt>
      <trkpt lat="43.32109" lon="5.71263">
        <ele>732.3</ele>
        <time>2022-10-16T08:10:25.000Z</time>
      </trkpt>
      <trkpt lat="43.321" lon="5.71268">
        <ele>733.4</ele>
        <time>2022-10-16T08:10:43.000Z</time>
      </trkpt>
      <trkpt lat="43.32099" lon="5.71267">
        <ele>733</ele>
        <time>2022-10-16T08:10:47.000Z</time>
      </trkpt>
      <trkpt lat="43.32099" lon="5.71267">
        <ele>732.9</ele>
        <time>2022-10-16T08:11:00.000Z</time>
      </trkpt>
      <trkpt lat="43.32099" lon="5.71267">
        <ele>733.1</ele>
        <time>2022-10-16T08:11:01.000Z</time>
      </trkpt>
      <trkpt lat="43.32099" lon="5.71267">
        <ele>733.1</ele>
        <time>2022-10-16T08:11:02.000Z</time>
      </trkpt>
      <trkpt lat="43.321" lon="5.71267">
        <ele>733</ele>
        <time>2022-10-16T08:11:04.000Z</time>
      </trkpt>
      <trkpt lat="43.321" lon="5.71267">
        <ele>733</ele>
        <time>2022-10-16T08:11:08.000Z</time>
      </trkpt>
      <trkpt lat="43.321" lon="5.71267">
        <ele>732.9</ele>
        <time>2022-10-16T08:11:09.000Z</time>
      </trkpt>
      <trkpt lat="43.321" lon="5.71267">
        <ele>732.8</ele>
        <time>2022-10-16T08:11:12.000Z</time>
      </trkpt>
      <trkpt lat="43.32101" lon="5.71269">
        <ele>732.8</ele>
        <time>2022-10-16T08:11:14.000Z</time>
      </trkpt>
      <trkpt lat="43.32102" lon="5.71269">
        <ele>732.7</ele>
        <time>2022-10-16T08:11:18.000Z</time>
      </trkpt>
      <trkpt lat="43.32102" lon="5.71268">
        <ele>732.7</ele>
        <time>2022-10-16T08:11:20.000Z</time>
      </trkpt>
      <trkpt lat="43.32103" lon="5.71268">
        <ele>732.8</ele>
        <time>2022-10-16T08:11:22.000Z</time>
      </trkpt>
      <trkpt lat="43.32103" lon="5.71268">
        <ele>732.7</ele>
        <time>2022-10-16T08:11:23.000Z</time>
      </trkpt>
      <trkpt lat="43.32103" lon="5.71268">
        <ele>732.9</ele>
        <time>2022-10-16T08:11:29.000Z</time>
      </trkpt>
      <trkpt lat="43.32102" lon="5.71266">
        <ele>732.7</ele>
        <time>2022-10-16T08:11:37.000Z</time>
      </trkpt>
      <trkpt lat="43.32104" lon="5.71266">
        <ele>732.4</ele>
        <time>2022-10-16T08:11:42.000Z</time>
      </trkpt>
      <trkpt lat="43.32104" lon="5.71266">
        <ele>732.6</ele>
        <time>2022-10-16T08:11:43.000Z</time>
      </trkpt>
      <trkpt lat="43.32103" lon="5.71266">
        <ele>732.8</ele>
        <time>2022-10-16T08:11:48.000Z</time>
      </trkpt>
      <trkpt lat="43.32103" lon="5.71266">
        <ele>732.7</ele>
        <time>2022-10-16T08:11:49.000Z</time>
      </trkpt>
      <trkpt lat="43.32103" lon="5.71266">
        <ele>732.7</ele>
        <time>2022-10-16T08:11:51.000Z</time>
      </trkpt>
      <trkpt lat="43.32103" lon="5.71273">
        <ele>733.2</ele>
        <time>2022-10-16T08:12:05.000Z</time>
      </trkpt>
      <trkpt lat="43.32104" lon="5.71273">
        <ele>733</ele>
        <time>2022-10-16T08:12:11.000Z</time>
      </trkpt>
      <trkpt lat="43.32104" lon="5.71273">
        <ele>733.1</ele>
        <time>2022-10-16T08:12:12.000Z</time>
      </trkpt>
      <trkpt lat="43.32103" lon="5.71273">
        <ele>733.3</ele>
        <time>2022-10-16T08:12:13.000Z</time>
      </trkpt>
      <trkpt lat="43.32103" lon="5.71273">
        <ele>733.2</ele>
        <time>2022-10-16T08:12:14.000Z</time>
      </trkpt>
      <trkpt lat="43.32104" lon="5.71273">
        <ele>733.1</ele>
        <time>2022-10-16T08:12:15.000Z</time>
      </trkpt>
      <trkpt lat="43.32104" lon="5.71273">
        <ele>733.2</ele>
        <time>2022-10-16T08:12:17.000Z</time>
      </trkpt>
      <trkpt lat="43.32104" lon="5.71273">
        <ele>733.5</ele>
        <time>2022-10-16T08:12:18.000Z</time>
      </trkpt>
      <trkpt lat="43.32104" lon="5.71273">
        <ele>733.5</ele>
        <time>2022-10-16T08:12:19.000Z</time>
      </trkpt>
      <trkpt lat="43.32104" lon="5.71273">
        <ele>733.2</ele>
        <time>2022-10-16T08:12:27.000Z</time>
      </trkpt>
      <trkpt lat="43.32098" lon="5.71285">
        <ele>734.4</ele>
        <time>2022-10-16T08:12:46.000Z</time>
      </trkpt>
      <trkpt lat="43.32095" lon="5.71286">
        <ele>735</ele>
        <time>2022-10-16T08:12:53.000Z</time>
      </trkpt>
      <trkpt lat="43.32095" lon="5.71286">
        <ele>735.1</ele>
        <time>2022-10-16T08:12:54.000Z</time>
      </trkpt>
      <trkpt lat="43.32091" lon="5.71298">
        <ele>737.3</ele>
        <time>2022-10-16T08:13:12.000Z</time>
      </trkpt>
      <trkpt lat="43.3209" lon="5.71304">
        <ele>737.8</ele>
        <time>2022-10-16T08:13:21.000Z</time>
      </trkpt>
      <trkpt lat="43.3209" lon="5.71303">
        <ele>737.7</ele>
        <time>2022-10-16T08:13:27.000Z</time>
      </trkpt>
      <trkpt lat="43.32089" lon="5.71303">
        <ele>737.7</ele>
        <time>2022-10-16T08:13:29.000Z</time>
      </trkpt>
      <trkpt lat="43.32089" lon="5.71303">
        <ele>737.5</ele>
        <time>2022-10-16T08:13:38.000Z</time>
      </trkpt>
      <trkpt lat="43.32089" lon="5.71303">
        <ele>737.6</ele>
        <time>2022-10-16T08:13:39.000Z</time>
      </trkpt>
      <trkpt lat="43.32089" lon="5.71303">
        <ele>737.5</ele>
        <time>2022-10-16T08:13:41.000Z</time>
      </trkpt>
      <trkpt lat="43.32089" lon="5.71302">
        <ele>737.5</ele>
        <time>2022-10-16T08:13:42.000Z</time>
      </trkpt>
      <trkpt lat="43.32089" lon="5.71302">
        <ele>737.4</ele>
        <time>2022-10-16T08:13:49.000Z</time>
      </trkpt>
      <trkpt lat="43.32089" lon="5.71302">
        <ele>737.3</ele>
        <time>2022-10-16T08:13:50.000Z</time>
      </trkpt>
      <trkpt lat="43.32088" lon="5.71303">
        <ele>737.2</ele>
        <time>2022-10-16T08:13:52.000Z</time>
      </trkpt>
      <trkpt lat="43.32088" lon="5.71314">
        <ele>738</ele>
        <time>2022-10-16T08:14:09.000Z</time>
      </trkpt>
      <trkpt lat="43.32088" lon="5.71314">
        <ele>738.2</ele>
        <time>2022-10-16T08:14:34.000Z</time>
      </trkpt>
      <trkpt lat="43.32088" lon="5.71314">
        <ele>738.2</ele>
        <time>2022-10-16T08:14:35.000Z</time>
      </trkpt>
      <trkpt lat="43.32088" lon="5.71314">
        <ele>738.1</ele>
        <time>2022-10-16T08:14:36.000Z</time>
      </trkpt>
      <trkpt lat="43.32091" lon="5.71326">
        <ele>736.8</ele>
        <time>2022-10-16T08:14:48.000Z</time>
      </trkpt>
      <trkpt lat="43.32099" lon="5.71337">
        <ele>736.2</ele>
        <time>2022-10-16T08:14:56.000Z</time>
      </trkpt>
      <trkpt lat="43.32101" lon="5.71349">
        <ele>735.2</ele>
        <time>2022-10-16T08:15:05.000Z</time>
      </trkpt>
      <trkpt lat="43.32105" lon="5.71362">
        <ele>734.9</ele>
        <time>2022-10-16T08:15:12.000Z</time>
      </trkpt>
      <trkpt lat="43.32114" lon="5.71368">
        <ele>734.6</ele>
        <time>2022-10-16T08:15:20.000Z</time>
      </trkpt>
      <trkpt lat="43.32122" lon="5.71375">
        <ele>734.2</ele>
        <time>2022-10-16T08:15:29.000Z</time>
      </trkpt>
      <trkpt lat="43.32127" lon="5.71385">
        <ele>733.5</ele>
        <time>2022-10-16T08:15:36.000Z</time>
      </trkpt>
      <trkpt lat="43.32129" lon="5.71397">
        <ele>732.9</ele>
        <time>2022-10-16T08:15:44.000Z</time>
      </trkpt>
      <trkpt lat="43.32129" lon="5.71411">
        <ele>732.4</ele>
        <time>2022-10-16T08:15:53.000Z</time>
      </trkpt>
      <trkpt lat="43.3213" lon="5.71423">
        <ele>732</ele>
        <time>2022-10-16T08:16:02.000Z</time>
      </trkpt>
      <trkpt lat="43.32131" lon="5.71429">
        <ele>731.5</ele>
        <time>2022-10-16T08:16:07.000Z</time>
      </trkpt>
      <trkpt lat="43.32132" lon="5.7143">
        <ele>731.7</ele>
        <time>2022-10-16T08:16:08.000Z</time>
      </trkpt>
      <trkpt lat="43.32133" lon="5.71442">
        <ele>731.5</ele>
        <time>2022-10-16T08:16:16.000Z</time>
      </trkpt>
      <trkpt lat="43.32137" lon="5.71454">
        <ele>731.4</ele>
        <time>2022-10-16T08:16:25.000Z</time>
      </trkpt>
      <trkpt lat="43.32143" lon="5.71464">
        <ele>731.6</ele>
        <time>2022-10-16T08:16:32.000Z</time>
      </trkpt>
      <trkpt lat="43.32149" lon="5.71473">
        <ele>731.4</ele>
        <time>2022-10-16T08:16:39.000Z</time>
      </trkpt>
      <trkpt lat="43.32152" lon="5.71486">
        <ele>731.5</ele>
        <time>2022-10-16T08:16:45.000Z</time>
      </trkpt>
      <trkpt lat="43.32158" lon="5.71496">
        <ele>731.1</ele>
        <time>2022-10-16T08:16:52.000Z</time>
      </trkpt>
      <trkpt lat="43.32164" lon="5.71506">
        <ele>731.3</ele>
        <time>2022-10-16T08:16:59.000Z</time>
      </trkpt>
      <trkpt lat="43.32169" lon="5.71517">
        <ele>731.9</ele>
        <time>2022-10-16T08:17:10.000Z</time>
      </trkpt>
      <trkpt lat="43.32174" lon="5.7153">
        <ele>732.3</ele>
        <time>2022-10-16T08:17:22.000Z</time>
      </trkpt>
      <trkpt lat="43.32177" lon="5.71543">
        <ele>732.2</ele>
        <time>2022-10-16T08:17:32.000Z</time>
      </trkpt>
      <trkpt lat="43.32178" lon="5.71556">
        <ele>731.7</ele>
        <time>2022-10-16T08:17:45.000Z</time>
      </trkpt>
      <trkpt lat="43.32182" lon="5.71569">
        <ele>731.2</ele>
        <time>2022-10-16T08:17:51.000Z</time>
      </trkpt>
      <trkpt lat="43.3218" lon="5.71581">
        <ele>730.6</ele>
        <time>2022-10-16T08:18:01.000Z</time>
      </trkpt>
      <trkpt lat="43.3218" lon="5.71594">
        <ele>730</ele>
        <time>2022-10-16T08:18:07.000Z</time>
      </trkpt>
      <trkpt lat="43.32181" lon="5.71607">
        <ele>728.7</ele>
        <time>2022-10-16T08:18:17.000Z</time>
      </trkpt>
      <trkpt lat="43.32184" lon="5.71619">
        <ele>728.1</ele>
        <time>2022-10-16T08:18:25.000Z</time>
      </trkpt>
      <trkpt lat="43.32185" lon="5.71632">
        <ele>727.3</ele>
        <time>2022-10-16T08:18:34.000Z</time>
      </trkpt>
      <trkpt lat="43.32185" lon="5.71645">
        <ele>726.5</ele>
        <time>2022-10-16T08:18:42.000Z</time>
      </trkpt>
      <trkpt lat="43.32186" lon="5.71658">
        <ele>725.5</ele>
        <time>2022-10-16T08:18:50.000Z</time>
      </trkpt>
      <trkpt lat="43.32186" lon="5.71671">
        <ele>724.7</ele>
        <time>2022-10-16T08:19:01.000Z</time>
      </trkpt>
      <trkpt lat="43.32185" lon="5.71684">
        <ele>723.6</ele>
        <time>2022-10-16T08:19:10.000Z</time>
      </trkpt>
      <trkpt lat="43.32187" lon="5.71699">
        <ele>723</ele>
        <time>2022-10-16T08:19:17.000Z</time>
      </trkpt>
      <trkpt lat="43.32191" lon="5.71711">
        <ele>722.5</ele>
        <time>2022-10-16T08:19:25.000Z</time>
      </trkpt>
      <trkpt lat="43.32197" lon="5.71721">
        <ele>722.3</ele>
        <time>2022-10-16T08:19:32.000Z</time>
      </trkpt>
      <trkpt lat="43.32205" lon="5.71728">
        <ele>722.2</ele>
        <time>2022-10-16T08:19:40.000Z</time>
      </trkpt>
      <trkpt lat="43.32209" lon="5.71741">
        <ele>721.5</ele>
        <time>2022-10-16T08:19:49.000Z</time>
      </trkpt>
      <trkpt lat="43.32213" lon="5.71753">
        <ele>720.7</ele>
        <time>2022-10-16T08:19:57.000Z</time>
      </trkpt>
      <trkpt lat="43.32218" lon="5.71764">
        <ele>719.8</ele>
        <time>2022-10-16T08:20:04.000Z</time>
      </trkpt>
      <trkpt lat="43.3222" lon="5.71777">
        <ele>719.2</ele>
        <time>2022-10-16T08:20:13.000Z</time>
      </trkpt>
      <trkpt lat="43.32218" lon="5.7179">
        <ele>718.2</ele>
        <time>2022-10-16T08:20:23.000Z</time>
      </trkpt>
      <trkpt lat="43.32218" lon="5.71803">
        <ele>717.5</ele>
        <time>2022-10-16T08:20:35.000Z</time>
      </trkpt>
      <trkpt lat="43.32221" lon="5.71816">
        <ele>717.3</ele>
        <time>2022-10-16T08:20:42.000Z</time>
      </trkpt>
      <trkpt lat="43.32222" lon="5.71829">
        <ele>716.4</ele>
        <time>2022-10-16T08:20:50.000Z</time>
      </trkpt>
      <trkpt lat="43.32221" lon="5.71841">
        <ele>715.8</ele>
        <time>2022-10-16T08:20:59.000Z</time>
      </trkpt>
      <trkpt lat="43.32226" lon="5.71855">
        <ele>715.3</ele>
        <time>2022-10-16T08:21:08.000Z</time>
      </trkpt>
      <trkpt lat="43.32227" lon="5.71868">
        <ele>714.9</ele>
        <time>2022-10-16T08:21:16.000Z</time>
      </trkpt>
      <trkpt lat="43.32224" lon="5.7188">
        <ele>714.4</ele>
        <time>2022-10-16T08:21:26.000Z</time>
      </trkpt>
      <trkpt lat="43.32222" lon="5.71894">
        <ele>714.4</ele>
        <time>2022-10-16T08:21:36.000Z</time>
      </trkpt>
      <trkpt lat="43.32225" lon="5.71907">
        <ele>714.7</ele>
        <time>2022-10-16T08:21:45.000Z</time>
      </trkpt>
      <trkpt lat="43.3223" lon="5.71918">
        <ele>714.6</ele>
        <time>2022-10-16T08:21:53.000Z</time>
      </trkpt>
      <trkpt lat="43.32234" lon="5.71931">
        <ele>714.3</ele>
        <time>2022-10-16T08:22:01.000Z</time>
      </trkpt>
      <trkpt lat="43.3224" lon="5.7194">
        <ele>714.2</ele>
        <time>2022-10-16T08:22:06.000Z</time>
      </trkpt>
      <trkpt lat="43.32244" lon="5.71953">
        <ele>714.1</ele>
        <time>2022-10-16T08:22:14.000Z</time>
      </trkpt>
      <trkpt lat="43.32251" lon="5.71962">
        <ele>713.6</ele>
        <time>2022-10-16T08:22:22.000Z</time>
      </trkpt>
      <trkpt lat="43.32254" lon="5.71975">
        <ele>713.2</ele>
        <time>2022-10-16T08:22:31.000Z</time>
      </trkpt>
      <trkpt lat="43.3226" lon="5.71985">
        <ele>713</ele>
        <time>2022-10-16T08:22:38.000Z</time>
      </trkpt>
      <trkpt lat="43.32264" lon="5.71996">
        <ele>712.5</ele>
        <time>2022-10-16T08:22:46.000Z</time>
      </trkpt>
      <trkpt lat="43.32266" lon="5.72009">
        <ele>713.4</ele>
        <time>2022-10-16T08:22:55.000Z</time>
      </trkpt>
      <trkpt lat="43.32271" lon="5.7202">
        <ele>713.7</ele>
        <time>2022-10-16T08:23:04.000Z</time>
      </trkpt>
      <trkpt lat="43.32276" lon="5.72031">
        <ele>714.5</ele>
        <time>2022-10-16T08:23:13.000Z</time>
      </trkpt>
      <trkpt lat="43.3228" lon="5.72042">
        <ele>715.2</ele>
        <time>2022-10-16T08:23:23.000Z</time>
      </trkpt>
      <trkpt lat="43.32281" lon="5.72056">
        <ele>715.7</ele>
        <time>2022-10-16T08:23:33.000Z</time>
      </trkpt>
      <trkpt lat="43.32284" lon="5.72068">
        <ele>715.8</ele>
        <time>2022-10-16T08:23:39.000Z</time>
      </trkpt>
      <trkpt lat="43.3229" lon="5.72079">
        <ele>715.8</ele>
        <time>2022-10-16T08:23:47.000Z</time>
      </trkpt>
      <trkpt lat="43.32293" lon="5.72091">
        <ele>715.6</ele>
        <time>2022-10-16T08:23:55.000Z</time>
      </trkpt>
      <trkpt lat="43.32296" lon="5.72103">
        <ele>715.2</ele>
        <time>2022-10-16T08:24:03.000Z</time>
      </trkpt>
      <trkpt lat="43.32301" lon="5.72113">
        <ele>714.9</ele>
        <time>2022-10-16T08:24:09.000Z</time>
      </trkpt>
      <trkpt lat="43.32308" lon="5.72122">
        <ele>714.9</ele>
        <time>2022-10-16T08:24:17.000Z</time>
      </trkpt>
      <trkpt lat="43.32313" lon="5.72134">
        <ele>714.4</ele>
        <time>2022-10-16T08:24:25.000Z</time>
      </trkpt>
      <trkpt lat="43.3232" lon="5.72144">
        <ele>714.3</ele>
        <time>2022-10-16T08:24:34.000Z</time>
      </trkpt>
      <trkpt lat="43.32327" lon="5.72153">
        <ele>714</ele>
        <time>2022-10-16T08:24:44.000Z</time>
      </trkpt>
      <trkpt lat="43.32334" lon="5.72162">
        <ele>713.7</ele>
        <time>2022-10-16T08:24:53.000Z</time>
      </trkpt>
      <trkpt lat="43.32338" lon="5.72174">
        <ele>713.5</ele>
        <time>2022-10-16T08:25:02.000Z</time>
      </trkpt>
      <trkpt lat="43.3234" lon="5.72186">
        <ele>713.1</ele>
        <time>2022-10-16T08:25:11.000Z</time>
      </trkpt>
      <trkpt lat="43.32343" lon="5.72198">
        <ele>712.7</ele>
        <time>2022-10-16T08:25:19.000Z</time>
      </trkpt>
      <trkpt lat="43.32338" lon="5.72209">
        <ele>712</ele>
        <time>2022-10-16T08:25:29.000Z</time>
      </trkpt>
      <trkpt lat="43.32333" lon="5.72219">
        <ele>712</ele>
        <time>2022-10-16T08:25:37.000Z</time>
      </trkpt>
      <trkpt lat="43.32326" lon="5.72227">
        <ele>711.4</ele>
        <time>2022-10-16T08:25:47.000Z</time>
      </trkpt>
      <trkpt lat="43.32321" lon="5.72239">
        <ele>710.9</ele>
        <time>2022-10-16T08:25:56.000Z</time>
      </trkpt>
      <trkpt lat="43.32316" lon="5.72251">
        <ele>710.8</ele>
        <time>2022-10-16T08:26:05.000Z</time>
      </trkpt>
      <trkpt lat="43.32313" lon="5.72264">
        <ele>710.1</ele>
        <time>2022-10-16T08:26:13.000Z</time>
      </trkpt>
      <trkpt lat="43.32313" lon="5.72277">
        <ele>709.3</ele>
        <time>2022-10-16T08:26:22.000Z</time>
      </trkpt>
      <trkpt lat="43.32313" lon="5.72291">
        <ele>708.6</ele>
        <time>2022-10-16T08:26:29.000Z</time>
      </trkpt>
      <trkpt lat="43.32311" lon="5.72303">
        <ele>707.8</ele>
        <time>2022-10-16T08:26:37.000Z</time>
      </trkpt>
      <trkpt lat="43.32309" lon="5.72316">
        <ele>707.3</ele>
        <time>2022-10-16T08:26:46.000Z</time>
      </trkpt>
      <trkpt lat="43.32307" lon="5.72328">
        <ele>706.9</ele>
        <time>2022-10-16T08:26:54.000Z</time>
      </trkpt>
      <trkpt lat="43.3231" lon="5.72341">
        <ele>706.3</ele>
        <time>2022-10-16T08:27:04.000Z</time>
      </trkpt>
      <trkpt lat="43.32312" lon="5.72354">
        <ele>706.4</ele>
        <time>2022-10-16T08:27:10.000Z</time>
      </trkpt>
      <trkpt lat="43.32317" lon="5.72367">
        <ele>706.4</ele>
        <time>2022-10-16T08:27:18.000Z</time>
      </trkpt>
      <trkpt lat="43.32322" lon="5.72378">
        <ele>706.4</ele>
        <time>2022-10-16T08:27:24.000Z</time>
      </trkpt>
      <trkpt lat="43.32327" lon="5.7239">
        <ele>706.4</ele>
        <time>2022-10-16T08:27:31.000Z</time>
      </trkpt>
      <trkpt lat="43.32331" lon="5.72402">
        <ele>706.9</ele>
        <time>2022-10-16T08:27:40.000Z</time>
      </trkpt>
      <trkpt lat="43.32337" lon="5.72412">
        <ele>707.3</ele>
        <time>2022-10-16T08:27:51.000Z</time>
      </trkpt>
      <trkpt lat="43.32342" lon="5.72423">
        <ele>707.3</ele>
        <time>2022-10-16T08:27:59.000Z</time>
      </trkpt>
      <trkpt lat="43.32341" lon="5.72436">
        <ele>707.1</ele>
        <time>2022-10-16T08:28:09.000Z</time>
      </trkpt>
      <trkpt lat="43.32343" lon="5.7245">
        <ele>707.1</ele>
        <time>2022-10-16T08:28:17.000Z</time>
      </trkpt>
      <trkpt lat="43.32344" lon="5.72464">
        <ele>707.7</ele>
        <time>2022-10-16T08:28:27.000Z</time>
      </trkpt>
      <trkpt lat="43.32348" lon="5.72475">
        <ele>707.6</ele>
        <time>2022-10-16T08:28:35.000Z</time>
      </trkpt>
      <trkpt lat="43.32351" lon="5.72487">
        <ele>707.9</ele>
        <time>2022-10-16T08:28:45.000Z</time>
      </trkpt>
      <trkpt lat="43.32352" lon="5.72502">
        <ele>707.5</ele>
        <time>2022-10-16T08:28:54.000Z</time>
      </trkpt>
      <trkpt lat="43.32349" lon="5.72515">
        <ele>707.3</ele>
        <time>2022-10-16T08:29:06.000Z</time>
      </trkpt>
      <trkpt lat="43.32347" lon="5.72527">
        <ele>707</ele>
        <time>2022-10-16T08:29:18.000Z</time>
      </trkpt>
      <trkpt lat="43.32351" lon="5.72538">
        <ele>706.7</ele>
        <time>2022-10-16T08:29:30.000Z</time>
      </trkpt>
      <trkpt lat="43.32352" lon="5.72552">
        <ele>706.2</ele>
        <time>2022-10-16T08:29:39.000Z</time>
      </trkpt>
      <trkpt lat="43.32353" lon="5.72565">
        <ele>706.5</ele>
        <time>2022-10-16T08:29:45.000Z</time>
      </trkpt>
      <trkpt lat="43.32352" lon="5.72577">
        <ele>706.5</ele>
        <time>2022-10-16T08:29:59.000Z</time>
      </trkpt>
      <trkpt lat="43.32352" lon="5.7259">
        <ele>706.7</ele>
        <time>2022-10-16T08:30:06.000Z</time>
      </trkpt>
      <trkpt lat="43.32357" lon="5.72602">
        <ele>707</ele>
        <time>2022-10-16T08:30:14.000Z</time>
      </trkpt>
      <trkpt lat="43.3236" lon="5.72614">
        <ele>707.2</ele>
        <time>2022-10-16T08:30:25.000Z</time>
      </trkpt>
      <trkpt lat="43.32358" lon="5.72627">
        <ele>707.7</ele>
        <time>2022-10-16T08:30:34.000Z</time>
      </trkpt>
      <trkpt lat="43.32357" lon="5.7264">
        <ele>707.6</ele>
        <time>2022-10-16T08:30:43.000Z</time>
      </trkpt>
      <trkpt lat="43.32356" lon="5.72653">
        <ele>707.7</ele>
        <time>2022-10-16T08:30:52.000Z</time>
      </trkpt>
      <trkpt lat="43.32357" lon="5.72667">
        <ele>707.8</ele>
        <time>2022-10-16T08:31:01.000Z</time>
      </trkpt>
      <trkpt lat="43.3236" lon="5.7268">
        <ele>707.8</ele>
        <time>2022-10-16T08:31:11.000Z</time>
      </trkpt>
      <trkpt lat="43.32362" lon="5.72692">
        <ele>707.9</ele>
        <time>2022-10-16T08:31:17.000Z</time>
      </trkpt>
      <trkpt lat="43.32366" lon="5.72704">
        <ele>708.1</ele>
        <time>2022-10-16T08:31:24.000Z</time>
      </trkpt>
      <trkpt lat="43.32368" lon="5.72717">
        <ele>706.9</ele>
        <time>2022-10-16T08:31:30.000Z</time>
      </trkpt>
      <trkpt lat="43.32369" lon="5.7273">
        <ele>706.7</ele>
        <time>2022-10-16T08:31:37.000Z</time>
      </trkpt>
      <trkpt lat="43.32371" lon="5.72742">
        <ele>705.9</ele>
        <time>2022-10-16T08:31:48.000Z</time>
      </trkpt>
      <trkpt lat="43.32366" lon="5.72752">
        <ele>705.1</ele>
        <time>2022-10-16T08:32:00.000Z</time>
      </trkpt>
      <trkpt lat="43.32363" lon="5.72766">
        <ele>703.9</ele>
        <time>2022-10-16T08:32:09.000Z</time>
      </trkpt>
      <trkpt lat="43.32361" lon="5.72779">
        <ele>703.7</ele>
        <time>2022-10-16T08:32:17.000Z</time>
      </trkpt>
      <trkpt lat="43.32358" lon="5.72791">
        <ele>703.4</ele>
        <time>2022-10-16T08:32:24.000Z</time>
      </trkpt>
      <trkpt lat="43.32361" lon="5.72803">
        <ele>703.1</ele>
        <time>2022-10-16T08:32:32.000Z</time>
      </trkpt>
      <trkpt lat="43.32364" lon="5.72816">
        <ele>702.9</ele>
        <time>2022-10-16T08:32:41.000Z</time>
      </trkpt>
      <trkpt lat="43.32366" lon="5.72829">
        <ele>702.5</ele>
        <time>2022-10-16T08:32:50.000Z</time>
      </trkpt>
      <trkpt lat="43.32368" lon="5.72842">
        <ele>702.5</ele>
        <time>2022-10-16T08:32:59.000Z</time>
      </trkpt>
      <trkpt lat="43.32371" lon="5.72855">
        <ele>702.5</ele>
        <time>2022-10-16T08:33:07.000Z</time>
      </trkpt>
      <trkpt lat="43.32373" lon="5.72868">
        <ele>702.5</ele>
        <time>2022-10-16T08:33:15.000Z</time>
      </trkpt>
      <trkpt lat="43.32371" lon="5.72881">
        <ele>701.9</ele>
        <time>2022-10-16T08:33:25.000Z</time>
      </trkpt>
      <trkpt lat="43.32372" lon="5.72893">
        <ele>701.9</ele>
        <time>2022-10-16T08:33:35.000Z</time>
      </trkpt>
      <trkpt lat="43.32369" lon="5.72905">
        <ele>701.3</ele>
        <time>2022-10-16T08:33:45.000Z</time>
      </trkpt>
      <trkpt lat="43.32368" lon="5.7292">
        <ele>701.3</ele>
        <time>2022-10-16T08:33:53.000Z</time>
      </trkpt>
      <trkpt lat="43.32369" lon="5.72933">
        <ele>700.8</ele>
        <time>2022-10-16T08:34:02.000Z</time>
      </trkpt>
      <trkpt lat="43.32372" lon="5.72946">
        <ele>700.1</ele>
        <time>2022-10-16T08:34:09.000Z</time>
      </trkpt>
      <trkpt lat="43.32375" lon="5.72958">
        <ele>699.7</ele>
        <time>2022-10-16T08:34:17.000Z</time>
      </trkpt>
      <trkpt lat="43.32378" lon="5.72971">
        <ele>699.2</ele>
        <time>2022-10-16T08:34:23.000Z</time>
      </trkpt>
      <trkpt lat="43.32379" lon="5.72986">
        <ele>698.6</ele>
        <time>2022-10-16T08:34:30.000Z</time>
      </trkpt>
      <trkpt lat="43.32383" lon="5.72999">
        <ele>698.2</ele>
        <time>2022-10-16T08:34:38.000Z</time>
      </trkpt>
      <trkpt lat="43.32382" lon="5.73011">
        <ele>697.5</ele>
        <time>2022-10-16T08:34:47.000Z</time>
      </trkpt>
      <trkpt lat="43.32381" lon="5.73025">
        <ele>697.3</ele>
        <time>2022-10-16T08:34:56.000Z</time>
      </trkpt>
      <trkpt lat="43.32382" lon="5.73039">
        <ele>697.3</ele>
        <time>2022-10-16T08:35:03.000Z</time>
      </trkpt>
      <trkpt lat="43.32383" lon="5.73052">
        <ele>697.2</ele>
        <time>2022-10-16T08:35:12.000Z</time>
      </trkpt>
      <trkpt lat="43.32384" lon="5.73065">
        <ele>696.8</ele>
        <time>2022-10-16T08:35:20.000Z</time>
      </trkpt>
      <trkpt lat="43.32386" lon="5.73078">
        <ele>696.6</ele>
        <time>2022-10-16T08:35:30.000Z</time>
      </trkpt>
      <trkpt lat="43.32385" lon="5.73091">
        <ele>696.2</ele>
        <time>2022-10-16T08:35:39.000Z</time>
      </trkpt>
      <trkpt lat="43.32386" lon="5.73105">
        <ele>695.7</ele>
        <time>2022-10-16T08:35:47.000Z</time>
      </trkpt>
      <trkpt lat="43.32386" lon="5.73118">
        <ele>695.5</ele>
        <time>2022-10-16T08:35:56.000Z</time>
      </trkpt>
      <trkpt lat="43.32387" lon="5.73131">
        <ele>694.6</ele>
        <time>2022-10-16T08:36:05.000Z</time>
      </trkpt>
      <trkpt lat="43.32388" lon="5.73145">
        <ele>694.3</ele>
        <time>2022-10-16T08:36:15.000Z</time>
      </trkpt>
      <trkpt lat="43.32388" lon="5.73158">
        <ele>693.5</ele>
        <time>2022-10-16T08:36:22.000Z</time>
      </trkpt>
      <trkpt lat="43.32389" lon="5.73172">
        <ele>693.4</ele>
        <time>2022-10-16T08:36:30.000Z</time>
      </trkpt>
      <trkpt lat="43.32391" lon="5.73185">
        <ele>693.2</ele>
        <time>2022-10-16T08:36:40.000Z</time>
      </trkpt>
      <trkpt lat="43.32392" lon="5.73187">
        <ele>692.9</ele>
        <time>2022-10-16T08:36:44.000Z</time>
      </trkpt>
      <trkpt lat="43.32392" lon="5.73188">
        <ele>692.9</ele>
        <time>2022-10-16T08:36:46.000Z</time>
      </trkpt>
      <trkpt lat="43.3239" lon="5.732">
        <ele>692.6</ele>
        <time>2022-10-16T08:36:58.000Z</time>
      </trkpt>
      <trkpt lat="43.32388" lon="5.73212">
        <ele>692.3</ele>
        <time>2022-10-16T08:37:05.000Z</time>
      </trkpt>
      <trkpt lat="43.32391" lon="5.73224">
        <ele>692.2</ele>
        <time>2022-10-16T08:37:11.000Z</time>
      </trkpt>
      <trkpt lat="43.32394" lon="5.73236">
        <ele>691.7</ele>
        <time>2022-10-16T08:37:17.000Z</time>
      </trkpt>
      <trkpt lat="43.32387" lon="5.73245">
        <ele>690.5</ele>
        <time>2022-10-16T08:37:28.000Z</time>
      </trkpt>
      <trkpt lat="43.32381" lon="5.73256">
        <ele>689.8</ele>
        <time>2022-10-16T08:37:36.000Z</time>
      </trkpt>
      <trkpt lat="43.32374" lon="5.73266">
        <ele>689.3</ele>
        <time>2022-10-16T08:37:45.000Z</time>
      </trkpt>
      <trkpt lat="43.3237" lon="5.73278">
        <ele>688.9</ele>
        <time>2022-10-16T08:37:56.000Z</time>
      </trkpt>
      <trkpt lat="43.32365" lon="5.73288">
        <ele>688.9</ele>
        <time>2022-10-16T08:38:04.000Z</time>
      </trkpt>
      <trkpt lat="43.32359" lon="5.733">
        <ele>688.7</ele>
        <time>2022-10-16T08:38:12.000Z</time>
      </trkpt>
      <trkpt lat="43.32362" lon="5.73304">
        <ele>688.3</ele>
        <time>2022-10-16T08:38:22.000Z</time>
      </trkpt>
      <trkpt lat="43.32361" lon="5.73303">
        <ele>688.4</ele>
        <time>2022-10-16T08:38:24.000Z</time>
      </trkpt>
      <trkpt lat="43.32361" lon="5.73303">
        <ele>688.5</ele>
        <time>2022-10-16T08:38:25.000Z</time>
      </trkpt>
      <trkpt lat="43.32362" lon="5.73303">
        <ele>688.5</ele>
        <time>2022-10-16T08:38:26.000Z</time>
      </trkpt>
      <trkpt lat="43.32361" lon="5.73302">
        <ele>688.8</ele>
        <time>2022-10-16T08:38:30.000Z</time>
      </trkpt>
      <trkpt lat="43.32361" lon="5.73302">
        <ele>688.7</ele>
        <time>2022-10-16T08:38:31.000Z</time>
      </trkpt>
      <trkpt lat="43.32361" lon="5.73302">
        <ele>688.6</ele>
        <time>2022-10-16T08:38:32.000Z</time>
      </trkpt>
      <trkpt lat="43.32361" lon="5.73302">
        <ele>688.3</ele>
        <time>2022-10-16T08:38:33.000Z</time>
      </trkpt>
      <trkpt lat="43.32363" lon="5.73308">
        <ele>688.7</ele>
        <time>2022-10-16T08:38:44.000Z</time>
      </trkpt>
      <trkpt lat="43.32363" lon="5.73308">
        <ele>688.8</ele>
        <time>2022-10-16T08:38:50.000Z</time>
      </trkpt>
      <trkpt lat="43.32362" lon="5.73309">
        <ele>688.4</ele>
        <time>2022-10-16T08:38:54.000Z</time>
      </trkpt>
      <trkpt lat="43.32362" lon="5.7331">
        <ele>688.2</ele>
        <time>2022-10-16T08:39:01.000Z</time>
      </trkpt>
      <trkpt lat="43.32362" lon="5.73312">
        <ele>688.5</ele>
        <time>2022-10-16T08:39:05.000Z</time>
      </trkpt>
      <trkpt lat="43.32362" lon="5.73312">
        <ele>688.5</ele>
        <time>2022-10-16T08:39:08.000Z</time>
      </trkpt>
      <trkpt lat="43.32362" lon="5.73312">
        <ele>688.3</ele>
        <time>2022-10-16T08:39:10.000Z</time>
      </trkpt>
      <trkpt lat="43.32362" lon="5.73312">
        <ele>688.6</ele>
        <time>2022-10-16T08:39:31.000Z</time>
      </trkpt>
      <trkpt lat="43.32362" lon="5.73312">
        <ele>688.6</ele>
        <time>2022-10-16T08:39:32.000Z</time>
      </trkpt>
      <trkpt lat="43.32363" lon="5.73312">
        <ele>688.4</ele>
        <time>2022-10-16T08:39:39.000Z</time>
      </trkpt>
      <trkpt lat="43.32363" lon="5.73313">
        <ele>688</ele>
        <time>2022-10-16T08:39:42.000Z</time>
      </trkpt>
      <trkpt lat="43.32363" lon="5.73313">
        <ele>688</ele>
        <time>2022-10-16T08:39:48.000Z</time>
      </trkpt>
      <trkpt lat="43.32363" lon="5.73313">
        <ele>688</ele>
        <time>2022-10-16T08:39:49.000Z</time>
      </trkpt>
      <trkpt lat="43.32364" lon="5.73313">
        <ele>688.1</ele>
        <time>2022-10-16T08:40:20.000Z</time>
      </trkpt>
      <trkpt lat="43.32364" lon="5.73313">
        <ele>688</ele>
        <time>2022-10-16T08:40:21.000Z</time>
      </trkpt>
      <trkpt lat="43.32363" lon="5.73313">
        <ele>687.9</ele>
        <time>2022-10-16T08:40:23.000Z</time>
      </trkpt>
      <trkpt lat="43.32363" lon="5.73313">
        <ele>687.9</ele>
        <time>2022-10-16T08:40:24.000Z</time>
      </trkpt>
      <trkpt lat="43.32363" lon="5.73314">
        <ele>688.1</ele>
        <time>2022-10-16T08:41:38.000Z</time>
      </trkpt>
      <trkpt lat="43.32363" lon="5.73314">
        <ele>688.2</ele>
        <time>2022-10-16T08:41:41.000Z</time>
      </trkpt>
      <trkpt lat="43.32363" lon="5.73315">
        <ele>688.1</ele>
        <time>2022-10-16T08:41:42.000Z</time>
      </trkpt>
      <trkpt lat="43.32363" lon="5.73315">
        <ele>688.1</ele>
        <time>2022-10-16T08:41:43.000Z</time>
      </trkpt>
      <trkpt lat="43.32363" lon="5.73315">
        <ele>687.9</ele>
        <time>2022-10-16T08:43:06.000Z</time>
      </trkpt>
      <trkpt lat="43.32363" lon="5.73316">
        <ele>687.9</ele>
        <time>2022-10-16T08:43:07.000Z</time>
      </trkpt>
      <trkpt lat="43.32363" lon="5.73316">
        <ele>687.9</ele>
        <time>2022-10-16T08:43:08.000Z</time>
      </trkpt>
      <trkpt lat="43.32363" lon="5.73315">
        <ele>687.8</ele>
        <time>2022-10-16T08:43:12.000Z</time>
      </trkpt>
      <trkpt lat="43.32364" lon="5.73315">
        <ele>687.7</ele>
        <time>2022-10-16T08:43:18.000Z</time>
      </trkpt>
      <trkpt lat="43.32364" lon="5.73316">
        <ele>687.9</ele>
        <time>2022-10-16T08:43:21.000Z</time>
      </trkpt>
      <trkpt lat="43.32364" lon="5.73315">
        <ele>687.5</ele>
        <time>2022-10-16T08:43:25.000Z</time>
      </trkpt>
      <trkpt lat="43.32364" lon="5.73315">
        <ele>687.9</ele>
        <time>2022-10-16T08:43:27.000Z</time>
      </trkpt>
      <trkpt lat="43.32364" lon="5.73315">
        <ele>688</ele>
        <time>2022-10-16T08:43:28.000Z</time>
      </trkpt>
      <trkpt lat="43.32364" lon="5.73315">
        <ele>687.9</ele>
        <time>2022-10-16T08:43:29.000Z</time>
      </trkpt>
      <trkpt lat="43.32364" lon="5.73315">
        <ele>687.8</ele>
        <time>2022-10-16T08:43:30.000Z</time>
      </trkpt>
      <trkpt lat="43.32364" lon="5.73315">
        <ele>687.7</ele>
        <time>2022-10-16T08:43:31.000Z</time>
      </trkpt>
      <trkpt lat="43.32364" lon="5.73315">
        <ele>688.2</ele>
        <time>2022-10-16T08:44:02.000Z</time>
      </trkpt>
      <trkpt lat="43.32364" lon="5.73315">
        <ele>688.1</ele>
        <time>2022-10-16T08:44:03.000Z</time>
      </trkpt>
      <trkpt lat="43.32364" lon="5.73315">
        <ele>687.8</ele>
        <time>2022-10-16T08:44:27.000Z</time>
      </trkpt>
      <trkpt lat="43.32357" lon="5.73313">
        <ele>688</ele>
        <time>2022-10-16T08:44:43.000Z</time>
      </trkpt>
      <trkpt lat="43.32357" lon="5.73313">
        <ele>687.8</ele>
        <time>2022-10-16T08:44:49.000Z</time>
      </trkpt>
      <trkpt lat="43.32348" lon="5.73315">
        <ele>689.4</ele>
        <time>2022-10-16T08:45:14.000Z</time>
      </trkpt>
      <trkpt lat="43.32339" lon="5.73317">
        <ele>690.6</ele>
        <time>2022-10-16T08:45:24.000Z</time>
      </trkpt>
      <trkpt lat="43.32331" lon="5.73325">
        <ele>691.3</ele>
        <time>2022-10-16T08:45:32.000Z</time>
      </trkpt>
      <trkpt lat="43.32325" lon="5.73335">
        <ele>691.7</ele>
        <time>2022-10-16T08:45:42.000Z</time>
      </trkpt>
      <trkpt lat="43.32318" lon="5.73343">
        <ele>692.2</ele>
        <time>2022-10-16T08:45:52.000Z</time>
      </trkpt>
      <trkpt lat="43.32313" lon="5.73354">
        <ele>693.3</ele>
        <time>2022-10-16T08:46:04.000Z</time>
      </trkpt>
      <trkpt lat="43.32308" lon="5.73365">
        <ele>693.9</ele>
        <time>2022-10-16T08:46:13.000Z</time>
      </trkpt>
      <trkpt lat="43.32303" lon="5.73377">
        <ele>695.3</ele>
        <time>2022-10-16T08:46:24.000Z</time>
      </trkpt>
      <trkpt lat="43.32298" lon="5.73387">
        <ele>696.8</ele>
        <time>2022-10-16T08:46:43.000Z</time>
      </trkpt>
      <trkpt lat="43.32298" lon="5.73388">
        <ele>696.8</ele>
        <time>2022-10-16T08:46:46.000Z</time>
      </trkpt>
      <trkpt lat="43.32298" lon="5.73389">
        <ele>697</ele>
        <time>2022-10-16T08:46:47.000Z</time>
      </trkpt>
      <trkpt lat="43.32293" lon="5.73395">
        <ele>698.6</ele>
        <time>2022-10-16T08:47:01.000Z</time>
      </trkpt>
      <trkpt lat="43.32293" lon="5.73395">
        <ele>699.1</ele>
        <time>2022-10-16T08:47:03.000Z</time>
      </trkpt>
      <trkpt lat="43.32286" lon="5.73403">
        <ele>701</ele>
        <time>2022-10-16T08:47:22.000Z</time>
      </trkpt>
      <trkpt lat="43.32287" lon="5.73404">
        <ele>701.3</ele>
        <time>2022-10-16T08:47:23.000Z</time>
      </trkpt>
      <trkpt lat="43.32279" lon="5.73406">
        <ele>701.7</ele>
        <time>2022-10-16T08:47:30.000Z</time>
      </trkpt>
      <trkpt lat="43.32279" lon="5.73407">
        <ele>701.6</ele>
        <time>2022-10-16T08:47:32.000Z</time>
      </trkpt>
      <trkpt lat="43.32271" lon="5.73414">
        <ele>703.1</ele>
        <time>2022-10-16T08:47:44.000Z</time>
      </trkpt>
      <trkpt lat="43.32275" lon="5.73427">
        <ele>704.9</ele>
        <time>2022-10-16T08:47:59.000Z</time>
      </trkpt>
      <trkpt lat="43.32276" lon="5.73433">
        <ele>707.3</ele>
        <time>2022-10-16T08:48:17.000Z</time>
      </trkpt>
      <trkpt lat="43.32277" lon="5.73434">
        <ele>707.4</ele>
        <time>2022-10-16T08:48:18.000Z</time>
      </trkpt>
      <trkpt lat="43.32279" lon="5.73434">
        <ele>708.3</ele>
        <time>2022-10-16T08:48:24.000Z</time>
      </trkpt>
      <trkpt lat="43.32279" lon="5.73434">
        <ele>708.4</ele>
        <time>2022-10-16T08:48:25.000Z</time>
      </trkpt>
      <trkpt lat="43.32278" lon="5.73442">
        <ele>711.5</ele>
        <time>2022-10-16T08:48:45.000Z</time>
      </trkpt>
      <trkpt lat="43.32278" lon="5.73442">
        <ele>711.8</ele>
        <time>2022-10-16T08:48:47.000Z</time>
      </trkpt>
      <trkpt lat="43.32279" lon="5.73446">
        <ele>713.3</ele>
        <time>2022-10-16T08:48:55.000Z</time>
      </trkpt>
      <trkpt lat="43.32279" lon="5.73446">
        <ele>713</ele>
        <time>2022-10-16T08:49:01.000Z</time>
      </trkpt>
      <trkpt lat="43.32279" lon="5.73446">
        <ele>713</ele>
        <time>2022-10-16T08:49:02.000Z</time>
      </trkpt>
      <trkpt lat="43.32279" lon="5.73446">
        <ele>713.6</ele>
        <time>2022-10-16T08:49:14.000Z</time>
      </trkpt>
      <trkpt lat="43.32283" lon="5.73456">
        <ele>715.2</ele>
        <time>2022-10-16T08:49:27.000Z</time>
      </trkpt>
      <trkpt lat="43.32283" lon="5.73455">
        <ele>715.5</ele>
        <time>2022-10-16T08:49:28.000Z</time>
      </trkpt>
      <trkpt lat="43.32283" lon="5.73468">
        <ele>718.2</ele>
        <time>2022-10-16T08:49:49.000Z</time>
      </trkpt>
      <trkpt lat="43.32283" lon="5.73477">
        <ele>719.7</ele>
        <time>2022-10-16T08:50:02.000Z</time>
      </trkpt>
      <trkpt lat="43.32283" lon="5.73476">
        <ele>719.9</ele>
        <time>2022-10-16T08:50:03.000Z</time>
      </trkpt>
      <trkpt lat="43.32283" lon="5.73477">
        <ele>720.1</ele>
        <time>2022-10-16T08:50:05.000Z</time>
      </trkpt>
      <trkpt lat="43.32283" lon="5.73476">
        <ele>720.3</ele>
        <time>2022-10-16T08:50:06.000Z</time>
      </trkpt>
      <trkpt lat="43.32283" lon="5.73477">
        <ele>720.6</ele>
        <time>2022-10-16T08:50:08.000Z</time>
      </trkpt>
      <trkpt lat="43.32283" lon="5.73477">
        <ele>720.5</ele>
        <time>2022-10-16T08:50:09.000Z</time>
      </trkpt>
      <trkpt lat="43.32283" lon="5.73476">
        <ele>720.8</ele>
        <time>2022-10-16T08:50:11.000Z</time>
      </trkpt>
      <trkpt lat="43.32283" lon="5.73478">
        <ele>721</ele>
        <time>2022-10-16T08:50:12.000Z</time>
      </trkpt>
      <trkpt lat="43.32282" lon="5.73487">
        <ele>723.3</ele>
        <time>2022-10-16T08:50:32.000Z</time>
      </trkpt>
      <trkpt lat="43.32282" lon="5.73487">
        <ele>723.2</ele>
        <time>2022-10-16T08:50:33.000Z</time>
      </trkpt>
      <trkpt lat="43.32284" lon="5.73496">
        <ele>724.9</ele>
        <time>2022-10-16T08:50:48.000Z</time>
      </trkpt>
      <trkpt lat="43.32284" lon="5.73497">
        <ele>724.9</ele>
        <time>2022-10-16T08:50:49.000Z</time>
      </trkpt>
      <trkpt lat="43.32291" lon="5.73505">
        <ele>727</ele>
        <time>2022-10-16T08:51:05.000Z</time>
      </trkpt>
      <trkpt lat="43.32293" lon="5.73505">
        <ele>727.1</ele>
        <time>2022-10-16T08:51:10.000Z</time>
      </trkpt>
      <trkpt lat="43.32293" lon="5.73505">
        <ele>727.2</ele>
        <time>2022-10-16T08:51:11.000Z</time>
      </trkpt>
      <trkpt lat="43.323" lon="5.73512">
        <ele>729.7</ele>
        <time>2022-10-16T08:51:29.000Z</time>
      </trkpt>
      <trkpt lat="43.323" lon="5.73512">
        <ele>729.7</ele>
        <time>2022-10-16T08:51:30.000Z</time>
      </trkpt>
      <trkpt lat="43.32305" lon="5.73516">
        <ele>731.6</ele>
        <time>2022-10-16T08:51:44.000Z</time>
      </trkpt>
      <trkpt lat="43.32305" lon="5.73516">
        <ele>731.6</ele>
        <time>2022-10-16T08:51:45.000Z</time>
      </trkpt>
      <trkpt lat="43.32305" lon="5.73516">
        <ele>731.8</ele>
        <time>2022-10-16T08:51:46.000Z</time>
      </trkpt>
      <trkpt lat="43.32305" lon="5.73516">
        <ele>731.8</ele>
        <time>2022-10-16T08:51:47.000Z</time>
      </trkpt>
      <trkpt lat="43.32315" lon="5.73516">
        <ele>733.7</ele>
        <time>2022-10-16T08:52:05.000Z</time>
      </trkpt>
      <trkpt lat="43.32315" lon="5.73517">
        <ele>733.8</ele>
        <time>2022-10-16T08:52:06.000Z</time>
      </trkpt>
      <trkpt lat="43.32315" lon="5.73517">
        <ele>734.1</ele>
        <time>2022-10-16T08:52:10.000Z</time>
      </trkpt>
      <trkpt lat="43.32314" lon="5.73517">
        <ele>734.3</ele>
        <time>2022-10-16T08:52:12.000Z</time>
      </trkpt>
      <trkpt lat="43.32314" lon="5.73517">
        <ele>734.2</ele>
        <time>2022-10-16T08:52:14.000Z</time>
      </trkpt>
      <trkpt lat="43.32317" lon="5.73524">
        <ele>735.7</ele>
        <time>2022-10-16T08:52:29.000Z</time>
      </trkpt>
      <trkpt lat="43.32317" lon="5.73524">
        <ele>735.6</ele>
        <time>2022-10-16T08:52:30.000Z</time>
      </trkpt>
      <trkpt lat="43.32322" lon="5.73528">
        <ele>736.7</ele>
        <time>2022-10-16T08:52:43.000Z</time>
      </trkpt>
      <trkpt lat="43.32322" lon="5.73528">
        <ele>736.9</ele>
        <time>2022-10-16T08:52:45.000Z</time>
      </trkpt>
      <trkpt lat="43.32329" lon="5.73535">
        <ele>738.9</ele>
        <time>2022-10-16T08:53:01.000Z</time>
      </trkpt>
      <trkpt lat="43.32337" lon="5.73543">
        <ele>741.3</ele>
        <time>2022-10-16T08:53:20.000Z</time>
      </trkpt>
      <trkpt lat="43.32343" lon="5.73552">
        <ele>743.5</ele>
        <time>2022-10-16T08:53:42.000Z</time>
      </trkpt>
      <trkpt lat="43.32343" lon="5.73554">
        <ele>744</ele>
        <time>2022-10-16T08:53:46.000Z</time>
      </trkpt>
      <trkpt lat="43.32343" lon="5.73555">
        <ele>743.9</ele>
        <time>2022-10-16T08:53:47.000Z</time>
      </trkpt>
      <trkpt lat="43.32346" lon="5.73559">
        <ele>744.8</ele>
        <time>2022-10-16T08:54:01.000Z</time>
      </trkpt>
      <trkpt lat="43.32347" lon="5.73559">
        <ele>744.8</ele>
        <time>2022-10-16T08:54:08.000Z</time>
      </trkpt>
      <trkpt lat="43.32347" lon="5.73558">
        <ele>745</ele>
        <time>2022-10-16T08:54:11.000Z</time>
      </trkpt>
      <trkpt lat="43.32347" lon="5.73558">
        <ele>745.1</ele>
        <time>2022-10-16T08:54:15.000Z</time>
      </trkpt>
      <trkpt lat="43.32349" lon="5.73558">
        <ele>745.2</ele>
        <time>2022-10-16T08:54:21.000Z</time>
      </trkpt>
      <trkpt lat="43.32349" lon="5.73558">
        <ele>745</ele>
        <time>2022-10-16T08:54:26.000Z</time>
      </trkpt>
      <trkpt lat="43.32349" lon="5.73558">
        <ele>745.3</ele>
        <time>2022-10-16T08:54:28.000Z</time>
      </trkpt>
      <trkpt lat="43.32349" lon="5.73558">
        <ele>745.3</ele>
        <time>2022-10-16T08:54:30.000Z</time>
      </trkpt>
      <trkpt lat="43.32349" lon="5.73558">
        <ele>745</ele>
        <time>2022-10-16T08:54:32.000Z</time>
      </trkpt>
      <trkpt lat="43.32349" lon="5.73559">
        <ele>745.3</ele>
        <time>2022-10-16T08:54:45.000Z</time>
      </trkpt>
      <trkpt lat="43.32351" lon="5.73562">
        <ele>745.3</ele>
        <time>2022-10-16T08:54:51.000Z</time>
      </trkpt>
      <trkpt lat="43.32351" lon="5.73562">
        <ele>745.2</ele>
        <time>2022-10-16T08:55:08.000Z</time>
      </trkpt>
      <trkpt lat="43.32352" lon="5.73561">
        <ele>745.3</ele>
        <time>2022-10-16T08:55:10.000Z</time>
      </trkpt>
      <trkpt lat="43.32352" lon="5.73561">
        <ele>745.2</ele>
        <time>2022-10-16T08:55:37.000Z</time>
      </trkpt>
      <trkpt lat="43.32352" lon="5.73561">
        <ele>745.3</ele>
        <time>2022-10-16T08:55:38.000Z</time>
      </trkpt>
      <trkpt lat="43.32352" lon="5.73561">
        <ele>745.2</ele>
        <time>2022-10-16T08:55:58.000Z</time>
      </trkpt>
      <trkpt lat="43.32352" lon="5.73561">
        <ele>745.3</ele>
        <time>2022-10-16T08:55:59.000Z</time>
      </trkpt>
      <trkpt lat="43.32352" lon="5.73561">
        <ele>745.6</ele>
        <time>2022-10-16T08:56:07.000Z</time>
      </trkpt>
      <trkpt lat="43.32352" lon="5.73561">
        <ele>745.5</ele>
        <time>2022-10-16T08:56:08.000Z</time>
      </trkpt>
      <trkpt lat="43.32352" lon="5.73561">
        <ele>745.2</ele>
        <time>2022-10-16T08:58:26.000Z</time>
      </trkpt>
      <trkpt lat="43.32352" lon="5.73561">
        <ele>745.2</ele>
        <time>2022-10-16T08:58:27.000Z</time>
      </trkpt>
      <trkpt lat="43.32352" lon="5.73561">
        <ele>745.2</ele>
        <time>2022-10-16T08:58:28.000Z</time>
      </trkpt>
      <trkpt lat="43.32352" lon="5.73561">
        <ele>745.2</ele>
        <time>2022-10-16T08:58:29.000Z</time>
      </trkpt>
      <trkpt lat="43.32352" lon="5.73562">
        <ele>745.3</ele>
        <time>2022-10-16T08:58:30.000Z</time>
      </trkpt>
      <trkpt lat="43.3235" lon="5.73565">
        <ele>745.8</ele>
        <time>2022-10-16T08:58:35.000Z</time>
      </trkpt>
      <trkpt lat="43.3235" lon="5.73565">
        <ele>746.1</ele>
        <time>2022-10-16T08:58:44.000Z</time>
      </trkpt>
      <trkpt lat="43.32353" lon="5.73578">
        <ele>747.2</ele>
        <time>2022-10-16T08:58:55.000Z</time>
      </trkpt>
      <trkpt lat="43.32354" lon="5.73582">
        <ele>747.4</ele>
        <time>2022-10-16T08:59:01.000Z</time>
      </trkpt>
      <trkpt lat="43.32354" lon="5.73582">
        <ele>747.6</ele>
        <time>2022-10-16T08:59:08.000Z</time>
      </trkpt>
      <trkpt lat="43.32355" lon="5.73582">
        <ele>747.3</ele>
        <time>2022-10-16T08:59:11.000Z</time>
      </trkpt>
      <trkpt lat="43.32355" lon="5.73582">
        <ele>747.3</ele>
        <time>2022-10-16T08:59:12.000Z</time>
      </trkpt>
      <trkpt lat="43.32355" lon="5.73582">
        <ele>747.1</ele>
        <time>2022-10-16T08:59:13.000Z</time>
      </trkpt>
      <trkpt lat="43.32355" lon="5.73583">
        <ele>747.2</ele>
        <time>2022-10-16T08:59:15.000Z</time>
      </trkpt>
      <trkpt lat="43.32355" lon="5.73583">
        <ele>747.2</ele>
        <time>2022-10-16T08:59:16.000Z</time>
      </trkpt>
      <trkpt lat="43.32356" lon="5.73583">
        <ele>747.3</ele>
        <time>2022-10-16T08:59:20.000Z</time>
      </trkpt>
      <trkpt lat="43.32356" lon="5.73596">
        <ele>747.4</ele>
        <time>2022-10-16T08:59:32.000Z</time>
      </trkpt>
      <trkpt lat="43.32354" lon="5.73599">
        <ele>747.4</ele>
        <time>2022-10-16T08:59:39.000Z</time>
      </trkpt>
      <trkpt lat="43.32354" lon="5.736">
        <ele>747.6</ele>
        <time>2022-10-16T08:59:40.000Z</time>
      </trkpt>
      <trkpt lat="43.32354" lon="5.736">
        <ele>747.9</ele>
        <time>2022-10-16T08:59:41.000Z</time>
      </trkpt>
      <trkpt lat="43.32354" lon="5.73599">
        <ele>748.2</ele>
        <time>2022-10-16T08:59:42.000Z</time>
      </trkpt>
      <trkpt lat="43.32344" lon="5.73595">
        <ele>749.9</ele>
        <time>2022-10-16T08:59:58.000Z</time>
      </trkpt>
      <trkpt lat="43.32343" lon="5.73595">
        <ele>750.9</ele>
        <time>2022-10-16T09:00:04.000Z</time>
      </trkpt>
      <trkpt lat="43.32342" lon="5.73595">
        <ele>751</ele>
        <time>2022-10-16T09:00:05.000Z</time>
      </trkpt>
      <trkpt lat="43.32335" lon="5.73589">
        <ele>752.3</ele>
        <time>2022-10-16T09:00:23.000Z</time>
      </trkpt>
      <trkpt lat="43.32335" lon="5.73589">
        <ele>752.4</ele>
        <time>2022-10-16T09:00:25.000Z</time>
      </trkpt>
      <trkpt lat="43.32334" lon="5.73589">
        <ele>752.6</ele>
        <time>2022-10-16T09:00:28.000Z</time>
      </trkpt>
      <trkpt lat="43.32333" lon="5.73589">
        <ele>752.8</ele>
        <time>2022-10-16T09:00:31.000Z</time>
      </trkpt>
      <trkpt lat="43.32332" lon="5.73589">
        <ele>753.4</ele>
        <time>2022-10-16T09:00:34.000Z</time>
      </trkpt>
      <trkpt lat="43.32332" lon="5.73588">
        <ele>753.6</ele>
        <time>2022-10-16T09:00:36.000Z</time>
      </trkpt>
      <trkpt lat="43.32332" lon="5.73588">
        <ele>754</ele>
        <time>2022-10-16T09:00:38.000Z</time>
      </trkpt>
      <trkpt lat="43.32332" lon="5.73588">
        <ele>753.9</ele>
        <time>2022-10-16T09:00:40.000Z</time>
      </trkpt>
      <trkpt lat="43.32332" lon="5.73588">
        <ele>754.3</ele>
        <time>2022-10-16T09:00:45.000Z</time>
      </trkpt>
      <trkpt lat="43.32332" lon="5.73588">
        <ele>754.2</ele>
        <time>2022-10-16T09:00:46.000Z</time>
      </trkpt>
      <trkpt lat="43.32332" lon="5.73588">
        <ele>754</ele>
        <time>2022-10-16T09:00:47.000Z</time>
      </trkpt>
      <trkpt lat="43.32332" lon="5.73588">
        <ele>753.5</ele>
        <time>2022-10-16T09:00:56.000Z</time>
      </trkpt>
      <trkpt lat="43.32332" lon="5.73588">
        <ele>753.5</ele>
        <time>2022-10-16T09:00:57.000Z</time>
      </trkpt>
      <trkpt lat="43.32332" lon="5.73588">
        <ele>753.8</ele>
        <time>2022-10-16T09:00:58.000Z</time>
      </trkpt>
      <trkpt lat="43.32333" lon="5.73588">
        <ele>753.7</ele>
        <time>2022-10-16T09:01:10.000Z</time>
      </trkpt>
      <trkpt lat="43.32333" lon="5.73589">
        <ele>753.9</ele>
        <time>2022-10-16T09:01:12.000Z</time>
      </trkpt>
      <trkpt lat="43.32333" lon="5.73589">
        <ele>753.9</ele>
        <time>2022-10-16T09:01:15.000Z</time>
      </trkpt>
      <trkpt lat="43.32332" lon="5.73589">
        <ele>754.2</ele>
        <time>2022-10-16T09:01:24.000Z</time>
      </trkpt>
      <trkpt lat="43.32332" lon="5.7359">
        <ele>754</ele>
        <time>2022-10-16T09:01:27.000Z</time>
      </trkpt>
      <trkpt lat="43.32332" lon="5.7359">
        <ele>754.3</ele>
        <time>2022-10-16T09:01:37.000Z</time>
      </trkpt>
      <trkpt lat="43.32329" lon="5.73588">
        <ele>755.2</ele>
        <time>2022-10-16T09:01:52.000Z</time>
      </trkpt>
      <trkpt lat="43.32329" lon="5.73588">
        <ele>755.2</ele>
        <time>2022-10-16T09:01:53.000Z</time>
      </trkpt>
      <trkpt lat="43.32329" lon="5.73588">
        <ele>755.1</ele>
        <time>2022-10-16T09:01:54.000Z</time>
      </trkpt>
      <trkpt lat="43.32329" lon="5.73588">
        <ele>755.3</ele>
        <time>2022-10-16T09:01:56.000Z</time>
      </trkpt>
      <trkpt lat="43.3232" lon="5.73592">
        <ele>759</ele>
        <time>2022-10-16T09:02:24.000Z</time>
      </trkpt>
      <trkpt lat="43.32319" lon="5.73593">
        <ele>759.2</ele>
        <time>2022-10-16T09:02:27.000Z</time>
      </trkpt>
      <trkpt lat="43.32319" lon="5.73593">
        <ele>759.4</ele>
        <time>2022-10-16T09:02:31.000Z</time>
      </trkpt>
      <trkpt lat="43.32313" lon="5.73602">
        <ele>760.8</ele>
        <time>2022-10-16T09:02:49.000Z</time>
      </trkpt>
      <trkpt lat="43.3231" lon="5.73614">
        <ele>762.6</ele>
        <time>2022-10-16T09:03:06.000Z</time>
      </trkpt>
      <trkpt lat="43.32312" lon="5.73627">
        <ele>765.4</ele>
        <time>2022-10-16T09:03:23.000Z</time>
      </trkpt>
      <trkpt lat="43.32312" lon="5.73629">
        <ele>765.8</ele>
        <time>2022-10-16T09:03:27.000Z</time>
      </trkpt>
      <trkpt lat="43.32311" lon="5.7363">
        <ele>766.1</ele>
        <time>2022-10-16T09:03:29.000Z</time>
      </trkpt>
      <trkpt lat="43.3231" lon="5.73642">
        <ele>768</ele>
        <time>2022-10-16T09:03:46.000Z</time>
      </trkpt>
      <trkpt lat="43.32308" lon="5.73654">
        <ele>769.7</ele>
        <time>2022-10-16T09:04:03.000Z</time>
      </trkpt>
      <trkpt lat="43.32308" lon="5.73655">
        <ele>769.7</ele>
        <time>2022-10-16T09:04:04.000Z</time>
      </trkpt>
      <trkpt lat="43.3231" lon="5.73667">
        <ele>771.3</ele>
        <time>2022-10-16T09:04:18.000Z</time>
      </trkpt>
      <trkpt lat="43.32311" lon="5.7368">
        <ele>772.6</ele>
        <time>2022-10-16T09:04:34.000Z</time>
      </trkpt>
      <trkpt lat="43.32313" lon="5.73692">
        <ele>774.4</ele>
        <time>2022-10-16T09:04:49.000Z</time>
      </trkpt>
      <trkpt lat="43.32314" lon="5.73702">
        <ele>776</ele>
        <time>2022-10-16T09:05:02.000Z</time>
      </trkpt>
      <trkpt lat="43.32314" lon="5.73702">
        <ele>776.3</ele>
        <time>2022-10-16T09:05:04.000Z</time>
      </trkpt>
      <trkpt lat="43.32314" lon="5.7371">
        <ele>778.2</ele>
        <time>2022-10-16T09:05:20.000Z</time>
      </trkpt>
      <trkpt lat="43.32314" lon="5.7371">
        <ele>778.1</ele>
        <time>2022-10-16T09:05:21.000Z</time>
      </trkpt>
      <trkpt lat="43.32315" lon="5.73723">
        <ele>780.3</ele>
        <time>2022-10-16T09:05:40.000Z</time>
      </trkpt>
      <trkpt lat="43.32315" lon="5.73724">
        <ele>780.7</ele>
        <time>2022-10-16T09:05:43.000Z</time>
      </trkpt>
      <trkpt lat="43.32315" lon="5.73724">
        <ele>780.7</ele>
        <time>2022-10-16T09:05:46.000Z</time>
      </trkpt>
      <trkpt lat="43.32316" lon="5.73726">
        <ele>780.4</ele>
        <time>2022-10-16T09:05:51.000Z</time>
      </trkpt>
      <trkpt lat="43.32316" lon="5.73726">
        <ele>780.4</ele>
        <time>2022-10-16T09:05:52.000Z</time>
      </trkpt>
      <trkpt lat="43.32316" lon="5.73726">
        <ele>780.5</ele>
        <time>2022-10-16T09:05:53.000Z</time>
      </trkpt>
      <trkpt lat="43.32316" lon="5.73726">
        <ele>780.7</ele>
        <time>2022-10-16T09:05:58.000Z</time>
      </trkpt>
      <trkpt lat="43.32316" lon="5.73726">
        <ele>780.6</ele>
        <time>2022-10-16T09:05:59.000Z</time>
      </trkpt>
      <trkpt lat="43.32316" lon="5.73726">
        <ele>780.5</ele>
        <time>2022-10-16T09:06:21.000Z</time>
      </trkpt>
      <trkpt lat="43.32316" lon="5.73726">
        <ele>780.4</ele>
        <time>2022-10-16T09:06:22.000Z</time>
      </trkpt>
      <trkpt lat="43.32316" lon="5.73726">
        <ele>780.9</ele>
        <time>2022-10-16T09:06:39.000Z</time>
      </trkpt>
      <trkpt lat="43.32316" lon="5.73726">
        <ele>781</ele>
        <time>2022-10-16T09:06:40.000Z</time>
      </trkpt>
      <trkpt lat="43.32317" lon="5.73726">
        <ele>781.1</ele>
        <time>2022-10-16T09:07:08.000Z</time>
      </trkpt>
      <trkpt lat="43.32317" lon="5.73726">
        <ele>781</ele>
        <time>2022-10-16T09:07:09.000Z</time>
      </trkpt>
      <trkpt lat="43.32317" lon="5.73727">
        <ele>780.7</ele>
        <time>2022-10-16T09:07:26.000Z</time>
      </trkpt>
      <trkpt lat="43.32317" lon="5.73727">
        <ele>781</ele>
        <time>2022-10-16T09:07:27.000Z</time>
      </trkpt>
      <trkpt lat="43.32317" lon="5.73727">
        <ele>781</ele>
        <time>2022-10-16T09:07:28.000Z</time>
      </trkpt>
      <trkpt lat="43.32317" lon="5.73727">
        <ele>781</ele>
        <time>2022-10-16T09:07:31.000Z</time>
      </trkpt>
      <trkpt lat="43.32318" lon="5.73727">
        <ele>781.2</ele>
        <time>2022-10-16T09:07:33.000Z</time>
      </trkpt>
      <trkpt lat="43.32311" lon="5.73736">
        <ele>782.7</ele>
        <time>2022-10-16T09:07:51.000Z</time>
      </trkpt>
      <trkpt lat="43.32312" lon="5.73749">
        <ele>784.5</ele>
        <time>2022-10-16T09:08:07.000Z</time>
      </trkpt>
      <trkpt lat="43.32303" lon="5.73752">
        <ele>786.8</ele>
        <time>2022-10-16T09:08:24.000Z</time>
      </trkpt>
      <trkpt lat="43.32301" lon="5.73757">
        <ele>787.8</ele>
        <time>2022-10-16T09:08:32.000Z</time>
      </trkpt>
      <trkpt lat="43.32301" lon="5.73756">
        <ele>788</ele>
        <time>2022-10-16T09:08:33.000Z</time>
      </trkpt>
      <trkpt lat="43.32297" lon="5.73768">
        <ele>791.2</ele>
        <time>2022-10-16T09:08:54.000Z</time>
      </trkpt>
      <trkpt lat="43.32291" lon="5.73777">
        <ele>794</ele>
        <time>2022-10-16T09:09:20.000Z</time>
      </trkpt>
      <trkpt lat="43.32289" lon="5.73778">
        <ele>795</ele>
        <time>2022-10-16T09:09:27.000Z</time>
      </trkpt>
      <trkpt lat="43.32289" lon="5.73779">
        <ele>795.1</ele>
        <time>2022-10-16T09:09:28.000Z</time>
      </trkpt>
      <trkpt lat="43.32285" lon="5.73788">
        <ele>798.3</ele>
        <time>2022-10-16T09:09:53.000Z</time>
      </trkpt>
      <trkpt lat="43.32285" lon="5.73789">
        <ele>798.7</ele>
        <time>2022-10-16T09:09:55.000Z</time>
      </trkpt>
      <trkpt lat="43.32281" lon="5.73801">
        <ele>801.4</ele>
        <time>2022-10-16T09:10:16.000Z</time>
      </trkpt>
      <trkpt lat="43.32276" lon="5.738">
        <ele>803.2</ele>
        <time>2022-10-16T09:10:33.000Z</time>
      </trkpt>
      <trkpt lat="43.32276" lon="5.738">
        <ele>803.3</ele>
        <time>2022-10-16T09:10:35.000Z</time>
      </trkpt>
      <trkpt lat="43.32276" lon="5.73799">
        <ele>803.3</ele>
        <time>2022-10-16T09:10:37.000Z</time>
      </trkpt>
      <trkpt lat="43.32275" lon="5.73799">
        <ele>803.4</ele>
        <time>2022-10-16T09:10:38.000Z</time>
      </trkpt>
      <trkpt lat="43.32274" lon="5.73799">
        <ele>803.8</ele>
        <time>2022-10-16T09:10:41.000Z</time>
      </trkpt>
      <trkpt lat="43.32274" lon="5.73799">
        <ele>804</ele>
        <time>2022-10-16T09:10:42.000Z</time>
      </trkpt>
      <trkpt lat="43.32265" lon="5.73799">
        <ele>806</ele>
        <time>2022-10-16T09:10:58.000Z</time>
      </trkpt>
      <trkpt lat="43.32255" lon="5.738">
        <ele>808.2</ele>
        <time>2022-10-16T09:11:20.000Z</time>
      </trkpt>
      <trkpt lat="43.32254" lon="5.73801">
        <ele>808.8</ele>
        <time>2022-10-16T09:11:24.000Z</time>
      </trkpt>
      <trkpt lat="43.32254" lon="5.73802">
        <ele>809.4</ele>
        <time>2022-10-16T09:11:26.000Z</time>
      </trkpt>
      <trkpt lat="43.32254" lon="5.73814">
        <ele>810.4</ele>
        <time>2022-10-16T09:11:36.000Z</time>
      </trkpt>
      <trkpt lat="43.32253" lon="5.73827">
        <ele>811.7</ele>
        <time>2022-10-16T09:11:52.000Z</time>
      </trkpt>
      <trkpt lat="43.32253" lon="5.73827">
        <ele>811.9</ele>
        <time>2022-10-16T09:11:54.000Z</time>
      </trkpt>
      <trkpt lat="43.32253" lon="5.73828">
        <ele>812.1</ele>
        <time>2022-10-16T09:11:56.000Z</time>
      </trkpt>
      <trkpt lat="43.32255" lon="5.73834">
        <ele>813.4</ele>
        <time>2022-10-16T09:12:08.000Z</time>
      </trkpt>
      <trkpt lat="43.32254" lon="5.73834">
        <ele>813.6</ele>
        <time>2022-10-16T09:12:09.000Z</time>
      </trkpt>
      <trkpt lat="43.32254" lon="5.73835">
        <ele>813.8</ele>
        <time>2022-10-16T09:12:11.000Z</time>
      </trkpt>
      <trkpt lat="43.32254" lon="5.73835">
        <ele>813.9</ele>
        <time>2022-10-16T09:12:12.000Z</time>
      </trkpt>
      <trkpt lat="43.32255" lon="5.73846">
        <ele>816</ele>
        <time>2022-10-16T09:12:25.000Z</time>
      </trkpt>
      <trkpt lat="43.32255" lon="5.73846">
        <ele>816.2</ele>
        <time>2022-10-16T09:12:26.000Z</time>
      </trkpt>
      <trkpt lat="43.32253" lon="5.73858">
        <ele>819.2</ele>
        <time>2022-10-16T09:12:50.000Z</time>
      </trkpt>
      <trkpt lat="43.32254" lon="5.73871">
        <ele>819.5</ele>
        <time>2022-10-16T09:13:04.000Z</time>
      </trkpt>
      <trkpt lat="43.32257" lon="5.73884">
        <ele>820.4</ele>
        <time>2022-10-16T09:13:17.000Z</time>
      </trkpt>
      <trkpt lat="43.32261" lon="5.73896">
        <ele>821.4</ele>
        <time>2022-10-16T09:13:33.000Z</time>
      </trkpt>
      <trkpt lat="43.32261" lon="5.73899">
        <ele>821.8</ele>
        <time>2022-10-16T09:13:39.000Z</time>
      </trkpt>
      <trkpt lat="43.32261" lon="5.73899">
        <ele>822.2</ele>
        <time>2022-10-16T09:13:43.000Z</time>
      </trkpt>
      <trkpt lat="43.32261" lon="5.73898">
        <ele>822.1</ele>
        <time>2022-10-16T09:13:45.000Z</time>
      </trkpt>
      <trkpt lat="43.32262" lon="5.73898">
        <ele>822</ele>
        <time>2022-10-16T09:13:46.000Z</time>
      </trkpt>
      <trkpt lat="43.32262" lon="5.73901">
        <ele>822.4</ele>
        <time>2022-10-16T09:13:54.000Z</time>
      </trkpt>
      <trkpt lat="43.32262" lon="5.73901">
        <ele>822.2</ele>
        <time>2022-10-16T09:13:55.000Z</time>
      </trkpt>
      <trkpt lat="43.32262" lon="5.73901">
        <ele>822.2</ele>
        <time>2022-10-16T09:13:56.000Z</time>
      </trkpt>
      <trkpt lat="43.32262" lon="5.73901">
        <ele>822.2</ele>
        <time>2022-10-16T09:13:58.000Z</time>
      </trkpt>
      <trkpt lat="43.32262" lon="5.73901">
        <ele>822.2</ele>
        <time>2022-10-16T09:13:59.000Z</time>
      </trkpt>
      <trkpt lat="43.32262" lon="5.73902">
        <ele>822</ele>
        <time>2022-10-16T09:14:14.000Z</time>
      </trkpt>
      <trkpt lat="43.32261" lon="5.73902">
        <ele>821.9</ele>
        <time>2022-10-16T09:14:19.000Z</time>
      </trkpt>
      <trkpt lat="43.32261" lon="5.73902">
        <ele>821.9</ele>
        <time>2022-10-16T09:14:23.000Z</time>
      </trkpt>
      <trkpt lat="43.32261" lon="5.73902">
        <ele>821.9</ele>
        <time>2022-10-16T09:14:24.000Z</time>
      </trkpt>
      <trkpt lat="43.32261" lon="5.73902">
        <ele>822</ele>
        <time>2022-10-16T09:14:36.000Z</time>
      </trkpt>
      <trkpt lat="43.32261" lon="5.73901">
        <ele>822.1</ele>
        <time>2022-10-16T09:14:39.000Z</time>
      </trkpt>
      <trkpt lat="43.32261" lon="5.73901">
        <ele>821.8</ele>
        <time>2022-10-16T09:14:47.000Z</time>
      </trkpt>
      <trkpt lat="43.32261" lon="5.73901">
        <ele>821.9</ele>
        <time>2022-10-16T09:14:48.000Z</time>
      </trkpt>
      <trkpt lat="43.32261" lon="5.739">
        <ele>822</ele>
        <time>2022-10-16T09:15:02.000Z</time>
      </trkpt>
      <trkpt lat="43.3226" lon="5.73899">
        <ele>822.1</ele>
        <time>2022-10-16T09:15:04.000Z</time>
      </trkpt>
      <trkpt lat="43.32261" lon="5.73899">
        <ele>822.1</ele>
        <time>2022-10-16T09:15:09.000Z</time>
      </trkpt>
      <trkpt lat="43.32261" lon="5.73899">
        <ele>822</ele>
        <time>2022-10-16T09:15:10.000Z</time>
      </trkpt>
      <trkpt lat="43.3226" lon="5.73899">
        <ele>822</ele>
        <time>2022-10-16T09:15:11.000Z</time>
      </trkpt>
      <trkpt lat="43.32261" lon="5.73899">
        <ele>821.9</ele>
        <time>2022-10-16T09:15:13.000Z</time>
      </trkpt>
      <trkpt lat="43.3226" lon="5.73899">
        <ele>821.9</ele>
        <time>2022-10-16T09:15:14.000Z</time>
      </trkpt>
      <trkpt lat="43.32262" lon="5.73904">
        <ele>821.9</ele>
        <time>2022-10-16T09:15:23.000Z</time>
      </trkpt>
      <trkpt lat="43.32262" lon="5.73904">
        <ele>821.8</ele>
        <time>2022-10-16T09:15:32.000Z</time>
      </trkpt>
      <trkpt lat="43.32263" lon="5.73905">
        <ele>821.8</ele>
        <time>2022-10-16T09:15:35.000Z</time>
      </trkpt>
      <trkpt lat="43.32262" lon="5.73905">
        <ele>822</ele>
        <time>2022-10-16T09:15:48.000Z</time>
      </trkpt>
      <trkpt lat="43.32262" lon="5.73905">
        <ele>822</ele>
        <time>2022-10-16T09:15:49.000Z</time>
      </trkpt>
      <trkpt lat="43.32262" lon="5.73905">
        <ele>822.1</ele>
        <time>2022-10-16T09:15:50.000Z</time>
      </trkpt>
      <trkpt lat="43.32262" lon="5.73905">
        <ele>822</ele>
        <time>2022-10-16T09:15:52.000Z</time>
      </trkpt>
      <trkpt lat="43.32262" lon="5.73905">
        <ele>821.8</ele>
        <time>2022-10-16T09:15:55.000Z</time>
      </trkpt>
      <trkpt lat="43.32262" lon="5.73904">
        <ele>821.9</ele>
        <time>2022-10-16T09:15:57.000Z</time>
      </trkpt>
      <trkpt lat="43.32262" lon="5.73905">
        <ele>821.7</ele>
        <time>2022-10-16T09:16:19.000Z</time>
      </trkpt>
      <trkpt lat="43.32262" lon="5.73904">
        <ele>821.7</ele>
        <time>2022-10-16T09:16:20.000Z</time>
      </trkpt>
      <trkpt lat="43.32262" lon="5.73904">
        <ele>821.7</ele>
        <time>2022-10-16T09:16:21.000Z</time>
      </trkpt>
      <trkpt lat="43.32262" lon="5.73904">
        <ele>821.7</ele>
        <time>2022-10-16T09:16:22.000Z</time>
      </trkpt>
      <trkpt lat="43.32262" lon="5.73904">
        <ele>821.5</ele>
        <time>2022-10-16T09:16:24.000Z</time>
      </trkpt>
      <trkpt lat="43.32262" lon="5.73904">
        <ele>821.7</ele>
        <time>2022-10-16T09:16:25.000Z</time>
      </trkpt>
      <trkpt lat="43.32261" lon="5.73905">
        <ele>821.9</ele>
        <time>2022-10-16T09:16:26.000Z</time>
      </trkpt>
      <trkpt lat="43.32262" lon="5.73905">
        <ele>822.2</ele>
        <time>2022-10-16T09:16:31.000Z</time>
      </trkpt>
      <trkpt lat="43.32262" lon="5.73905">
        <ele>822.4</ele>
        <time>2022-10-16T09:16:45.000Z</time>
      </trkpt>
      <trkpt lat="43.32262" lon="5.73905">
        <ele>822.3</ele>
        <time>2022-10-16T09:16:46.000Z</time>
      </trkpt>
      <trkpt lat="43.32262" lon="5.73906">
        <ele>822</ele>
        <time>2022-10-16T09:16:59.000Z</time>
      </trkpt>
      <trkpt lat="43.32269" lon="5.73915">
        <ele>821.9</ele>
        <time>2022-10-16T09:17:12.000Z</time>
      </trkpt>
      <trkpt lat="43.32271" lon="5.73928">
        <ele>822.9</ele>
        <time>2022-10-16T09:17:27.000Z</time>
      </trkpt>
      <trkpt lat="43.32271" lon="5.73932">
        <ele>823.6</ele>
        <time>2022-10-16T09:17:37.000Z</time>
      </trkpt>
      <trkpt lat="43.32271" lon="5.73933">
        <ele>823.6</ele>
        <time>2022-10-16T09:17:38.000Z</time>
      </trkpt>
      <trkpt lat="43.32267" lon="5.73945">
        <ele>825</ele>
        <time>2022-10-16T09:17:57.000Z</time>
      </trkpt>
      <trkpt lat="43.32268" lon="5.73952">
        <ele>826</ele>
        <time>2022-10-16T09:18:10.000Z</time>
      </trkpt>
      <trkpt lat="43.32268" lon="5.73952">
        <ele>825.9</ele>
        <time>2022-10-16T09:18:13.000Z</time>
      </trkpt>
      <trkpt lat="43.32268" lon="5.73955">
        <ele>826.6</ele>
        <time>2022-10-16T09:18:20.000Z</time>
      </trkpt>
      <trkpt lat="43.32268" lon="5.73955">
        <ele>826.7</ele>
        <time>2022-10-16T09:18:21.000Z</time>
      </trkpt>
      <trkpt lat="43.32261" lon="5.73963">
        <ele>829</ele>
        <time>2022-10-16T09:18:37.000Z</time>
      </trkpt>
      <trkpt lat="43.32264" lon="5.73976">
        <ele>830.1</ele>
        <time>2022-10-16T09:18:53.000Z</time>
      </trkpt>
      <trkpt lat="43.32269" lon="5.73987">
        <ele>830.1</ele>
        <time>2022-10-16T09:19:03.000Z</time>
      </trkpt>
      <trkpt lat="43.32269" lon="5.73988">
        <ele>830</ele>
        <time>2022-10-16T09:19:07.000Z</time>
      </trkpt>
      <trkpt lat="43.32269" lon="5.73988">
        <ele>830</ele>
        <time>2022-10-16T09:19:08.000Z</time>
      </trkpt>
      <trkpt lat="43.32273" lon="5.74">
        <ele>828.9</ele>
        <time>2022-10-16T09:19:19.000Z</time>
      </trkpt>
      <trkpt lat="43.32271" lon="5.74012">
        <ele>828.8</ele>
        <time>2022-10-16T09:19:32.000Z</time>
      </trkpt>
      <trkpt lat="43.32271" lon="5.74025">
        <ele>829.1</ele>
        <time>2022-10-16T09:19:47.000Z</time>
      </trkpt>
      <trkpt lat="43.32273" lon="5.74038">
        <ele>829.5</ele>
        <time>2022-10-16T09:20:00.000Z</time>
      </trkpt>
      <trkpt lat="43.3228" lon="5.74047">
        <ele>830.8</ele>
        <time>2022-10-16T09:20:13.000Z</time>
      </trkpt>
      <trkpt lat="43.32282" lon="5.74059">
        <ele>829.9</ele>
        <time>2022-10-16T09:20:25.000Z</time>
      </trkpt>
      <trkpt lat="43.32289" lon="5.74066">
        <ele>829.6</ele>
        <time>2022-10-16T09:20:36.000Z</time>
      </trkpt>
      <trkpt lat="43.32291" lon="5.74079">
        <ele>831.5</ele>
        <time>2022-10-16T09:20:52.000Z</time>
      </trkpt>
      <trkpt lat="43.3229" lon="5.7408">
        <ele>832.5</ele>
        <time>2022-10-16T09:21:00.000Z</time>
      </trkpt>
      <trkpt lat="43.3229" lon="5.74081">
        <ele>832.7</ele>
        <time>2022-10-16T09:21:01.000Z</time>
      </trkpt>
      <trkpt lat="43.32286" lon="5.74092">
        <ele>835.2</ele>
        <time>2022-10-16T09:21:28.000Z</time>
      </trkpt>
      <trkpt lat="43.32286" lon="5.74096">
        <ele>836.3</ele>
        <time>2022-10-16T09:21:39.000Z</time>
      </trkpt>
      <trkpt lat="43.32286" lon="5.74096">
        <ele>836.3</ele>
        <time>2022-10-16T09:21:40.000Z</time>
      </trkpt>
      <trkpt lat="43.32286" lon="5.74096">
        <ele>836.2</ele>
        <time>2022-10-16T09:21:41.000Z</time>
      </trkpt>
      <trkpt lat="43.32286" lon="5.74096">
        <ele>836.3</ele>
        <time>2022-10-16T09:21:43.000Z</time>
      </trkpt>
      <trkpt lat="43.32286" lon="5.74096">
        <ele>836.4</ele>
        <time>2022-10-16T09:21:44.000Z</time>
      </trkpt>
      <trkpt lat="43.32285" lon="5.74095">
        <ele>836.4</ele>
        <time>2022-10-16T09:21:49.000Z</time>
      </trkpt>
      <trkpt lat="43.32285" lon="5.74095">
        <ele>836.5</ele>
        <time>2022-10-16T09:21:50.000Z</time>
      </trkpt>
      <trkpt lat="43.32285" lon="5.74094">
        <ele>836.5</ele>
        <time>2022-10-16T09:21:51.000Z</time>
      </trkpt>
      <trkpt lat="43.32281" lon="5.7409">
        <ele>839</ele>
        <time>2022-10-16T09:22:13.000Z</time>
      </trkpt>
      <trkpt lat="43.32281" lon="5.74091">
        <ele>839.1</ele>
        <time>2022-10-16T09:22:14.000Z</time>
      </trkpt>
      <trkpt lat="43.32276" lon="5.74087">
        <ele>840.8</ele>
        <time>2022-10-16T09:22:33.000Z</time>
      </trkpt>
      <trkpt lat="43.32276" lon="5.74087">
        <ele>841</ele>
        <time>2022-10-16T09:22:34.000Z</time>
      </trkpt>
      <trkpt lat="43.32276" lon="5.74087">
        <ele>841</ele>
        <time>2022-10-16T09:22:35.000Z</time>
      </trkpt>
      <trkpt lat="43.32276" lon="5.74088">
        <ele>841.3</ele>
        <time>2022-10-16T09:22:38.000Z</time>
      </trkpt>
      <trkpt lat="43.32277" lon="5.74089">
        <ele>841</ele>
        <time>2022-10-16T09:22:43.000Z</time>
      </trkpt>
      <trkpt lat="43.32276" lon="5.74089">
        <ele>841.1</ele>
        <time>2022-10-16T09:22:46.000Z</time>
      </trkpt>
      <trkpt lat="43.32274" lon="5.74092">
        <ele>842.2</ele>
        <time>2022-10-16T09:22:57.000Z</time>
      </trkpt>
      <trkpt lat="43.32274" lon="5.74092">
        <ele>842.3</ele>
        <time>2022-10-16T09:22:59.000Z</time>
      </trkpt>
      <trkpt lat="43.32274" lon="5.74092">
        <ele>842.4</ele>
        <time>2022-10-16T09:23:00.000Z</time>
      </trkpt>
      <trkpt lat="43.32274" lon="5.74093">
        <ele>842.4</ele>
        <time>2022-10-16T09:23:04.000Z</time>
      </trkpt>
      <trkpt lat="43.32274" lon="5.74093">
        <ele>842.4</ele>
        <time>2022-10-16T09:23:05.000Z</time>
      </trkpt>
      <trkpt lat="43.32274" lon="5.74093">
        <ele>842.4</ele>
        <time>2022-10-16T09:23:06.000Z</time>
      </trkpt>
      <trkpt lat="43.32273" lon="5.74091">
        <ele>842.7</ele>
        <time>2022-10-16T09:23:12.000Z</time>
      </trkpt>
      <trkpt lat="43.32273" lon="5.74092">
        <ele>842.7</ele>
        <time>2022-10-16T09:23:13.000Z</time>
      </trkpt>
      <trkpt lat="43.32272" lon="5.74094">
        <ele>843</ele>
        <time>2022-10-16T09:23:17.000Z</time>
      </trkpt>
      <trkpt lat="43.32272" lon="5.74094">
        <ele>843</ele>
        <time>2022-10-16T09:23:19.000Z</time>
      </trkpt>
      <trkpt lat="43.32272" lon="5.74094">
        <ele>843</ele>
        <time>2022-10-16T09:23:20.000Z</time>
      </trkpt>
      <trkpt lat="43.32272" lon="5.74094">
        <ele>843.5</ele>
        <time>2022-10-16T09:23:23.000Z</time>
      </trkpt>
      <trkpt lat="43.32269" lon="5.74096">
        <ele>844.5</ele>
        <time>2022-10-16T09:23:40.000Z</time>
      </trkpt>
      <trkpt lat="43.32269" lon="5.74097">
        <ele>844.8</ele>
        <time>2022-10-16T09:23:41.000Z</time>
      </trkpt>
      <trkpt lat="43.32269" lon="5.74097">
        <ele>845.1</ele>
        <time>2022-10-16T09:23:42.000Z</time>
      </trkpt>
      <trkpt lat="43.32269" lon="5.74096">
        <ele>845.5</ele>
        <time>2022-10-16T09:23:44.000Z</time>
      </trkpt>
      <trkpt lat="43.32269" lon="5.74096">
        <ele>845.3</ele>
        <time>2022-10-16T09:23:45.000Z</time>
      </trkpt>
      <trkpt lat="43.32269" lon="5.74097">
        <ele>845.5</ele>
        <time>2022-10-16T09:23:47.000Z</time>
      </trkpt>
      <trkpt lat="43.32268" lon="5.74098">
        <ele>845.9</ele>
        <time>2022-10-16T09:23:51.000Z</time>
      </trkpt>
      <trkpt lat="43.32268" lon="5.74098">
        <ele>846.3</ele>
        <time>2022-10-16T09:23:53.000Z</time>
      </trkpt>
      <trkpt lat="43.32268" lon="5.74099">
        <ele>846.9</ele>
        <time>2022-10-16T09:24:00.000Z</time>
      </trkpt>
      <trkpt lat="43.32269" lon="5.74099">
        <ele>846.8</ele>
        <time>2022-10-16T09:24:01.000Z</time>
      </trkpt>
      <trkpt lat="43.32269" lon="5.74097">
        <ele>847.1</ele>
        <time>2022-10-16T09:24:04.000Z</time>
      </trkpt>
      <trkpt lat="43.32269" lon="5.74098">
        <ele>847.1</ele>
        <time>2022-10-16T09:24:05.000Z</time>
      </trkpt>
      <trkpt lat="43.32269" lon="5.74098">
        <ele>847.5</ele>
        <time>2022-10-16T09:24:10.000Z</time>
      </trkpt>
      <trkpt lat="43.32268" lon="5.74098">
        <ele>847.6</ele>
        <time>2022-10-16T09:24:12.000Z</time>
      </trkpt>
      <trkpt lat="43.32268" lon="5.74098">
        <ele>847.6</ele>
        <time>2022-10-16T09:24:13.000Z</time>
      </trkpt>
      <trkpt lat="43.32268" lon="5.74098">
        <ele>847.6</ele>
        <time>2022-10-16T09:24:14.000Z</time>
      </trkpt>
      <trkpt lat="43.32268" lon="5.74098">
        <ele>847.8</ele>
        <time>2022-10-16T09:24:16.000Z</time>
      </trkpt>
      <trkpt lat="43.32268" lon="5.74098">
        <ele>847.9</ele>
        <time>2022-10-16T09:24:18.000Z</time>
      </trkpt>
      <trkpt lat="43.3227" lon="5.74104">
        <ele>848.9</ele>
        <time>2022-10-16T09:24:32.000Z</time>
      </trkpt>
      <trkpt lat="43.3227" lon="5.74104">
        <ele>848.8</ele>
        <time>2022-10-16T09:24:35.000Z</time>
      </trkpt>
      <trkpt lat="43.3227" lon="5.74104">
        <ele>848.8</ele>
        <time>2022-10-16T09:24:36.000Z</time>
      </trkpt>
      <trkpt lat="43.3227" lon="5.74104">
        <ele>848.9</ele>
        <time>2022-10-16T09:24:38.000Z</time>
      </trkpt>
      <trkpt lat="43.3227" lon="5.74104">
        <ele>848.8</ele>
        <time>2022-10-16T09:24:39.000Z</time>
      </trkpt>
      <trkpt lat="43.3227" lon="5.74104">
        <ele>848.6</ele>
        <time>2022-10-16T09:24:44.000Z</time>
      </trkpt>
      <trkpt lat="43.32269" lon="5.74116">
        <ele>850.7</ele>
        <time>2022-10-16T09:25:06.000Z</time>
      </trkpt>
      <trkpt lat="43.32269" lon="5.74116">
        <ele>850.8</ele>
        <time>2022-10-16T09:25:07.000Z</time>
      </trkpt>
      <trkpt lat="43.32269" lon="5.74115">
        <ele>850.9</ele>
        <time>2022-10-16T09:25:10.000Z</time>
      </trkpt>
      <trkpt lat="43.32269" lon="5.74115">
        <ele>851.1</ele>
        <time>2022-10-16T09:25:11.000Z</time>
      </trkpt>
      <trkpt lat="43.32269" lon="5.74116">
        <ele>851.7</ele>
        <time>2022-10-16T09:25:19.000Z</time>
      </trkpt>
      <trkpt lat="43.32269" lon="5.74117">
        <ele>851.7</ele>
        <time>2022-10-16T09:25:20.000Z</time>
      </trkpt>
      <trkpt lat="43.32269" lon="5.74115">
        <ele>852.4</ele>
        <time>2022-10-16T09:25:30.000Z</time>
      </trkpt>
      <trkpt lat="43.32269" lon="5.74115">
        <ele>852.2</ele>
        <time>2022-10-16T09:25:31.000Z</time>
      </trkpt>
      <trkpt lat="43.32269" lon="5.74116">
        <ele>852.5</ele>
        <time>2022-10-16T09:25:33.000Z</time>
      </trkpt>
      <trkpt lat="43.32269" lon="5.74116">
        <ele>852.5</ele>
        <time>2022-10-16T09:25:34.000Z</time>
      </trkpt>
      <trkpt lat="43.32267" lon="5.74116">
        <ele>852.7</ele>
        <time>2022-10-16T09:25:39.000Z</time>
      </trkpt>
      <trkpt lat="43.32267" lon="5.74115">
        <ele>852.7</ele>
        <time>2022-10-16T09:25:40.000Z</time>
      </trkpt>
      <trkpt lat="43.32267" lon="5.74115">
        <ele>852.6</ele>
        <time>2022-10-16T09:25:42.000Z</time>
      </trkpt>
      <trkpt lat="43.32267" lon="5.74115">
        <ele>852.5</ele>
        <time>2022-10-16T09:25:44.000Z</time>
      </trkpt>
      <trkpt lat="43.32267" lon="5.74115">
        <ele>852.5</ele>
        <time>2022-10-16T09:25:45.000Z</time>
      </trkpt>
      <trkpt lat="43.32266" lon="5.74115">
        <ele>852.5</ele>
        <time>2022-10-16T09:25:46.000Z</time>
      </trkpt>
      <trkpt lat="43.32266" lon="5.74115">
        <ele>852.5</ele>
        <time>2022-10-16T09:25:47.000Z</time>
      </trkpt>
      <trkpt lat="43.32266" lon="5.74114">
        <ele>852.2</ele>
        <time>2022-10-16T09:25:51.000Z</time>
      </trkpt>
      <trkpt lat="43.32266" lon="5.74114">
        <ele>852.5</ele>
        <time>2022-10-16T09:25:52.000Z</time>
      </trkpt>
      <trkpt lat="43.32266" lon="5.74114">
        <ele>852</ele>
        <time>2022-10-16T09:25:53.000Z</time>
      </trkpt>
      <trkpt lat="43.32266" lon="5.74114">
        <ele>852.5</ele>
        <time>2022-10-16T09:25:54.000Z</time>
      </trkpt>
      <trkpt lat="43.32266" lon="5.74114">
        <ele>852.8</ele>
        <time>2022-10-16T09:25:55.000Z</time>
      </trkpt>
      <trkpt lat="43.32266" lon="5.74114">
        <ele>852.9</ele>
        <time>2022-10-16T09:25:58.000Z</time>
      </trkpt>
      <trkpt lat="43.32267" lon="5.74114">
        <ele>852.9</ele>
        <time>2022-10-16T09:26:04.000Z</time>
      </trkpt>
      <trkpt lat="43.32267" lon="5.74114">
        <ele>852.9</ele>
        <time>2022-10-16T09:26:05.000Z</time>
      </trkpt>
      <trkpt lat="43.32266" lon="5.74114">
        <ele>852.9</ele>
        <time>2022-10-16T09:26:07.000Z</time>
      </trkpt>
      <trkpt lat="43.32264" lon="5.74113">
        <ele>854.1</ele>
        <time>2022-10-16T09:26:17.000Z</time>
      </trkpt>
      <trkpt lat="43.32264" lon="5.74113">
        <ele>854</ele>
        <time>2022-10-16T09:26:18.000Z</time>
      </trkpt>
      <trkpt lat="43.32264" lon="5.74113">
        <ele>854.1</ele>
        <time>2022-10-16T09:26:22.000Z</time>
      </trkpt>
      <trkpt lat="43.32264" lon="5.74113">
        <ele>854.4</ele>
        <time>2022-10-16T09:26:24.000Z</time>
      </trkpt>
      <trkpt lat="43.32264" lon="5.74113">
        <ele>854.7</ele>
        <time>2022-10-16T09:26:25.000Z</time>
      </trkpt>
      <trkpt lat="43.32264" lon="5.74113">
        <ele>854.5</ele>
        <time>2022-10-16T09:26:29.000Z</time>
      </trkpt>
      <trkpt lat="43.32264" lon="5.74112">
        <ele>855.1</ele>
        <time>2022-10-16T09:26:31.000Z</time>
      </trkpt>
      <trkpt lat="43.32264" lon="5.74112">
        <ele>855.4</ele>
        <time>2022-10-16T09:26:32.000Z</time>
      </trkpt>
      <trkpt lat="43.32262" lon="5.74109">
        <ele>856</ele>
        <time>2022-10-16T09:26:42.000Z</time>
      </trkpt>
      <trkpt lat="43.32261" lon="5.7411">
        <ele>856.3</ele>
        <time>2022-10-16T09:26:44.000Z</time>
      </trkpt>
      <trkpt lat="43.32261" lon="5.7411">
        <ele>856.6</ele>
        <time>2022-10-16T09:26:46.000Z</time>
      </trkpt>
      <trkpt lat="43.32261" lon="5.74111">
        <ele>856.6</ele>
        <time>2022-10-16T09:26:48.000Z</time>
      </trkpt>
      <trkpt lat="43.32261" lon="5.74111">
        <ele>857.2</ele>
        <time>2022-10-16T09:26:51.000Z</time>
      </trkpt>
      <trkpt lat="43.32261" lon="5.74112">
        <ele>857.1</ele>
        <time>2022-10-16T09:26:52.000Z</time>
      </trkpt>
      <trkpt lat="43.32256" lon="5.74114">
        <ele>858.6</ele>
        <time>2022-10-16T09:27:10.000Z</time>
      </trkpt>
      <trkpt lat="43.32256" lon="5.74114">
        <ele>858.4</ele>
        <time>2022-10-16T09:27:20.000Z</time>
      </trkpt>
      <trkpt lat="43.32258" lon="5.74114">
        <ele>858.9</ele>
        <time>2022-10-16T09:27:30.000Z</time>
      </trkpt>
      <trkpt lat="43.32258" lon="5.74114">
        <ele>858.8</ele>
        <time>2022-10-16T09:27:35.000Z</time>
      </trkpt>
      <trkpt lat="43.32259" lon="5.74114">
        <ele>858.7</ele>
        <time>2022-10-16T09:27:37.000Z</time>
      </trkpt>
      <trkpt lat="43.32259" lon="5.74113">
        <ele>859.1</ele>
        <time>2022-10-16T09:27:43.000Z</time>
      </trkpt>
      <trkpt lat="43.32255" lon="5.74104">
        <ele>860.4</ele>
        <time>2022-10-16T09:28:00.000Z</time>
      </trkpt>
      <trkpt lat="43.32255" lon="5.74104">
        <ele>860.5</ele>
        <time>2022-10-16T09:28:01.000Z</time>
      </trkpt>
      <trkpt lat="43.32254" lon="5.74106">
        <ele>861.2</ele>
        <time>2022-10-16T09:28:07.000Z</time>
      </trkpt>
      <trkpt lat="43.32254" lon="5.74107">
        <ele>861.3</ele>
        <time>2022-10-16T09:28:10.000Z</time>
      </trkpt>
      <trkpt lat="43.32253" lon="5.74109">
        <ele>862.1</ele>
        <time>2022-10-16T09:28:19.000Z</time>
      </trkpt>
      <trkpt lat="43.32253" lon="5.74109">
        <ele>862.3</ele>
        <time>2022-10-16T09:28:20.000Z</time>
      </trkpt>
      <trkpt lat="43.32249" lon="5.74113">
        <ele>864.4</ele>
        <time>2022-10-16T09:28:38.000Z</time>
      </trkpt>
      <trkpt lat="43.32249" lon="5.74113">
        <ele>864.5</ele>
        <time>2022-10-16T09:28:39.000Z</time>
      </trkpt>
      <trkpt lat="43.32249" lon="5.74114">
        <ele>864.5</ele>
        <time>2022-10-16T09:28:40.000Z</time>
      </trkpt>
      <trkpt lat="43.32248" lon="5.74114">
        <ele>864.6</ele>
        <time>2022-10-16T09:28:41.000Z</time>
      </trkpt>
      <trkpt lat="43.32248" lon="5.74114">
        <ele>864.8</ele>
        <time>2022-10-16T09:28:42.000Z</time>
      </trkpt>
      <trkpt lat="43.32248" lon="5.74114">
        <ele>865</ele>
        <time>2022-10-16T09:28:43.000Z</time>
      </trkpt>
      <trkpt lat="43.32248" lon="5.74115">
        <ele>865.4</ele>
        <time>2022-10-16T09:28:46.000Z</time>
      </trkpt>
      <trkpt lat="43.32248" lon="5.74114">
        <ele>865.3</ele>
        <time>2022-10-16T09:28:47.000Z</time>
      </trkpt>
      <trkpt lat="43.32247" lon="5.74113">
        <ele>865.9</ele>
        <time>2022-10-16T09:28:52.000Z</time>
      </trkpt>
      <trkpt lat="43.32247" lon="5.74114">
        <ele>866.1</ele>
        <time>2022-10-16T09:28:53.000Z</time>
      </trkpt>
      <trkpt lat="43.32248" lon="5.74115">
        <ele>866</ele>
        <time>2022-10-16T09:28:56.000Z</time>
      </trkpt>
      <trkpt lat="43.32248" lon="5.74116">
        <ele>866.4</ele>
        <time>2022-10-16T09:28:58.000Z</time>
      </trkpt>
      <trkpt lat="43.32248" lon="5.74117">
        <ele>866.7</ele>
        <time>2022-10-16T09:29:05.000Z</time>
      </trkpt>
      <trkpt lat="43.32247" lon="5.74118">
        <ele>866.5</ele>
        <time>2022-10-16T09:29:09.000Z</time>
      </trkpt>
      <trkpt lat="43.32247" lon="5.7412">
        <ele>867.3</ele>
        <time>2022-10-16T09:29:20.000Z</time>
      </trkpt>
      <trkpt lat="43.32247" lon="5.74121">
        <ele>868</ele>
        <time>2022-10-16T09:29:23.000Z</time>
      </trkpt>
      <trkpt lat="43.32248" lon="5.7413">
        <ele>870.3</ele>
        <time>2022-10-16T09:29:51.000Z</time>
      </trkpt>
      <trkpt lat="43.32248" lon="5.7413">
        <ele>870.4</ele>
        <time>2022-10-16T09:29:52.000Z</time>
      </trkpt>
      <trkpt lat="43.32247" lon="5.74133">
        <ele>870.9</ele>
        <time>2022-10-16T09:30:02.000Z</time>
      </trkpt>
      <trkpt lat="43.32247" lon="5.74134">
        <ele>871.7</ele>
        <time>2022-10-16T09:30:07.000Z</time>
      </trkpt>
      <trkpt lat="43.32246" lon="5.74138">
        <ele>872.7</ele>
        <time>2022-10-16T09:30:17.000Z</time>
      </trkpt>
      <trkpt lat="43.32246" lon="5.74138">
        <ele>872.9</ele>
        <time>2022-10-16T09:30:18.000Z</time>
      </trkpt>
      <trkpt lat="43.32246" lon="5.74141">
        <ele>873.5</ele>
        <time>2022-10-16T09:30:26.000Z</time>
      </trkpt>
      <trkpt lat="43.32246" lon="5.74142">
        <ele>873.5</ele>
        <time>2022-10-16T09:30:27.000Z</time>
      </trkpt>
      <trkpt lat="43.32246" lon="5.74143">
        <ele>873.5</ele>
        <time>2022-10-16T09:30:39.000Z</time>
      </trkpt>
      <trkpt lat="43.32246" lon="5.74143">
        <ele>873.3</ele>
        <time>2022-10-16T09:30:41.000Z</time>
      </trkpt>
      <trkpt lat="43.32246" lon="5.74143">
        <ele>873.2</ele>
        <time>2022-10-16T09:30:42.000Z</time>
      </trkpt>
      <trkpt lat="43.32246" lon="5.74143">
        <ele>873.4</ele>
        <time>2022-10-16T09:30:43.000Z</time>
      </trkpt>
      <trkpt lat="43.32246" lon="5.74143">
        <ele>873.4</ele>
        <time>2022-10-16T09:30:45.000Z</time>
      </trkpt>
      <trkpt lat="43.32245" lon="5.74144">
        <ele>873.5</ele>
        <time>2022-10-16T09:30:48.000Z</time>
      </trkpt>
      <trkpt lat="43.32243" lon="5.74144">
        <ele>873.4</ele>
        <time>2022-10-16T09:30:54.000Z</time>
      </trkpt>
      <trkpt lat="43.32243" lon="5.74145">
        <ele>873.3</ele>
        <time>2022-10-16T09:30:55.000Z</time>
      </trkpt>
      <trkpt lat="43.32243" lon="5.74145">
        <ele>873.1</ele>
        <time>2022-10-16T09:30:59.000Z</time>
      </trkpt>
      <trkpt lat="43.32243" lon="5.74145">
        <ele>873.4</ele>
        <time>2022-10-16T09:31:02.000Z</time>
      </trkpt>
      <trkpt lat="43.32243" lon="5.74146">
        <ele>873.3</ele>
        <time>2022-10-16T09:31:06.000Z</time>
      </trkpt>
      <trkpt lat="43.32243" lon="5.74146">
        <ele>873.5</ele>
        <time>2022-10-16T09:31:07.000Z</time>
      </trkpt>
      <trkpt lat="43.32243" lon="5.74146">
        <ele>873.6</ele>
        <time>2022-10-16T09:31:08.000Z</time>
      </trkpt>
      <trkpt lat="43.32243" lon="5.74146">
        <ele>873.7</ele>
        <time>2022-10-16T09:31:09.000Z</time>
      </trkpt>
      <trkpt lat="43.32243" lon="5.74146">
        <ele>873.7</ele>
        <time>2022-10-16T09:31:10.000Z</time>
      </trkpt>
      <trkpt lat="43.32243" lon="5.74145">
        <ele>873.6</ele>
        <time>2022-10-16T09:31:11.000Z</time>
      </trkpt>
      <trkpt lat="43.32244" lon="5.74145">
        <ele>873.7</ele>
        <time>2022-10-16T09:31:16.000Z</time>
      </trkpt>
      <trkpt lat="43.32244" lon="5.74144">
        <ele>873.8</ele>
        <time>2022-10-16T09:31:17.000Z</time>
      </trkpt>
      <trkpt lat="43.32245" lon="5.74145">
        <ele>873.7</ele>
        <time>2022-10-16T09:31:24.000Z</time>
      </trkpt>
      <trkpt lat="43.32245" lon="5.74145">
        <ele>873.9</ele>
        <time>2022-10-16T09:31:28.000Z</time>
      </trkpt>
      <trkpt lat="43.32245" lon="5.74145">
        <ele>873.9</ele>
        <time>2022-10-16T09:31:29.000Z</time>
      </trkpt>
      <trkpt lat="43.32245" lon="5.74145">
        <ele>873.8</ele>
        <time>2022-10-16T09:31:31.000Z</time>
      </trkpt>
      <trkpt lat="43.32246" lon="5.74144">
        <ele>873.5</ele>
        <time>2022-10-16T09:31:35.000Z</time>
      </trkpt>
      <trkpt lat="43.32246" lon="5.74145">
        <ele>873.5</ele>
        <time>2022-10-16T09:31:36.000Z</time>
      </trkpt>
      <trkpt lat="43.32246" lon="5.74145">
        <ele>873.4</ele>
        <time>2022-10-16T09:31:37.000Z</time>
      </trkpt>
      <trkpt lat="43.32246" lon="5.74145">
        <ele>873.4</ele>
        <time>2022-10-16T09:31:39.000Z</time>
      </trkpt>
      <trkpt lat="43.32248" lon="5.74142">
        <ele>873.5</ele>
        <time>2022-10-16T09:31:46.000Z</time>
      </trkpt>
      <trkpt lat="43.32248" lon="5.74142">
        <ele>873.6</ele>
        <time>2022-10-16T09:31:47.000Z</time>
      </trkpt>
      <trkpt lat="43.32249" lon="5.74143">
        <ele>873.6</ele>
        <time>2022-10-16T09:31:49.000Z</time>
      </trkpt>
      <trkpt lat="43.32249" lon="5.74143">
        <ele>873.5</ele>
        <time>2022-10-16T09:31:50.000Z</time>
      </trkpt>
      <trkpt lat="43.32249" lon="5.74143">
        <ele>873.4</ele>
        <time>2022-10-16T09:31:52.000Z</time>
      </trkpt>
      <trkpt lat="43.32249" lon="5.74143">
        <ele>873.3</ele>
        <time>2022-10-16T09:31:56.000Z</time>
      </trkpt>
      <trkpt lat="43.32248" lon="5.74144">
        <ele>873.2</ele>
        <time>2022-10-16T09:32:00.000Z</time>
      </trkpt>
      <trkpt lat="43.32248" lon="5.74144">
        <ele>873.2</ele>
        <time>2022-10-16T09:32:03.000Z</time>
      </trkpt>
      <trkpt lat="43.32247" lon="5.74145">
        <ele>873.1</ele>
        <time>2022-10-16T09:32:07.000Z</time>
      </trkpt>
      <trkpt lat="43.32248" lon="5.74145">
        <ele>873.3</ele>
        <time>2022-10-16T09:32:09.000Z</time>
      </trkpt>
      <trkpt lat="43.32248" lon="5.74146">
        <ele>873.4</ele>
        <time>2022-10-16T09:32:18.000Z</time>
      </trkpt>
      <trkpt lat="43.32248" lon="5.74146">
        <ele>873.4</ele>
        <time>2022-10-16T09:32:20.000Z</time>
      </trkpt>
      <trkpt lat="43.32248" lon="5.74146">
        <ele>873.4</ele>
        <time>2022-10-16T09:32:21.000Z</time>
      </trkpt>
      <trkpt lat="43.32247" lon="5.74147">
        <ele>873.5</ele>
        <time>2022-10-16T09:32:23.000Z</time>
      </trkpt>
      <trkpt lat="43.32248" lon="5.74146">
        <ele>873.9</ele>
        <time>2022-10-16T09:32:27.000Z</time>
      </trkpt>
      <trkpt lat="43.32248" lon="5.74146">
        <ele>873.7</ele>
        <time>2022-10-16T09:32:33.000Z</time>
      </trkpt>
      <trkpt lat="43.3225" lon="5.74149">
        <ele>874.3</ele>
        <time>2022-10-16T09:32:43.000Z</time>
      </trkpt>
      <trkpt lat="43.3225" lon="5.74149">
        <ele>874.4</ele>
        <time>2022-10-16T09:32:44.000Z</time>
      </trkpt>
      <trkpt lat="43.3225" lon="5.74149">
        <ele>874.4</ele>
        <time>2022-10-16T09:32:45.000Z</time>
      </trkpt>
      <trkpt lat="43.3225" lon="5.7415">
        <ele>874.3</ele>
        <time>2022-10-16T09:32:49.000Z</time>
      </trkpt>
      <trkpt lat="43.32251" lon="5.74159">
        <ele>876.7</ele>
        <time>2022-10-16T09:33:06.000Z</time>
      </trkpt>
      <trkpt lat="43.32251" lon="5.74159">
        <ele>877.5</ele>
        <time>2022-10-16T09:33:08.000Z</time>
      </trkpt>
      <trkpt lat="43.32251" lon="5.7416">
        <ele>877.7</ele>
        <time>2022-10-16T09:33:11.000Z</time>
      </trkpt>
      <trkpt lat="43.3225" lon="5.74161">
        <ele>877.9</ele>
        <time>2022-10-16T09:33:12.000Z</time>
      </trkpt>
      <trkpt lat="43.32249" lon="5.74163">
        <ele>879.2</ele>
        <time>2022-10-16T09:33:20.000Z</time>
      </trkpt>
      <trkpt lat="43.32249" lon="5.74163">
        <ele>879.3</ele>
        <time>2022-10-16T09:33:22.000Z</time>
      </trkpt>
      <trkpt lat="43.32248" lon="5.74163">
        <ele>879.7</ele>
        <time>2022-10-16T09:33:25.000Z</time>
      </trkpt>
      <trkpt lat="43.32249" lon="5.74163">
        <ele>879.6</ele>
        <time>2022-10-16T09:33:26.000Z</time>
      </trkpt>
      <trkpt lat="43.32249" lon="5.74163">
        <ele>879.8</ele>
        <time>2022-10-16T09:33:27.000Z</time>
      </trkpt>
      <trkpt lat="43.32248" lon="5.74164">
        <ele>880.1</ele>
        <time>2022-10-16T09:33:28.000Z</time>
      </trkpt>
      <trkpt lat="43.3225" lon="5.74165">
        <ele>880.1</ele>
        <time>2022-10-16T09:33:33.000Z</time>
      </trkpt>
      <trkpt lat="43.3225" lon="5.74164">
        <ele>880.2</ele>
        <time>2022-10-16T09:33:36.000Z</time>
      </trkpt>
      <trkpt lat="43.3225" lon="5.74164">
        <ele>880.1</ele>
        <time>2022-10-16T09:33:37.000Z</time>
      </trkpt>
      <trkpt lat="43.3225" lon="5.74163">
        <ele>880.1</ele>
        <time>2022-10-16T09:33:39.000Z</time>
      </trkpt>
      <trkpt lat="43.32245" lon="5.74155">
        <ele>882.8</ele>
        <time>2022-10-16T09:34:03.000Z</time>
      </trkpt>
      <trkpt lat="43.32245" lon="5.74155">
        <ele>882.9</ele>
        <time>2022-10-16T09:34:05.000Z</time>
      </trkpt>
      <trkpt lat="43.32244" lon="5.74156">
        <ele>883.1</ele>
        <time>2022-10-16T09:34:08.000Z</time>
      </trkpt>
      <trkpt lat="43.32244" lon="5.74156">
        <ele>883.4</ele>
        <time>2022-10-16T09:34:09.000Z</time>
      </trkpt>
      <trkpt lat="43.32244" lon="5.74156">
        <ele>883.5</ele>
        <time>2022-10-16T09:34:10.000Z</time>
      </trkpt>
      <trkpt lat="43.32244" lon="5.74156">
        <ele>883.9</ele>
        <time>2022-10-16T09:34:12.000Z</time>
      </trkpt>
      <trkpt lat="43.32241" lon="5.74158">
        <ele>884.8</ele>
        <time>2022-10-16T09:34:22.000Z</time>
      </trkpt>
      <trkpt lat="43.32241" lon="5.74158">
        <ele>884.9</ele>
        <time>2022-10-16T09:34:24.000Z</time>
      </trkpt>
      <trkpt lat="43.3224" lon="5.74158">
        <ele>885.4</ele>
        <time>2022-10-16T09:34:27.000Z</time>
      </trkpt>
      <trkpt lat="43.3224" lon="5.74159">
        <ele>885.4</ele>
        <time>2022-10-16T09:34:28.000Z</time>
      </trkpt>
      <trkpt lat="43.3224" lon="5.74159">
        <ele>885.3</ele>
        <time>2022-10-16T09:34:32.000Z</time>
      </trkpt>
      <trkpt lat="43.32239" lon="5.7416">
        <ele>885.2</ele>
        <time>2022-10-16T09:34:35.000Z</time>
      </trkpt>
      <trkpt lat="43.32241" lon="5.74165">
        <ele>886</ele>
        <time>2022-10-16T09:34:44.000Z</time>
      </trkpt>
      <trkpt lat="43.32241" lon="5.74165">
        <ele>886.1</ele>
        <time>2022-10-16T09:34:46.000Z</time>
      </trkpt>
      <trkpt lat="43.32239" lon="5.74164">
        <ele>887</ele>
        <time>2022-10-16T09:34:54.000Z</time>
      </trkpt>
      <trkpt lat="43.32239" lon="5.74165">
        <ele>887</ele>
        <time>2022-10-16T09:34:56.000Z</time>
      </trkpt>
      <trkpt lat="43.32238" lon="5.74166">
        <ele>887.5</ele>
        <time>2022-10-16T09:35:02.000Z</time>
      </trkpt>
      <trkpt lat="43.32238" lon="5.74166">
        <ele>887.8</ele>
        <time>2022-10-16T09:35:03.000Z</time>
      </trkpt>
      <trkpt lat="43.32237" lon="5.74165">
        <ele>887.9</ele>
        <time>2022-10-16T09:35:06.000Z</time>
      </trkpt>
      <trkpt lat="43.32237" lon="5.74165">
        <ele>888.4</ele>
        <time>2022-10-16T09:35:08.000Z</time>
      </trkpt>
      <trkpt lat="43.32235" lon="5.74165">
        <ele>889.5</ele>
        <time>2022-10-16T09:35:16.000Z</time>
      </trkpt>
      <trkpt lat="43.32234" lon="5.74165">
        <ele>889.5</ele>
        <time>2022-10-16T09:35:17.000Z</time>
      </trkpt>
      <trkpt lat="43.32232" lon="5.74171">
        <ele>891.2</ele>
        <time>2022-10-16T09:35:36.000Z</time>
      </trkpt>
      <trkpt lat="43.32232" lon="5.74171">
        <ele>891.7</ele>
        <time>2022-10-16T09:35:38.000Z</time>
      </trkpt>
      <trkpt lat="43.32232" lon="5.74171">
        <ele>891.8</ele>
        <time>2022-10-16T09:35:39.000Z</time>
      </trkpt>
      <trkpt lat="43.32232" lon="5.7417">
        <ele>891.8</ele>
        <time>2022-10-16T09:35:40.000Z</time>
      </trkpt>
      <trkpt lat="43.32231" lon="5.7417">
        <ele>892.2</ele>
        <time>2022-10-16T09:35:43.000Z</time>
      </trkpt>
      <trkpt lat="43.32231" lon="5.7417">
        <ele>892.1</ele>
        <time>2022-10-16T09:35:46.000Z</time>
      </trkpt>
      <trkpt lat="43.32231" lon="5.7417">
        <ele>892.3</ele>
        <time>2022-10-16T09:35:47.000Z</time>
      </trkpt>
      <trkpt lat="43.32232" lon="5.74171">
        <ele>892.5</ele>
        <time>2022-10-16T09:35:48.000Z</time>
      </trkpt>
      <trkpt lat="43.32232" lon="5.74171">
        <ele>892.6</ele>
        <time>2022-10-16T09:35:49.000Z</time>
      </trkpt>
      <trkpt lat="43.32232" lon="5.74171">
        <ele>892.7</ele>
        <time>2022-10-16T09:35:53.000Z</time>
      </trkpt>
      <trkpt lat="43.32232" lon="5.7417">
        <ele>892.8</ele>
        <time>2022-10-16T09:35:54.000Z</time>
      </trkpt>
      <trkpt lat="43.32232" lon="5.7417">
        <ele>893</ele>
        <time>2022-10-16T09:35:55.000Z</time>
      </trkpt>
      <trkpt lat="43.32232" lon="5.7417">
        <ele>893.5</ele>
        <time>2022-10-16T09:35:59.000Z</time>
      </trkpt>
      <trkpt lat="43.32232" lon="5.7417">
        <ele>893.8</ele>
        <time>2022-10-16T09:36:02.000Z</time>
      </trkpt>
      <trkpt lat="43.32232" lon="5.7417">
        <ele>894</ele>
        <time>2022-10-16T09:36:03.000Z</time>
      </trkpt>
      <trkpt lat="43.32232" lon="5.7417">
        <ele>894</ele>
        <time>2022-10-16T09:36:04.000Z</time>
      </trkpt>
      <trkpt lat="43.32232" lon="5.74172">
        <ele>894.1</ele>
        <time>2022-10-16T09:36:11.000Z</time>
      </trkpt>
      <trkpt lat="43.32232" lon="5.74171">
        <ele>894.6</ele>
        <time>2022-10-16T09:36:13.000Z</time>
      </trkpt>
      <trkpt lat="43.3223" lon="5.7417">
        <ele>896</ele>
        <time>2022-10-16T09:36:23.000Z</time>
      </trkpt>
      <trkpt lat="43.3223" lon="5.7417">
        <ele>896.1</ele>
        <time>2022-10-16T09:36:26.000Z</time>
      </trkpt>
      <trkpt lat="43.3223" lon="5.74171">
        <ele>896.3</ele>
        <time>2022-10-16T09:36:28.000Z</time>
      </trkpt>
      <trkpt lat="43.32229" lon="5.7417">
        <ele>896.5</ele>
        <time>2022-10-16T09:36:29.000Z</time>
      </trkpt>
      <trkpt lat="43.32229" lon="5.7417">
        <ele>896.5</ele>
        <time>2022-10-16T09:36:30.000Z</time>
      </trkpt>
      <trkpt lat="43.32229" lon="5.7417">
        <ele>896.5</ele>
        <time>2022-10-16T09:36:31.000Z</time>
      </trkpt>
      <trkpt lat="43.32229" lon="5.74171">
        <ele>896.5</ele>
        <time>2022-10-16T09:36:33.000Z</time>
      </trkpt>
      <trkpt lat="43.32229" lon="5.74172">
        <ele>896.7</ele>
        <time>2022-10-16T09:36:36.000Z</time>
      </trkpt>
      <trkpt lat="43.32229" lon="5.74173">
        <ele>897</ele>
        <time>2022-10-16T09:36:42.000Z</time>
      </trkpt>
      <trkpt lat="43.32229" lon="5.74173">
        <ele>897.1</ele>
        <time>2022-10-16T09:36:44.000Z</time>
      </trkpt>
      <trkpt lat="43.32229" lon="5.74174">
        <ele>897.8</ele>
        <time>2022-10-16T09:36:49.000Z</time>
      </trkpt>
      <trkpt lat="43.32229" lon="5.74174">
        <ele>897.8</ele>
        <time>2022-10-16T09:36:50.000Z</time>
      </trkpt>
      <trkpt lat="43.32227" lon="5.74175">
        <ele>898</ele>
        <time>2022-10-16T09:36:55.000Z</time>
      </trkpt>
      <trkpt lat="43.32227" lon="5.74175">
        <ele>898</ele>
        <time>2022-10-16T09:36:58.000Z</time>
      </trkpt>
      <trkpt lat="43.32227" lon="5.74176">
        <ele>898.3</ele>
        <time>2022-10-16T09:37:03.000Z</time>
      </trkpt>
      <trkpt lat="43.32228" lon="5.74176">
        <ele>898.3</ele>
        <time>2022-10-16T09:37:04.000Z</time>
      </trkpt>
      <trkpt lat="43.32228" lon="5.74175">
        <ele>898.1</ele>
        <time>2022-10-16T09:37:05.000Z</time>
      </trkpt>
      <trkpt lat="43.32228" lon="5.74175">
        <ele>898.6</ele>
        <time>2022-10-16T09:37:08.000Z</time>
      </trkpt>
      <trkpt lat="43.32226" lon="5.74176">
        <ele>899.8</ele>
        <time>2022-10-16T09:37:17.000Z</time>
      </trkpt>
      <trkpt lat="43.32226" lon="5.74176">
        <ele>899.6</ele>
        <time>2022-10-16T09:37:19.000Z</time>
      </trkpt>
      <trkpt lat="43.32225" lon="5.74177">
        <ele>900.2</ele>
        <time>2022-10-16T09:37:22.000Z</time>
      </trkpt>
      <trkpt lat="43.32225" lon="5.74177">
        <ele>900.2</ele>
        <time>2022-10-16T09:37:23.000Z</time>
      </trkpt>
      <trkpt lat="43.32225" lon="5.74177">
        <ele>900.3</ele>
        <time>2022-10-16T09:37:24.000Z</time>
      </trkpt>
      <trkpt lat="43.32225" lon="5.74177">
        <ele>900.4</ele>
        <time>2022-10-16T09:37:29.000Z</time>
      </trkpt>
      <trkpt lat="43.32224" lon="5.7418">
        <ele>901.1</ele>
        <time>2022-10-16T09:37:35.000Z</time>
      </trkpt>
      <trkpt lat="43.32224" lon="5.7418">
        <ele>901.4</ele>
        <time>2022-10-16T09:37:37.000Z</time>
      </trkpt>
      <trkpt lat="43.32224" lon="5.7418">
        <ele>901.3</ele>
        <time>2022-10-16T09:37:38.000Z</time>
      </trkpt>
      <trkpt lat="43.32224" lon="5.7418">
        <ele>901.2</ele>
        <time>2022-10-16T09:37:41.000Z</time>
      </trkpt>
      <trkpt lat="43.32224" lon="5.7418">
        <ele>901.5</ele>
        <time>2022-10-16T09:37:44.000Z</time>
      </trkpt>
      <trkpt lat="43.32224" lon="5.7418">
        <ele>901.6</ele>
        <time>2022-10-16T09:37:47.000Z</time>
      </trkpt>
      <trkpt lat="43.32223" lon="5.74181">
        <ele>902.5</ele>
        <time>2022-10-16T09:37:55.000Z</time>
      </trkpt>
      <trkpt lat="43.32223" lon="5.74181">
        <ele>902.5</ele>
        <time>2022-10-16T09:38:07.000Z</time>
      </trkpt>
      <trkpt lat="43.32223" lon="5.74181">
        <ele>902.8</ele>
        <time>2022-10-16T09:38:08.000Z</time>
      </trkpt>
      <trkpt lat="43.32223" lon="5.7418">
        <ele>903</ele>
        <time>2022-10-16T09:38:09.000Z</time>
      </trkpt>
      <trkpt lat="43.32223" lon="5.7418">
        <ele>903.7</ele>
        <time>2022-10-16T09:38:13.000Z</time>
      </trkpt>
      <trkpt lat="43.32223" lon="5.7418">
        <ele>903.7</ele>
        <time>2022-10-16T09:38:15.000Z</time>
      </trkpt>
      <trkpt lat="43.3222" lon="5.7418">
        <ele>904.2</ele>
        <time>2022-10-16T09:38:25.000Z</time>
      </trkpt>
      <trkpt lat="43.3222" lon="5.7418">
        <ele>904.3</ele>
        <time>2022-10-16T09:38:26.000Z</time>
      </trkpt>
      <trkpt lat="43.32218" lon="5.74183">
        <ele>906.3</ele>
        <time>2022-10-16T09:38:58.000Z</time>
      </trkpt>
      <trkpt lat="43.32219" lon="5.74184">
        <ele>906.3</ele>
        <time>2022-10-16T09:38:59.000Z</time>
      </trkpt>
      <trkpt lat="43.32219" lon="5.74184">
        <ele>906.3</ele>
        <time>2022-10-16T09:39:00.000Z</time>
      </trkpt>
      <trkpt lat="43.32219" lon="5.74185">
        <ele>906.7</ele>
        <time>2022-10-16T09:39:16.000Z</time>
      </trkpt>
      <trkpt lat="43.32218" lon="5.74186">
        <ele>906.8</ele>
        <time>2022-10-16T09:39:20.000Z</time>
      </trkpt>
      <trkpt lat="43.32218" lon="5.74185">
        <ele>907</ele>
        <time>2022-10-16T09:39:22.000Z</time>
      </trkpt>
      <trkpt lat="43.32218" lon="5.74185">
        <ele>907.2</ele>
        <time>2022-10-16T09:39:23.000Z</time>
      </trkpt>
      <trkpt lat="43.32219" lon="5.74185">
        <ele>907.3</ele>
        <time>2022-10-16T09:39:27.000Z</time>
      </trkpt>
      <trkpt lat="43.32219" lon="5.74185">
        <ele>907.2</ele>
        <time>2022-10-16T09:39:28.000Z</time>
      </trkpt>
      <trkpt lat="43.32219" lon="5.74185">
        <ele>907.2</ele>
        <time>2022-10-16T09:39:29.000Z</time>
      </trkpt>
      <trkpt lat="43.32219" lon="5.74185">
        <ele>907.4</ele>
        <time>2022-10-16T09:39:32.000Z</time>
      </trkpt>
      <trkpt lat="43.32219" lon="5.74185">
        <ele>907.5</ele>
        <time>2022-10-16T09:39:33.000Z</time>
      </trkpt>
      <trkpt lat="43.3222" lon="5.74186">
        <ele>907.2</ele>
        <time>2022-10-16T09:39:39.000Z</time>
      </trkpt>
      <trkpt lat="43.3222" lon="5.74186">
        <ele>907</ele>
        <time>2022-10-16T09:39:41.000Z</time>
      </trkpt>
      <trkpt lat="43.32219" lon="5.74186">
        <ele>907.9</ele>
        <time>2022-10-16T09:39:46.000Z</time>
      </trkpt>
      <trkpt lat="43.32219" lon="5.74186">
        <ele>908</ele>
        <time>2022-10-16T09:39:47.000Z</time>
      </trkpt>
      <trkpt lat="43.32218" lon="5.74184">
        <ele>908.3</ele>
        <time>2022-10-16T09:39:56.000Z</time>
      </trkpt>
      <trkpt lat="43.32218" lon="5.74183">
        <ele>908.5</ele>
        <time>2022-10-16T09:39:59.000Z</time>
      </trkpt>
      <trkpt lat="43.32218" lon="5.74183">
        <ele>908.4</ele>
        <time>2022-10-16T09:40:00.000Z</time>
      </trkpt>
      <trkpt lat="43.32217" lon="5.74183">
        <ele>908.5</ele>
        <time>2022-10-16T09:40:01.000Z</time>
      </trkpt>
      <trkpt lat="43.32217" lon="5.74183">
        <ele>908.5</ele>
        <time>2022-10-16T09:40:02.000Z</time>
      </trkpt>
      <trkpt lat="43.32217" lon="5.74183">
        <ele>908.6</ele>
        <time>2022-10-16T09:40:03.000Z</time>
      </trkpt>
      <trkpt lat="43.32217" lon="5.74182">
        <ele>909.4</ele>
        <time>2022-10-16T09:40:07.000Z</time>
      </trkpt>
      <trkpt lat="43.32217" lon="5.74182">
        <ele>909.5</ele>
        <time>2022-10-16T09:40:11.000Z</time>
      </trkpt>
      <trkpt lat="43.32215" lon="5.74185">
        <ele>910.3</ele>
        <time>2022-10-16T09:40:23.000Z</time>
      </trkpt>
      <trkpt lat="43.32215" lon="5.74185">
        <ele>910.8</ele>
        <time>2022-10-16T09:40:34.000Z</time>
      </trkpt>
      <trkpt lat="43.32215" lon="5.74185">
        <ele>910.7</ele>
        <time>2022-10-16T09:40:38.000Z</time>
      </trkpt>
      <trkpt lat="43.32215" lon="5.74185">
        <ele>910.6</ele>
        <time>2022-10-16T09:40:52.000Z</time>
      </trkpt>
      <trkpt lat="43.32215" lon="5.74184">
        <ele>910.5</ele>
        <time>2022-10-16T09:40:55.000Z</time>
      </trkpt>
      <trkpt lat="43.32215" lon="5.74184">
        <ele>910.2</ele>
        <time>2022-10-16T09:40:58.000Z</time>
      </trkpt>
      <trkpt lat="43.32215" lon="5.74184">
        <ele>910.1</ele>
        <time>2022-10-16T09:40:59.000Z</time>
      </trkpt>
      <trkpt lat="43.32215" lon="5.74184">
        <ele>910.1</ele>
        <time>2022-10-16T09:41:00.000Z</time>
      </trkpt>
      <trkpt lat="43.32215" lon="5.74184">
        <ele>910</ele>
        <time>2022-10-16T09:41:01.000Z</time>
      </trkpt>
      <trkpt lat="43.32215" lon="5.74184">
        <ele>910.4</ele>
        <time>2022-10-16T09:41:23.000Z</time>
      </trkpt>
      <trkpt lat="43.32215" lon="5.74184">
        <ele>910.5</ele>
        <time>2022-10-16T09:41:24.000Z</time>
      </trkpt>
      <trkpt lat="43.32215" lon="5.74184">
        <ele>910.5</ele>
        <time>2022-10-16T09:41:28.000Z</time>
      </trkpt>
      <trkpt lat="43.32214" lon="5.7418">
        <ele>910.8</ele>
        <time>2022-10-16T09:41:37.000Z</time>
      </trkpt>
      <trkpt lat="43.32213" lon="5.74179">
        <ele>910.6</ele>
        <time>2022-10-16T09:41:40.000Z</time>
      </trkpt>
      <trkpt lat="43.32212" lon="5.74179">
        <ele>911.2</ele>
        <time>2022-10-16T09:41:46.000Z</time>
      </trkpt>
      <trkpt lat="43.32212" lon="5.74179">
        <ele>911.3</ele>
        <time>2022-10-16T09:41:51.000Z</time>
      </trkpt>
      <trkpt lat="43.32212" lon="5.74179">
        <ele>911.3</ele>
        <time>2022-10-16T09:41:53.000Z</time>
      </trkpt>
      <trkpt lat="43.32211" lon="5.74179">
        <ele>911.1</ele>
        <time>2022-10-16T09:42:01.000Z</time>
      </trkpt>
      <trkpt lat="43.32211" lon="5.7418">
        <ele>912.5</ele>
        <time>2022-10-16T09:42:04.000Z</time>
      </trkpt>
      <trkpt lat="43.32211" lon="5.7418">
        <ele>912.5</ele>
        <time>2022-10-16T09:42:05.000Z</time>
      </trkpt>
      <trkpt lat="43.32211" lon="5.7418">
        <ele>912.5</ele>
        <time>2022-10-16T09:42:07.000Z</time>
      </trkpt>
      <trkpt lat="43.32211" lon="5.7418">
        <ele>912.9</ele>
        <time>2022-10-16T09:42:09.000Z</time>
      </trkpt>
      <trkpt lat="43.3221" lon="5.74182">
        <ele>913.5</ele>
        <time>2022-10-16T09:42:16.000Z</time>
      </trkpt>
      <trkpt lat="43.3221" lon="5.74182">
        <ele>913.6</ele>
        <time>2022-10-16T09:42:18.000Z</time>
      </trkpt>
      <trkpt lat="43.32206" lon="5.7418">
        <ele>914.8</ele>
        <time>2022-10-16T09:42:31.000Z</time>
      </trkpt>
      <trkpt lat="43.32205" lon="5.7418">
        <ele>914.9</ele>
        <time>2022-10-16T09:42:32.000Z</time>
      </trkpt>
      <trkpt lat="43.32204" lon="5.74177">
        <ele>916</ele>
        <time>2022-10-16T09:42:39.000Z</time>
      </trkpt>
      <trkpt lat="43.32204" lon="5.74177">
        <ele>916.1</ele>
        <time>2022-10-16T09:42:42.000Z</time>
      </trkpt>
      <trkpt lat="43.32204" lon="5.74177">
        <ele>916.1</ele>
        <time>2022-10-16T09:42:43.000Z</time>
      </trkpt>
      <trkpt lat="43.32205" lon="5.74177">
        <ele>916.1</ele>
        <time>2022-10-16T09:42:44.000Z</time>
      </trkpt>
      <trkpt lat="43.32205" lon="5.74177">
        <ele>916.3</ele>
        <time>2022-10-16T09:42:45.000Z</time>
      </trkpt>
      <trkpt lat="43.32205" lon="5.74177">
        <ele>916.2</ele>
        <time>2022-10-16T09:42:48.000Z</time>
      </trkpt>
      <trkpt lat="43.32202" lon="5.7417">
        <ele>917.9</ele>
        <time>2022-10-16T09:43:11.000Z</time>
      </trkpt>
      <trkpt lat="43.32202" lon="5.74171">
        <ele>918.1</ele>
        <time>2022-10-16T09:43:12.000Z</time>
      </trkpt>
      <trkpt lat="43.32202" lon="5.74172">
        <ele>918.3</ele>
        <time>2022-10-16T09:43:15.000Z</time>
      </trkpt>
      <trkpt lat="43.32202" lon="5.74172">
        <ele>918.2</ele>
        <time>2022-10-16T09:43:17.000Z</time>
      </trkpt>
      <trkpt lat="43.32202" lon="5.74172">
        <ele>918</ele>
        <time>2022-10-16T09:43:18.000Z</time>
      </trkpt>
      <trkpt lat="43.32202" lon="5.74171">
        <ele>917.9</ele>
        <time>2022-10-16T09:43:19.000Z</time>
      </trkpt>
      <trkpt lat="43.32201" lon="5.74171">
        <ele>918</ele>
        <time>2022-10-16T09:43:22.000Z</time>
      </trkpt>
      <trkpt lat="43.32202" lon="5.74171">
        <ele>918.1</ele>
        <time>2022-10-16T09:43:23.000Z</time>
      </trkpt>
      <trkpt lat="43.32202" lon="5.74171">
        <ele>918.3</ele>
        <time>2022-10-16T09:43:26.000Z</time>
      </trkpt>
      <trkpt lat="43.32202" lon="5.74171">
        <ele>918.2</ele>
        <time>2022-10-16T09:43:28.000Z</time>
      </trkpt>
      <trkpt lat="43.32204" lon="5.7417">
        <ele>917.8</ele>
        <time>2022-10-16T09:43:34.000Z</time>
      </trkpt>
      <trkpt lat="43.32204" lon="5.7417">
        <ele>917.7</ele>
        <time>2022-10-16T09:43:38.000Z</time>
      </trkpt>
      <trkpt lat="43.32204" lon="5.7417">
        <ele>917.7</ele>
        <time>2022-10-16T09:43:40.000Z</time>
      </trkpt>
      <trkpt lat="43.32204" lon="5.74171">
        <ele>917.8</ele>
        <time>2022-10-16T09:43:41.000Z</time>
      </trkpt>
      <trkpt lat="43.32204" lon="5.7417">
        <ele>917.9</ele>
        <time>2022-10-16T09:43:42.000Z</time>
      </trkpt>
      <trkpt lat="43.32204" lon="5.74171">
        <ele>917.9</ele>
        <time>2022-10-16T09:43:44.000Z</time>
      </trkpt>
      <trkpt lat="43.32205" lon="5.7417">
        <ele>917.7</ele>
        <time>2022-10-16T09:43:47.000Z</time>
      </trkpt>
      <trkpt lat="43.32204" lon="5.7417">
        <ele>917.5</ele>
        <time>2022-10-16T09:43:50.000Z</time>
      </trkpt>
      <trkpt lat="43.32204" lon="5.7417">
        <ele>917.5</ele>
        <time>2022-10-16T09:43:52.000Z</time>
      </trkpt>
      <trkpt lat="43.32204" lon="5.7417">
        <ele>917.7</ele>
        <time>2022-10-16T09:43:55.000Z</time>
      </trkpt>
      <trkpt lat="43.32204" lon="5.7417">
        <ele>917.8</ele>
        <time>2022-10-16T09:43:56.000Z</time>
      </trkpt>
      <trkpt lat="43.32204" lon="5.7417">
        <ele>917.8</ele>
        <time>2022-10-16T09:43:57.000Z</time>
      </trkpt>
      <trkpt lat="43.32204" lon="5.7417">
        <ele>917.8</ele>
        <time>2022-10-16T09:43:58.000Z</time>
      </trkpt>
      <trkpt lat="43.32204" lon="5.7417">
        <ele>917.7</ele>
        <time>2022-10-16T09:44:02.000Z</time>
      </trkpt>
      <trkpt lat="43.32204" lon="5.7417">
        <ele>917.6</ele>
        <time>2022-10-16T09:44:04.000Z</time>
      </trkpt>
      <trkpt lat="43.32204" lon="5.74169">
        <ele>918</ele>
        <time>2022-10-16T09:44:11.000Z</time>
      </trkpt>
      <trkpt lat="43.32204" lon="5.7417">
        <ele>918.1</ele>
        <time>2022-10-16T09:44:13.000Z</time>
      </trkpt>
      <trkpt lat="43.32204" lon="5.7417">
        <ele>918.1</ele>
        <time>2022-10-16T09:44:14.000Z</time>
      </trkpt>
      <trkpt lat="43.32204" lon="5.7417">
        <ele>917.8</ele>
        <time>2022-10-16T09:44:21.000Z</time>
      </trkpt>
      <trkpt lat="43.32204" lon="5.7417">
        <ele>917.7</ele>
        <time>2022-10-16T09:44:23.000Z</time>
      </trkpt>
      <trkpt lat="43.32199" lon="5.74181">
        <ele>920.4</ele>
        <time>2022-10-16T09:44:45.000Z</time>
      </trkpt>
      <trkpt lat="43.32198" lon="5.74185">
        <ele>921.6</ele>
        <time>2022-10-16T09:44:52.000Z</time>
      </trkpt>
      <trkpt lat="43.32197" lon="5.74185">
        <ele>921.7</ele>
        <time>2022-10-16T09:44:53.000Z</time>
      </trkpt>
      <trkpt lat="43.32197" lon="5.74185">
        <ele>921.8</ele>
        <time>2022-10-16T09:44:54.000Z</time>
      </trkpt>
      <trkpt lat="43.32198" lon="5.74186">
        <ele>921.7</ele>
        <time>2022-10-16T09:44:55.000Z</time>
      </trkpt>
      <trkpt lat="43.32197" lon="5.74189">
        <ele>924.2</ele>
        <time>2022-10-16T09:45:17.000Z</time>
      </trkpt>
      <trkpt lat="43.32196" lon="5.74189">
        <ele>924.8</ele>
        <time>2022-10-16T09:45:18.000Z</time>
      </trkpt>
      <trkpt lat="43.32193" lon="5.74192">
        <ele>925.5</ele>
        <time>2022-10-16T09:45:26.000Z</time>
      </trkpt>
      <trkpt lat="43.32193" lon="5.74191">
        <ele>925.6</ele>
        <time>2022-10-16T09:45:27.000Z</time>
      </trkpt>
      <trkpt lat="43.32193" lon="5.74191">
        <ele>925.6</ele>
        <time>2022-10-16T09:45:30.000Z</time>
      </trkpt>
      <trkpt lat="43.32193" lon="5.74191">
        <ele>925.6</ele>
        <time>2022-10-16T09:45:31.000Z</time>
      </trkpt>
      <trkpt lat="43.32195" lon="5.74184">
        <ele>926.8</ele>
        <time>2022-10-16T09:45:42.000Z</time>
      </trkpt>
      <trkpt lat="43.32196" lon="5.74184">
        <ele>927.3</ele>
        <time>2022-10-16T09:45:44.000Z</time>
      </trkpt>
      <trkpt lat="43.32196" lon="5.74179">
        <ele>928.1</ele>
        <time>2022-10-16T09:46:00.000Z</time>
      </trkpt>
      <trkpt lat="43.32196" lon="5.74178">
        <ele>928.1</ele>
        <time>2022-10-16T09:46:01.000Z</time>
      </trkpt>
      <trkpt lat="43.32195" lon="5.74176">
        <ele>930.1</ele>
        <time>2022-10-16T09:46:08.000Z</time>
      </trkpt>
      <trkpt lat="43.32195" lon="5.74176">
        <ele>930.1</ele>
        <time>2022-10-16T09:46:09.000Z</time>
      </trkpt>
      <trkpt lat="43.32194" lon="5.74175">
        <ele>930.4</ele>
        <time>2022-10-16T09:46:15.000Z</time>
      </trkpt>
      <trkpt lat="43.32194" lon="5.74176">
        <ele>930.2</ele>
        <time>2022-10-16T09:46:21.000Z</time>
      </trkpt>
      <trkpt lat="43.32194" lon="5.74176">
        <ele>930.2</ele>
        <time>2022-10-16T09:46:22.000Z</time>
      </trkpt>
      <trkpt lat="43.32194" lon="5.74176">
        <ele>930</ele>
        <time>2022-10-16T09:46:25.000Z</time>
      </trkpt>
      <trkpt lat="43.32194" lon="5.74176">
        <ele>929.1</ele>
        <time>2022-10-16T09:46:26.000Z</time>
      </trkpt>
      <trkpt lat="43.32194" lon="5.74175">
        <ele>929.8</ele>
        <time>2022-10-16T09:46:28.000Z</time>
      </trkpt>
      <trkpt lat="43.32194" lon="5.74175">
        <ele>930.1</ele>
        <time>2022-10-16T09:46:32.000Z</time>
      </trkpt>
      <trkpt lat="43.32194" lon="5.74175">
        <ele>930.2</ele>
        <time>2022-10-16T09:47:36.000Z</time>
      </trkpt>
      <trkpt lat="43.32192" lon="5.74178">
        <ele>931.8</ele>
        <time>2022-10-16T09:47:44.000Z</time>
      </trkpt>
      <trkpt lat="43.32192" lon="5.74178">
        <ele>931.5</ele>
        <time>2022-10-16T09:47:45.000Z</time>
      </trkpt>
      <trkpt lat="43.32191" lon="5.74178">
        <ele>932</ele>
        <time>2022-10-16T09:47:48.000Z</time>
      </trkpt>
      <trkpt lat="43.32191" lon="5.74178">
        <ele>932.1</ele>
        <time>2022-10-16T09:47:49.000Z</time>
      </trkpt>
      <trkpt lat="43.32191" lon="5.74178">
        <ele>932.1</ele>
        <time>2022-10-16T09:47:50.000Z</time>
      </trkpt>
      <trkpt lat="43.32191" lon="5.74178">
        <ele>932.1</ele>
        <time>2022-10-16T09:47:52.000Z</time>
      </trkpt>
      <trkpt lat="43.32186" lon="5.74184">
        <ele>934.1</ele>
        <time>2022-10-16T09:48:08.000Z</time>
      </trkpt>
      <trkpt lat="43.32185" lon="5.74185">
        <ele>934.5</ele>
        <time>2022-10-16T09:48:10.000Z</time>
      </trkpt>
      <trkpt lat="43.32182" lon="5.74192">
        <ele>936.1</ele>
        <time>2022-10-16T09:48:25.000Z</time>
      </trkpt>
      <trkpt lat="43.32181" lon="5.74192">
        <ele>936.2</ele>
        <time>2022-10-16T09:48:26.000Z</time>
      </trkpt>
      <trkpt lat="43.32181" lon="5.74193">
        <ele>936.3</ele>
        <time>2022-10-16T09:48:28.000Z</time>
      </trkpt>
      <trkpt lat="43.32181" lon="5.74193">
        <ele>936.3</ele>
        <time>2022-10-16T09:48:29.000Z</time>
      </trkpt>
      <trkpt lat="43.32181" lon="5.74193">
        <ele>936.4</ele>
        <time>2022-10-16T09:48:30.000Z</time>
      </trkpt>
      <trkpt lat="43.32181" lon="5.74192">
        <ele>936.5</ele>
        <time>2022-10-16T09:48:31.000Z</time>
      </trkpt>
      <trkpt lat="43.32181" lon="5.74192">
        <ele>936.1</ele>
        <time>2022-10-16T09:48:33.000Z</time>
      </trkpt>
      <trkpt lat="43.32181" lon="5.74192">
        <ele>936.2</ele>
        <time>2022-10-16T09:48:39.000Z</time>
      </trkpt>
      <trkpt lat="43.32181" lon="5.74193">
        <ele>936.6</ele>
        <time>2022-10-16T09:48:41.000Z</time>
      </trkpt>
      <trkpt lat="43.32181" lon="5.74193">
        <ele>936.8</ele>
        <time>2022-10-16T09:48:46.000Z</time>
      </trkpt>
      <trkpt lat="43.32178" lon="5.74193">
        <ele>937.8</ele>
        <time>2022-10-16T09:48:52.000Z</time>
      </trkpt>
      <trkpt lat="43.32178" lon="5.74192">
        <ele>938.2</ele>
        <time>2022-10-16T09:48:54.000Z</time>
      </trkpt>
      <trkpt lat="43.32169" lon="5.74189">
        <ele>940.7</ele>
        <time>2022-10-16T09:49:21.000Z</time>
      </trkpt>
      <trkpt lat="43.32166" lon="5.74189">
        <ele>941.3</ele>
        <time>2022-10-16T09:49:32.000Z</time>
      </trkpt>
      <trkpt lat="43.32166" lon="5.7419">
        <ele>941.7</ele>
        <time>2022-10-16T09:49:34.000Z</time>
      </trkpt>
      <trkpt lat="43.32166" lon="5.74192">
        <ele>942.5</ele>
        <time>2022-10-16T09:49:40.000Z</time>
      </trkpt>
      <trkpt lat="43.32166" lon="5.74192">
        <ele>939.8</ele>
        <time>2022-10-16T09:49:42.000Z</time>
      </trkpt>
      <trkpt lat="43.32165" lon="5.74191">
        <ele>941.8</ele>
        <time>2022-10-16T09:49:49.000Z</time>
      </trkpt>
      <trkpt lat="43.32165" lon="5.74192">
        <ele>942.1</ele>
        <time>2022-10-16T09:49:50.000Z</time>
      </trkpt>
      <trkpt lat="43.32165" lon="5.74193">
        <ele>943.5</ele>
        <time>2022-10-16T09:49:55.000Z</time>
      </trkpt>
      <trkpt lat="43.32165" lon="5.74193">
        <ele>942.8</ele>
        <time>2022-10-16T09:50:00.000Z</time>
      </trkpt>
      <trkpt lat="43.32165" lon="5.74195">
        <ele>944</ele>
        <time>2022-10-16T09:50:04.000Z</time>
      </trkpt>
      <trkpt lat="43.32165" lon="5.74194">
        <ele>944.6</ele>
        <time>2022-10-16T09:50:09.000Z</time>
      </trkpt>
      <trkpt lat="43.32162" lon="5.74191">
        <ele>945.6</ele>
        <time>2022-10-16T09:50:20.000Z</time>
      </trkpt>
      <trkpt lat="43.32162" lon="5.74192">
        <ele>945.6</ele>
        <time>2022-10-16T09:50:22.000Z</time>
      </trkpt>
      <trkpt lat="43.32162" lon="5.74192">
        <ele>945.6</ele>
        <time>2022-10-16T09:50:23.000Z</time>
      </trkpt>
      <trkpt lat="43.32162" lon="5.74192">
        <ele>945.2</ele>
        <time>2022-10-16T09:50:27.000Z</time>
      </trkpt>
      <trkpt lat="43.32162" lon="5.74192">
        <ele>945</ele>
        <time>2022-10-16T09:50:28.000Z</time>
      </trkpt>
      <trkpt lat="43.32162" lon="5.74193">
        <ele>944.9</ele>
        <time>2022-10-16T09:50:29.000Z</time>
      </trkpt>
      <trkpt lat="43.32162" lon="5.74196">
        <ele>945.1</ele>
        <time>2022-10-16T09:50:35.000Z</time>
      </trkpt>
      <trkpt lat="43.32163" lon="5.74196">
        <ele>945.2</ele>
        <time>2022-10-16T09:50:36.000Z</time>
      </trkpt>
      <trkpt lat="43.32163" lon="5.74197">
        <ele>945.2</ele>
        <time>2022-10-16T09:50:38.000Z</time>
      </trkpt>
      <trkpt lat="43.32162" lon="5.74197">
        <ele>945.1</ele>
        <time>2022-10-16T09:50:39.000Z</time>
      </trkpt>
      <trkpt lat="43.32162" lon="5.742">
        <ele>946.4</ele>
        <time>2022-10-16T09:50:48.000Z</time>
      </trkpt>
      <trkpt lat="43.32162" lon="5.742">
        <ele>946.7</ele>
        <time>2022-10-16T09:50:50.000Z</time>
      </trkpt>
      <trkpt lat="43.32156" lon="5.74207">
        <ele>948.9</ele>
        <time>2022-10-16T09:51:08.000Z</time>
      </trkpt>
      <trkpt lat="43.32156" lon="5.74207">
        <ele>948.6</ele>
        <time>2022-10-16T09:51:14.000Z</time>
      </trkpt>
      <trkpt lat="43.32155" lon="5.74209">
        <ele>949.1</ele>
        <time>2022-10-16T09:51:19.000Z</time>
      </trkpt>
      <trkpt lat="43.32155" lon="5.7421">
        <ele>949.2</ele>
        <time>2022-10-16T09:51:21.000Z</time>
      </trkpt>
      <trkpt lat="43.32155" lon="5.74211">
        <ele>949.4</ele>
        <time>2022-10-16T09:51:25.000Z</time>
      </trkpt>
      <trkpt lat="43.32155" lon="5.74212">
        <ele>949.6</ele>
        <time>2022-10-16T09:51:26.000Z</time>
      </trkpt>
      <trkpt lat="43.32154" lon="5.74214">
        <ele>949.9</ele>
        <time>2022-10-16T09:51:30.000Z</time>
      </trkpt>
      <trkpt lat="43.32154" lon="5.74214">
        <ele>949.6</ele>
        <time>2022-10-16T09:51:32.000Z</time>
      </trkpt>
      <trkpt lat="43.32151" lon="5.74219">
        <ele>950.7</ele>
        <time>2022-10-16T09:51:40.000Z</time>
      </trkpt>
      <trkpt lat="43.32151" lon="5.74218">
        <ele>950.7</ele>
        <time>2022-10-16T09:51:52.000Z</time>
      </trkpt>
      <trkpt lat="43.32151" lon="5.74218">
        <ele>950.7</ele>
        <time>2022-10-16T09:51:53.000Z</time>
      </trkpt>
      <trkpt lat="43.32151" lon="5.74219">
        <ele>950.5</ele>
        <time>2022-10-16T09:51:56.000Z</time>
      </trkpt>
      <trkpt lat="43.32151" lon="5.74219">
        <ele>950.5</ele>
        <time>2022-10-16T09:51:57.000Z</time>
      </trkpt>
      <trkpt lat="43.32151" lon="5.74218">
        <ele>952.3</ele>
        <time>2022-10-16T09:52:31.000Z</time>
      </trkpt>
      <trkpt lat="43.32153" lon="5.74217">
        <ele>950.5</ele>
        <time>2022-10-16T09:52:40.000Z</time>
      </trkpt>
      <trkpt lat="43.32153" lon="5.74217">
        <ele>950.2</ele>
        <time>2022-10-16T09:52:42.000Z</time>
      </trkpt>
      <trkpt lat="43.32153" lon="5.74217">
        <ele>950.1</ele>
        <time>2022-10-16T09:52:43.000Z</time>
      </trkpt>
      <trkpt lat="43.32153" lon="5.74216">
        <ele>950.9</ele>
        <time>2022-10-16T09:53:13.000Z</time>
      </trkpt>
      <trkpt lat="43.32153" lon="5.74216">
        <ele>950.9</ele>
        <time>2022-10-16T09:53:14.000Z</time>
      </trkpt>
      <trkpt lat="43.32153" lon="5.74215">
        <ele>951.4</ele>
        <time>2022-10-16T09:55:24.000Z</time>
      </trkpt>
      <trkpt lat="43.32153" lon="5.74215">
        <ele>951.4</ele>
        <time>2022-10-16T09:55:25.000Z</time>
      </trkpt>
      <trkpt lat="43.32153" lon="5.74215">
        <ele>950.8</ele>
        <time>2022-10-16T09:55:57.000Z</time>
      </trkpt>
      <trkpt lat="43.32151" lon="5.74218">
        <ele>951.7</ele>
        <time>2022-10-16T09:56:06.000Z</time>
      </trkpt>
      <trkpt lat="43.32152" lon="5.74218">
        <ele>951</ele>
        <time>2022-10-16T09:56:14.000Z</time>
      </trkpt>
      <trkpt lat="43.32152" lon="5.74218">
        <ele>951.3</ele>
        <time>2022-10-16T09:56:15.000Z</time>
      </trkpt>
      <trkpt lat="43.32152" lon="5.74218">
        <ele>951.7</ele>
        <time>2022-10-16T09:56:18.000Z</time>
      </trkpt>
      <trkpt lat="43.32152" lon="5.74214">
        <ele>951.7</ele>
        <time>2022-10-16T09:56:26.000Z</time>
      </trkpt>
      <trkpt lat="43.32152" lon="5.74213">
        <ele>951.7</ele>
        <time>2022-10-16T09:56:28.000Z</time>
      </trkpt>
      <trkpt lat="43.3215" lon="5.74201">
        <ele>951.7</ele>
        <time>2022-10-16T09:56:44.000Z</time>
      </trkpt>
      <trkpt lat="43.32148" lon="5.74199">
        <ele>953.2</ele>
        <time>2022-10-16T09:56:50.000Z</time>
      </trkpt>
      <trkpt lat="43.32148" lon="5.74198">
        <ele>952.6</ele>
        <time>2022-10-16T09:56:56.000Z</time>
      </trkpt>
      <trkpt lat="43.32148" lon="5.74195">
        <ele>952.2</ele>
        <time>2022-10-16T09:57:01.000Z</time>
      </trkpt>
      <trkpt lat="43.32148" lon="5.74195">
        <ele>952.7</ele>
        <time>2022-10-16T09:57:05.000Z</time>
      </trkpt>
      <trkpt lat="43.32148" lon="5.74195">
        <ele>952.4</ele>
        <time>2022-10-16T09:57:06.000Z</time>
      </trkpt>
      <trkpt lat="43.32148" lon="5.74194">
        <ele>953.1</ele>
        <time>2022-10-16T09:57:18.000Z</time>
      </trkpt>
      <trkpt lat="43.32146" lon="5.74193">
        <ele>953.2</ele>
        <time>2022-10-16T09:57:22.000Z</time>
      </trkpt>
      <trkpt lat="43.32146" lon="5.74193">
        <ele>953.2</ele>
        <time>2022-10-16T09:57:36.000Z</time>
      </trkpt>
      <trkpt lat="43.32146" lon="5.74193">
        <ele>953.8</ele>
        <time>2022-10-16T09:57:37.000Z</time>
      </trkpt>
      <trkpt lat="43.32146" lon="5.74192">
        <ele>954.6</ele>
        <time>2022-10-16T09:57:38.000Z</time>
      </trkpt>
      <trkpt lat="43.32143" lon="5.74187">
        <ele>953.6</ele>
        <time>2022-10-16T09:57:46.000Z</time>
      </trkpt>
      <trkpt lat="43.32143" lon="5.74186">
        <ele>953.4</ele>
        <time>2022-10-16T09:57:48.000Z</time>
      </trkpt>
      <trkpt lat="43.32142" lon="5.74186">
        <ele>953.4</ele>
        <time>2022-10-16T09:57:53.000Z</time>
      </trkpt>
      <trkpt lat="43.32141" lon="5.74185">
        <ele>953.2</ele>
        <time>2022-10-16T09:57:56.000Z</time>
      </trkpt>
      <trkpt lat="43.32137" lon="5.74174">
        <ele>953.1</ele>
        <time>2022-10-16T09:58:11.000Z</time>
      </trkpt>
      <trkpt lat="43.32137" lon="5.74174">
        <ele>953</ele>
        <time>2022-10-16T09:58:12.000Z</time>
      </trkpt>
      <trkpt lat="43.32137" lon="5.74174">
        <ele>952.9</ele>
        <time>2022-10-16T09:58:14.000Z</time>
      </trkpt>
      <trkpt lat="43.32137" lon="5.74174">
        <ele>953</ele>
        <time>2022-10-16T09:58:15.000Z</time>
      </trkpt>
      <trkpt lat="43.32137" lon="5.74173">
        <ele>953.2</ele>
        <time>2022-10-16T09:58:16.000Z</time>
      </trkpt>
      <trkpt lat="43.32135" lon="5.74167">
        <ele>953.2</ele>
        <time>2022-10-16T09:58:27.000Z</time>
      </trkpt>
      <trkpt lat="43.32135" lon="5.74167">
        <ele>952.6</ele>
        <time>2022-10-16T09:58:29.000Z</time>
      </trkpt>
      <trkpt lat="43.32134" lon="5.74163">
        <ele>953.1</ele>
        <time>2022-10-16T09:58:34.000Z</time>
      </trkpt>
      <trkpt lat="43.32135" lon="5.74163">
        <ele>953.1</ele>
        <time>2022-10-16T09:58:35.000Z</time>
      </trkpt>
      <trkpt lat="43.32135" lon="5.74163">
        <ele>953.1</ele>
        <time>2022-10-16T09:58:37.000Z</time>
      </trkpt>
      <trkpt lat="43.32135" lon="5.74163">
        <ele>953.2</ele>
        <time>2022-10-16T09:58:38.000Z</time>
      </trkpt>
      <trkpt lat="43.32131" lon="5.74156">
        <ele>953.7</ele>
        <time>2022-10-16T09:58:51.000Z</time>
      </trkpt>
      <trkpt lat="43.32131" lon="5.74156">
        <ele>954.4</ele>
        <time>2022-10-16T09:58:53.000Z</time>
      </trkpt>
      <trkpt lat="43.32126" lon="5.74146">
        <ele>953.7</ele>
        <time>2022-10-16T09:59:08.000Z</time>
      </trkpt>
      <trkpt lat="43.32122" lon="5.74134">
        <ele>953.5</ele>
        <time>2022-10-16T09:59:18.000Z</time>
      </trkpt>
      <trkpt lat="43.32118" lon="5.74122">
        <ele>953.2</ele>
        <time>2022-10-16T09:59:30.000Z</time>
      </trkpt>
      <trkpt lat="43.32115" lon="5.7411">
        <ele>954.3</ele>
        <time>2022-10-16T09:59:43.000Z</time>
      </trkpt>
      <trkpt lat="43.32114" lon="5.74097">
        <ele>954</ele>
        <time>2022-10-16T09:59:59.000Z</time>
      </trkpt>
      <trkpt lat="43.32114" lon="5.74096">
        <ele>954.5</ele>
        <time>2022-10-16T10:00:05.000Z</time>
      </trkpt>
      <trkpt lat="43.32114" lon="5.74096">
        <ele>954.4</ele>
        <time>2022-10-16T10:00:06.000Z</time>
      </trkpt>
      <trkpt lat="43.32111" lon="5.74084">
        <ele>953.3</ele>
        <time>2022-10-16T10:00:18.000Z</time>
      </trkpt>
      <trkpt lat="43.32103" lon="5.74076">
        <ele>954.1</ele>
        <time>2022-10-16T10:00:28.000Z</time>
      </trkpt>
      <trkpt lat="43.321" lon="5.74071">
        <ele>954.4</ele>
        <time>2022-10-16T10:00:34.000Z</time>
      </trkpt>
      <trkpt lat="43.321" lon="5.74071">
        <ele>954.5</ele>
        <time>2022-10-16T10:00:38.000Z</time>
      </trkpt>
      <trkpt lat="43.32095" lon="5.74059">
        <ele>954.7</ele>
        <time>2022-10-16T10:00:48.000Z</time>
      </trkpt>
      <trkpt lat="43.32091" lon="5.74047">
        <ele>954.6</ele>
        <time>2022-10-16T10:00:56.000Z</time>
      </trkpt>
      <trkpt lat="43.32085" lon="5.74038">
        <ele>955.5</ele>
        <time>2022-10-16T10:01:05.000Z</time>
      </trkpt>
      <trkpt lat="43.32084" lon="5.74038">
        <ele>955.2</ele>
        <time>2022-10-16T10:01:07.000Z</time>
      </trkpt>
      <trkpt lat="43.32084" lon="5.74037">
        <ele>955</ele>
        <time>2022-10-16T10:01:10.000Z</time>
      </trkpt>
      <trkpt lat="43.32081" lon="5.74025">
        <ele>954.9</ele>
        <time>2022-10-16T10:01:20.000Z</time>
      </trkpt>
      <trkpt lat="43.32079" lon="5.74013">
        <ele>955.4</ele>
        <time>2022-10-16T10:01:30.000Z</time>
      </trkpt>
      <trkpt lat="43.32077" lon="5.74001">
        <ele>956.2</ele>
        <time>2022-10-16T10:01:40.000Z</time>
      </trkpt>
      <trkpt lat="43.32074" lon="5.73989">
        <ele>956.5</ele>
        <time>2022-10-16T10:01:52.000Z</time>
      </trkpt>
      <trkpt lat="43.3207" lon="5.73978">
        <ele>956.6</ele>
        <time>2022-10-16T10:02:03.000Z</time>
      </trkpt>
      <trkpt lat="43.32069" lon="5.73973">
        <ele>957.1</ele>
        <time>2022-10-16T10:02:09.000Z</time>
      </trkpt>
      <trkpt lat="43.32069" lon="5.73972">
        <ele>957</ele>
        <time>2022-10-16T10:02:11.000Z</time>
      </trkpt>
      <trkpt lat="43.32062" lon="5.73963">
        <ele>956.9</ele>
        <time>2022-10-16T10:02:21.000Z</time>
      </trkpt>
      <trkpt lat="43.32058" lon="5.73951">
        <ele>955.9</ele>
        <time>2022-10-16T10:02:32.000Z</time>
      </trkpt>
      <trkpt lat="43.32051" lon="5.73942">
        <ele>955.5</ele>
        <time>2022-10-16T10:02:43.000Z</time>
      </trkpt>
      <trkpt lat="43.32044" lon="5.73933">
        <ele>956.3</ele>
        <time>2022-10-16T10:02:55.000Z</time>
      </trkpt>
      <trkpt lat="43.32039" lon="5.73922">
        <ele>956.4</ele>
        <time>2022-10-16T10:03:09.000Z</time>
      </trkpt>
      <trkpt lat="43.32037" lon="5.7391">
        <ele>956.8</ele>
        <time>2022-10-16T10:03:31.000Z</time>
      </trkpt>
      <trkpt lat="43.32038" lon="5.7391">
        <ele>956.8</ele>
        <time>2022-10-16T10:03:32.000Z</time>
      </trkpt>
      <trkpt lat="43.32038" lon="5.73911">
        <ele>957.3</ele>
        <time>2022-10-16T10:03:35.000Z</time>
      </trkpt>
      <trkpt lat="43.32038" lon="5.73911">
        <ele>957.2</ele>
        <time>2022-10-16T10:03:36.000Z</time>
      </trkpt>
      <trkpt lat="43.32037" lon="5.73899">
        <ele>957.6</ele>
        <time>2022-10-16T10:03:50.000Z</time>
      </trkpt>
      <trkpt lat="43.32037" lon="5.73899">
        <ele>957.8</ele>
        <time>2022-10-16T10:03:56.000Z</time>
      </trkpt>
      <trkpt lat="43.32037" lon="5.73899">
        <ele>957.8</ele>
        <time>2022-10-16T10:03:57.000Z</time>
      </trkpt>
      <trkpt lat="43.32037" lon="5.73898">
        <ele>957.7</ele>
        <time>2022-10-16T10:03:59.000Z</time>
      </trkpt>
      <trkpt lat="43.32037" lon="5.73898">
        <ele>958</ele>
        <time>2022-10-16T10:04:02.000Z</time>
      </trkpt>
      <trkpt lat="43.32037" lon="5.73897">
        <ele>958</ele>
        <time>2022-10-16T10:04:04.000Z</time>
      </trkpt>
      <trkpt lat="43.32034" lon="5.73884">
        <ele>958.1</ele>
        <time>2022-10-16T10:04:14.000Z</time>
      </trkpt>
      <trkpt lat="43.32031" lon="5.73872">
        <ele>958.4</ele>
        <time>2022-10-16T10:04:27.000Z</time>
      </trkpt>
      <trkpt lat="43.32026" lon="5.7386">
        <ele>958</ele>
        <time>2022-10-16T10:04:39.000Z</time>
      </trkpt>
      <trkpt lat="43.32023" lon="5.73848">
        <ele>958.4</ele>
        <time>2022-10-16T10:04:50.000Z</time>
      </trkpt>
      <trkpt lat="43.3202" lon="5.73836">
        <ele>958.1</ele>
        <time>2022-10-16T10:05:02.000Z</time>
      </trkpt>
      <trkpt lat="43.32019" lon="5.73823">
        <ele>958.9</ele>
        <time>2022-10-16T10:05:14.000Z</time>
      </trkpt>
      <trkpt lat="43.32018" lon="5.7381">
        <ele>960.1</ele>
        <time>2022-10-16T10:05:26.000Z</time>
      </trkpt>
      <trkpt lat="43.32016" lon="5.73797">
        <ele>960.1</ele>
        <time>2022-10-16T10:05:36.000Z</time>
      </trkpt>
      <trkpt lat="43.32013" lon="5.73786">
        <ele>958.7</ele>
        <time>2022-10-16T10:05:49.000Z</time>
      </trkpt>
      <trkpt lat="43.32007" lon="5.73776">
        <ele>960.2</ele>
        <time>2022-10-16T10:06:04.000Z</time>
      </trkpt>
      <trkpt lat="43.32" lon="5.73769">
        <ele>959.5</ele>
        <time>2022-10-16T10:06:21.000Z</time>
      </trkpt>
      <trkpt lat="43.31994" lon="5.73759">
        <ele>959.1</ele>
        <time>2022-10-16T10:06:33.000Z</time>
      </trkpt>
      <trkpt lat="43.3199" lon="5.73747">
        <ele>959.8</ele>
        <time>2022-10-16T10:06:50.000Z</time>
      </trkpt>
      <trkpt lat="43.31989" lon="5.73742">
        <ele>960.2</ele>
        <time>2022-10-16T10:06:58.000Z</time>
      </trkpt>
      <trkpt lat="43.31988" lon="5.73742">
        <ele>959.9</ele>
        <time>2022-10-16T10:07:09.000Z</time>
      </trkpt>
      <trkpt lat="43.31985" lon="5.73731">
        <ele>959.6</ele>
        <time>2022-10-16T10:07:20.000Z</time>
      </trkpt>
      <trkpt lat="43.31981" lon="5.73718">
        <ele>960.4</ele>
        <time>2022-10-16T10:07:32.000Z</time>
      </trkpt>
      <trkpt lat="43.3198" lon="5.73706">
        <ele>961.7</ele>
        <time>2022-10-16T10:07:44.000Z</time>
      </trkpt>
      <trkpt lat="43.31979" lon="5.73694">
        <ele>963.3</ele>
        <time>2022-10-16T10:08:00.000Z</time>
      </trkpt>
      <trkpt lat="43.31977" lon="5.73691">
        <ele>963.4</ele>
        <time>2022-10-16T10:08:05.000Z</time>
      </trkpt>
      <trkpt lat="43.31977" lon="5.73691">
        <ele>963.4</ele>
        <time>2022-10-16T10:08:06.000Z</time>
      </trkpt>
      <trkpt lat="43.31974" lon="5.73685">
        <ele>963.4</ele>
        <time>2022-10-16T10:08:14.000Z</time>
      </trkpt>
      <trkpt lat="43.31974" lon="5.73685">
        <ele>963.4</ele>
        <time>2022-10-16T10:08:15.000Z</time>
      </trkpt>
      <trkpt lat="43.31973" lon="5.73672">
        <ele>965.1</ele>
        <time>2022-10-16T10:08:34.000Z</time>
      </trkpt>
      <trkpt lat="43.31971" lon="5.73661">
        <ele>966.4</ele>
        <time>2022-10-16T10:08:51.000Z</time>
      </trkpt>
      <trkpt lat="43.31971" lon="5.73661">
        <ele>966.7</ele>
        <time>2022-10-16T10:09:05.000Z</time>
      </trkpt>
      <trkpt lat="43.31971" lon="5.73656">
        <ele>966.4</ele>
        <time>2022-10-16T10:09:11.000Z</time>
      </trkpt>
      <trkpt lat="43.31971" lon="5.73656">
        <ele>965.7</ele>
        <time>2022-10-16T10:09:13.000Z</time>
      </trkpt>
      <trkpt lat="43.31966" lon="5.73646">
        <ele>964.8</ele>
        <time>2022-10-16T10:09:26.000Z</time>
      </trkpt>
      <trkpt lat="43.31961" lon="5.73634">
        <ele>964.2</ele>
        <time>2022-10-16T10:09:34.000Z</time>
      </trkpt>
      <trkpt lat="43.31959" lon="5.73622">
        <ele>962.9</ele>
        <time>2022-10-16T10:09:43.000Z</time>
      </trkpt>
      <trkpt lat="43.31956" lon="5.7361">
        <ele>961.8</ele>
        <time>2022-10-16T10:09:54.000Z</time>
      </trkpt>
      <trkpt lat="43.31953" lon="5.73598">
        <ele>961</ele>
        <time>2022-10-16T10:10:04.000Z</time>
      </trkpt>
      <trkpt lat="43.31948" lon="5.73586">
        <ele>958.9</ele>
        <time>2022-10-16T10:10:17.000Z</time>
      </trkpt>
      <trkpt lat="43.31945" lon="5.73574">
        <ele>957.7</ele>
        <time>2022-10-16T10:10:29.000Z</time>
      </trkpt>
      <trkpt lat="43.31943" lon="5.73561">
        <ele>956.6</ele>
        <time>2022-10-16T10:10:40.000Z</time>
      </trkpt>
      <trkpt lat="43.31942" lon="5.73548">
        <ele>956.1</ele>
        <time>2022-10-16T10:10:51.000Z</time>
      </trkpt>
      <trkpt lat="43.3194" lon="5.73536">
        <ele>955.6</ele>
        <time>2022-10-16T10:11:03.000Z</time>
      </trkpt>
      <trkpt lat="43.31936" lon="5.73524">
        <ele>956.5</ele>
        <time>2022-10-16T10:11:13.000Z</time>
      </trkpt>
      <trkpt lat="43.31934" lon="5.73512">
        <ele>956.9</ele>
        <time>2022-10-16T10:11:25.000Z</time>
      </trkpt>
      <trkpt lat="43.31928" lon="5.73501">
        <ele>957.4</ele>
        <time>2022-10-16T10:11:38.000Z</time>
      </trkpt>
      <trkpt lat="43.31927" lon="5.73489">
        <ele>959.1</ele>
        <time>2022-10-16T10:11:51.000Z</time>
      </trkpt>
      <trkpt lat="43.31924" lon="5.73476">
        <ele>958.8</ele>
        <time>2022-10-16T10:12:04.000Z</time>
      </trkpt>
      <trkpt lat="43.31917" lon="5.73469">
        <ele>960.6</ele>
        <time>2022-10-16T10:12:18.000Z</time>
      </trkpt>
      <trkpt lat="43.31911" lon="5.73459">
        <ele>962.2</ele>
        <time>2022-10-16T10:12:39.000Z</time>
      </trkpt>
      <trkpt lat="43.31907" lon="5.73447">
        <ele>964.2</ele>
        <time>2022-10-16T10:12:56.000Z</time>
      </trkpt>
      <trkpt lat="43.31906" lon="5.73447">
        <ele>963.8</ele>
        <time>2022-10-16T10:13:00.000Z</time>
      </trkpt>
      <trkpt lat="43.31906" lon="5.73447">
        <ele>963.8</ele>
        <time>2022-10-16T10:13:04.000Z</time>
      </trkpt>
      <trkpt lat="43.31906" lon="5.73447">
        <ele>963.8</ele>
        <time>2022-10-16T10:13:05.000Z</time>
      </trkpt>
      <trkpt lat="43.31906" lon="5.73446">
        <ele>963.8</ele>
        <time>2022-10-16T10:13:08.000Z</time>
      </trkpt>
      <trkpt lat="43.31906" lon="5.73446">
        <ele>963.8</ele>
        <time>2022-10-16T10:13:10.000Z</time>
      </trkpt>
      <trkpt lat="43.31906" lon="5.73446">
        <ele>963.3</ele>
        <time>2022-10-16T10:13:24.000Z</time>
      </trkpt>
      <trkpt lat="43.31906" lon="5.73446">
        <ele>963.5</ele>
        <time>2022-10-16T10:13:25.000Z</time>
      </trkpt>
      <trkpt lat="43.31906" lon="5.73445">
        <ele>963.6</ele>
        <time>2022-10-16T10:13:26.000Z</time>
      </trkpt>
      <trkpt lat="43.31906" lon="5.73441">
        <ele>963.1</ele>
        <time>2022-10-16T10:13:32.000Z</time>
      </trkpt>
      <trkpt lat="43.31906" lon="5.7344">
        <ele>963.4</ele>
        <time>2022-10-16T10:13:36.000Z</time>
      </trkpt>
      <trkpt lat="43.31905" lon="5.7344">
        <ele>963.4</ele>
        <time>2022-10-16T10:13:38.000Z</time>
      </trkpt>
      <trkpt lat="43.31905" lon="5.7344">
        <ele>963.3</ele>
        <time>2022-10-16T10:13:40.000Z</time>
      </trkpt>
      <trkpt lat="43.31904" lon="5.73436">
        <ele>963.2</ele>
        <time>2022-10-16T10:13:46.000Z</time>
      </trkpt>
      <trkpt lat="43.31904" lon="5.73436">
        <ele>963.1</ele>
        <time>2022-10-16T10:13:48.000Z</time>
      </trkpt>
      <trkpt lat="43.31904" lon="5.73432">
        <ele>963.3</ele>
        <time>2022-10-16T10:13:55.000Z</time>
      </trkpt>
      <trkpt lat="43.31904" lon="5.73431">
        <ele>963.4</ele>
        <time>2022-10-16T10:13:56.000Z</time>
      </trkpt>
      <trkpt lat="43.31903" lon="5.73418">
        <ele>963.9</ele>
        <time>2022-10-16T10:14:09.000Z</time>
      </trkpt>
      <trkpt lat="43.31897" lon="5.73408">
        <ele>964.2</ele>
        <time>2022-10-16T10:14:19.000Z</time>
      </trkpt>
      <trkpt lat="43.31894" lon="5.73396">
        <ele>964.6</ele>
        <time>2022-10-16T10:14:31.000Z</time>
      </trkpt>
      <trkpt lat="43.3189" lon="5.73386">
        <ele>965.3</ele>
        <time>2022-10-16T10:14:44.000Z</time>
      </trkpt>
      <trkpt lat="43.3189" lon="5.73385">
        <ele>965.4</ele>
        <time>2022-10-16T10:14:45.000Z</time>
      </trkpt>
      <trkpt lat="43.3189" lon="5.73385">
        <ele>965.4</ele>
        <time>2022-10-16T10:14:47.000Z</time>
      </trkpt>
      <trkpt lat="43.3189" lon="5.73384">
        <ele>965.2</ele>
        <time>2022-10-16T10:14:48.000Z</time>
      </trkpt>
      <trkpt lat="43.3189" lon="5.73382">
        <ele>965.2</ele>
        <time>2022-10-16T10:14:52.000Z</time>
      </trkpt>
      <trkpt lat="43.3189" lon="5.73382">
        <ele>965.2</ele>
        <time>2022-10-16T10:14:56.000Z</time>
      </trkpt>
      <trkpt lat="43.31891" lon="5.7338">
        <ele>965.4</ele>
        <time>2022-10-16T10:15:00.000Z</time>
      </trkpt>
      <trkpt lat="43.31891" lon="5.7338">
        <ele>965.4</ele>
        <time>2022-10-16T10:15:05.000Z</time>
      </trkpt>
      <trkpt lat="43.31891" lon="5.7338">
        <ele>965.6</ele>
        <time>2022-10-16T10:15:08.000Z</time>
      </trkpt>
      <trkpt lat="43.31891" lon="5.7338">
        <ele>965.7</ele>
        <time>2022-10-16T10:15:18.000Z</time>
      </trkpt>
      <trkpt lat="43.31891" lon="5.73379">
        <ele>965.9</ele>
        <time>2022-10-16T10:15:23.000Z</time>
      </trkpt>
      <trkpt lat="43.31891" lon="5.73379">
        <ele>966</ele>
        <time>2022-10-16T10:15:24.000Z</time>
      </trkpt>
      <trkpt lat="43.31891" lon="5.73379">
        <ele>965.9</ele>
        <time>2022-10-16T10:15:25.000Z</time>
      </trkpt>
      <trkpt lat="43.31891" lon="5.73379">
        <ele>965.7</ele>
        <time>2022-10-16T10:15:37.000Z</time>
      </trkpt>
      <trkpt lat="43.3189" lon="5.73379">
        <ele>966.7</ele>
        <time>2022-10-16T10:15:41.000Z</time>
      </trkpt>
      <trkpt lat="43.3189" lon="5.73378">
        <ele>966.9</ele>
        <time>2022-10-16T10:15:42.000Z</time>
      </trkpt>
      <trkpt lat="43.31892" lon="5.73376">
        <ele>968.6</ele>
        <time>2022-10-16T10:15:53.000Z</time>
      </trkpt>
      <trkpt lat="43.31892" lon="5.73377">
        <ele>968.1</ele>
        <time>2022-10-16T10:16:18.000Z</time>
      </trkpt>
      <trkpt lat="43.31892" lon="5.73377">
        <ele>968.1</ele>
        <time>2022-10-16T10:16:20.000Z</time>
      </trkpt>
      <trkpt lat="43.31891" lon="5.73377">
        <ele>967.9</ele>
        <time>2022-10-16T10:16:21.000Z</time>
      </trkpt>
      <trkpt lat="43.31891" lon="5.73377">
        <ele>967.6</ele>
        <time>2022-10-16T10:16:23.000Z</time>
      </trkpt>
      <trkpt lat="43.31891" lon="5.73376">
        <ele>967.7</ele>
        <time>2022-10-16T10:16:31.000Z</time>
      </trkpt>
      <trkpt lat="43.31889" lon="5.73366">
        <ele>968.9</ele>
        <time>2022-10-16T10:16:42.000Z</time>
      </trkpt>
      <trkpt lat="43.31889" lon="5.73366">
        <ele>968.4</ele>
        <time>2022-10-16T10:16:47.000Z</time>
      </trkpt>
      <trkpt lat="43.31884" lon="5.73354">
        <ele>971.2</ele>
        <time>2022-10-16T10:17:02.000Z</time>
      </trkpt>
      <trkpt lat="43.31881" lon="5.73342">
        <ele>970.7</ele>
        <time>2022-10-16T10:17:15.000Z</time>
      </trkpt>
      <trkpt lat="43.31879" lon="5.7333">
        <ele>972.9</ele>
        <time>2022-10-16T10:17:28.000Z</time>
      </trkpt>
      <trkpt lat="43.31873" lon="5.7332">
        <ele>972.5</ele>
        <time>2022-10-16T10:17:38.000Z</time>
      </trkpt>
      <trkpt lat="43.31869" lon="5.73309">
        <ele>973.5</ele>
        <time>2022-10-16T10:17:52.000Z</time>
      </trkpt>
      <trkpt lat="43.31866" lon="5.73299">
        <ele>973.6</ele>
        <time>2022-10-16T10:18:09.000Z</time>
      </trkpt>
      <trkpt lat="43.31866" lon="5.73299">
        <ele>973.7</ele>
        <time>2022-10-16T10:18:10.000Z</time>
      </trkpt>
      <trkpt lat="43.31866" lon="5.73286">
        <ele>973.8</ele>
        <time>2022-10-16T10:18:31.000Z</time>
      </trkpt>
      <trkpt lat="43.3186" lon="5.73275">
        <ele>973.6</ele>
        <time>2022-10-16T10:18:48.000Z</time>
      </trkpt>
      <trkpt lat="43.31857" lon="5.73264">
        <ele>973.5</ele>
        <time>2022-10-16T10:19:04.000Z</time>
      </trkpt>
      <trkpt lat="43.31851" lon="5.73254">
        <ele>972.8</ele>
        <time>2022-10-16T10:19:19.000Z</time>
      </trkpt>
      <trkpt lat="43.3185" lon="5.7325">
        <ele>973.1</ele>
        <time>2022-10-16T10:19:27.000Z</time>
      </trkpt>
      <trkpt lat="43.3185" lon="5.7325">
        <ele>973.2</ele>
        <time>2022-10-16T10:19:28.000Z</time>
      </trkpt>
      <trkpt lat="43.31845" lon="5.7324">
        <ele>971.6</ele>
        <time>2022-10-16T10:19:43.000Z</time>
      </trkpt>
      <trkpt lat="43.31843" lon="5.73238">
        <ele>971.9</ele>
        <time>2022-10-16T10:19:50.000Z</time>
      </trkpt>
      <trkpt lat="43.31843" lon="5.73237">
        <ele>971.9</ele>
        <time>2022-10-16T10:19:51.000Z</time>
      </trkpt>
      <trkpt lat="43.31842" lon="5.73225">
        <ele>971.8</ele>
        <time>2022-10-16T10:20:07.000Z</time>
      </trkpt>
      <trkpt lat="43.31842" lon="5.73213">
        <ele>974.7</ele>
        <time>2022-10-16T10:20:27.000Z</time>
      </trkpt>
      <trkpt lat="43.31842" lon="5.73213">
        <ele>974.8</ele>
        <time>2022-10-16T10:20:29.000Z</time>
      </trkpt>
      <trkpt lat="43.31842" lon="5.73212">
        <ele>974.8</ele>
        <time>2022-10-16T10:20:36.000Z</time>
      </trkpt>
      <trkpt lat="43.31842" lon="5.73211">
        <ele>974.6</ele>
        <time>2022-10-16T10:20:38.000Z</time>
      </trkpt>
      <trkpt lat="43.31841" lon="5.73211">
        <ele>974.6</ele>
        <time>2022-10-16T10:20:39.000Z</time>
      </trkpt>
      <trkpt lat="43.31839" lon="5.732">
        <ele>975.4</ele>
        <time>2022-10-16T10:20:58.000Z</time>
      </trkpt>
      <trkpt lat="43.3184" lon="5.732">
        <ele>975.5</ele>
        <time>2022-10-16T10:21:06.000Z</time>
      </trkpt>
      <trkpt lat="43.3184" lon="5.73198">
        <ele>975.8</ele>
        <time>2022-10-16T10:21:10.000Z</time>
      </trkpt>
      <trkpt lat="43.3184" lon="5.73198">
        <ele>976.9</ele>
        <time>2022-10-16T10:21:14.000Z</time>
      </trkpt>
      <trkpt lat="43.3184" lon="5.73198">
        <ele>977.2</ele>
        <time>2022-10-16T10:21:16.000Z</time>
      </trkpt>
      <trkpt lat="43.3184" lon="5.73198">
        <ele>976.5</ele>
        <time>2022-10-16T10:21:21.000Z</time>
      </trkpt>
      <trkpt lat="43.31838" lon="5.73185">
        <ele>976.5</ele>
        <time>2022-10-16T10:21:36.000Z</time>
      </trkpt>
      <trkpt lat="43.31838" lon="5.73173">
        <ele>974.8</ele>
        <time>2022-10-16T10:21:50.000Z</time>
      </trkpt>
      <trkpt lat="43.31834" lon="5.73164">
        <ele>975.8</ele>
        <time>2022-10-16T10:22:04.000Z</time>
      </trkpt>
      <trkpt lat="43.31834" lon="5.73164">
        <ele>975.9</ele>
        <time>2022-10-16T10:22:05.000Z</time>
      </trkpt>
      <trkpt lat="43.31832" lon="5.73153">
        <ele>976.5</ele>
        <time>2022-10-16T10:22:24.000Z</time>
      </trkpt>
      <trkpt lat="43.31832" lon="5.73152">
        <ele>976.6</ele>
        <time>2022-10-16T10:22:28.000Z</time>
      </trkpt>
      <trkpt lat="43.31828" lon="5.7314">
        <ele>978.1</ele>
        <time>2022-10-16T10:22:46.000Z</time>
      </trkpt>
      <trkpt lat="43.31828" lon="5.7314">
        <ele>978.2</ele>
        <time>2022-10-16T10:22:47.000Z</time>
      </trkpt>
      <trkpt lat="43.31828" lon="5.7314">
        <ele>978</ele>
        <time>2022-10-16T10:22:53.000Z</time>
      </trkpt>
      <trkpt lat="43.31828" lon="5.73139">
        <ele>977.7</ele>
        <time>2022-10-16T10:22:58.000Z</time>
      </trkpt>
      <trkpt lat="43.31829" lon="5.73139">
        <ele>977.4</ele>
        <time>2022-10-16T10:23:04.000Z</time>
      </trkpt>
      <trkpt lat="43.31829" lon="5.73139">
        <ele>977.8</ele>
        <time>2022-10-16T10:23:05.000Z</time>
      </trkpt>
      <trkpt lat="43.31828" lon="5.73139">
        <ele>978.6</ele>
        <time>2022-10-16T10:23:42.000Z</time>
      </trkpt>
      <trkpt lat="43.31828" lon="5.73139">
        <ele>978</ele>
        <time>2022-10-16T10:23:44.000Z</time>
      </trkpt>
      <trkpt lat="43.31828" lon="5.73138">
        <ele>979.2</ele>
        <time>2022-10-16T10:23:55.000Z</time>
      </trkpt>
      <trkpt lat="43.31826" lon="5.73125">
        <ele>979.9</ele>
        <time>2022-10-16T10:24:07.000Z</time>
      </trkpt>
      <trkpt lat="43.31822" lon="5.73114">
        <ele>980.4</ele>
        <time>2022-10-16T10:24:19.000Z</time>
      </trkpt>
      <trkpt lat="43.31817" lon="5.73103">
        <ele>979.5</ele>
        <time>2022-10-16T10:24:33.000Z</time>
      </trkpt>
      <trkpt lat="43.31815" lon="5.7309">
        <ele>982</ele>
        <time>2022-10-16T10:24:48.000Z</time>
      </trkpt>
      <trkpt lat="43.31814" lon="5.73076">
        <ele>981.2</ele>
        <time>2022-10-16T10:25:01.000Z</time>
      </trkpt>
      <trkpt lat="43.31811" lon="5.73064">
        <ele>981</ele>
        <time>2022-10-16T10:25:13.000Z</time>
      </trkpt>
      <trkpt lat="43.3181" lon="5.73051">
        <ele>980.5</ele>
        <time>2022-10-16T10:25:25.000Z</time>
      </trkpt>
      <trkpt lat="43.31808" lon="5.73039">
        <ele>981.8</ele>
        <time>2022-10-16T10:25:37.000Z</time>
      </trkpt>
      <trkpt lat="43.31806" lon="5.73027">
        <ele>981</ele>
        <time>2022-10-16T10:25:49.000Z</time>
      </trkpt>
      <trkpt lat="43.31803" lon="5.73014">
        <ele>980.4</ele>
        <time>2022-10-16T10:25:59.000Z</time>
      </trkpt>
      <trkpt lat="43.31802" lon="5.73006">
        <ele>980.4</ele>
        <time>2022-10-16T10:26:09.000Z</time>
      </trkpt>
      <trkpt lat="43.31802" lon="5.73005">
        <ele>980.4</ele>
        <time>2022-10-16T10:26:10.000Z</time>
      </trkpt>
      <trkpt lat="43.318" lon="5.72993">
        <ele>980.6</ele>
        <time>2022-10-16T10:26:26.000Z</time>
      </trkpt>
      <trkpt lat="43.31799" lon="5.72988">
        <ele>981.6</ele>
        <time>2022-10-16T10:26:35.000Z</time>
      </trkpt>
      <trkpt lat="43.31799" lon="5.72987">
        <ele>981.9</ele>
        <time>2022-10-16T10:26:46.000Z</time>
      </trkpt>
      <trkpt lat="43.31799" lon="5.72987">
        <ele>981.6</ele>
        <time>2022-10-16T10:26:48.000Z</time>
      </trkpt>
      <trkpt lat="43.31799" lon="5.72987">
        <ele>982</ele>
        <time>2022-10-16T10:26:53.000Z</time>
      </trkpt>
      <trkpt lat="43.31795" lon="5.72982">
        <ele>981.4</ele>
        <time>2022-10-16T10:27:03.000Z</time>
      </trkpt>
      <trkpt lat="43.31795" lon="5.72981">
        <ele>982.2</ele>
        <time>2022-10-16T10:27:28.000Z</time>
      </trkpt>
      <trkpt lat="43.31796" lon="5.72968">
        <ele>981.9</ele>
        <time>2022-10-16T10:27:42.000Z</time>
      </trkpt>
      <trkpt lat="43.31796" lon="5.72964">
        <ele>981.7</ele>
        <time>2022-10-16T10:27:48.000Z</time>
      </trkpt>
      <trkpt lat="43.31796" lon="5.72964">
        <ele>981.4</ele>
        <time>2022-10-16T10:27:52.000Z</time>
      </trkpt>
      <trkpt lat="43.318" lon="5.72956">
        <ele>980</ele>
        <time>2022-10-16T10:28:14.000Z</time>
      </trkpt>
      <trkpt lat="43.318" lon="5.72956">
        <ele>980</ele>
        <time>2022-10-16T10:28:19.000Z</time>
      </trkpt>
      <trkpt lat="43.31799" lon="5.72955">
        <ele>978.5</ele>
        <time>2022-10-16T11:22:43.000Z</time>
      </trkpt>
      <trkpt lat="43.31799" lon="5.72956">
        <ele>978.4</ele>
        <time>2022-10-16T11:22:44.000Z</time>
      </trkpt>
      <trkpt lat="43.31799" lon="5.72955">
        <ele>978.1</ele>
        <time>2022-10-16T11:22:53.000Z</time>
      </trkpt>
      <trkpt lat="43.31799" lon="5.72946">
        <ele>979</ele>
        <time>2022-10-16T11:23:08.000Z</time>
      </trkpt>
      <trkpt lat="43.31798" lon="5.72946">
        <ele>979</ele>
        <time>2022-10-16T11:23:09.000Z</time>
      </trkpt>
      <trkpt lat="43.31794" lon="5.7294">
        <ele>980.4</ele>
        <time>2022-10-16T11:23:22.000Z</time>
      </trkpt>
      <trkpt lat="43.31794" lon="5.72939">
        <ele>980.4</ele>
        <time>2022-10-16T11:23:28.000Z</time>
      </trkpt>
      <trkpt lat="43.31789" lon="5.72929">
        <ele>981.3</ele>
        <time>2022-10-16T11:23:43.000Z</time>
      </trkpt>
      <trkpt lat="43.31786" lon="5.72916">
        <ele>981.8</ele>
        <time>2022-10-16T11:23:54.000Z</time>
      </trkpt>
      <trkpt lat="43.31784" lon="5.72904">
        <ele>983.1</ele>
        <time>2022-10-16T11:24:07.000Z</time>
      </trkpt>
      <trkpt lat="43.31782" lon="5.72893">
        <ele>984.1</ele>
        <time>2022-10-16T11:24:23.000Z</time>
      </trkpt>
      <trkpt lat="43.31782" lon="5.72892">
        <ele>983.9</ele>
        <time>2022-10-16T11:24:25.000Z</time>
      </trkpt>
      <trkpt lat="43.31781" lon="5.72889">
        <ele>984.2</ele>
        <time>2022-10-16T11:24:30.000Z</time>
      </trkpt>
      <trkpt lat="43.31781" lon="5.72888">
        <ele>984.5</ele>
        <time>2022-10-16T11:24:39.000Z</time>
      </trkpt>
      <trkpt lat="43.31776" lon="5.72878">
        <ele>984.4</ele>
        <time>2022-10-16T11:24:50.000Z</time>
      </trkpt>
      <trkpt lat="43.31773" lon="5.72866">
        <ele>985.2</ele>
        <time>2022-10-16T11:25:01.000Z</time>
      </trkpt>
      <trkpt lat="43.3177" lon="5.72854">
        <ele>986.1</ele>
        <time>2022-10-16T11:25:12.000Z</time>
      </trkpt>
      <trkpt lat="43.3177" lon="5.72853">
        <ele>986.1</ele>
        <time>2022-10-16T11:25:14.000Z</time>
      </trkpt>
      <trkpt lat="43.3177" lon="5.72853">
        <ele>985.8</ele>
        <time>2022-10-16T11:25:25.000Z</time>
      </trkpt>
      <trkpt lat="43.3177" lon="5.72853">
        <ele>985.9</ele>
        <time>2022-10-16T11:25:26.000Z</time>
      </trkpt>
      <trkpt lat="43.31769" lon="5.72853">
        <ele>986.1</ele>
        <time>2022-10-16T11:25:28.000Z</time>
      </trkpt>
      <trkpt lat="43.31769" lon="5.72853">
        <ele>986.1</ele>
        <time>2022-10-16T11:25:29.000Z</time>
      </trkpt>
      <trkpt lat="43.31769" lon="5.72853">
        <ele>986</ele>
        <time>2022-10-16T11:25:37.000Z</time>
      </trkpt>
      <trkpt lat="43.31769" lon="5.72853">
        <ele>986.1</ele>
        <time>2022-10-16T11:25:38.000Z</time>
      </trkpt>
      <trkpt lat="43.31769" lon="5.72852">
        <ele>986.1</ele>
        <time>2022-10-16T11:25:39.000Z</time>
      </trkpt>
      <trkpt lat="43.31766" lon="5.72844">
        <ele>987.1</ele>
        <time>2022-10-16T11:25:53.000Z</time>
      </trkpt>
      <trkpt lat="43.31766" lon="5.72844">
        <ele>987.2</ele>
        <time>2022-10-16T11:25:54.000Z</time>
      </trkpt>
      <trkpt lat="43.31765" lon="5.72844">
        <ele>987.7</ele>
        <time>2022-10-16T11:25:58.000Z</time>
      </trkpt>
      <trkpt lat="43.31765" lon="5.72844">
        <ele>987.6</ele>
        <time>2022-10-16T11:26:06.000Z</time>
      </trkpt>
      <trkpt lat="43.31764" lon="5.72845">
        <ele>988.1</ele>
        <time>2022-10-16T11:26:11.000Z</time>
      </trkpt>
      <trkpt lat="43.31764" lon="5.72845">
        <ele>988.1</ele>
        <time>2022-10-16T11:26:18.000Z</time>
      </trkpt>
      <trkpt lat="43.31764" lon="5.72845">
        <ele>988.1</ele>
        <time>2022-10-16T11:26:19.000Z</time>
      </trkpt>
      <trkpt lat="43.31764" lon="5.72845">
        <ele>988.4</ele>
        <time>2022-10-16T11:26:21.000Z</time>
      </trkpt>
      <trkpt lat="43.31763" lon="5.72844">
        <ele>988.1</ele>
        <time>2022-10-16T11:26:25.000Z</time>
      </trkpt>
      <trkpt lat="43.31763" lon="5.72844">
        <ele>988.1</ele>
        <time>2022-10-16T11:26:26.000Z</time>
      </trkpt>
      <trkpt lat="43.31762" lon="5.72842">
        <ele>988.1</ele>
        <time>2022-10-16T11:26:30.000Z</time>
      </trkpt>
      <trkpt lat="43.31762" lon="5.72842">
        <ele>988.1</ele>
        <time>2022-10-16T11:26:38.000Z</time>
      </trkpt>
      <trkpt lat="43.3176" lon="5.72838">
        <ele>987.5</ele>
        <time>2022-10-16T11:26:46.000Z</time>
      </trkpt>
      <trkpt lat="43.3176" lon="5.72838">
        <ele>987.6</ele>
        <time>2022-10-16T11:26:56.000Z</time>
      </trkpt>
      <trkpt lat="43.3176" lon="5.72837">
        <ele>987.9</ele>
        <time>2022-10-16T11:27:01.000Z</time>
      </trkpt>
      <trkpt lat="43.3176" lon="5.72836">
        <ele>988.3</ele>
        <time>2022-10-16T11:27:04.000Z</time>
      </trkpt>
      <trkpt lat="43.3176" lon="5.72833">
        <ele>988.4</ele>
        <time>2022-10-16T11:27:10.000Z</time>
      </trkpt>
      <trkpt lat="43.3176" lon="5.72833">
        <ele>988.3</ele>
        <time>2022-10-16T11:27:11.000Z</time>
      </trkpt>
      <trkpt lat="43.3176" lon="5.72832">
        <ele>988.9</ele>
        <time>2022-10-16T11:27:13.000Z</time>
      </trkpt>
      <trkpt lat="43.3176" lon="5.72832">
        <ele>989.2</ele>
        <time>2022-10-16T11:27:15.000Z</time>
      </trkpt>
      <trkpt lat="43.31759" lon="5.72831">
        <ele>989.5</ele>
        <time>2022-10-16T11:27:19.000Z</time>
      </trkpt>
      <trkpt lat="43.31759" lon="5.72831">
        <ele>989.5</ele>
        <time>2022-10-16T11:27:21.000Z</time>
      </trkpt>
      <trkpt lat="43.3176" lon="5.72828">
        <ele>989.7</ele>
        <time>2022-10-16T11:27:27.000Z</time>
      </trkpt>
      <trkpt lat="43.3176" lon="5.72827">
        <ele>989.6</ele>
        <time>2022-10-16T11:27:28.000Z</time>
      </trkpt>
      <trkpt lat="43.3176" lon="5.72827">
        <ele>989.7</ele>
        <time>2022-10-16T11:27:31.000Z</time>
      </trkpt>
      <trkpt lat="43.31759" lon="5.72827">
        <ele>990</ele>
        <time>2022-10-16T11:27:33.000Z</time>
      </trkpt>
      <trkpt lat="43.31759" lon="5.72827">
        <ele>990.1</ele>
        <time>2022-10-16T11:27:34.000Z</time>
      </trkpt>
      <trkpt lat="43.31759" lon="5.72827">
        <ele>990</ele>
        <time>2022-10-16T11:27:35.000Z</time>
      </trkpt>
      <trkpt lat="43.31755" lon="5.72824">
        <ele>989.2</ele>
        <time>2022-10-16T11:27:50.000Z</time>
      </trkpt>
      <trkpt lat="43.31755" lon="5.72824">
        <ele>989.3</ele>
        <time>2022-10-16T11:27:55.000Z</time>
      </trkpt>
      <trkpt lat="43.31755" lon="5.72823">
        <ele>989.6</ele>
        <time>2022-10-16T11:27:58.000Z</time>
      </trkpt>
      <trkpt lat="43.31755" lon="5.72823">
        <ele>990.2</ele>
        <time>2022-10-16T11:28:03.000Z</time>
      </trkpt>
      <trkpt lat="43.31754" lon="5.7281">
        <ele>991.2</ele>
        <time>2022-10-16T11:28:24.000Z</time>
      </trkpt>
      <trkpt lat="43.31751" lon="5.72798">
        <ele>990.3</ele>
        <time>2022-10-16T11:28:40.000Z</time>
      </trkpt>
      <trkpt lat="43.3175" lon="5.7279">
        <ele>991.5</ele>
        <time>2022-10-16T11:28:51.000Z</time>
      </trkpt>
      <trkpt lat="43.3175" lon="5.7279">
        <ele>991.4</ele>
        <time>2022-10-16T11:28:52.000Z</time>
      </trkpt>
      <trkpt lat="43.31748" lon="5.72777">
        <ele>990.9</ele>
        <time>2022-10-16T11:29:11.000Z</time>
      </trkpt>
      <trkpt lat="43.31746" lon="5.72764">
        <ele>991.5</ele>
        <time>2022-10-16T11:29:27.000Z</time>
      </trkpt>
      <trkpt lat="43.31745" lon="5.7276">
        <ele>991.4</ele>
        <time>2022-10-16T11:29:34.000Z</time>
      </trkpt>
      <trkpt lat="43.31745" lon="5.72759">
        <ele>991.3</ele>
        <time>2022-10-16T11:29:38.000Z</time>
      </trkpt>
      <trkpt lat="43.31745" lon="5.72759">
        <ele>991.4</ele>
        <time>2022-10-16T11:29:39.000Z</time>
      </trkpt>
      <trkpt lat="43.31745" lon="5.72758">
        <ele>991.4</ele>
        <time>2022-10-16T11:29:41.000Z</time>
      </trkpt>
      <trkpt lat="43.31741" lon="5.72746">
        <ele>991.9</ele>
        <time>2022-10-16T11:29:56.000Z</time>
      </trkpt>
      <trkpt lat="43.31741" lon="5.72733">
        <ele>991.9</ele>
        <time>2022-10-16T11:30:12.000Z</time>
      </trkpt>
      <trkpt lat="43.31738" lon="5.72721">
        <ele>992</ele>
        <time>2022-10-16T11:30:24.000Z</time>
      </trkpt>
      <trkpt lat="43.31737" lon="5.72708">
        <ele>991.6</ele>
        <time>2022-10-16T11:30:36.000Z</time>
      </trkpt>
      <trkpt lat="43.31734" lon="5.72695">
        <ele>992.1</ele>
        <time>2022-10-16T11:30:48.000Z</time>
      </trkpt>
      <trkpt lat="43.3173" lon="5.72684">
        <ele>993.3</ele>
        <time>2022-10-16T11:30:59.000Z</time>
      </trkpt>
      <trkpt lat="43.31727" lon="5.72672">
        <ele>994.2</ele>
        <time>2022-10-16T11:31:12.000Z</time>
      </trkpt>
      <trkpt lat="43.31725" lon="5.72658">
        <ele>994</ele>
        <time>2022-10-16T11:31:23.000Z</time>
      </trkpt>
      <trkpt lat="43.31722" lon="5.72647">
        <ele>992.7</ele>
        <time>2022-10-16T11:31:35.000Z</time>
      </trkpt>
      <trkpt lat="43.31719" lon="5.72635">
        <ele>992.3</ele>
        <time>2022-10-16T11:31:50.000Z</time>
      </trkpt>
      <trkpt lat="43.31716" lon="5.72622">
        <ele>992.3</ele>
        <time>2022-10-16T11:32:01.000Z</time>
      </trkpt>
      <trkpt lat="43.31713" lon="5.7261">
        <ele>992.4</ele>
        <time>2022-10-16T11:32:13.000Z</time>
      </trkpt>
      <trkpt lat="43.31712" lon="5.72597">
        <ele>993.1</ele>
        <time>2022-10-16T11:32:26.000Z</time>
      </trkpt>
      <trkpt lat="43.3171" lon="5.72585">
        <ele>993.6</ele>
        <time>2022-10-16T11:32:35.000Z</time>
      </trkpt>
      <trkpt lat="43.31708" lon="5.72572">
        <ele>992.8</ele>
        <time>2022-10-16T11:32:46.000Z</time>
      </trkpt>
      <trkpt lat="43.31707" lon="5.72559">
        <ele>993.6</ele>
        <time>2022-10-16T11:32:58.000Z</time>
      </trkpt>
      <trkpt lat="43.31706" lon="5.72556">
        <ele>993.6</ele>
        <time>2022-10-16T11:33:05.000Z</time>
      </trkpt>
      <trkpt lat="43.31706" lon="5.72556">
        <ele>993.6</ele>
        <time>2022-10-16T11:33:06.000Z</time>
      </trkpt>
      <trkpt lat="43.31706" lon="5.72556">
        <ele>993.6</ele>
        <time>2022-10-16T11:33:07.000Z</time>
      </trkpt>
      <trkpt lat="43.31706" lon="5.72556">
        <ele>993.8</ele>
        <time>2022-10-16T11:33:09.000Z</time>
      </trkpt>
      <trkpt lat="43.31706" lon="5.72554">
        <ele>994.2</ele>
        <time>2022-10-16T11:33:13.000Z</time>
      </trkpt>
      <trkpt lat="43.31706" lon="5.72554">
        <ele>994.1</ele>
        <time>2022-10-16T11:33:16.000Z</time>
      </trkpt>
      <trkpt lat="43.31706" lon="5.72554">
        <ele>993.9</ele>
        <time>2022-10-16T11:33:17.000Z</time>
      </trkpt>
      <trkpt lat="43.31706" lon="5.72554">
        <ele>994</ele>
        <time>2022-10-16T11:33:21.000Z</time>
      </trkpt>
      <trkpt lat="43.31706" lon="5.72554">
        <ele>994.1</ele>
        <time>2022-10-16T11:33:22.000Z</time>
      </trkpt>
      <trkpt lat="43.31706" lon="5.72554">
        <ele>994.3</ele>
        <time>2022-10-16T11:33:24.000Z</time>
      </trkpt>
      <trkpt lat="43.31707" lon="5.72541">
        <ele>994.1</ele>
        <time>2022-10-16T11:33:34.000Z</time>
      </trkpt>
      <trkpt lat="43.31708" lon="5.72528">
        <ele>994.7</ele>
        <time>2022-10-16T11:33:43.000Z</time>
      </trkpt>
      <trkpt lat="43.31707" lon="5.72527">
        <ele>994.3</ele>
        <time>2022-10-16T11:33:46.000Z</time>
      </trkpt>
      <trkpt lat="43.31708" lon="5.72527">
        <ele>994.3</ele>
        <time>2022-10-16T11:33:48.000Z</time>
      </trkpt>
      <trkpt lat="43.31708" lon="5.72527">
        <ele>994.2</ele>
        <time>2022-10-16T11:33:49.000Z</time>
      </trkpt>
      <trkpt lat="43.31707" lon="5.72527">
        <ele>994.4</ele>
        <time>2022-10-16T11:33:51.000Z</time>
      </trkpt>
      <trkpt lat="43.31705" lon="5.72522">
        <ele>994.3</ele>
        <time>2022-10-16T11:34:00.000Z</time>
      </trkpt>
      <trkpt lat="43.31705" lon="5.72521">
        <ele>994.5</ele>
        <time>2022-10-16T11:34:04.000Z</time>
      </trkpt>
      <trkpt lat="43.31704" lon="5.72516">
        <ele>994.3</ele>
        <time>2022-10-16T11:34:11.000Z</time>
      </trkpt>
      <trkpt lat="43.31704" lon="5.72517">
        <ele>994.2</ele>
        <time>2022-10-16T11:34:25.000Z</time>
      </trkpt>
      <trkpt lat="43.31704" lon="5.72517">
        <ele>994.2</ele>
        <time>2022-10-16T11:34:26.000Z</time>
      </trkpt>
      <trkpt lat="43.31704" lon="5.72516">
        <ele>994.4</ele>
        <time>2022-10-16T11:34:27.000Z</time>
      </trkpt>
      <trkpt lat="43.31701" lon="5.72504">
        <ele>994.2</ele>
        <time>2022-10-16T11:34:39.000Z</time>
      </trkpt>
      <trkpt lat="43.31703" lon="5.72492">
        <ele>996.1</ele>
        <time>2022-10-16T11:34:54.000Z</time>
      </trkpt>
      <trkpt lat="43.31703" lon="5.72492">
        <ele>996.3</ele>
        <time>2022-10-16T11:34:56.000Z</time>
      </trkpt>
      <trkpt lat="43.31702" lon="5.72479">
        <ele>997.5</ele>
        <time>2022-10-16T11:35:07.000Z</time>
      </trkpt>
      <trkpt lat="43.31707" lon="5.72468">
        <ele>999</ele>
        <time>2022-10-16T11:35:21.000Z</time>
      </trkpt>
      <trkpt lat="43.3171" lon="5.72456">
        <ele>999.7</ele>
        <time>2022-10-16T11:35:32.000Z</time>
      </trkpt>
      <trkpt lat="43.31718" lon="5.72449">
        <ele>1001</ele>
        <time>2022-10-16T11:35:48.000Z</time>
      </trkpt>
      <trkpt lat="43.31717" lon="5.72437">
        <ele>1001.9</ele>
        <time>2022-10-16T11:35:57.000Z</time>
      </trkpt>
      <trkpt lat="43.31716" lon="5.72424">
        <ele>1002.4</ele>
        <time>2022-10-16T11:36:08.000Z</time>
      </trkpt>
      <trkpt lat="43.31717" lon="5.72411">
        <ele>1003.4</ele>
        <time>2022-10-16T11:36:19.000Z</time>
      </trkpt>
      <trkpt lat="43.31716" lon="5.72398">
        <ele>1004.2</ele>
        <time>2022-10-16T11:36:29.000Z</time>
      </trkpt>
      <trkpt lat="43.31716" lon="5.72385">
        <ele>1005.6</ele>
        <time>2022-10-16T11:36:41.000Z</time>
      </trkpt>
      <trkpt lat="43.31718" lon="5.72372">
        <ele>1006.5</ele>
        <time>2022-10-16T11:36:51.000Z</time>
      </trkpt>
      <trkpt lat="43.31721" lon="5.72359">
        <ele>1007.3</ele>
        <time>2022-10-16T11:37:02.000Z</time>
      </trkpt>
      <trkpt lat="43.31722" lon="5.72346">
        <ele>1008.2</ele>
        <time>2022-10-16T11:37:13.000Z</time>
      </trkpt>
      <trkpt lat="43.31722" lon="5.72333">
        <ele>1008.9</ele>
        <time>2022-10-16T11:37:24.000Z</time>
      </trkpt>
      <trkpt lat="43.31721" lon="5.7232">
        <ele>1009.6</ele>
        <time>2022-10-16T11:37:33.000Z</time>
      </trkpt>
      <trkpt lat="43.31721" lon="5.72307">
        <ele>1009.9</ele>
        <time>2022-10-16T11:37:42.000Z</time>
      </trkpt>
      <trkpt lat="43.31722" lon="5.72293">
        <ele>1010.5</ele>
        <time>2022-10-16T11:37:52.000Z</time>
      </trkpt>
      <trkpt lat="43.31722" lon="5.7228">
        <ele>1011.1</ele>
        <time>2022-10-16T11:38:01.000Z</time>
      </trkpt>
      <trkpt lat="43.31723" lon="5.72267">
        <ele>1011.5</ele>
        <time>2022-10-16T11:38:09.000Z</time>
      </trkpt>
      <trkpt lat="43.31724" lon="5.72254">
        <ele>1011.8</ele>
        <time>2022-10-16T11:38:18.000Z</time>
      </trkpt>
      <trkpt lat="43.31724" lon="5.72242">
        <ele>1012.1</ele>
        <time>2022-10-16T11:38:28.000Z</time>
      </trkpt>
      <trkpt lat="43.31723" lon="5.72231">
        <ele>1012.5</ele>
        <time>2022-10-16T11:38:42.000Z</time>
      </trkpt>
      <trkpt lat="43.31723" lon="5.72231">
        <ele>1012.7</ele>
        <time>2022-10-16T11:38:45.000Z</time>
      </trkpt>
      <trkpt lat="43.31723" lon="5.72218">
        <ele>1013.3</ele>
        <time>2022-10-16T11:38:56.000Z</time>
      </trkpt>
      <trkpt lat="43.31723" lon="5.72205">
        <ele>1012.9</ele>
        <time>2022-10-16T11:39:06.000Z</time>
      </trkpt>
      <trkpt lat="43.31723" lon="5.72204">
        <ele>1013</ele>
        <time>2022-10-16T11:39:08.000Z</time>
      </trkpt>
      <trkpt lat="43.31723" lon="5.72204">
        <ele>1012.9</ele>
        <time>2022-10-16T11:39:09.000Z</time>
      </trkpt>
      <trkpt lat="43.31723" lon="5.72204">
        <ele>1013</ele>
        <time>2022-10-16T11:39:10.000Z</time>
      </trkpt>
      <trkpt lat="43.31723" lon="5.72204">
        <ele>1013.4</ele>
        <time>2022-10-16T11:39:13.000Z</time>
      </trkpt>
      <trkpt lat="43.31723" lon="5.72202">
        <ele>1013.3</ele>
        <time>2022-10-16T11:39:16.000Z</time>
      </trkpt>
      <trkpt lat="43.31723" lon="5.72202">
        <ele>1013.5</ele>
        <time>2022-10-16T11:39:19.000Z</time>
      </trkpt>
      <trkpt lat="43.31723" lon="5.72189">
        <ele>1013.6</ele>
        <time>2022-10-16T11:39:29.000Z</time>
      </trkpt>
      <trkpt lat="43.31723" lon="5.72185">
        <ele>1012.9</ele>
        <time>2022-10-16T11:39:34.000Z</time>
      </trkpt>
      <trkpt lat="43.31723" lon="5.72184">
        <ele>1013.2</ele>
        <time>2022-10-16T11:39:35.000Z</time>
      </trkpt>
      <trkpt lat="43.31723" lon="5.72184">
        <ele>1013.1</ele>
        <time>2022-10-16T11:39:37.000Z</time>
      </trkpt>
      <trkpt lat="43.31723" lon="5.72184">
        <ele>1013.4</ele>
        <time>2022-10-16T11:39:40.000Z</time>
      </trkpt>
      <trkpt lat="43.31722" lon="5.72171">
        <ele>1013</ele>
        <time>2022-10-16T11:39:50.000Z</time>
      </trkpt>
      <trkpt lat="43.31722" lon="5.72157">
        <ele>1013.2</ele>
        <time>2022-10-16T11:40:00.000Z</time>
      </trkpt>
      <trkpt lat="43.31721" lon="5.72144">
        <ele>1013.1</ele>
        <time>2022-10-16T11:40:10.000Z</time>
      </trkpt>
      <trkpt lat="43.31721" lon="5.72131">
        <ele>1013.3</ele>
        <time>2022-10-16T11:40:19.000Z</time>
      </trkpt>
      <trkpt lat="43.3172" lon="5.72123">
        <ele>1013.3</ele>
        <time>2022-10-16T11:40:27.000Z</time>
      </trkpt>
      <trkpt lat="43.3172" lon="5.72123">
        <ele>1013.6</ele>
        <time>2022-10-16T11:40:38.000Z</time>
      </trkpt>
      <trkpt lat="43.3172" lon="5.72123">
        <ele>1013.4</ele>
        <time>2022-10-16T11:40:40.000Z</time>
      </trkpt>
      <trkpt lat="43.3172" lon="5.72122">
        <ele>1013.5</ele>
        <time>2022-10-16T11:40:46.000Z</time>
      </trkpt>
      <trkpt lat="43.3172" lon="5.7212">
        <ele>1013.7</ele>
        <time>2022-10-16T11:40:54.000Z</time>
      </trkpt>
      <trkpt lat="43.3172" lon="5.7212">
        <ele>1013.5</ele>
        <time>2022-10-16T11:40:55.000Z</time>
      </trkpt>
      <trkpt lat="43.3172" lon="5.7212">
        <ele>1013.4</ele>
        <time>2022-10-16T11:40:56.000Z</time>
      </trkpt>
      <trkpt lat="43.3172" lon="5.7212">
        <ele>1013.6</ele>
        <time>2022-10-16T11:41:08.000Z</time>
      </trkpt>
      <trkpt lat="43.3172" lon="5.72121">
        <ele>1013.6</ele>
        <time>2022-10-16T11:41:13.000Z</time>
      </trkpt>
      <trkpt lat="43.3172" lon="5.7212">
        <ele>1013.6</ele>
        <time>2022-10-16T11:41:14.000Z</time>
      </trkpt>
      <trkpt lat="43.3172" lon="5.7212">
        <ele>1013.4</ele>
        <time>2022-10-16T11:41:16.000Z</time>
      </trkpt>
      <trkpt lat="43.3172" lon="5.7212">
        <ele>1013.3</ele>
        <time>2022-10-16T11:41:17.000Z</time>
      </trkpt>
      <trkpt lat="43.3172" lon="5.7212">
        <ele>1013.4</ele>
        <time>2022-10-16T11:41:18.000Z</time>
      </trkpt>
      <trkpt lat="43.3172" lon="5.7212">
        <ele>1013.6</ele>
        <time>2022-10-16T11:41:20.000Z</time>
      </trkpt>
      <trkpt lat="43.3172" lon="5.7212">
        <ele>1013.6</ele>
        <time>2022-10-16T11:41:21.000Z</time>
      </trkpt>
      <trkpt lat="43.3172" lon="5.7212">
        <ele>1013.4</ele>
        <time>2022-10-16T11:42:11.000Z</time>
      </trkpt>
      <trkpt lat="43.3172" lon="5.7212">
        <ele>1013.5</ele>
        <time>2022-10-16T11:42:12.000Z</time>
      </trkpt>
      <trkpt lat="43.31719" lon="5.7212">
        <ele>1013.5</ele>
        <time>2022-10-16T11:42:48.000Z</time>
      </trkpt>
      <trkpt lat="43.31719" lon="5.7212">
        <ele>1013.6</ele>
        <time>2022-10-16T11:42:49.000Z</time>
      </trkpt>
      <trkpt lat="43.31719" lon="5.7212">
        <ele>1013.8</ele>
        <time>2022-10-16T11:43:03.000Z</time>
      </trkpt>
      <trkpt lat="43.31719" lon="5.7212">
        <ele>1013.9</ele>
        <time>2022-10-16T11:43:04.000Z</time>
      </trkpt>
      <trkpt lat="43.31719" lon="5.7212">
        <ele>1014.5</ele>
        <time>2022-10-16T11:43:40.000Z</time>
      </trkpt>
      <trkpt lat="43.31719" lon="5.72117">
        <ele>1013.9</ele>
        <time>2022-10-16T11:43:44.000Z</time>
      </trkpt>
      <trkpt lat="43.31719" lon="5.72117">
        <ele>1014.2</ele>
        <time>2022-10-16T11:43:53.000Z</time>
      </trkpt>
      <trkpt lat="43.31719" lon="5.7211">
        <ele>1014.7</ele>
        <time>2022-10-16T11:44:03.000Z</time>
      </trkpt>
      <trkpt lat="43.31719" lon="5.72109">
        <ele>1014.6</ele>
        <time>2022-10-16T11:44:08.000Z</time>
      </trkpt>
      <trkpt lat="43.31721" lon="5.72097">
        <ele>1014.6</ele>
        <time>2022-10-16T11:44:23.000Z</time>
      </trkpt>
      <trkpt lat="43.31723" lon="5.72093">
        <ele>1014.6</ele>
        <time>2022-10-16T11:44:28.000Z</time>
      </trkpt>
      <trkpt lat="43.31722" lon="5.72092">
        <ele>1014.6</ele>
        <time>2022-10-16T11:44:34.000Z</time>
      </trkpt>
      <trkpt lat="43.31721" lon="5.7208">
        <ele>1015.5</ele>
        <time>2022-10-16T11:44:45.000Z</time>
      </trkpt>
      <trkpt lat="43.31719" lon="5.72067">
        <ele>1016</ele>
        <time>2022-10-16T11:44:56.000Z</time>
      </trkpt>
      <trkpt lat="43.31717" lon="5.72054">
        <ele>1016.4</ele>
        <time>2022-10-16T11:45:07.000Z</time>
      </trkpt>
      <trkpt lat="43.31714" lon="5.72042">
        <ele>1017.1</ele>
        <time>2022-10-16T11:45:18.000Z</time>
      </trkpt>
      <trkpt lat="43.31714" lon="5.72029">
        <ele>1017.9</ele>
        <time>2022-10-16T11:45:32.000Z</time>
      </trkpt>
      <trkpt lat="43.31712" lon="5.72016">
        <ele>1018.3</ele>
        <time>2022-10-16T11:45:44.000Z</time>
      </trkpt>
      <trkpt lat="43.31711" lon="5.72014">
        <ele>1018.5</ele>
        <time>2022-10-16T11:45:48.000Z</time>
      </trkpt>
      <trkpt lat="43.31711" lon="5.72013">
        <ele>1018.7</ele>
        <time>2022-10-16T11:45:50.000Z</time>
      </trkpt>
      <trkpt lat="43.31708" lon="5.72001">
        <ele>1018.9</ele>
        <time>2022-10-16T11:46:02.000Z</time>
      </trkpt>
      <trkpt lat="43.31708" lon="5.71988">
        <ele>1019.7</ele>
        <time>2022-10-16T11:46:15.000Z</time>
      </trkpt>
      <trkpt lat="43.31711" lon="5.71979">
        <ele>1020.7</ele>
        <time>2022-10-16T11:46:29.000Z</time>
      </trkpt>
      <trkpt lat="43.31711" lon="5.71979">
        <ele>1020.8</ele>
        <time>2022-10-16T11:46:30.000Z</time>
      </trkpt>
      <trkpt lat="43.31702" lon="5.7198">
        <ele>1021</ele>
        <time>2022-10-16T11:46:41.000Z</time>
      </trkpt>
      <trkpt lat="43.31697" lon="5.71976">
        <ele>1021.1</ele>
        <time>2022-10-16T11:46:50.000Z</time>
      </trkpt>
      <trkpt lat="43.31697" lon="5.71976">
        <ele>1020.8</ele>
        <time>2022-10-16T11:46:53.000Z</time>
      </trkpt>
      <trkpt lat="43.31697" lon="5.71976">
        <ele>1020.7</ele>
        <time>2022-10-16T11:46:54.000Z</time>
      </trkpt>
      <trkpt lat="43.31698" lon="5.71976">
        <ele>1021.3</ele>
        <time>2022-10-16T11:47:06.000Z</time>
      </trkpt>
      <trkpt lat="43.31698" lon="5.71975">
        <ele>1021.6</ele>
        <time>2022-10-16T11:47:08.000Z</time>
      </trkpt>
      <trkpt lat="43.31698" lon="5.71975">
        <ele>1021.2</ele>
        <time>2022-10-16T11:47:13.000Z</time>
      </trkpt>
      <trkpt lat="43.31697" lon="5.71962">
        <ele>1021.1</ele>
        <time>2022-10-16T11:47:26.000Z</time>
      </trkpt>
      <trkpt lat="43.31694" lon="5.7195">
        <ele>1022.4</ele>
        <time>2022-10-16T11:47:37.000Z</time>
      </trkpt>
      <trkpt lat="43.31691" lon="5.71937">
        <ele>1022.2</ele>
        <time>2022-10-16T11:47:47.000Z</time>
      </trkpt>
      <trkpt lat="43.31687" lon="5.71925">
        <ele>1023.1</ele>
        <time>2022-10-16T11:47:57.000Z</time>
      </trkpt>
      <trkpt lat="43.31684" lon="5.71913">
        <ele>1023.1</ele>
        <time>2022-10-16T11:48:07.000Z</time>
      </trkpt>
      <trkpt lat="43.31682" lon="5.71901">
        <ele>1023.5</ele>
        <time>2022-10-16T11:48:17.000Z</time>
      </trkpt>
      <trkpt lat="43.31679" lon="5.71888">
        <ele>1024.1</ele>
        <time>2022-10-16T11:48:27.000Z</time>
      </trkpt>
      <trkpt lat="43.31677" lon="5.71875">
        <ele>1024.2</ele>
        <time>2022-10-16T11:48:36.000Z</time>
      </trkpt>
      <trkpt lat="43.31677" lon="5.71867">
        <ele>1024.1</ele>
        <time>2022-10-16T11:48:44.000Z</time>
      </trkpt>
      <trkpt lat="43.31676" lon="5.71867">
        <ele>1024.4</ele>
        <time>2022-10-16T11:48:46.000Z</time>
      </trkpt>
      <trkpt lat="43.31675" lon="5.71859">
        <ele>1025.6</ele>
        <time>2022-10-16T11:48:59.000Z</time>
      </trkpt>
      <trkpt lat="43.31675" lon="5.71858">
        <ele>1025.5</ele>
        <time>2022-10-16T11:49:02.000Z</time>
      </trkpt>
      <trkpt lat="43.31676" lon="5.71845">
        <ele>1025.4</ele>
        <time>2022-10-16T11:49:12.000Z</time>
      </trkpt>
      <trkpt lat="43.31677" lon="5.71832">
        <ele>1025.4</ele>
        <time>2022-10-16T11:49:22.000Z</time>
      </trkpt>
      <trkpt lat="43.31677" lon="5.71819">
        <ele>1025</ele>
        <time>2022-10-16T11:49:32.000Z</time>
      </trkpt>
      <trkpt lat="43.31677" lon="5.71814">
        <ele>1024.9</ele>
        <time>2022-10-16T11:49:38.000Z</time>
      </trkpt>
      <trkpt lat="43.31677" lon="5.71814">
        <ele>1024.7</ele>
        <time>2022-10-16T11:49:40.000Z</time>
      </trkpt>
      <trkpt lat="43.31674" lon="5.71801">
        <ele>1025.5</ele>
        <time>2022-10-16T11:49:52.000Z</time>
      </trkpt>
      <trkpt lat="43.31673" lon="5.71788">
        <ele>1025</ele>
        <time>2022-10-16T11:50:03.000Z</time>
      </trkpt>
      <trkpt lat="43.31666" lon="5.71779">
        <ele>1024.9</ele>
        <time>2022-10-16T11:50:14.000Z</time>
      </trkpt>
      <trkpt lat="43.31664" lon="5.71767">
        <ele>1026.1</ele>
        <time>2022-10-16T11:50:23.000Z</time>
      </trkpt>
      <trkpt lat="43.3166" lon="5.71756">
        <ele>1026</ele>
        <time>2022-10-16T11:50:35.000Z</time>
      </trkpt>
      <trkpt lat="43.31656" lon="5.71744">
        <ele>1025.9</ele>
        <time>2022-10-16T11:50:49.000Z</time>
      </trkpt>
      <trkpt lat="43.31651" lon="5.71734">
        <ele>1024.3</ele>
        <time>2022-10-16T11:51:00.000Z</time>
      </trkpt>
      <trkpt lat="43.31645" lon="5.71724">
        <ele>1024.1</ele>
        <time>2022-10-16T11:51:14.000Z</time>
      </trkpt>
      <trkpt lat="43.3164" lon="5.71714">
        <ele>1022.6</ele>
        <time>2022-10-16T11:51:27.000Z</time>
      </trkpt>
      <trkpt lat="43.31639" lon="5.71713">
        <ele>1022.3</ele>
        <time>2022-10-16T11:51:31.000Z</time>
      </trkpt>
      <trkpt lat="43.31635" lon="5.71702">
        <ele>1021.4</ele>
        <time>2022-10-16T11:51:46.000Z</time>
      </trkpt>
      <trkpt lat="43.31636" lon="5.71689">
        <ele>1019.9</ele>
        <time>2022-10-16T11:51:58.000Z</time>
      </trkpt>
      <trkpt lat="43.31639" lon="5.71677">
        <ele>1018.6</ele>
        <time>2022-10-16T11:52:10.000Z</time>
      </trkpt>
      <trkpt lat="43.31637" lon="5.71664">
        <ele>1017.7</ele>
        <time>2022-10-16T11:52:22.000Z</time>
      </trkpt>
      <trkpt lat="43.31637" lon="5.71663">
        <ele>1017</ele>
        <time>2022-10-16T11:52:24.000Z</time>
      </trkpt>
      <trkpt lat="43.31636" lon="5.71663">
        <ele>1016.6</ele>
        <time>2022-10-16T11:52:26.000Z</time>
      </trkpt>
      <trkpt lat="43.31634" lon="5.7165">
        <ele>1016.2</ele>
        <time>2022-10-16T11:52:35.000Z</time>
      </trkpt>
      <trkpt lat="43.31637" lon="5.71638">
        <ele>1015.5</ele>
        <time>2022-10-16T11:52:46.000Z</time>
      </trkpt>
      <trkpt lat="43.31637" lon="5.71624">
        <ele>1013.5</ele>
        <time>2022-10-16T11:52:59.000Z</time>
      </trkpt>
      <trkpt lat="43.31638" lon="5.71612">
        <ele>1013.4</ele>
        <time>2022-10-16T11:53:13.000Z</time>
      </trkpt>
      <trkpt lat="43.31641" lon="5.716">
        <ele>1013.3</ele>
        <time>2022-10-16T11:53:27.000Z</time>
      </trkpt>
      <trkpt lat="43.31639" lon="5.71592">
        <ele>1012.9</ele>
        <time>2022-10-16T11:53:42.000Z</time>
      </trkpt>
      <trkpt lat="43.31639" lon="5.71592">
        <ele>1012.4</ele>
        <time>2022-10-16T11:53:50.000Z</time>
      </trkpt>
      <trkpt lat="43.31639" lon="5.71592">
        <ele>1012.4</ele>
        <time>2022-10-16T11:53:51.000Z</time>
      </trkpt>
      <trkpt lat="43.31639" lon="5.71592">
        <ele>1013.3</ele>
        <time>2022-10-16T11:53:55.000Z</time>
      </trkpt>
      <trkpt lat="43.31639" lon="5.71592">
        <ele>1013.4</ele>
        <time>2022-10-16T11:53:56.000Z</time>
      </trkpt>
      <trkpt lat="43.31639" lon="5.71591">
        <ele>1014.1</ele>
        <time>2022-10-16T11:54:00.000Z</time>
      </trkpt>
      <trkpt lat="43.31638" lon="5.71591">
        <ele>1014.7</ele>
        <time>2022-10-16T11:54:04.000Z</time>
      </trkpt>
      <trkpt lat="43.31638" lon="5.71591">
        <ele>1014.4</ele>
        <time>2022-10-16T11:54:06.000Z</time>
      </trkpt>
      <trkpt lat="43.31638" lon="5.71591">
        <ele>1014.4</ele>
        <time>2022-10-16T11:54:07.000Z</time>
      </trkpt>
      <trkpt lat="43.31638" lon="5.71591">
        <ele>1014.3</ele>
        <time>2022-10-16T11:54:13.000Z</time>
      </trkpt>
      <trkpt lat="43.31638" lon="5.71591">
        <ele>1014.3</ele>
        <time>2022-10-16T11:54:14.000Z</time>
      </trkpt>
      <trkpt lat="43.31638" lon="5.71591">
        <ele>1013.9</ele>
        <time>2022-10-16T11:54:40.000Z</time>
      </trkpt>
      <trkpt lat="43.3163" lon="5.71583">
        <ele>1011.6</ele>
        <time>2022-10-16T11:54:50.000Z</time>
      </trkpt>
      <trkpt lat="43.31621" lon="5.71578">
        <ele>1010.6</ele>
        <time>2022-10-16T11:54:59.000Z</time>
      </trkpt>
      <trkpt lat="43.31614" lon="5.7157">
        <ele>1010.2</ele>
        <time>2022-10-16T11:55:08.000Z</time>
      </trkpt>
      <trkpt lat="43.31606" lon="5.71564">
        <ele>1009.9</ele>
        <time>2022-10-16T11:55:17.000Z</time>
      </trkpt>
      <trkpt lat="43.31599" lon="5.71555">
        <ele>1008.8</ele>
        <time>2022-10-16T11:55:28.000Z</time>
      </trkpt>
      <trkpt lat="43.31591" lon="5.71547">
        <ele>1008.9</ele>
        <time>2022-10-16T11:55:40.000Z</time>
      </trkpt>
      <trkpt lat="43.31585" lon="5.71537">
        <ele>1006.3</ele>
        <time>2022-10-16T11:55:52.000Z</time>
      </trkpt>
      <trkpt lat="43.31579" lon="5.71527">
        <ele>1004.9</ele>
        <time>2022-10-16T11:56:02.000Z</time>
      </trkpt>
      <trkpt lat="43.31575" lon="5.71515">
        <ele>1005.5</ele>
        <time>2022-10-16T11:56:11.000Z</time>
      </trkpt>
      <trkpt lat="43.31569" lon="5.71505">
        <ele>1006.7</ele>
        <time>2022-10-16T11:56:23.000Z</time>
      </trkpt>
      <trkpt lat="43.3156" lon="5.71503">
        <ele>1005.1</ele>
        <time>2022-10-16T11:56:37.000Z</time>
      </trkpt>
      <trkpt lat="43.31554" lon="5.715">
        <ele>1003.5</ele>
        <time>2022-10-16T11:56:53.000Z</time>
      </trkpt>
      <trkpt lat="43.31554" lon="5.715">
        <ele>1003.6</ele>
        <time>2022-10-16T11:56:55.000Z</time>
      </trkpt>
      <trkpt lat="43.31553" lon="5.71499">
        <ele>1003.2</ele>
        <time>2022-10-16T11:56:58.000Z</time>
      </trkpt>
      <trkpt lat="43.31553" lon="5.71498">
        <ele>1003</ele>
        <time>2022-10-16T11:57:02.000Z</time>
      </trkpt>
      <trkpt lat="43.31551" lon="5.71485">
        <ele>1001</ele>
        <time>2022-10-16T11:57:19.000Z</time>
      </trkpt>
      <trkpt lat="43.3155" lon="5.71472">
        <ele>999.9</ele>
        <time>2022-10-16T11:57:30.000Z</time>
      </trkpt>
      <trkpt lat="43.31547" lon="5.7146">
        <ele>998.7</ele>
        <time>2022-10-16T11:57:41.000Z</time>
      </trkpt>
      <trkpt lat="43.31544" lon="5.71448">
        <ele>996.9</ele>
        <time>2022-10-16T11:57:55.000Z</time>
      </trkpt>
      <trkpt lat="43.31543" lon="5.71435">
        <ele>995.5</ele>
        <time>2022-10-16T11:58:05.000Z</time>
      </trkpt>
      <trkpt lat="43.31543" lon="5.71421">
        <ele>995.3</ele>
        <time>2022-10-16T11:58:15.000Z</time>
      </trkpt>
      <trkpt lat="43.31542" lon="5.71418">
        <ele>995.1</ele>
        <time>2022-10-16T11:58:20.000Z</time>
      </trkpt>
      <trkpt lat="43.31542" lon="5.71418">
        <ele>994.8</ele>
        <time>2022-10-16T11:58:23.000Z</time>
      </trkpt>
      <trkpt lat="43.31541" lon="5.71418">
        <ele>994.8</ele>
        <time>2022-10-16T11:58:25.000Z</time>
      </trkpt>
      <trkpt lat="43.31541" lon="5.71418">
        <ele>995.2</ele>
        <time>2022-10-16T11:58:35.000Z</time>
      </trkpt>
      <trkpt lat="43.31539" lon="5.71406">
        <ele>993.4</ele>
        <time>2022-10-16T11:58:48.000Z</time>
      </trkpt>
      <trkpt lat="43.31536" lon="5.71394">
        <ele>991.2</ele>
        <time>2022-10-16T11:58:59.000Z</time>
      </trkpt>
      <trkpt lat="43.31538" lon="5.71381">
        <ele>990.4</ele>
        <time>2022-10-16T11:59:14.000Z</time>
      </trkpt>
      <trkpt lat="43.31539" lon="5.71369">
        <ele>989.6</ele>
        <time>2022-10-16T11:59:28.000Z</time>
      </trkpt>
      <trkpt lat="43.31537" lon="5.71356">
        <ele>989.1</ele>
        <time>2022-10-16T11:59:41.000Z</time>
      </trkpt>
      <trkpt lat="43.3153" lon="5.71349">
        <ele>990.1</ele>
        <time>2022-10-16T11:59:54.000Z</time>
      </trkpt>
      <trkpt lat="43.31522" lon="5.71342">
        <ele>989.4</ele>
        <time>2022-10-16T12:00:06.000Z</time>
      </trkpt>
      <trkpt lat="43.31519" lon="5.71335">
        <ele>990.8</ele>
        <time>2022-10-16T12:00:20.000Z</time>
      </trkpt>
      <trkpt lat="43.31519" lon="5.71335">
        <ele>990.7</ele>
        <time>2022-10-16T12:00:22.000Z</time>
      </trkpt>
      <trkpt lat="43.31518" lon="5.71335">
        <ele>990.3</ele>
        <time>2022-10-16T12:00:26.000Z</time>
      </trkpt>
      <trkpt lat="43.31518" lon="5.71334">
        <ele>990.1</ele>
        <time>2022-10-16T12:00:28.000Z</time>
      </trkpt>
      <trkpt lat="43.31513" lon="5.71324">
        <ele>988.8</ele>
        <time>2022-10-16T12:00:39.000Z</time>
      </trkpt>
      <trkpt lat="43.31509" lon="5.71313">
        <ele>989.2</ele>
        <time>2022-10-16T12:00:51.000Z</time>
      </trkpt>
      <trkpt lat="43.31504" lon="5.71302">
        <ele>988.5</ele>
        <time>2022-10-16T12:01:05.000Z</time>
      </trkpt>
      <trkpt lat="43.31504" lon="5.71302">
        <ele>988.3</ele>
        <time>2022-10-16T12:01:06.000Z</time>
      </trkpt>
      <trkpt lat="43.31504" lon="5.71302">
        <ele>988.1</ele>
        <time>2022-10-16T12:01:07.000Z</time>
      </trkpt>
      <trkpt lat="43.31503" lon="5.713">
        <ele>987.3</ele>
        <time>2022-10-16T12:01:13.000Z</time>
      </trkpt>
      <trkpt lat="43.31503" lon="5.71299">
        <ele>987.2</ele>
        <time>2022-10-16T12:01:14.000Z</time>
      </trkpt>
      <trkpt lat="43.31494" lon="5.71295">
        <ele>985.2</ele>
        <time>2022-10-16T12:01:33.000Z</time>
      </trkpt>
      <trkpt lat="43.31489" lon="5.71284">
        <ele>985</ele>
        <time>2022-10-16T12:01:50.000Z</time>
      </trkpt>
      <trkpt lat="43.31489" lon="5.71284">
        <ele>985.2</ele>
        <time>2022-10-16T12:01:52.000Z</time>
      </trkpt>
      <trkpt lat="43.31489" lon="5.71283">
        <ele>985</ele>
        <time>2022-10-16T12:02:06.000Z</time>
      </trkpt>
      <trkpt lat="43.31485" lon="5.71279">
        <ele>984.7</ele>
        <time>2022-10-16T12:02:19.000Z</time>
      </trkpt>
      <trkpt lat="43.31485" lon="5.71279">
        <ele>984.8</ele>
        <time>2022-10-16T12:02:20.000Z</time>
      </trkpt>
      <trkpt lat="43.31485" lon="5.71277">
        <ele>984.4</ele>
        <time>2022-10-16T12:02:24.000Z</time>
      </trkpt>
      <trkpt lat="43.31485" lon="5.71277">
        <ele>984.4</ele>
        <time>2022-10-16T12:02:26.000Z</time>
      </trkpt>
      <trkpt lat="43.31485" lon="5.71277">
        <ele>984.5</ele>
        <time>2022-10-16T12:02:27.000Z</time>
      </trkpt>
      <trkpt lat="43.31484" lon="5.71277">
        <ele>984.5</ele>
        <time>2022-10-16T12:02:33.000Z</time>
      </trkpt>
      <trkpt lat="43.31477" lon="5.7127">
        <ele>983.2</ele>
        <time>2022-10-16T12:02:51.000Z</time>
      </trkpt>
      <trkpt lat="43.31471" lon="5.7126">
        <ele>983.9</ele>
        <time>2022-10-16T12:03:01.000Z</time>
      </trkpt>
      <trkpt lat="43.31469" lon="5.71248">
        <ele>985.2</ele>
        <time>2022-10-16T12:03:13.000Z</time>
      </trkpt>
      <trkpt lat="43.31465" lon="5.71235">
        <ele>984</ele>
        <time>2022-10-16T12:03:26.000Z</time>
      </trkpt>
      <trkpt lat="43.31461" lon="5.71224">
        <ele>983.6</ele>
        <time>2022-10-16T12:03:38.000Z</time>
      </trkpt>
      <trkpt lat="43.31455" lon="5.71213">
        <ele>982.6</ele>
        <time>2022-10-16T12:03:50.000Z</time>
      </trkpt>
      <trkpt lat="43.31452" lon="5.71201">
        <ele>981.8</ele>
        <time>2022-10-16T12:04:00.000Z</time>
      </trkpt>
      <trkpt lat="43.31449" lon="5.71188">
        <ele>980.1</ele>
        <time>2022-10-16T12:04:13.000Z</time>
      </trkpt>
      <trkpt lat="43.31447" lon="5.71175">
        <ele>979.5</ele>
        <time>2022-10-16T12:04:24.000Z</time>
      </trkpt>
      <trkpt lat="43.31446" lon="5.71163">
        <ele>979</ele>
        <time>2022-10-16T12:04:35.000Z</time>
      </trkpt>
      <trkpt lat="43.31446" lon="5.71163">
        <ele>979</ele>
        <time>2022-10-16T12:04:37.000Z</time>
      </trkpt>
      <trkpt lat="43.31446" lon="5.71163">
        <ele>978.8</ele>
        <time>2022-10-16T12:04:38.000Z</time>
      </trkpt>
      <trkpt lat="43.31445" lon="5.71161">
        <ele>978.6</ele>
        <time>2022-10-16T12:04:42.000Z</time>
      </trkpt>
      <trkpt lat="43.31445" lon="5.71161">
        <ele>978.7</ele>
        <time>2022-10-16T12:04:44.000Z</time>
      </trkpt>
      <trkpt lat="43.31443" lon="5.71156">
        <ele>978.7</ele>
        <time>2022-10-16T12:04:53.000Z</time>
      </trkpt>
      <trkpt lat="43.31443" lon="5.71156">
        <ele>978.6</ele>
        <time>2022-10-16T12:04:54.000Z</time>
      </trkpt>
      <trkpt lat="43.31443" lon="5.71143">
        <ele>977.8</ele>
        <time>2022-10-16T12:05:06.000Z</time>
      </trkpt>
      <trkpt lat="43.31439" lon="5.71132">
        <ele>977.1</ele>
        <time>2022-10-16T12:05:15.000Z</time>
      </trkpt>
      <trkpt lat="43.31437" lon="5.71119">
        <ele>976.7</ele>
        <time>2022-10-16T12:05:26.000Z</time>
      </trkpt>
      <trkpt lat="43.31435" lon="5.71115">
        <ele>976.3</ele>
        <time>2022-10-16T12:05:32.000Z</time>
      </trkpt>
      <trkpt lat="43.31435" lon="5.71115">
        <ele>976.2</ele>
        <time>2022-10-16T12:05:33.000Z</time>
      </trkpt>
      <trkpt lat="43.31435" lon="5.71115">
        <ele>976.3</ele>
        <time>2022-10-16T12:05:34.000Z</time>
      </trkpt>
      <trkpt lat="43.31435" lon="5.71114">
        <ele>976.5</ele>
        <time>2022-10-16T12:05:40.000Z</time>
      </trkpt>
      <trkpt lat="43.31434" lon="5.7111">
        <ele>975.6</ele>
        <time>2022-10-16T12:05:48.000Z</time>
      </trkpt>
      <trkpt lat="43.31433" lon="5.7111">
        <ele>975.9</ele>
        <time>2022-10-16T12:05:56.000Z</time>
      </trkpt>
      <trkpt lat="43.31433" lon="5.7111">
        <ele>976</ele>
        <time>2022-10-16T12:05:57.000Z</time>
      </trkpt>
      <trkpt lat="43.31433" lon="5.7111">
        <ele>975.9</ele>
        <time>2022-10-16T12:05:58.000Z</time>
      </trkpt>
      <trkpt lat="43.31432" lon="5.71109">
        <ele>976</ele>
        <time>2022-10-16T12:06:01.000Z</time>
      </trkpt>
      <trkpt lat="43.31431" lon="5.71108">
        <ele>974.8</ele>
        <time>2022-10-16T12:06:04.000Z</time>
      </trkpt>
      <trkpt lat="43.31425" lon="5.71099">
        <ele>972.9</ele>
        <time>2022-10-16T12:06:14.000Z</time>
      </trkpt>
      <trkpt lat="43.3142" lon="5.71088">
        <ele>974.6</ele>
        <time>2022-10-16T12:06:23.000Z</time>
      </trkpt>
      <trkpt lat="43.31417" lon="5.71077">
        <ele>976.4</ele>
        <time>2022-10-16T12:06:34.000Z</time>
      </trkpt>
      <trkpt lat="43.31414" lon="5.71064">
        <ele>976.7</ele>
        <time>2022-10-16T12:06:47.000Z</time>
      </trkpt>
      <trkpt lat="43.31414" lon="5.71063">
        <ele>976.8</ele>
        <time>2022-10-16T12:06:50.000Z</time>
      </trkpt>
      <trkpt lat="43.31414" lon="5.71063">
        <ele>976.9</ele>
        <time>2022-10-16T12:06:51.000Z</time>
      </trkpt>
      <trkpt lat="43.31412" lon="5.71056">
        <ele>976.5</ele>
        <time>2022-10-16T12:07:06.000Z</time>
      </trkpt>
      <trkpt lat="43.31412" lon="5.71056">
        <ele>976.1</ele>
        <time>2022-10-16T12:07:08.000Z</time>
      </trkpt>
      <trkpt lat="43.31412" lon="5.71056">
        <ele>977.8</ele>
        <time>2022-10-16T12:07:10.000Z</time>
      </trkpt>
      <trkpt lat="43.31412" lon="5.71056">
        <ele>977.3</ele>
        <time>2022-10-16T12:07:13.000Z</time>
      </trkpt>
      <trkpt lat="43.31412" lon="5.71056">
        <ele>977.3</ele>
        <time>2022-10-16T12:07:14.000Z</time>
      </trkpt>
      <trkpt lat="43.31412" lon="5.71056">
        <ele>977.3</ele>
        <time>2022-10-16T12:07:19.000Z</time>
      </trkpt>
      <trkpt lat="43.31412" lon="5.71056">
        <ele>977.4</ele>
        <time>2022-10-16T12:07:20.000Z</time>
      </trkpt>
      <trkpt lat="43.31412" lon="5.71057">
        <ele>977.3</ele>
        <time>2022-10-16T12:08:28.000Z</time>
      </trkpt>
      <trkpt lat="43.31412" lon="5.71057">
        <ele>977.2</ele>
        <time>2022-10-16T12:08:31.000Z</time>
      </trkpt>
      <trkpt lat="43.31412" lon="5.71057">
        <ele>977.5</ele>
        <time>2022-10-16T12:08:32.000Z</time>
      </trkpt>
      <trkpt lat="43.31412" lon="5.71051">
        <ele>977.6</ele>
        <time>2022-10-16T12:08:40.000Z</time>
      </trkpt>
      <trkpt lat="43.31411" lon="5.71051">
        <ele>977.5</ele>
        <time>2022-10-16T12:08:41.000Z</time>
      </trkpt>
      <trkpt lat="43.31411" lon="5.71052">
        <ele>977.6</ele>
        <time>2022-10-16T12:08:42.000Z</time>
      </trkpt>
      <trkpt lat="43.31411" lon="5.71051">
        <ele>977.6</ele>
        <time>2022-10-16T12:08:52.000Z</time>
      </trkpt>
      <trkpt lat="43.3141" lon="5.71049">
        <ele>978</ele>
        <time>2022-10-16T12:08:58.000Z</time>
      </trkpt>
      <trkpt lat="43.3141" lon="5.71049">
        <ele>977.8</ele>
        <time>2022-10-16T12:09:07.000Z</time>
      </trkpt>
      <trkpt lat="43.3141" lon="5.71049">
        <ele>977.9</ele>
        <time>2022-10-16T12:09:08.000Z</time>
      </trkpt>
      <trkpt lat="43.3141" lon="5.71049">
        <ele>977.6</ele>
        <time>2022-10-16T12:09:17.000Z</time>
      </trkpt>
      <trkpt lat="43.3141" lon="5.71049">
        <ele>977.5</ele>
        <time>2022-10-16T12:09:18.000Z</time>
      </trkpt>
      <trkpt lat="43.3141" lon="5.71049">
        <ele>977.5</ele>
        <time>2022-10-16T12:09:39.000Z</time>
      </trkpt>
      <trkpt lat="43.31405" lon="5.71038">
        <ele>976.6</ele>
        <time>2022-10-16T12:09:56.000Z</time>
      </trkpt>
      <trkpt lat="43.314" lon="5.71028">
        <ele>975.6</ele>
        <time>2022-10-16T12:10:12.000Z</time>
      </trkpt>
      <trkpt lat="43.31399" lon="5.71023">
        <ele>975.6</ele>
        <time>2022-10-16T12:10:18.000Z</time>
      </trkpt>
      <trkpt lat="43.31399" lon="5.71023">
        <ele>975.5</ele>
        <time>2022-10-16T12:10:19.000Z</time>
      </trkpt>
      <trkpt lat="43.31395" lon="5.71012">
        <ele>974.6</ele>
        <time>2022-10-16T12:10:33.000Z</time>
      </trkpt>
      <trkpt lat="43.31393" lon="5.71005">
        <ele>974.2</ele>
        <time>2022-10-16T12:10:43.000Z</time>
      </trkpt>
      <trkpt lat="43.31393" lon="5.71004">
        <ele>974.1</ele>
        <time>2022-10-16T12:10:44.000Z</time>
      </trkpt>
      <trkpt lat="43.31392" lon="5.70991">
        <ele>973.2</ele>
        <time>2022-10-16T12:10:57.000Z</time>
      </trkpt>
      <trkpt lat="43.31389" lon="5.70979">
        <ele>972.2</ele>
        <time>2022-10-16T12:11:08.000Z</time>
      </trkpt>
      <trkpt lat="43.31381" lon="5.7097">
        <ele>973.4</ele>
        <time>2022-10-16T12:11:22.000Z</time>
      </trkpt>
      <trkpt lat="43.31375" lon="5.70959">
        <ele>972.2</ele>
        <time>2022-10-16T12:11:33.000Z</time>
      </trkpt>
      <trkpt lat="43.31374" lon="5.70946">
        <ele>971.8</ele>
        <time>2022-10-16T12:11:45.000Z</time>
      </trkpt>
      <trkpt lat="43.31372" lon="5.70934">
        <ele>971.7</ele>
        <time>2022-10-16T12:11:56.000Z</time>
      </trkpt>
      <trkpt lat="43.31367" lon="5.70923">
        <ele>970.6</ele>
        <time>2022-10-16T12:12:09.000Z</time>
      </trkpt>
      <trkpt lat="43.31363" lon="5.70912">
        <ele>970.6</ele>
        <time>2022-10-16T12:12:23.000Z</time>
      </trkpt>
      <trkpt lat="43.31363" lon="5.70912">
        <ele>970.5</ele>
        <time>2022-10-16T12:12:24.000Z</time>
      </trkpt>
      <trkpt lat="43.31363" lon="5.70911">
        <ele>970.4</ele>
        <time>2022-10-16T12:12:27.000Z</time>
      </trkpt>
      <trkpt lat="43.3136" lon="5.70903">
        <ele>969</ele>
        <time>2022-10-16T12:12:41.000Z</time>
      </trkpt>
      <trkpt lat="43.3136" lon="5.70903">
        <ele>968.8</ele>
        <time>2022-10-16T12:12:42.000Z</time>
      </trkpt>
      <trkpt lat="43.31354" lon="5.70892">
        <ele>967.4</ele>
        <time>2022-10-16T12:12:55.000Z</time>
      </trkpt>
      <trkpt lat="43.31353" lon="5.70879">
        <ele>967.2</ele>
        <time>2022-10-16T12:13:04.000Z</time>
      </trkpt>
      <trkpt lat="43.31351" lon="5.70866">
        <ele>965.8</ele>
        <time>2022-10-16T12:13:14.000Z</time>
      </trkpt>
      <trkpt lat="43.31347" lon="5.70855">
        <ele>965.5</ele>
        <time>2022-10-16T12:13:27.000Z</time>
      </trkpt>
      <trkpt lat="43.31341" lon="5.70845">
        <ele>964.2</ele>
        <time>2022-10-16T12:13:37.000Z</time>
      </trkpt>
      <trkpt lat="43.31337" lon="5.70833">
        <ele>962.3</ele>
        <time>2022-10-16T12:13:47.000Z</time>
      </trkpt>
      <trkpt lat="43.31335" lon="5.70821">
        <ele>961.5</ele>
        <time>2022-10-16T12:13:58.000Z</time>
      </trkpt>
      <trkpt lat="43.3133" lon="5.7081">
        <ele>962.4</ele>
        <time>2022-10-16T12:14:08.000Z</time>
      </trkpt>
      <trkpt lat="43.31328" lon="5.70798">
        <ele>962.8</ele>
        <time>2022-10-16T12:14:17.000Z</time>
      </trkpt>
      <trkpt lat="43.31323" lon="5.70787">
        <ele>962.4</ele>
        <time>2022-10-16T12:14:26.000Z</time>
      </trkpt>
      <trkpt lat="43.31317" lon="5.70777">
        <ele>962.3</ele>
        <time>2022-10-16T12:14:35.000Z</time>
      </trkpt>
      <trkpt lat="43.3131" lon="5.70769">
        <ele>961.4</ele>
        <time>2022-10-16T12:14:45.000Z</time>
      </trkpt>
      <trkpt lat="43.31305" lon="5.70759">
        <ele>961</ele>
        <time>2022-10-16T12:14:55.000Z</time>
      </trkpt>
      <trkpt lat="43.31301" lon="5.70747">
        <ele>960</ele>
        <time>2022-10-16T12:15:06.000Z</time>
      </trkpt>
      <trkpt lat="43.31296" lon="5.70735">
        <ele>959.7</ele>
        <time>2022-10-16T12:15:16.000Z</time>
      </trkpt>
      <trkpt lat="43.3129" lon="5.70726">
        <ele>959.6</ele>
        <time>2022-10-16T12:15:26.000Z</time>
      </trkpt>
      <trkpt lat="43.31285" lon="5.70715">
        <ele>959.8</ele>
        <time>2022-10-16T12:15:38.000Z</time>
      </trkpt>
      <trkpt lat="43.31277" lon="5.70706">
        <ele>959.3</ele>
        <time>2022-10-16T12:15:48.000Z</time>
      </trkpt>
      <trkpt lat="43.31277" lon="5.70705">
        <ele>958.9</ele>
        <time>2022-10-16T12:15:51.000Z</time>
      </trkpt>
      <trkpt lat="43.31277" lon="5.70704">
        <ele>959.1</ele>
        <time>2022-10-16T12:15:52.000Z</time>
      </trkpt>
      <trkpt lat="43.31272" lon="5.70693">
        <ele>959.2</ele>
        <time>2022-10-16T12:16:02.000Z</time>
      </trkpt>
      <trkpt lat="43.31266" lon="5.70683">
        <ele>958.4</ele>
        <time>2022-10-16T12:16:12.000Z</time>
      </trkpt>
      <trkpt lat="43.31262" lon="5.70671">
        <ele>958</ele>
        <time>2022-10-16T12:16:23.000Z</time>
      </trkpt>
      <trkpt lat="43.31259" lon="5.70659">
        <ele>958.1</ele>
        <time>2022-10-16T12:16:32.000Z</time>
      </trkpt>
      <trkpt lat="43.31257" lon="5.70647">
        <ele>958.2</ele>
        <time>2022-10-16T12:16:40.000Z</time>
      </trkpt>
      <trkpt lat="43.31255" lon="5.70634">
        <ele>957.8</ele>
        <time>2022-10-16T12:16:49.000Z</time>
      </trkpt>
      <trkpt lat="43.31252" lon="5.70621">
        <ele>958.1</ele>
        <time>2022-10-16T12:16:58.000Z</time>
      </trkpt>
      <trkpt lat="43.31251" lon="5.70609">
        <ele>958.3</ele>
        <time>2022-10-16T12:17:07.000Z</time>
      </trkpt>
      <trkpt lat="43.31246" lon="5.70599">
        <ele>958.1</ele>
        <time>2022-10-16T12:17:15.000Z</time>
      </trkpt>
      <trkpt lat="43.31239" lon="5.7059">
        <ele>957.1</ele>
        <time>2022-10-16T12:17:26.000Z</time>
      </trkpt>
      <trkpt lat="43.31234" lon="5.7058">
        <ele>956.3</ele>
        <time>2022-10-16T12:17:42.000Z</time>
      </trkpt>
      <trkpt lat="43.31232" lon="5.70567">
        <ele>956.7</ele>
        <time>2022-10-16T12:17:52.000Z</time>
      </trkpt>
      <trkpt lat="43.31231" lon="5.70555">
        <ele>956.8</ele>
        <time>2022-10-16T12:18:01.000Z</time>
      </trkpt>
      <trkpt lat="43.31229" lon="5.70542">
        <ele>956.6</ele>
        <time>2022-10-16T12:18:10.000Z</time>
      </trkpt>
      <trkpt lat="43.31226" lon="5.7053">
        <ele>955.2</ele>
        <time>2022-10-16T12:18:19.000Z</time>
      </trkpt>
      <trkpt lat="43.31223" lon="5.70517">
        <ele>956.1</ele>
        <time>2022-10-16T12:18:28.000Z</time>
      </trkpt>
      <trkpt lat="43.31218" lon="5.70506">
        <ele>956.7</ele>
        <time>2022-10-16T12:18:39.000Z</time>
      </trkpt>
      <trkpt lat="43.31214" lon="5.70494">
        <ele>957.3</ele>
        <time>2022-10-16T12:18:50.000Z</time>
      </trkpt>
      <trkpt lat="43.31211" lon="5.70481">
        <ele>957.7</ele>
        <time>2022-10-16T12:18:59.000Z</time>
      </trkpt>
      <trkpt lat="43.3121" lon="5.70468">
        <ele>957.9</ele>
        <time>2022-10-16T12:19:11.000Z</time>
      </trkpt>
      <trkpt lat="43.31209" lon="5.70455">
        <ele>957.9</ele>
        <time>2022-10-16T12:19:20.000Z</time>
      </trkpt>
      <trkpt lat="43.31207" lon="5.70442">
        <ele>957.6</ele>
        <time>2022-10-16T12:19:30.000Z</time>
      </trkpt>
      <trkpt lat="43.31207" lon="5.70439">
        <ele>957.4</ele>
        <time>2022-10-16T12:19:34.000Z</time>
      </trkpt>
      <trkpt lat="43.31207" lon="5.70438">
        <ele>957.6</ele>
        <time>2022-10-16T12:19:37.000Z</time>
      </trkpt>
      <trkpt lat="43.31208" lon="5.70425">
        <ele>957.4</ele>
        <time>2022-10-16T12:19:45.000Z</time>
      </trkpt>
      <trkpt lat="43.31208" lon="5.70411">
        <ele>957.9</ele>
        <time>2022-10-16T12:19:55.000Z</time>
      </trkpt>
      <trkpt lat="43.31206" lon="5.70399">
        <ele>957.4</ele>
        <time>2022-10-16T12:20:04.000Z</time>
      </trkpt>
      <trkpt lat="43.31204" lon="5.70386">
        <ele>957.4</ele>
        <time>2022-10-16T12:20:12.000Z</time>
      </trkpt>
      <trkpt lat="43.31202" lon="5.70373">
        <ele>957.1</ele>
        <time>2022-10-16T12:20:20.000Z</time>
      </trkpt>
      <trkpt lat="43.31199" lon="5.70361">
        <ele>956.9</ele>
        <time>2022-10-16T12:20:28.000Z</time>
      </trkpt>
      <trkpt lat="43.31197" lon="5.70349">
        <ele>956.8</ele>
        <time>2022-10-16T12:20:36.000Z</time>
      </trkpt>
      <trkpt lat="43.31194" lon="5.70336">
        <ele>956.4</ele>
        <time>2022-10-16T12:20:44.000Z</time>
      </trkpt>
      <trkpt lat="43.31192" lon="5.7033">
        <ele>956.1</ele>
        <time>2022-10-16T12:20:50.000Z</time>
      </trkpt>
      <trkpt lat="43.31192" lon="5.70329">
        <ele>955.8</ele>
        <time>2022-10-16T12:20:52.000Z</time>
      </trkpt>
      <trkpt lat="43.3119" lon="5.70316">
        <ele>956.1</ele>
        <time>2022-10-16T12:21:01.000Z</time>
      </trkpt>
      <trkpt lat="43.3119" lon="5.70303">
        <ele>956.2</ele>
        <time>2022-10-16T12:21:09.000Z</time>
      </trkpt>
      <trkpt lat="43.31189" lon="5.7029">
        <ele>956.7</ele>
        <time>2022-10-16T12:21:17.000Z</time>
      </trkpt>
      <trkpt lat="43.31185" lon="5.70278">
        <ele>956.1</ele>
        <time>2022-10-16T12:21:25.000Z</time>
      </trkpt>
      <trkpt lat="43.31181" lon="5.70266">
        <ele>956.1</ele>
        <time>2022-10-16T12:21:34.000Z</time>
      </trkpt>
      <trkpt lat="43.31178" lon="5.70253">
        <ele>956</ele>
        <time>2022-10-16T12:21:44.000Z</time>
      </trkpt>
      <trkpt lat="43.31175" lon="5.7024">
        <ele>955.8</ele>
        <time>2022-10-16T12:21:53.000Z</time>
      </trkpt>
      <trkpt lat="43.31173" lon="5.70228">
        <ele>955.7</ele>
        <time>2022-10-16T12:22:01.000Z</time>
      </trkpt>
      <trkpt lat="43.31169" lon="5.70216">
        <ele>955.6</ele>
        <time>2022-10-16T12:22:10.000Z</time>
      </trkpt>
      <trkpt lat="43.31166" lon="5.70203">
        <ele>954.9</ele>
        <time>2022-10-16T12:22:19.000Z</time>
      </trkpt>
      <trkpt lat="43.31162" lon="5.70191">
        <ele>955.4</ele>
        <time>2022-10-16T12:22:27.000Z</time>
      </trkpt>
      <trkpt lat="43.31161" lon="5.70178">
        <ele>955.2</ele>
        <time>2022-10-16T12:22:38.000Z</time>
      </trkpt>
      <trkpt lat="43.31158" lon="5.70166">
        <ele>954.8</ele>
        <time>2022-10-16T12:22:46.000Z</time>
      </trkpt>
      <trkpt lat="43.31156" lon="5.70153">
        <ele>954.3</ele>
        <time>2022-10-16T12:22:55.000Z</time>
      </trkpt>
      <trkpt lat="43.31153" lon="5.70141">
        <ele>953.8</ele>
        <time>2022-10-16T12:23:04.000Z</time>
      </trkpt>
      <trkpt lat="43.31152" lon="5.70128">
        <ele>952.8</ele>
        <time>2022-10-16T12:23:14.000Z</time>
      </trkpt>
      <trkpt lat="43.31149" lon="5.70115">
        <ele>953.8</ele>
        <time>2022-10-16T12:23:23.000Z</time>
      </trkpt>
      <trkpt lat="43.31144" lon="5.70104">
        <ele>954</ele>
        <time>2022-10-16T12:23:33.000Z</time>
      </trkpt>
      <trkpt lat="43.31139" lon="5.70094">
        <ele>953.3</ele>
        <time>2022-10-16T12:23:41.000Z</time>
      </trkpt>
      <trkpt lat="43.31137" lon="5.70081">
        <ele>952.1</ele>
        <time>2022-10-16T12:23:49.000Z</time>
      </trkpt>
      <trkpt lat="43.31134" lon="5.70069">
        <ele>953.2</ele>
        <time>2022-10-16T12:23:58.000Z</time>
      </trkpt>
      <trkpt lat="43.31128" lon="5.70058">
        <ele>953.8</ele>
        <time>2022-10-16T12:24:07.000Z</time>
      </trkpt>
      <trkpt lat="43.31123" lon="5.70048">
        <ele>954.4</ele>
        <time>2022-10-16T12:24:16.000Z</time>
      </trkpt>
      <trkpt lat="43.31119" lon="5.70035">
        <ele>955.3</ele>
        <time>2022-10-16T12:24:27.000Z</time>
      </trkpt>
      <trkpt lat="43.31116" lon="5.70023">
        <ele>955.5</ele>
        <time>2022-10-16T12:24:36.000Z</time>
      </trkpt>
      <trkpt lat="43.31113" lon="5.70011">
        <ele>956</ele>
        <time>2022-10-16T12:24:44.000Z</time>
      </trkpt>
      <trkpt lat="43.31111" lon="5.70006">
        <ele>956</ele>
        <time>2022-10-16T12:24:53.000Z</time>
      </trkpt>
      <trkpt lat="43.31111" lon="5.70006">
        <ele>956.1</ele>
        <time>2022-10-16T12:24:55.000Z</time>
      </trkpt>
      <trkpt lat="43.31111" lon="5.70006">
        <ele>956.1</ele>
        <time>2022-10-16T12:24:57.000Z</time>
      </trkpt>
      <trkpt lat="43.31111" lon="5.70005">
        <ele>956.3</ele>
        <time>2022-10-16T12:24:59.000Z</time>
      </trkpt>
      <trkpt lat="43.31111" lon="5.70003">
        <ele>956.3</ele>
        <time>2022-10-16T12:25:02.000Z</time>
      </trkpt>
      <trkpt lat="43.31111" lon="5.70003">
        <ele>956.4</ele>
        <time>2022-10-16T12:25:04.000Z</time>
      </trkpt>
      <trkpt lat="43.31108" lon="5.6999">
        <ele>956.4</ele>
        <time>2022-10-16T12:25:13.000Z</time>
      </trkpt>
      <trkpt lat="43.31103" lon="5.69978">
        <ele>957</ele>
        <time>2022-10-16T12:25:22.000Z</time>
      </trkpt>
      <trkpt lat="43.31101" lon="5.69965">
        <ele>957.1</ele>
        <time>2022-10-16T12:25:34.000Z</time>
      </trkpt>
      <trkpt lat="43.31097" lon="5.69953">
        <ele>957.4</ele>
        <time>2022-10-16T12:25:44.000Z</time>
      </trkpt>
      <trkpt lat="43.31094" lon="5.69941">
        <ele>957.8</ele>
        <time>2022-10-16T12:25:52.000Z</time>
      </trkpt>
      <trkpt lat="43.31094" lon="5.69928">
        <ele>957.4</ele>
        <time>2022-10-16T12:26:00.000Z</time>
      </trkpt>
      <trkpt lat="43.31091" lon="5.69916">
        <ele>957.4</ele>
        <time>2022-10-16T12:26:11.000Z</time>
      </trkpt>
      <trkpt lat="43.31088" lon="5.69903">
        <ele>956.4</ele>
        <time>2022-10-16T12:26:20.000Z</time>
      </trkpt>
      <trkpt lat="43.31085" lon="5.69891">
        <ele>955.4</ele>
        <time>2022-10-16T12:26:28.000Z</time>
      </trkpt>
      <trkpt lat="43.31081" lon="5.6988">
        <ele>954.5</ele>
        <time>2022-10-16T12:26:37.000Z</time>
      </trkpt>
      <trkpt lat="43.31079" lon="5.69867">
        <ele>952.5</ele>
        <time>2022-10-16T12:26:47.000Z</time>
      </trkpt>
      <trkpt lat="43.31077" lon="5.69854">
        <ele>950.8</ele>
        <time>2022-10-16T12:26:58.000Z</time>
      </trkpt>
      <trkpt lat="43.31076" lon="5.69842">
        <ele>948.6</ele>
        <time>2022-10-16T12:27:10.000Z</time>
      </trkpt>
      <trkpt lat="43.31073" lon="5.6983">
        <ele>946.4</ele>
        <time>2022-10-16T12:27:21.000Z</time>
      </trkpt>
      <trkpt lat="43.3107" lon="5.6982">
        <ele>945.6</ele>
        <time>2022-10-16T12:27:34.000Z</time>
      </trkpt>
      <trkpt lat="43.3107" lon="5.6982">
        <ele>945.3</ele>
        <time>2022-10-16T12:28:02.000Z</time>
      </trkpt>
      <trkpt lat="43.3107" lon="5.6982">
        <ele>945.1</ele>
        <time>2022-10-16T12:28:03.000Z</time>
      </trkpt>
      <trkpt lat="43.3107" lon="5.6982">
        <ele>944.7</ele>
        <time>2022-10-16T12:28:24.000Z</time>
      </trkpt>
      <trkpt lat="43.3107" lon="5.6982">
        <ele>944.7</ele>
        <time>2022-10-16T12:28:26.000Z</time>
      </trkpt>
      <trkpt lat="43.3107" lon="5.69819">
        <ele>944.8</ele>
        <time>2022-10-16T12:28:32.000Z</time>
      </trkpt>
      <trkpt lat="43.3107" lon="5.69817">
        <ele>944.8</ele>
        <time>2022-10-16T12:28:36.000Z</time>
      </trkpt>
      <trkpt lat="43.3107" lon="5.69817">
        <ele>945</ele>
        <time>2022-10-16T12:28:55.000Z</time>
      </trkpt>
      <trkpt lat="43.3107" lon="5.69817">
        <ele>945.1</ele>
        <time>2022-10-16T12:28:56.000Z</time>
      </trkpt>
      <trkpt lat="43.3107" lon="5.69818">
        <ele>945.2</ele>
        <time>2022-10-16T12:29:00.000Z</time>
      </trkpt>
      <trkpt lat="43.3107" lon="5.69818">
        <ele>945.2</ele>
        <time>2022-10-16T12:29:02.000Z</time>
      </trkpt>
      <trkpt lat="43.3107" lon="5.69818">
        <ele>944.9</ele>
        <time>2022-10-16T12:29:25.000Z</time>
      </trkpt>
      <trkpt lat="43.3107" lon="5.69818">
        <ele>945</ele>
        <time>2022-10-16T12:29:26.000Z</time>
      </trkpt>
      <trkpt lat="43.3107" lon="5.69818">
        <ele>945.1</ele>
        <time>2022-10-16T12:29:47.000Z</time>
      </trkpt>
      <trkpt lat="43.3107" lon="5.69818">
        <ele>944.9</ele>
        <time>2022-10-16T12:29:48.000Z</time>
      </trkpt>
      <trkpt lat="43.3107" lon="5.69818">
        <ele>944.8</ele>
        <time>2022-10-16T12:29:57.000Z</time>
      </trkpt>
      <trkpt lat="43.31069" lon="5.69819">
        <ele>945.5</ele>
        <time>2022-10-16T12:30:02.000Z</time>
      </trkpt>
      <trkpt lat="43.3107" lon="5.69818">
        <ele>945.3</ele>
        <time>2022-10-16T12:30:06.000Z</time>
      </trkpt>
      <trkpt lat="43.3107" lon="5.69818">
        <ele>945.1</ele>
        <time>2022-10-16T12:30:07.000Z</time>
      </trkpt>
      <trkpt lat="43.31069" lon="5.69819">
        <ele>945.2</ele>
        <time>2022-10-16T12:30:10.000Z</time>
      </trkpt>
      <trkpt lat="43.3107" lon="5.69818">
        <ele>945.4</ele>
        <time>2022-10-16T12:30:12.000Z</time>
      </trkpt>
      <trkpt lat="43.31069" lon="5.69819">
        <ele>945.5</ele>
        <time>2022-10-16T12:30:49.000Z</time>
      </trkpt>
      <trkpt lat="43.31069" lon="5.69819">
        <ele>945.4</ele>
        <time>2022-10-16T12:30:50.000Z</time>
      </trkpt>
      <trkpt lat="43.3107" lon="5.69819">
        <ele>944.9</ele>
        <time>2022-10-16T12:31:00.000Z</time>
      </trkpt>
      <trkpt lat="43.31069" lon="5.69818">
        <ele>945</ele>
        <time>2022-10-16T12:31:06.000Z</time>
      </trkpt>
      <trkpt lat="43.31069" lon="5.69818">
        <ele>945.1</ele>
        <time>2022-10-16T12:31:07.000Z</time>
      </trkpt>
      <trkpt lat="43.31069" lon="5.69818">
        <ele>945.1</ele>
        <time>2022-10-16T12:31:08.000Z</time>
      </trkpt>
      <trkpt lat="43.31069" lon="5.69818">
        <ele>945</ele>
        <time>2022-10-16T12:31:09.000Z</time>
      </trkpt>
      <trkpt lat="43.31069" lon="5.69818">
        <ele>944.9</ele>
        <time>2022-10-16T12:31:10.000Z</time>
      </trkpt>
      <trkpt lat="43.31069" lon="5.69818">
        <ele>944.5</ele>
        <time>2022-10-16T12:31:13.000Z</time>
      </trkpt>
      <trkpt lat="43.31069" lon="5.69817">
        <ele>944.4</ele>
        <time>2022-10-16T12:31:16.000Z</time>
      </trkpt>
      <trkpt lat="43.31069" lon="5.69817">
        <ele>944.6</ele>
        <time>2022-10-16T12:31:25.000Z</time>
      </trkpt>
      <trkpt lat="43.31069" lon="5.69817">
        <ele>944.7</ele>
        <time>2022-10-16T12:31:26.000Z</time>
      </trkpt>
      <trkpt lat="43.31069" lon="5.69817">
        <ele>945.1</ele>
        <time>2022-10-16T12:31:28.000Z</time>
      </trkpt>
      <trkpt lat="43.31069" lon="5.69817">
        <ele>945.2</ele>
        <time>2022-10-16T12:31:29.000Z</time>
      </trkpt>
      <trkpt lat="43.31069" lon="5.69817">
        <ele>944.9</ele>
        <time>2022-10-16T12:31:34.000Z</time>
      </trkpt>
      <trkpt lat="43.31068" lon="5.69817">
        <ele>944.9</ele>
        <time>2022-10-16T12:31:38.000Z</time>
      </trkpt>
      <trkpt lat="43.31068" lon="5.69817">
        <ele>944.9</ele>
        <time>2022-10-16T12:31:40.000Z</time>
      </trkpt>
      <trkpt lat="43.31068" lon="5.69817">
        <ele>944.8</ele>
        <time>2022-10-16T12:31:41.000Z</time>
      </trkpt>
      <trkpt lat="43.31068" lon="5.69817">
        <ele>944.6</ele>
        <time>2022-10-16T12:31:50.000Z</time>
      </trkpt>
      <trkpt lat="43.31068" lon="5.69817">
        <ele>944.5</ele>
        <time>2022-10-16T12:31:51.000Z</time>
      </trkpt>
      <trkpt lat="43.31068" lon="5.69817">
        <ele>944.5</ele>
        <time>2022-10-16T12:31:54.000Z</time>
      </trkpt>
      <trkpt lat="43.31068" lon="5.69817">
        <ele>944.6</ele>
        <time>2022-10-16T12:31:56.000Z</time>
      </trkpt>
      <trkpt lat="43.31069" lon="5.69817">
        <ele>944.9</ele>
        <time>2022-10-16T12:32:32.000Z</time>
      </trkpt>
      <trkpt lat="43.31069" lon="5.69817">
        <ele>945</ele>
        <time>2022-10-16T12:32:36.000Z</time>
      </trkpt>
      <trkpt lat="43.31069" lon="5.69816">
        <ele>944.8</ele>
        <time>2022-10-16T12:32:45.000Z</time>
      </trkpt>
      <trkpt lat="43.3107" lon="5.69813">
        <ele>945.5</ele>
        <time>2022-10-16T12:32:53.000Z</time>
      </trkpt>
      <trkpt lat="43.3107" lon="5.69813">
        <ele>945.6</ele>
        <time>2022-10-16T12:32:54.000Z</time>
      </trkpt>
      <trkpt lat="43.31076" lon="5.6981">
        <ele>946.9</ele>
        <time>2022-10-16T12:33:16.000Z</time>
      </trkpt>
      <trkpt lat="43.31077" lon="5.69811">
        <ele>947.3</ele>
        <time>2022-10-16T12:33:17.000Z</time>
      </trkpt>
      <trkpt lat="43.31079" lon="5.6981">
        <ele>948.3</ele>
        <time>2022-10-16T12:33:25.000Z</time>
      </trkpt>
      <trkpt lat="43.31079" lon="5.6981">
        <ele>948.5</ele>
        <time>2022-10-16T12:33:26.000Z</time>
      </trkpt>
      <trkpt lat="43.31089" lon="5.69807">
        <ele>950.5</ele>
        <time>2022-10-16T12:33:47.000Z</time>
      </trkpt>
      <trkpt lat="43.31098" lon="5.69803">
        <ele>952</ele>
        <time>2022-10-16T12:34:03.000Z</time>
      </trkpt>
      <trkpt lat="43.31097" lon="5.69803">
        <ele>952</ele>
        <time>2022-10-16T12:34:05.000Z</time>
      </trkpt>
      <trkpt lat="43.31098" lon="5.69803">
        <ele>951.9</ele>
        <time>2022-10-16T12:34:06.000Z</time>
      </trkpt>
      <trkpt lat="43.31105" lon="5.69795">
        <ele>953.9</ele>
        <time>2022-10-16T12:34:20.000Z</time>
      </trkpt>
      <trkpt lat="43.31111" lon="5.69784">
        <ele>953.8</ele>
        <time>2022-10-16T12:34:31.000Z</time>
      </trkpt>
      <trkpt lat="43.31114" lon="5.69772">
        <ele>954.3</ele>
        <time>2022-10-16T12:34:42.000Z</time>
      </trkpt>
      <trkpt lat="43.31116" lon="5.69759">
        <ele>955</ele>
        <time>2022-10-16T12:34:52.000Z</time>
      </trkpt>
      <trkpt lat="43.31119" lon="5.69748">
        <ele>956.3</ele>
        <time>2022-10-16T12:35:06.000Z</time>
      </trkpt>
      <trkpt lat="43.31121" lon="5.69735">
        <ele>957.5</ele>
        <time>2022-10-16T12:35:19.000Z</time>
      </trkpt>
      <trkpt lat="43.31125" lon="5.69723">
        <ele>958.5</ele>
        <time>2022-10-16T12:35:32.000Z</time>
      </trkpt>
      <trkpt lat="43.31131" lon="5.69713">
        <ele>959.8</ele>
        <time>2022-10-16T12:35:46.000Z</time>
      </trkpt>
      <trkpt lat="43.31137" lon="5.69704">
        <ele>961</ele>
        <time>2022-10-16T12:36:01.000Z</time>
      </trkpt>
      <trkpt lat="43.31145" lon="5.69697">
        <ele>962.1</ele>
        <time>2022-10-16T12:36:17.000Z</time>
      </trkpt>
      <trkpt lat="43.31148" lon="5.69694">
        <ele>963</ele>
        <time>2022-10-16T12:36:25.000Z</time>
      </trkpt>
      <trkpt lat="43.31148" lon="5.69693">
        <ele>963.1</ele>
        <time>2022-10-16T12:36:29.000Z</time>
      </trkpt>
      <trkpt lat="43.31149" lon="5.69693">
        <ele>963.3</ele>
        <time>2022-10-16T12:36:32.000Z</time>
      </trkpt>
      <trkpt lat="43.3115" lon="5.69693">
        <ele>963.4</ele>
        <time>2022-10-16T12:36:47.000Z</time>
      </trkpt>
      <trkpt lat="43.31149" lon="5.69693">
        <ele>963.4</ele>
        <time>2022-10-16T12:36:49.000Z</time>
      </trkpt>
      <trkpt lat="43.3115" lon="5.69693">
        <ele>963.4</ele>
        <time>2022-10-16T12:36:51.000Z</time>
      </trkpt>
      <trkpt lat="43.31157" lon="5.69686">
        <ele>964.8</ele>
        <time>2022-10-16T12:37:02.000Z</time>
      </trkpt>
      <trkpt lat="43.31165" lon="5.69678">
        <ele>966.8</ele>
        <time>2022-10-16T12:37:17.000Z</time>
      </trkpt>
      <trkpt lat="43.31168" lon="5.69676">
        <ele>967.5</ele>
        <time>2022-10-16T12:37:24.000Z</time>
      </trkpt>
      <trkpt lat="43.31168" lon="5.69676">
        <ele>967.9</ele>
        <time>2022-10-16T12:37:25.000Z</time>
      </trkpt>
      <trkpt lat="43.31177" lon="5.69676">
        <ele>968.7</ele>
        <time>2022-10-16T12:37:37.000Z</time>
      </trkpt>
      <trkpt lat="43.31179" lon="5.69676">
        <ele>969.2</ele>
        <time>2022-10-16T12:37:42.000Z</time>
      </trkpt>
      <trkpt lat="43.3118" lon="5.69676">
        <ele>970.2</ele>
        <time>2022-10-16T12:37:46.000Z</time>
      </trkpt>
      <trkpt lat="43.3118" lon="5.69676">
        <ele>970.2</ele>
        <time>2022-10-16T12:37:47.000Z</time>
      </trkpt>
      <trkpt lat="43.3118" lon="5.69676">
        <ele>970.6</ele>
        <time>2022-10-16T12:37:49.000Z</time>
      </trkpt>
      <trkpt lat="43.3119" lon="5.69677">
        <ele>972.1</ele>
        <time>2022-10-16T12:38:03.000Z</time>
      </trkpt>
      <trkpt lat="43.31197" lon="5.69685">
        <ele>974.1</ele>
        <time>2022-10-16T12:38:24.000Z</time>
      </trkpt>
      <trkpt lat="43.31199" lon="5.69688">
        <ele>975.1</ele>
        <time>2022-10-16T12:38:32.000Z</time>
      </trkpt>
      <trkpt lat="43.312" lon="5.69688">
        <ele>975.3</ele>
        <time>2022-10-16T12:38:34.000Z</time>
      </trkpt>
      <trkpt lat="43.31209" lon="5.69692">
        <ele>977.6</ele>
        <time>2022-10-16T12:38:53.000Z</time>
      </trkpt>
      <trkpt lat="43.31218" lon="5.69694">
        <ele>979.1</ele>
        <time>2022-10-16T12:39:07.000Z</time>
      </trkpt>
      <trkpt lat="43.31226" lon="5.69687">
        <ele>981.7</ele>
        <time>2022-10-16T12:39:27.000Z</time>
      </trkpt>
      <trkpt lat="43.31229" lon="5.69675">
        <ele>984</ele>
        <time>2022-10-16T12:39:48.000Z</time>
      </trkpt>
      <trkpt lat="43.31227" lon="5.69662">
        <ele>984.4</ele>
        <time>2022-10-16T12:39:59.000Z</time>
      </trkpt>
      <trkpt lat="43.31224" lon="5.69651">
        <ele>984.4</ele>
        <time>2022-10-16T12:40:08.000Z</time>
      </trkpt>
      <trkpt lat="43.31222" lon="5.69638">
        <ele>984.1</ele>
        <time>2022-10-16T12:40:18.000Z</time>
      </trkpt>
      <trkpt lat="43.3122" lon="5.69625">
        <ele>984.7</ele>
        <time>2022-10-16T12:40:29.000Z</time>
      </trkpt>
      <trkpt lat="43.31218" lon="5.69613">
        <ele>985</ele>
        <time>2022-10-16T12:40:41.000Z</time>
      </trkpt>
      <trkpt lat="43.31214" lon="5.69601">
        <ele>985.6</ele>
        <time>2022-10-16T12:40:53.000Z</time>
      </trkpt>
      <trkpt lat="43.31212" lon="5.69588">
        <ele>985.7</ele>
        <time>2022-10-16T12:41:05.000Z</time>
      </trkpt>
      <trkpt lat="43.31209" lon="5.69576">
        <ele>986.6</ele>
        <time>2022-10-16T12:41:20.000Z</time>
      </trkpt>
      <trkpt lat="43.31206" lon="5.69564">
        <ele>987.1</ele>
        <time>2022-10-16T12:41:33.000Z</time>
      </trkpt>
      <trkpt lat="43.31203" lon="5.69551">
        <ele>987.1</ele>
        <time>2022-10-16T12:41:46.000Z</time>
      </trkpt>
      <trkpt lat="43.31202" lon="5.69538">
        <ele>987.5</ele>
        <time>2022-10-16T12:41:57.000Z</time>
      </trkpt>
      <trkpt lat="43.312" lon="5.69526">
        <ele>987.4</ele>
        <time>2022-10-16T12:42:10.000Z</time>
      </trkpt>
      <trkpt lat="43.31201" lon="5.69513">
        <ele>989.2</ele>
        <time>2022-10-16T12:42:27.000Z</time>
      </trkpt>
      <trkpt lat="43.31201" lon="5.695">
        <ele>990.3</ele>
        <time>2022-10-16T12:42:44.000Z</time>
      </trkpt>
      <trkpt lat="43.31202" lon="5.69487">
        <ele>992.3</ele>
        <time>2022-10-16T12:43:01.000Z</time>
      </trkpt>
      <trkpt lat="43.31202" lon="5.69485">
        <ele>992.2</ele>
        <time>2022-10-16T12:43:06.000Z</time>
      </trkpt>
      <trkpt lat="43.31202" lon="5.69485">
        <ele>992.4</ele>
        <time>2022-10-16T12:43:08.000Z</time>
      </trkpt>
      <trkpt lat="43.31204" lon="5.69473">
        <ele>992.9</ele>
        <time>2022-10-16T12:43:25.000Z</time>
      </trkpt>
      <trkpt lat="43.31211" lon="5.69464">
        <ele>995.5</ele>
        <time>2022-10-16T12:43:48.000Z</time>
      </trkpt>
      <trkpt lat="43.31215" lon="5.69453">
        <ele>997.1</ele>
        <time>2022-10-16T12:44:04.000Z</time>
      </trkpt>
      <trkpt lat="43.31221" lon="5.69445">
        <ele>998.3</ele>
        <time>2022-10-16T12:44:22.000Z</time>
      </trkpt>
      <trkpt lat="43.31221" lon="5.69444">
        <ele>998.4</ele>
        <time>2022-10-16T12:44:29.000Z</time>
      </trkpt>
      <trkpt lat="43.31226" lon="5.69433">
        <ele>998.5</ele>
        <time>2022-10-16T12:44:44.000Z</time>
      </trkpt>
      <trkpt lat="43.31228" lon="5.69421">
        <ele>999.6</ele>
        <time>2022-10-16T12:45:00.000Z</time>
      </trkpt>
      <trkpt lat="43.31227" lon="5.69409">
        <ele>1000</ele>
        <time>2022-10-16T12:45:13.000Z</time>
      </trkpt>
      <trkpt lat="43.31226" lon="5.69396">
        <ele>998.9</ele>
        <time>2022-10-16T12:45:26.000Z</time>
      </trkpt>
      <trkpt lat="43.31225" lon="5.69383">
        <ele>999</ele>
        <time>2022-10-16T12:45:38.000Z</time>
      </trkpt>
      <trkpt lat="43.31229" lon="5.69371">
        <ele>999.3</ele>
        <time>2022-10-16T12:45:55.000Z</time>
      </trkpt>
      <trkpt lat="43.31235" lon="5.69362">
        <ele>999.8</ele>
        <time>2022-10-16T12:46:10.000Z</time>
      </trkpt>
      <trkpt lat="43.31242" lon="5.69354">
        <ele>1000.5</ele>
        <time>2022-10-16T12:46:22.000Z</time>
      </trkpt>
      <trkpt lat="43.31248" lon="5.69343">
        <ele>1001.8</ele>
        <time>2022-10-16T12:46:36.000Z</time>
      </trkpt>
      <trkpt lat="43.31249" lon="5.69329">
        <ele>1001.2</ele>
        <time>2022-10-16T12:46:46.000Z</time>
      </trkpt>
      <trkpt lat="43.31255" lon="5.69319">
        <ele>1001.8</ele>
        <time>2022-10-16T12:46:58.000Z</time>
      </trkpt>
      <trkpt lat="43.31253" lon="5.69306">
        <ele>1001.8</ele>
        <time>2022-10-16T12:47:11.000Z</time>
      </trkpt>
      <trkpt lat="43.31254" lon="5.69301">
        <ele>1001.2</ele>
        <time>2022-10-16T12:47:22.000Z</time>
      </trkpt>
      <trkpt lat="43.31254" lon="5.69301">
        <ele>1001.4</ele>
        <time>2022-10-16T12:47:48.000Z</time>
      </trkpt>
      <trkpt lat="43.31254" lon="5.69301">
        <ele>1001.4</ele>
        <time>2022-10-16T12:47:49.000Z</time>
      </trkpt>
      <trkpt lat="43.31254" lon="5.69301">
        <ele>1001.3</ele>
        <time>2022-10-16T12:48:12.000Z</time>
      </trkpt>
      <trkpt lat="43.31254" lon="5.69301">
        <ele>1001.3</ele>
        <time>2022-10-16T12:48:13.000Z</time>
      </trkpt>
      <trkpt lat="43.31254" lon="5.69301">
        <ele>1000.8</ele>
        <time>2022-10-16T12:48:26.000Z</time>
      </trkpt>
      <trkpt lat="43.31254" lon="5.69301">
        <ele>1001.3</ele>
        <time>2022-10-16T12:48:27.000Z</time>
      </trkpt>
      <trkpt lat="43.31253" lon="5.693">
        <ele>1001.7</ele>
        <time>2022-10-16T12:48:43.000Z</time>
      </trkpt>
      <trkpt lat="43.31252" lon="5.69294">
        <ele>1001.4</ele>
        <time>2022-10-16T12:48:53.000Z</time>
      </trkpt>
      <trkpt lat="43.31252" lon="5.69294">
        <ele>1001.5</ele>
        <time>2022-10-16T12:48:57.000Z</time>
      </trkpt>
      <trkpt lat="43.31252" lon="5.69294">
        <ele>1001.7</ele>
        <time>2022-10-16T12:48:58.000Z</time>
      </trkpt>
      <trkpt lat="43.31252" lon="5.69294">
        <ele>1001.5</ele>
        <time>2022-10-16T12:49:03.000Z</time>
      </trkpt>
      <trkpt lat="43.31252" lon="5.6929">
        <ele>1001.1</ele>
        <time>2022-10-16T12:49:08.000Z</time>
      </trkpt>
      <trkpt lat="43.31252" lon="5.6929">
        <ele>1001.1</ele>
        <time>2022-10-16T12:49:12.000Z</time>
      </trkpt>
      <trkpt lat="43.31251" lon="5.69288">
        <ele>1001.3</ele>
        <time>2022-10-16T12:49:16.000Z</time>
      </trkpt>
      <trkpt lat="43.31251" lon="5.69288">
        <ele>1000.9</ele>
        <time>2022-10-16T12:49:22.000Z</time>
      </trkpt>
      <trkpt lat="43.31251" lon="5.69286">
        <ele>1001.4</ele>
        <time>2022-10-16T12:49:26.000Z</time>
      </trkpt>
      <trkpt lat="43.31251" lon="5.69285">
        <ele>1001.1</ele>
        <time>2022-10-16T12:49:37.000Z</time>
      </trkpt>
      <trkpt lat="43.31251" lon="5.69282">
        <ele>1000.9</ele>
        <time>2022-10-16T12:49:42.000Z</time>
      </trkpt>
      <trkpt lat="43.31251" lon="5.69282">
        <ele>1000.8</ele>
        <time>2022-10-16T12:49:44.000Z</time>
      </trkpt>
      <trkpt lat="43.3125" lon="5.69281">
        <ele>1000.9</ele>
        <time>2022-10-16T12:49:46.000Z</time>
      </trkpt>
      <trkpt lat="43.3125" lon="5.6928">
        <ele>1000.8</ele>
        <time>2022-10-16T12:49:48.000Z</time>
      </trkpt>
      <trkpt lat="43.31248" lon="5.69267">
        <ele>1001.3</ele>
        <time>2022-10-16T12:49:58.000Z</time>
      </trkpt>
      <trkpt lat="43.31247" lon="5.69254">
        <ele>1002</ele>
        <time>2022-10-16T12:50:08.000Z</time>
      </trkpt>
      <trkpt lat="43.31245" lon="5.69241">
        <ele>1002.3</ele>
        <time>2022-10-16T12:50:18.000Z</time>
      </trkpt>
      <trkpt lat="43.31244" lon="5.69229">
        <ele>1002.4</ele>
        <time>2022-10-16T12:50:27.000Z</time>
      </trkpt>
      <trkpt lat="43.31242" lon="5.69216">
        <ele>1003.5</ele>
        <time>2022-10-16T12:50:38.000Z</time>
      </trkpt>
      <trkpt lat="43.3124" lon="5.69203">
        <ele>1004.3</ele>
        <time>2022-10-16T12:50:49.000Z</time>
      </trkpt>
      <trkpt lat="43.31237" lon="5.6919">
        <ele>1004.9</ele>
        <time>2022-10-16T12:51:01.000Z</time>
      </trkpt>
      <trkpt lat="43.31236" lon="5.69178">
        <ele>1005.5</ele>
        <time>2022-10-16T12:51:11.000Z</time>
      </trkpt>
      <trkpt lat="43.31234" lon="5.69165">
        <ele>1006.3</ele>
        <time>2022-10-16T12:51:24.000Z</time>
      </trkpt>
      <trkpt lat="43.31231" lon="5.69153">
        <ele>1007.1</ele>
        <time>2022-10-16T12:51:35.000Z</time>
      </trkpt>
      <trkpt lat="43.31228" lon="5.69141">
        <ele>1008.2</ele>
        <time>2022-10-16T12:51:46.000Z</time>
      </trkpt>
      <trkpt lat="43.31225" lon="5.69129">
        <ele>1008.9</ele>
        <time>2022-10-16T12:51:57.000Z</time>
      </trkpt>
      <trkpt lat="43.31221" lon="5.69118">
        <ele>1010.2</ele>
        <time>2022-10-16T12:52:11.000Z</time>
      </trkpt>
      <trkpt lat="43.31216" lon="5.69106">
        <ele>1012</ele>
        <time>2022-10-16T12:52:26.000Z</time>
      </trkpt>
      <trkpt lat="43.3121" lon="5.69097">
        <ele>1013.6</ele>
        <time>2022-10-16T12:52:38.000Z</time>
      </trkpt>
      <trkpt lat="43.31206" lon="5.69086">
        <ele>1014.9</ele>
        <time>2022-10-16T12:52:50.000Z</time>
      </trkpt>
      <trkpt lat="43.31201" lon="5.69074">
        <ele>1016.1</ele>
        <time>2022-10-16T12:53:04.000Z</time>
      </trkpt>
      <trkpt lat="43.31199" lon="5.69062">
        <ele>1016.4</ele>
        <time>2022-10-16T12:53:15.000Z</time>
      </trkpt>
      <trkpt lat="43.31196" lon="5.6905">
        <ele>1017.1</ele>
        <time>2022-10-16T12:53:26.000Z</time>
      </trkpt>
      <trkpt lat="43.31192" lon="5.69039">
        <ele>1017.6</ele>
        <time>2022-10-16T12:53:37.000Z</time>
      </trkpt>
      <trkpt lat="43.31191" lon="5.69032">
        <ele>1018.2</ele>
        <time>2022-10-16T12:53:49.000Z</time>
      </trkpt>
      <trkpt lat="43.31191" lon="5.69032">
        <ele>1018.2</ele>
        <time>2022-10-16T12:53:50.000Z</time>
      </trkpt>
      <trkpt lat="43.31183" lon="5.69025">
        <ele>1018.1</ele>
        <time>2022-10-16T12:54:04.000Z</time>
      </trkpt>
      <trkpt lat="43.31181" lon="5.69024">
        <ele>1018.9</ele>
        <time>2022-10-16T12:54:11.000Z</time>
      </trkpt>
      <trkpt lat="43.31181" lon="5.69023">
        <ele>1019</ele>
        <time>2022-10-16T12:54:12.000Z</time>
      </trkpt>
      <trkpt lat="43.31176" lon="5.69013">
        <ele>1019.7</ele>
        <time>2022-10-16T12:54:29.000Z</time>
      </trkpt>
      <trkpt lat="43.31171" lon="5.69005">
        <ele>1019.6</ele>
        <time>2022-10-16T12:54:43.000Z</time>
      </trkpt>
      <trkpt lat="43.31171" lon="5.69005">
        <ele>1019.8</ele>
        <time>2022-10-16T12:54:49.000Z</time>
      </trkpt>
      <trkpt lat="43.31169" lon="5.69002">
        <ele>1019.8</ele>
        <time>2022-10-16T12:54:56.000Z</time>
      </trkpt>
      <trkpt lat="43.31169" lon="5.69002">
        <ele>1019.5</ele>
        <time>2022-10-16T12:55:17.000Z</time>
      </trkpt>
      <trkpt lat="43.31168" lon="5.69004">
        <ele>1019.3</ele>
        <time>2022-10-16T12:55:22.000Z</time>
      </trkpt>
      <trkpt lat="43.31168" lon="5.69004">
        <ele>1019</ele>
        <time>2022-10-16T12:55:28.000Z</time>
      </trkpt>
      <trkpt lat="43.31168" lon="5.69004">
        <ele>1019</ele>
        <time>2022-10-16T12:55:29.000Z</time>
      </trkpt>
      <trkpt lat="43.31168" lon="5.69003">
        <ele>1019</ele>
        <time>2022-10-16T12:55:36.000Z</time>
      </trkpt>
      <trkpt lat="43.31167" lon="5.68997">
        <ele>1017.8</ele>
        <time>2022-10-16T12:55:46.000Z</time>
      </trkpt>
      <trkpt lat="43.31167" lon="5.68997">
        <ele>1017.6</ele>
        <time>2022-10-16T12:55:49.000Z</time>
      </trkpt>
      <trkpt lat="43.31158" lon="5.68995">
        <ele>1014</ele>
        <time>2022-10-16T12:56:14.000Z</time>
      </trkpt>
      <trkpt lat="43.31158" lon="5.68995">
        <ele>1014.1</ele>
        <time>2022-10-16T12:56:15.000Z</time>
      </trkpt>
      <trkpt lat="43.31158" lon="5.68994">
        <ele>1014.2</ele>
        <time>2022-10-16T12:56:17.000Z</time>
      </trkpt>
      <trkpt lat="43.31154" lon="5.68983">
        <ele>1015</ele>
        <time>2022-10-16T12:56:38.000Z</time>
      </trkpt>
      <trkpt lat="43.31149" lon="5.68976">
        <ele>1014.1</ele>
        <time>2022-10-16T12:56:56.000Z</time>
      </trkpt>
      <trkpt lat="43.31149" lon="5.68976">
        <ele>1014.6</ele>
        <time>2022-10-16T12:56:58.000Z</time>
      </trkpt>
      <trkpt lat="43.31151" lon="5.68963">
        <ele>1016.1</ele>
        <time>2022-10-16T12:57:18.000Z</time>
      </trkpt>
      <trkpt lat="43.31151" lon="5.68963">
        <ele>1016.4</ele>
        <time>2022-10-16T12:57:20.000Z</time>
      </trkpt>
      <trkpt lat="43.31151" lon="5.68962">
        <ele>1016.6</ele>
        <time>2022-10-16T12:57:21.000Z</time>
      </trkpt>
      <trkpt lat="43.31148" lon="5.68955">
        <ele>1015.6</ele>
        <time>2022-10-16T12:57:35.000Z</time>
      </trkpt>
      <trkpt lat="43.31148" lon="5.68955">
        <ele>1015.6</ele>
        <time>2022-10-16T12:57:37.000Z</time>
      </trkpt>
      <trkpt lat="43.31148" lon="5.68955">
        <ele>1015.4</ele>
        <time>2022-10-16T12:57:38.000Z</time>
      </trkpt>
      <trkpt lat="43.31148" lon="5.68954">
        <ele>1015.3</ele>
        <time>2022-10-16T12:57:51.000Z</time>
      </trkpt>
      <trkpt lat="43.31147" lon="5.68953">
        <ele>1014.9</ele>
        <time>2022-10-16T12:57:55.000Z</time>
      </trkpt>
      <trkpt lat="43.31147" lon="5.68952">
        <ele>1014.7</ele>
        <time>2022-10-16T12:57:59.000Z</time>
      </trkpt>
      <trkpt lat="43.31149" lon="5.6894">
        <ele>1014.2</ele>
        <time>2022-10-16T12:58:10.000Z</time>
      </trkpt>
      <trkpt lat="43.31144" lon="5.68929">
        <ele>1012.9</ele>
        <time>2022-10-16T12:58:23.000Z</time>
      </trkpt>
      <trkpt lat="43.31139" lon="5.68919">
        <ele>1011.4</ele>
        <time>2022-10-16T12:58:42.000Z</time>
      </trkpt>
      <trkpt lat="43.31134" lon="5.68908">
        <ele>1011.3</ele>
        <time>2022-10-16T12:58:58.000Z</time>
      </trkpt>
      <trkpt lat="43.31136" lon="5.68903">
        <ele>1012</ele>
        <time>2022-10-16T12:59:09.000Z</time>
      </trkpt>
      <trkpt lat="43.31136" lon="5.68903">
        <ele>1012.2</ele>
        <time>2022-10-16T12:59:13.000Z</time>
      </trkpt>
      <trkpt lat="43.31134" lon="5.68901">
        <ele>1012.3</ele>
        <time>2022-10-16T12:59:22.000Z</time>
      </trkpt>
      <trkpt lat="43.31134" lon="5.689">
        <ele>1012</ele>
        <time>2022-10-16T12:59:24.000Z</time>
      </trkpt>
      <trkpt lat="43.31132" lon="5.68888">
        <ele>1011.7</ele>
        <time>2022-10-16T12:59:43.000Z</time>
      </trkpt>
      <trkpt lat="43.3113" lon="5.68881">
        <ele>1010.8</ele>
        <time>2022-10-16T12:59:59.000Z</time>
      </trkpt>
      <trkpt lat="43.3113" lon="5.68881">
        <ele>1010.8</ele>
        <time>2022-10-16T13:00:00.000Z</time>
      </trkpt>
      <trkpt lat="43.3113" lon="5.6888">
        <ele>1010.9</ele>
        <time>2022-10-16T13:00:01.000Z</time>
      </trkpt>
      <trkpt lat="43.3113" lon="5.6888">
        <ele>1011</ele>
        <time>2022-10-16T13:00:02.000Z</time>
      </trkpt>
      <trkpt lat="43.31131" lon="5.68868">
        <ele>1011.6</ele>
        <time>2022-10-16T13:00:21.000Z</time>
      </trkpt>
      <trkpt lat="43.31131" lon="5.68867">
        <ele>1011.8</ele>
        <time>2022-10-16T13:00:24.000Z</time>
      </trkpt>
      <trkpt lat="43.31131" lon="5.68856">
        <ele>1014.6</ele>
        <time>2022-10-16T13:00:43.000Z</time>
      </trkpt>
      <trkpt lat="43.31131" lon="5.68855">
        <ele>1014.7</ele>
        <time>2022-10-16T13:00:45.000Z</time>
      </trkpt>
      <trkpt lat="43.31128" lon="5.68843">
        <ele>1015.1</ele>
        <time>2022-10-16T13:01:01.000Z</time>
      </trkpt>
      <trkpt lat="43.31127" lon="5.68832">
        <ele>1015.4</ele>
        <time>2022-10-16T13:01:15.000Z</time>
      </trkpt>
      <trkpt lat="43.31128" lon="5.68831">
        <ele>1015.3</ele>
        <time>2022-10-16T13:01:17.000Z</time>
      </trkpt>
      <trkpt lat="43.31128" lon="5.6883">
        <ele>1015.4</ele>
        <time>2022-10-16T13:01:19.000Z</time>
      </trkpt>
      <trkpt lat="43.31128" lon="5.6883">
        <ele>1015.7</ele>
        <time>2022-10-16T13:01:20.000Z</time>
      </trkpt>
      <trkpt lat="43.31128" lon="5.6883">
        <ele>1015.7</ele>
        <time>2022-10-16T13:01:22.000Z</time>
      </trkpt>
      <trkpt lat="43.31128" lon="5.6883">
        <ele>1015.6</ele>
        <time>2022-10-16T13:01:23.000Z</time>
      </trkpt>
      <trkpt lat="43.31128" lon="5.6883">
        <ele>1015.5</ele>
        <time>2022-10-16T13:01:24.000Z</time>
      </trkpt>
      <trkpt lat="43.31128" lon="5.6883">
        <ele>1015.7</ele>
        <time>2022-10-16T13:01:59.000Z</time>
      </trkpt>
      <trkpt lat="43.31128" lon="5.6883">
        <ele>1015.8</ele>
        <time>2022-10-16T13:02:00.000Z</time>
      </trkpt>
      <trkpt lat="43.31128" lon="5.68829">
        <ele>1016.1</ele>
        <time>2022-10-16T13:02:04.000Z</time>
      </trkpt>
      <trkpt lat="43.31128" lon="5.68829">
        <ele>1015.9</ele>
        <time>2022-10-16T13:02:05.000Z</time>
      </trkpt>
      <trkpt lat="43.31128" lon="5.68829">
        <ele>1015.6</ele>
        <time>2022-10-16T13:02:48.000Z</time>
      </trkpt>
      <trkpt lat="43.31122" lon="5.68819">
        <ele>1014.9</ele>
        <time>2022-10-16T13:03:06.000Z</time>
      </trkpt>
      <trkpt lat="43.31122" lon="5.68819">
        <ele>1014.8</ele>
        <time>2022-10-16T13:03:07.000Z</time>
      </trkpt>
      <trkpt lat="43.31122" lon="5.68819">
        <ele>1014.5</ele>
        <time>2022-10-16T13:03:09.000Z</time>
      </trkpt>
      <trkpt lat="43.31118" lon="5.68818">
        <ele>1014.7</ele>
        <time>2022-10-16T13:03:22.000Z</time>
      </trkpt>
      <trkpt lat="43.31118" lon="5.68818">
        <ele>1014.9</ele>
        <time>2022-10-16T13:03:23.000Z</time>
      </trkpt>
      <trkpt lat="43.31118" lon="5.68818">
        <ele>1015</ele>
        <time>2022-10-16T13:03:24.000Z</time>
      </trkpt>
      <trkpt lat="43.31118" lon="5.68818">
        <ele>1014.4</ele>
        <time>2022-10-16T13:03:34.000Z</time>
      </trkpt>
      <trkpt lat="43.31118" lon="5.68818">
        <ele>1014.4</ele>
        <time>2022-10-16T13:03:35.000Z</time>
      </trkpt>
      <trkpt lat="43.31118" lon="5.68818">
        <ele>1014.4</ele>
        <time>2022-10-16T13:03:38.000Z</time>
      </trkpt>
      <trkpt lat="43.31118" lon="5.68818">
        <ele>1014.2</ele>
        <time>2022-10-16T13:03:40.000Z</time>
      </trkpt>
      <trkpt lat="43.31118" lon="5.68818">
        <ele>1014.3</ele>
        <time>2022-10-16T13:03:45.000Z</time>
      </trkpt>
      <trkpt lat="43.31118" lon="5.68817">
        <ele>1014.3</ele>
        <time>2022-10-16T13:03:49.000Z</time>
      </trkpt>
      <trkpt lat="43.31118" lon="5.68817">
        <ele>1014</ele>
        <time>2022-10-16T13:03:51.000Z</time>
      </trkpt>
      <trkpt lat="43.31118" lon="5.68817">
        <ele>1013.9</ele>
        <time>2022-10-16T13:03:52.000Z</time>
      </trkpt>
      <trkpt lat="43.31118" lon="5.68818">
        <ele>1013.7</ele>
        <time>2022-10-16T13:03:56.000Z</time>
      </trkpt>
      <trkpt lat="43.31118" lon="5.68819">
        <ele>1013.4</ele>
        <time>2022-10-16T13:04:00.000Z</time>
      </trkpt>
      <trkpt lat="43.31118" lon="5.68819">
        <ele>1013.4</ele>
        <time>2022-10-16T13:04:03.000Z</time>
      </trkpt>
      <trkpt lat="43.31119" lon="5.68818">
        <ele>1013.4</ele>
        <time>2022-10-16T13:04:05.000Z</time>
      </trkpt>
      <trkpt lat="43.31119" lon="5.68818">
        <ele>1014.3</ele>
        <time>2022-10-16T13:04:08.000Z</time>
      </trkpt>
      <trkpt lat="43.31119" lon="5.68818">
        <ele>1014.5</ele>
        <time>2022-10-16T13:04:09.000Z</time>
      </trkpt>
      <trkpt lat="43.31119" lon="5.68818">
        <ele>1013.3</ele>
        <time>2022-10-16T13:04:24.000Z</time>
      </trkpt>
      <trkpt lat="43.31119" lon="5.68818">
        <ele>1013</ele>
        <time>2022-10-16T13:04:25.000Z</time>
      </trkpt>
      <trkpt lat="43.31119" lon="5.68819">
        <ele>1012.5</ele>
        <time>2022-10-16T13:04:31.000Z</time>
      </trkpt>
      <trkpt lat="43.31119" lon="5.68819">
        <ele>1012.9</ele>
        <time>2022-10-16T13:04:33.000Z</time>
      </trkpt>
      <trkpt lat="43.31119" lon="5.68819">
        <ele>1013.4</ele>
        <time>2022-10-16T13:04:49.000Z</time>
      </trkpt>
      <trkpt lat="43.31119" lon="5.68819">
        <ele>1013.4</ele>
        <time>2022-10-16T13:04:50.000Z</time>
      </trkpt>
      <trkpt lat="43.31119" lon="5.6882">
        <ele>1013.4</ele>
        <time>2022-10-16T13:04:51.000Z</time>
      </trkpt>
      <trkpt lat="43.31119" lon="5.6882">
        <ele>1013.5</ele>
        <time>2022-10-16T13:04:53.000Z</time>
      </trkpt>
      <trkpt lat="43.31119" lon="5.6882">
        <ele>1013.5</ele>
        <time>2022-10-16T13:05:09.000Z</time>
      </trkpt>
      <trkpt lat="43.31119" lon="5.6882">
        <ele>1013.4</ele>
        <time>2022-10-16T13:05:10.000Z</time>
      </trkpt>
      <trkpt lat="43.31119" lon="5.6882">
        <ele>1013.4</ele>
        <time>2022-10-16T13:06:24.000Z</time>
      </trkpt>
      <trkpt lat="43.31119" lon="5.6882">
        <ele>1013.1</ele>
        <time>2022-10-16T13:06:25.000Z</time>
      </trkpt>
      <trkpt lat="43.31119" lon="5.68821">
        <ele>1013.6</ele>
        <time>2022-10-16T13:06:29.000Z</time>
      </trkpt>
      <trkpt lat="43.31119" lon="5.68822">
        <ele>1014.3</ele>
        <time>2022-10-16T13:06:33.000Z</time>
      </trkpt>
      <trkpt lat="43.31119" lon="5.68822">
        <ele>1014</ele>
        <time>2022-10-16T13:06:35.000Z</time>
      </trkpt>
      <trkpt lat="43.31119" lon="5.68823">
        <ele>1013.5</ele>
        <time>2022-10-16T13:06:38.000Z</time>
      </trkpt>
      <trkpt lat="43.31119" lon="5.68823">
        <ele>1013.4</ele>
        <time>2022-10-16T13:06:49.000Z</time>
      </trkpt>
      <trkpt lat="43.31119" lon="5.68824">
        <ele>1014.6</ele>
        <time>2022-10-16T13:06:53.000Z</time>
      </trkpt>
      <trkpt lat="43.31119" lon="5.68824">
        <ele>1013.4</ele>
        <time>2022-10-16T13:07:04.000Z</time>
      </trkpt>
      <trkpt lat="43.3112" lon="5.68834">
        <ele>1015.1</ele>
        <time>2022-10-16T13:07:23.000Z</time>
      </trkpt>
      <trkpt lat="43.3112" lon="5.68835">
        <ele>1015</ele>
        <time>2022-10-16T13:07:25.000Z</time>
      </trkpt>
      <trkpt lat="43.3112" lon="5.68835">
        <ele>1015</ele>
        <time>2022-10-16T13:07:26.000Z</time>
      </trkpt>
      <trkpt lat="43.3112" lon="5.68836">
        <ele>1015.2</ele>
        <time>2022-10-16T13:07:27.000Z</time>
      </trkpt>
      <trkpt lat="43.31123" lon="5.68841">
        <ele>1015.7</ele>
        <time>2022-10-16T13:07:39.000Z</time>
      </trkpt>
      <trkpt lat="43.31124" lon="5.68841">
        <ele>1015.5</ele>
        <time>2022-10-16T13:07:40.000Z</time>
      </trkpt>
      <trkpt lat="43.31124" lon="5.6884">
        <ele>1015.7</ele>
        <time>2022-10-16T13:07:43.000Z</time>
      </trkpt>
      <trkpt lat="43.31124" lon="5.6884">
        <ele>1015.7</ele>
        <time>2022-10-16T13:07:48.000Z</time>
      </trkpt>
      <trkpt lat="43.31124" lon="5.6884">
        <ele>1015.6</ele>
        <time>2022-10-16T13:07:49.000Z</time>
      </trkpt>
      <trkpt lat="43.31124" lon="5.6884">
        <ele>1016.7</ele>
        <time>2022-10-16T13:09:25.000Z</time>
      </trkpt>
      <trkpt lat="43.31129" lon="5.68848">
        <ele>1016.8</ele>
        <time>2022-10-16T13:09:40.000Z</time>
      </trkpt>
      <trkpt lat="43.31129" lon="5.68849">
        <ele>1016.8</ele>
        <time>2022-10-16T13:09:41.000Z</time>
      </trkpt>
      <trkpt lat="43.31129" lon="5.68851">
        <ele>1017.3</ele>
        <time>2022-10-16T13:09:47.000Z</time>
      </trkpt>
      <trkpt lat="43.31129" lon="5.68851">
        <ele>1017.9</ele>
        <time>2022-10-16T13:09:49.000Z</time>
      </trkpt>
      <trkpt lat="43.31126" lon="5.68863">
        <ele>1013.3</ele>
        <time>2022-10-16T13:10:13.000Z</time>
      </trkpt>
      <trkpt lat="43.31126" lon="5.68864">
        <ele>1014</ele>
        <time>2022-10-16T13:10:16.000Z</time>
      </trkpt>
      <trkpt lat="43.31126" lon="5.68864">
        <ele>1013.9</ele>
        <time>2022-10-16T13:10:17.000Z</time>
      </trkpt>
      <trkpt lat="43.31129" lon="5.68876">
        <ele>1011.8</ele>
        <time>2022-10-16T13:10:35.000Z</time>
      </trkpt>
      <trkpt lat="43.3113" lon="5.68879">
        <ele>1012.2</ele>
        <time>2022-10-16T13:10:42.000Z</time>
      </trkpt>
      <trkpt lat="43.3113" lon="5.68879">
        <ele>1011.9</ele>
        <time>2022-10-16T13:10:43.000Z</time>
      </trkpt>
      <trkpt lat="43.31131" lon="5.68884">
        <ele>1011</ele>
        <time>2022-10-16T13:10:52.000Z</time>
      </trkpt>
      <trkpt lat="43.31131" lon="5.68884">
        <ele>1011.2</ele>
        <time>2022-10-16T13:10:54.000Z</time>
      </trkpt>
      <trkpt lat="43.31131" lon="5.68891">
        <ele>1011.2</ele>
        <time>2022-10-16T13:11:03.000Z</time>
      </trkpt>
      <trkpt lat="43.31131" lon="5.68891">
        <ele>1011.3</ele>
        <time>2022-10-16T13:11:05.000Z</time>
      </trkpt>
      <trkpt lat="43.31135" lon="5.68901">
        <ele>1013.6</ele>
        <time>2022-10-16T13:11:23.000Z</time>
      </trkpt>
      <trkpt lat="43.31135" lon="5.68901">
        <ele>1013.7</ele>
        <time>2022-10-16T13:11:24.000Z</time>
      </trkpt>
      <trkpt lat="43.31134" lon="5.68905">
        <ele>1013.4</ele>
        <time>2022-10-16T13:11:39.000Z</time>
      </trkpt>
      <trkpt lat="43.31134" lon="5.68905">
        <ele>1013.7</ele>
        <time>2022-10-16T13:11:55.000Z</time>
      </trkpt>
      <trkpt lat="43.31134" lon="5.68907">
        <ele>1013</ele>
        <time>2022-10-16T13:11:59.000Z</time>
      </trkpt>
      <trkpt lat="43.31134" lon="5.68908">
        <ele>1013.1</ele>
        <time>2022-10-16T13:12:02.000Z</time>
      </trkpt>
      <trkpt lat="43.31137" lon="5.68915">
        <ele>1013</ele>
        <time>2022-10-16T13:12:15.000Z</time>
      </trkpt>
      <trkpt lat="43.31137" lon="5.68916">
        <ele>1013</ele>
        <time>2022-10-16T13:12:17.000Z</time>
      </trkpt>
      <trkpt lat="43.31142" lon="5.68927">
        <ele>1013.8</ele>
        <time>2022-10-16T13:12:34.000Z</time>
      </trkpt>
      <trkpt lat="43.31146" lon="5.68938">
        <ele>1014.3</ele>
        <time>2022-10-16T13:12:49.000Z</time>
      </trkpt>
      <trkpt lat="43.31145" lon="5.68951">
        <ele>1014.7</ele>
        <time>2022-10-16T13:13:02.000Z</time>
      </trkpt>
      <trkpt lat="43.31145" lon="5.68952">
        <ele>1014.8</ele>
        <time>2022-10-16T13:13:05.000Z</time>
      </trkpt>
      <trkpt lat="43.31145" lon="5.68952">
        <ele>1014.9</ele>
        <time>2022-10-16T13:13:07.000Z</time>
      </trkpt>
      <trkpt lat="43.31146" lon="5.68952">
        <ele>1014.7</ele>
        <time>2022-10-16T13:13:09.000Z</time>
      </trkpt>
      <trkpt lat="43.31146" lon="5.68952">
        <ele>1015.1</ele>
        <time>2022-10-16T13:13:12.000Z</time>
      </trkpt>
      <trkpt lat="43.31147" lon="5.68955">
        <ele>1015.8</ele>
        <time>2022-10-16T13:13:19.000Z</time>
      </trkpt>
      <trkpt lat="43.31147" lon="5.68955">
        <ele>1015.7</ele>
        <time>2022-10-16T13:13:20.000Z</time>
      </trkpt>
      <trkpt lat="43.31149" lon="5.68967">
        <ele>1016.4</ele>
        <time>2022-10-16T13:13:40.000Z</time>
      </trkpt>
      <trkpt lat="43.3115" lon="5.68969">
        <ele>1016.4</ele>
        <time>2022-10-16T13:13:45.000Z</time>
      </trkpt>
      <trkpt lat="43.3115" lon="5.68969">
        <ele>1016.5</ele>
        <time>2022-10-16T13:13:46.000Z</time>
      </trkpt>
      <trkpt lat="43.31147" lon="5.68976">
        <ele>1013.4</ele>
        <time>2022-10-16T13:14:00.000Z</time>
      </trkpt>
      <trkpt lat="43.31148" lon="5.68976">
        <ele>1013.2</ele>
        <time>2022-10-16T13:14:03.000Z</time>
      </trkpt>
      <trkpt lat="43.31155" lon="5.68984">
        <ele>1016</ele>
        <time>2022-10-16T13:14:20.000Z</time>
      </trkpt>
      <trkpt lat="43.31159" lon="5.68996">
        <ele>1014.8</ele>
        <time>2022-10-16T13:14:37.000Z</time>
      </trkpt>
      <trkpt lat="43.31165" lon="5.69">
        <ele>1018.9</ele>
        <time>2022-10-16T13:14:55.000Z</time>
      </trkpt>
      <trkpt lat="43.31165" lon="5.69">
        <ele>1018.4</ele>
        <time>2022-10-16T13:14:56.000Z</time>
      </trkpt>
      <trkpt lat="43.3117" lon="5.69009">
        <ele>1021.4</ele>
        <time>2022-10-16T13:15:18.000Z</time>
      </trkpt>
      <trkpt lat="43.3117" lon="5.69009">
        <ele>1021.4</ele>
        <time>2022-10-16T13:15:19.000Z</time>
      </trkpt>
      <trkpt lat="43.31177" lon="5.69018">
        <ele>1021.1</ele>
        <time>2022-10-16T13:15:40.000Z</time>
      </trkpt>
      <trkpt lat="43.31178" lon="5.69018">
        <ele>1021.1</ele>
        <time>2022-10-16T13:15:44.000Z</time>
      </trkpt>
      <trkpt lat="43.31178" lon="5.69019">
        <ele>1021.2</ele>
        <time>2022-10-16T13:15:46.000Z</time>
      </trkpt>
      <trkpt lat="43.31179" lon="5.69021">
        <ele>1020.7</ele>
        <time>2022-10-16T13:15:50.000Z</time>
      </trkpt>
      <trkpt lat="43.31179" lon="5.69022">
        <ele>1020.9</ele>
        <time>2022-10-16T13:16:04.000Z</time>
      </trkpt>
      <trkpt lat="43.3118" lon="5.69024">
        <ele>1020.7</ele>
        <time>2022-10-16T13:16:09.000Z</time>
      </trkpt>
      <trkpt lat="43.3118" lon="5.69024">
        <ele>1020.6</ele>
        <time>2022-10-16T13:16:12.000Z</time>
      </trkpt>
      <trkpt lat="43.31188" lon="5.69032">
        <ele>1020</ele>
        <time>2022-10-16T13:16:24.000Z</time>
      </trkpt>
      <trkpt lat="43.31194" lon="5.69042">
        <ele>1019.6</ele>
        <time>2022-10-16T13:16:37.000Z</time>
      </trkpt>
      <trkpt lat="43.31196" lon="5.69046">
        <ele>1019.1</ele>
        <time>2022-10-16T13:16:45.000Z</time>
      </trkpt>
      <trkpt lat="43.31196" lon="5.69046">
        <ele>1019.1</ele>
        <time>2022-10-16T13:16:46.000Z</time>
      </trkpt>
      <trkpt lat="43.31196" lon="5.69046">
        <ele>1019.2</ele>
        <time>2022-10-16T13:16:48.000Z</time>
      </trkpt>
      <trkpt lat="43.31196" lon="5.69045">
        <ele>1019.2</ele>
        <time>2022-10-16T13:16:50.000Z</time>
      </trkpt>
      <trkpt lat="43.31196" lon="5.69045">
        <ele>1019.3</ele>
        <time>2022-10-16T13:16:51.000Z</time>
      </trkpt>
      <trkpt lat="43.31196" lon="5.69046">
        <ele>1019</ele>
        <time>2022-10-16T13:17:21.000Z</time>
      </trkpt>
      <trkpt lat="43.31195" lon="5.69046">
        <ele>1019</ele>
        <time>2022-10-16T13:17:23.000Z</time>
      </trkpt>
      <trkpt lat="43.31195" lon="5.69046">
        <ele>1019</ele>
        <time>2022-10-16T13:17:28.000Z</time>
      </trkpt>
      <trkpt lat="43.31196" lon="5.69056">
        <ele>1018.7</ele>
        <time>2022-10-16T13:17:41.000Z</time>
      </trkpt>
      <trkpt lat="43.31196" lon="5.69057">
        <ele>1018.9</ele>
        <time>2022-10-16T13:17:42.000Z</time>
      </trkpt>
      <trkpt lat="43.31198" lon="5.69068">
        <ele>1017.7</ele>
        <time>2022-10-16T13:17:54.000Z</time>
      </trkpt>
      <trkpt lat="43.31198" lon="5.69069">
        <ele>1017.8</ele>
        <time>2022-10-16T13:17:56.000Z</time>
      </trkpt>
      <trkpt lat="43.312" lon="5.69076">
        <ele>1017</ele>
        <time>2022-10-16T13:18:04.000Z</time>
      </trkpt>
      <trkpt lat="43.312" lon="5.69076">
        <ele>1017.1</ele>
        <time>2022-10-16T13:18:09.000Z</time>
      </trkpt>
      <trkpt lat="43.31204" lon="5.69088">
        <ele>1016.5</ele>
        <time>2022-10-16T13:18:18.000Z</time>
      </trkpt>
      <trkpt lat="43.31209" lon="5.691">
        <ele>1014.9</ele>
        <time>2022-10-16T13:18:28.000Z</time>
      </trkpt>
      <trkpt lat="43.31214" lon="5.69111">
        <ele>1013.5</ele>
        <time>2022-10-16T13:18:38.000Z</time>
      </trkpt>
      <trkpt lat="43.31218" lon="5.69121">
        <ele>1011.7</ele>
        <time>2022-10-16T13:18:48.000Z</time>
      </trkpt>
      <trkpt lat="43.31218" lon="5.69122">
        <ele>1011.6</ele>
        <time>2022-10-16T13:18:54.000Z</time>
      </trkpt>
      <trkpt lat="43.31222" lon="5.69134">
        <ele>1010.4</ele>
        <time>2022-10-16T13:19:04.000Z</time>
      </trkpt>
      <trkpt lat="43.31225" lon="5.69146">
        <ele>1008.8</ele>
        <time>2022-10-16T13:19:13.000Z</time>
      </trkpt>
      <trkpt lat="43.31227" lon="5.69159">
        <ele>1008</ele>
        <time>2022-10-16T13:19:23.000Z</time>
      </trkpt>
      <trkpt lat="43.31229" lon="5.69171">
        <ele>1007.5</ele>
        <time>2022-10-16T13:19:32.000Z</time>
      </trkpt>
      <trkpt lat="43.31232" lon="5.69184">
        <ele>1006.5</ele>
        <time>2022-10-16T13:19:42.000Z</time>
      </trkpt>
      <trkpt lat="43.31234" lon="5.69197">
        <ele>1005.6</ele>
        <time>2022-10-16T13:19:51.000Z</time>
      </trkpt>
      <trkpt lat="43.31237" lon="5.6921">
        <ele>1005.1</ele>
        <time>2022-10-16T13:20:00.000Z</time>
      </trkpt>
      <trkpt lat="43.31239" lon="5.69223">
        <ele>1003.9</ele>
        <time>2022-10-16T13:20:10.000Z</time>
      </trkpt>
      <trkpt lat="43.31241" lon="5.69235">
        <ele>1003.2</ele>
        <time>2022-10-16T13:20:19.000Z</time>
      </trkpt>
      <trkpt lat="43.31243" lon="5.69249">
        <ele>1002.5</ele>
        <time>2022-10-16T13:20:28.000Z</time>
      </trkpt>
      <trkpt lat="43.31245" lon="5.69262">
        <ele>1002.4</ele>
        <time>2022-10-16T13:20:37.000Z</time>
      </trkpt>
      <trkpt lat="43.31248" lon="5.69275">
        <ele>1001.8</ele>
        <time>2022-10-16T13:20:46.000Z</time>
      </trkpt>
      <trkpt lat="43.31249" lon="5.69288">
        <ele>1001.9</ele>
        <time>2022-10-16T13:20:57.000Z</time>
      </trkpt>
      <trkpt lat="43.31259" lon="5.69286">
        <ele>1003.1</ele>
        <time>2022-10-16T13:21:14.000Z</time>
      </trkpt>
      <trkpt lat="43.31265" lon="5.69275">
        <ele>1004.3</ele>
        <time>2022-10-16T13:21:27.000Z</time>
      </trkpt>
      <trkpt lat="43.31268" lon="5.69263">
        <ele>1005.2</ele>
        <time>2022-10-16T13:21:40.000Z</time>
      </trkpt>
      <trkpt lat="43.31272" lon="5.69256">
        <ele>1006.7</ele>
        <time>2022-10-16T13:21:56.000Z</time>
      </trkpt>
      <trkpt lat="43.31272" lon="5.69256">
        <ele>1006.7</ele>
        <time>2022-10-16T13:21:57.000Z</time>
      </trkpt>
      <trkpt lat="43.31273" lon="5.69243">
        <ele>1007.7</ele>
        <time>2022-10-16T13:22:17.000Z</time>
      </trkpt>
      <trkpt lat="43.31276" lon="5.69238">
        <ele>1009.5</ele>
        <time>2022-10-16T13:22:33.000Z</time>
      </trkpt>
      <trkpt lat="43.31276" lon="5.69237">
        <ele>1009.5</ele>
        <time>2022-10-16T13:22:34.000Z</time>
      </trkpt>
      <trkpt lat="43.31277" lon="5.69237">
        <ele>1009.4</ele>
        <time>2022-10-16T13:22:36.000Z</time>
      </trkpt>
      <trkpt lat="43.31277" lon="5.69237">
        <ele>1009.4</ele>
        <time>2022-10-16T13:22:37.000Z</time>
      </trkpt>
      <trkpt lat="43.31277" lon="5.69236">
        <ele>1010</ele>
        <time>2022-10-16T13:22:40.000Z</time>
      </trkpt>
      <trkpt lat="43.31278" lon="5.69236">
        <ele>1010</ele>
        <time>2022-10-16T13:22:43.000Z</time>
      </trkpt>
      <trkpt lat="43.31278" lon="5.69229">
        <ele>1011.3</ele>
        <time>2022-10-16T13:22:57.000Z</time>
      </trkpt>
      <trkpt lat="43.31278" lon="5.69229">
        <ele>1011.6</ele>
        <time>2022-10-16T13:22:58.000Z</time>
      </trkpt>
      <trkpt lat="43.31279" lon="5.69226">
        <ele>1012.3</ele>
        <time>2022-10-16T13:23:04.000Z</time>
      </trkpt>
      <trkpt lat="43.31279" lon="5.69226">
        <ele>1012.4</ele>
        <time>2022-10-16T13:23:07.000Z</time>
      </trkpt>
      <trkpt lat="43.31281" lon="5.69222">
        <ele>1013.2</ele>
        <time>2022-10-16T13:23:17.000Z</time>
      </trkpt>
      <trkpt lat="43.3128" lon="5.69221">
        <ele>1013.4</ele>
        <time>2022-10-16T13:23:22.000Z</time>
      </trkpt>
      <trkpt lat="43.3128" lon="5.69221">
        <ele>1013.9</ele>
        <time>2022-10-16T13:23:27.000Z</time>
      </trkpt>
      <trkpt lat="43.3128" lon="5.69221">
        <ele>1013.8</ele>
        <time>2022-10-16T13:23:31.000Z</time>
      </trkpt>
      <trkpt lat="43.3128" lon="5.69221">
        <ele>1013.9</ele>
        <time>2022-10-16T13:23:34.000Z</time>
      </trkpt>
      <trkpt lat="43.3128" lon="5.69221">
        <ele>1014.2</ele>
        <time>2022-10-16T13:23:36.000Z</time>
      </trkpt>
      <trkpt lat="43.3128" lon="5.69221">
        <ele>1014.2</ele>
        <time>2022-10-16T13:23:37.000Z</time>
      </trkpt>
      <trkpt lat="43.31281" lon="5.69221">
        <ele>1014.6</ele>
        <time>2022-10-16T13:23:41.000Z</time>
      </trkpt>
      <trkpt lat="43.3129" lon="5.6922">
        <ele>1016.6</ele>
        <time>2022-10-16T13:24:17.000Z</time>
      </trkpt>
      <trkpt lat="43.31292" lon="5.69223">
        <ele>1016.9</ele>
        <time>2022-10-16T13:24:24.000Z</time>
      </trkpt>
      <trkpt lat="43.31293" lon="5.69223">
        <ele>1016.9</ele>
        <time>2022-10-16T13:24:25.000Z</time>
      </trkpt>
      <trkpt lat="43.31293" lon="5.69223">
        <ele>1017.2</ele>
        <time>2022-10-16T13:24:29.000Z</time>
      </trkpt>
      <trkpt lat="43.31293" lon="5.69223">
        <ele>1017.4</ele>
        <time>2022-10-16T13:24:31.000Z</time>
      </trkpt>
      <trkpt lat="43.31293" lon="5.69223">
        <ele>1017.4</ele>
        <time>2022-10-16T13:24:35.000Z</time>
      </trkpt>
      <trkpt lat="43.31294" lon="5.69223">
        <ele>1017.4</ele>
        <time>2022-10-16T13:24:36.000Z</time>
      </trkpt>
      <trkpt lat="43.31302" lon="5.69222">
        <ele>1019.7</ele>
        <time>2022-10-16T13:24:58.000Z</time>
      </trkpt>
      <trkpt lat="43.31302" lon="5.69222">
        <ele>1019.6</ele>
        <time>2022-10-16T13:24:59.000Z</time>
      </trkpt>
      <trkpt lat="43.31305" lon="5.69221">
        <ele>1019.1</ele>
        <time>2022-10-16T13:25:12.000Z</time>
      </trkpt>
      <trkpt lat="43.31305" lon="5.69221">
        <ele>1018.9</ele>
        <time>2022-10-16T13:25:13.000Z</time>
      </trkpt>
      <trkpt lat="43.31308" lon="5.69219">
        <ele>1019.1</ele>
        <time>2022-10-16T13:25:24.000Z</time>
      </trkpt>
      <trkpt lat="43.31308" lon="5.69219">
        <ele>1018.6</ele>
        <time>2022-10-16T13:25:56.000Z</time>
      </trkpt>
      <trkpt lat="43.31311" lon="5.69222">
        <ele>1017.6</ele>
        <time>2022-10-16T13:26:09.000Z</time>
      </trkpt>
      <trkpt lat="43.31312" lon="5.69223">
        <ele>1017.6</ele>
        <time>2022-10-16T13:26:11.000Z</time>
      </trkpt>
      <trkpt lat="43.31313" lon="5.69223">
        <ele>1017.1</ele>
        <time>2022-10-16T13:26:15.000Z</time>
      </trkpt>
      <trkpt lat="43.31313" lon="5.69223">
        <ele>1017.1</ele>
        <time>2022-10-16T13:26:16.000Z</time>
      </trkpt>
      <trkpt lat="43.31314" lon="5.69223">
        <ele>1016.5</ele>
        <time>2022-10-16T13:26:24.000Z</time>
      </trkpt>
      <trkpt lat="43.31314" lon="5.69223">
        <ele>1016.4</ele>
        <time>2022-10-16T13:26:25.000Z</time>
      </trkpt>
      <trkpt lat="43.31321" lon="5.69223">
        <ele>1014.4</ele>
        <time>2022-10-16T13:26:53.000Z</time>
      </trkpt>
      <trkpt lat="43.31321" lon="5.69223">
        <ele>1014.3</ele>
        <time>2022-10-16T13:26:54.000Z</time>
      </trkpt>
      <trkpt lat="43.31324" lon="5.69225">
        <ele>1012.7</ele>
        <time>2022-10-16T13:27:07.000Z</time>
      </trkpt>
      <trkpt lat="43.31324" lon="5.69225">
        <ele>1012.9</ele>
        <time>2022-10-16T13:27:09.000Z</time>
      </trkpt>
      <trkpt lat="43.31324" lon="5.69225">
        <ele>1012.9</ele>
        <time>2022-10-16T13:27:10.000Z</time>
      </trkpt>
      <trkpt lat="43.31324" lon="5.69226">
        <ele>1012.9</ele>
        <time>2022-10-16T13:27:11.000Z</time>
      </trkpt>
      <trkpt lat="43.31325" lon="5.69225">
        <ele>1012.1</ele>
        <time>2022-10-16T13:27:15.000Z</time>
      </trkpt>
      <trkpt lat="43.31326" lon="5.69226">
        <ele>1011.7</ele>
        <time>2022-10-16T13:27:19.000Z</time>
      </trkpt>
      <trkpt lat="43.31327" lon="5.69227">
        <ele>1011</ele>
        <time>2022-10-16T13:27:26.000Z</time>
      </trkpt>
      <trkpt lat="43.31327" lon="5.69227">
        <ele>1010.7</ele>
        <time>2022-10-16T13:27:28.000Z</time>
      </trkpt>
      <trkpt lat="43.31331" lon="5.69224">
        <ele>1009.7</ele>
        <time>2022-10-16T13:27:39.000Z</time>
      </trkpt>
      <trkpt lat="43.31331" lon="5.69224">
        <ele>1009.4</ele>
        <time>2022-10-16T13:27:40.000Z</time>
      </trkpt>
      <trkpt lat="43.31331" lon="5.69224">
        <ele>1009.1</ele>
        <time>2022-10-16T13:27:42.000Z</time>
      </trkpt>
      <trkpt lat="43.31332" lon="5.69223">
        <ele>1009.1</ele>
        <time>2022-10-16T13:27:43.000Z</time>
      </trkpt>
      <trkpt lat="43.31332" lon="5.69219">
        <ele>1007.8</ele>
        <time>2022-10-16T13:27:53.000Z</time>
      </trkpt>
      <trkpt lat="43.31333" lon="5.69219">
        <ele>1007.6</ele>
        <time>2022-10-16T13:27:56.000Z</time>
      </trkpt>
      <trkpt lat="43.31333" lon="5.69218">
        <ele>1007.5</ele>
        <time>2022-10-16T13:28:00.000Z</time>
      </trkpt>
      <trkpt lat="43.31333" lon="5.69218">
        <ele>1007.3</ele>
        <time>2022-10-16T13:28:02.000Z</time>
      </trkpt>
      <trkpt lat="43.31333" lon="5.69217">
        <ele>1007.2</ele>
        <time>2022-10-16T13:28:05.000Z</time>
      </trkpt>
      <trkpt lat="43.31333" lon="5.69217">
        <ele>1007.2</ele>
        <time>2022-10-16T13:28:09.000Z</time>
      </trkpt>
      <trkpt lat="43.31334" lon="5.69216">
        <ele>1006.9</ele>
        <time>2022-10-16T13:28:16.000Z</time>
      </trkpt>
      <trkpt lat="43.31335" lon="5.69216">
        <ele>1006.8</ele>
        <time>2022-10-16T13:28:17.000Z</time>
      </trkpt>
      <trkpt lat="43.31336" lon="5.69214">
        <ele>1005.6</ele>
        <time>2022-10-16T13:28:25.000Z</time>
      </trkpt>
      <trkpt lat="43.31336" lon="5.69214">
        <ele>1005.5</ele>
        <time>2022-10-16T13:28:27.000Z</time>
      </trkpt>
      <trkpt lat="43.31336" lon="5.69213">
        <ele>1005.5</ele>
        <time>2022-10-16T13:28:28.000Z</time>
      </trkpt>
      <trkpt lat="43.31335" lon="5.69213">
        <ele>1005.6</ele>
        <time>2022-10-16T13:28:29.000Z</time>
      </trkpt>
      <trkpt lat="43.31335" lon="5.69213">
        <ele>1005.6</ele>
        <time>2022-10-16T13:28:31.000Z</time>
      </trkpt>
      <trkpt lat="43.31335" lon="5.69213">
        <ele>1006</ele>
        <time>2022-10-16T13:28:35.000Z</time>
      </trkpt>
      <trkpt lat="43.31333" lon="5.6921">
        <ele>1004.9</ele>
        <time>2022-10-16T13:28:42.000Z</time>
      </trkpt>
      <trkpt lat="43.31333" lon="5.6921">
        <ele>1004.8</ele>
        <time>2022-10-16T13:28:46.000Z</time>
      </trkpt>
      <trkpt lat="43.31334" lon="5.69209">
        <ele>1004.4</ele>
        <time>2022-10-16T13:28:49.000Z</time>
      </trkpt>
      <trkpt lat="43.31334" lon="5.69209">
        <ele>1004.2</ele>
        <time>2022-10-16T13:28:50.000Z</time>
      </trkpt>
      <trkpt lat="43.31334" lon="5.69209">
        <ele>1003.9</ele>
        <time>2022-10-16T13:28:52.000Z</time>
      </trkpt>
      <trkpt lat="43.31334" lon="5.69208">
        <ele>1004</ele>
        <time>2022-10-16T13:28:56.000Z</time>
      </trkpt>
      <trkpt lat="43.31334" lon="5.69204">
        <ele>1002.4</ele>
        <time>2022-10-16T13:29:08.000Z</time>
      </trkpt>
      <trkpt lat="43.31334" lon="5.69203">
        <ele>1002.4</ele>
        <time>2022-10-16T13:29:09.000Z</time>
      </trkpt>
      <trkpt lat="43.31334" lon="5.69202">
        <ele>1001.8</ele>
        <time>2022-10-16T13:29:15.000Z</time>
      </trkpt>
      <trkpt lat="43.31334" lon="5.69201">
        <ele>1001.6</ele>
        <time>2022-10-16T13:29:16.000Z</time>
      </trkpt>
      <trkpt lat="43.31334" lon="5.69201">
        <ele>1001.4</ele>
        <time>2022-10-16T13:29:19.000Z</time>
      </trkpt>
      <trkpt lat="43.31334" lon="5.69201">
        <ele>1001.2</ele>
        <time>2022-10-16T13:29:20.000Z</time>
      </trkpt>
      <trkpt lat="43.31335" lon="5.69201">
        <ele>1001</ele>
        <time>2022-10-16T13:29:23.000Z</time>
      </trkpt>
      <trkpt lat="43.31335" lon="5.692">
        <ele>1000.9</ele>
        <time>2022-10-16T13:29:25.000Z</time>
      </trkpt>
      <trkpt lat="43.31335" lon="5.692">
        <ele>1000.8</ele>
        <time>2022-10-16T13:29:26.000Z</time>
      </trkpt>
      <trkpt lat="43.31335" lon="5.692">
        <ele>1000.7</ele>
        <time>2022-10-16T13:29:30.000Z</time>
      </trkpt>
      <trkpt lat="43.31336" lon="5.69194">
        <ele>999.7</ele>
        <time>2022-10-16T13:29:44.000Z</time>
      </trkpt>
      <trkpt lat="43.31336" lon="5.69194">
        <ele>999.7</ele>
        <time>2022-10-16T13:29:46.000Z</time>
      </trkpt>
      <trkpt lat="43.31336" lon="5.69193">
        <ele>999.4</ele>
        <time>2022-10-16T13:29:50.000Z</time>
      </trkpt>
      <trkpt lat="43.31335" lon="5.69192">
        <ele>999.4</ele>
        <time>2022-10-16T13:29:54.000Z</time>
      </trkpt>
      <trkpt lat="43.31335" lon="5.69192">
        <ele>999.3</ele>
        <time>2022-10-16T13:30:00.000Z</time>
      </trkpt>
      <trkpt lat="43.31334" lon="5.69192">
        <ele>999.3</ele>
        <time>2022-10-16T13:30:01.000Z</time>
      </trkpt>
      <trkpt lat="43.31334" lon="5.69192">
        <ele>999.2</ele>
        <time>2022-10-16T13:30:02.000Z</time>
      </trkpt>
      <trkpt lat="43.31334" lon="5.69192">
        <ele>999.1</ele>
        <time>2022-10-16T13:30:05.000Z</time>
      </trkpt>
      <trkpt lat="43.31334" lon="5.69192">
        <ele>999.2</ele>
        <time>2022-10-16T13:30:06.000Z</time>
      </trkpt>
      <trkpt lat="43.31334" lon="5.69191">
        <ele>999</ele>
        <time>2022-10-16T13:30:14.000Z</time>
      </trkpt>
      <trkpt lat="43.31334" lon="5.69191">
        <ele>998.9</ele>
        <time>2022-10-16T13:30:16.000Z</time>
      </trkpt>
      <trkpt lat="43.31334" lon="5.69191">
        <ele>998.9</ele>
        <time>2022-10-16T13:30:17.000Z</time>
      </trkpt>
      <trkpt lat="43.31334" lon="5.6919">
        <ele>997.6</ele>
        <time>2022-10-16T13:30:23.000Z</time>
      </trkpt>
      <trkpt lat="43.31334" lon="5.69189">
        <ele>997.6</ele>
        <time>2022-10-16T13:30:27.000Z</time>
      </trkpt>
      <trkpt lat="43.31333" lon="5.69188">
        <ele>997.4</ele>
        <time>2022-10-16T13:30:32.000Z</time>
      </trkpt>
      <trkpt lat="43.31333" lon="5.69187">
        <ele>997.3</ele>
        <time>2022-10-16T13:30:34.000Z</time>
      </trkpt>
      <trkpt lat="43.31333" lon="5.69187">
        <ele>997.3</ele>
        <time>2022-10-16T13:30:35.000Z</time>
      </trkpt>
      <trkpt lat="43.31333" lon="5.69187">
        <ele>997</ele>
        <time>2022-10-16T13:30:38.000Z</time>
      </trkpt>
      <trkpt lat="43.31333" lon="5.69181">
        <ele>996.3</ele>
        <time>2022-10-16T13:30:50.000Z</time>
      </trkpt>
      <trkpt lat="43.31332" lon="5.69181">
        <ele>996.3</ele>
        <time>2022-10-16T13:30:56.000Z</time>
      </trkpt>
      <trkpt lat="43.31332" lon="5.69181">
        <ele>996.1</ele>
        <time>2022-10-16T13:30:59.000Z</time>
      </trkpt>
      <trkpt lat="43.31332" lon="5.69181">
        <ele>996.3</ele>
        <time>2022-10-16T13:31:54.000Z</time>
      </trkpt>
      <trkpt lat="43.31332" lon="5.69181">
        <ele>996.2</ele>
        <time>2022-10-16T13:31:55.000Z</time>
      </trkpt>
      <trkpt lat="43.31332" lon="5.6918">
        <ele>996.2</ele>
        <time>2022-10-16T13:34:21.000Z</time>
      </trkpt>
      <trkpt lat="43.31332" lon="5.6918">
        <ele>996.2</ele>
        <time>2022-10-16T13:34:22.000Z</time>
      </trkpt>
      <trkpt lat="43.31332" lon="5.6918">
        <ele>996.2</ele>
        <time>2022-10-16T13:34:31.000Z</time>
      </trkpt>
      <trkpt lat="43.31332" lon="5.6918">
        <ele>996.1</ele>
        <time>2022-10-16T13:34:32.000Z</time>
      </trkpt>
      <trkpt lat="43.31332" lon="5.69181">
        <ele>996.4</ele>
        <time>2022-10-16T13:34:50.000Z</time>
      </trkpt>
      <trkpt lat="43.31332" lon="5.6918">
        <ele>996</ele>
        <time>2022-10-16T13:34:53.000Z</time>
      </trkpt>
      <trkpt lat="43.31332" lon="5.6918">
        <ele>995.9</ele>
        <time>2022-10-16T13:34:54.000Z</time>
      </trkpt>
      <trkpt lat="43.31332" lon="5.6918">
        <ele>995.9</ele>
        <time>2022-10-16T13:34:56.000Z</time>
      </trkpt>
      <trkpt lat="43.31332" lon="5.6918">
        <ele>995.7</ele>
        <time>2022-10-16T13:35:00.000Z</time>
      </trkpt>
      <trkpt lat="43.31332" lon="5.6918">
        <ele>995.6</ele>
        <time>2022-10-16T13:35:01.000Z</time>
      </trkpt>
      <trkpt lat="43.31331" lon="5.6918">
        <ele>995.6</ele>
        <time>2022-10-16T13:35:03.000Z</time>
      </trkpt>
      <trkpt lat="43.31331" lon="5.6918">
        <ele>995.7</ele>
        <time>2022-10-16T13:35:04.000Z</time>
      </trkpt>
      <trkpt lat="43.31331" lon="5.6918">
        <ele>995.7</ele>
        <time>2022-10-16T13:35:05.000Z</time>
      </trkpt>
      <trkpt lat="43.31331" lon="5.6918">
        <ele>995.6</ele>
        <time>2022-10-16T13:35:06.000Z</time>
      </trkpt>
      <trkpt lat="43.31331" lon="5.6918">
        <ele>995</ele>
        <time>2022-10-16T13:35:10.000Z</time>
      </trkpt>
      <trkpt lat="43.31331" lon="5.6918">
        <ele>994.9</ele>
        <time>2022-10-16T13:35:11.000Z</time>
      </trkpt>
      <trkpt lat="43.31331" lon="5.6918">
        <ele>995</ele>
        <time>2022-10-16T13:35:14.000Z</time>
      </trkpt>
      <trkpt lat="43.31331" lon="5.6918">
        <ele>995</ele>
        <time>2022-10-16T13:35:15.000Z</time>
      </trkpt>
      <trkpt lat="43.31331" lon="5.6918">
        <ele>994.8</ele>
        <time>2022-10-16T13:35:17.000Z</time>
      </trkpt>
      <trkpt lat="43.31331" lon="5.6918">
        <ele>994.7</ele>
        <time>2022-10-16T13:35:18.000Z</time>
      </trkpt>
      <trkpt lat="43.31331" lon="5.6918">
        <ele>994.4</ele>
        <time>2022-10-16T13:35:28.000Z</time>
      </trkpt>
      <trkpt lat="43.31331" lon="5.6918">
        <ele>994.5</ele>
        <time>2022-10-16T13:35:29.000Z</time>
      </trkpt>
      <trkpt lat="43.3133" lon="5.69181">
        <ele>995.6</ele>
        <time>2022-10-16T13:36:06.000Z</time>
      </trkpt>
      <trkpt lat="43.31328" lon="5.69182">
        <ele>995.1</ele>
        <time>2022-10-16T13:36:13.000Z</time>
      </trkpt>
      <trkpt lat="43.31328" lon="5.69182">
        <ele>995.2</ele>
        <time>2022-10-16T13:36:14.000Z</time>
      </trkpt>
      <trkpt lat="43.31328" lon="5.69182">
        <ele>995.5</ele>
        <time>2022-10-16T13:36:16.000Z</time>
      </trkpt>
      <trkpt lat="43.31328" lon="5.69182">
        <ele>995.5</ele>
        <time>2022-10-16T13:36:17.000Z</time>
      </trkpt>
      <trkpt lat="43.31328" lon="5.69181">
        <ele>995.3</ele>
        <time>2022-10-16T13:36:19.000Z</time>
      </trkpt>
      <trkpt lat="43.31328" lon="5.69181">
        <ele>995.6</ele>
        <time>2022-10-16T13:36:25.000Z</time>
      </trkpt>
      <trkpt lat="43.31328" lon="5.69181">
        <ele>995.4</ele>
        <time>2022-10-16T13:36:26.000Z</time>
      </trkpt>
      <trkpt lat="43.31328" lon="5.69181">
        <ele>995.4</ele>
        <time>2022-10-16T13:36:42.000Z</time>
      </trkpt>
      <trkpt lat="43.31327" lon="5.69182">
        <ele>995.1</ele>
        <time>2022-10-16T13:36:46.000Z</time>
      </trkpt>
      <trkpt lat="43.31327" lon="5.69181">
        <ele>995</ele>
        <time>2022-10-16T13:36:47.000Z</time>
      </trkpt>
      <trkpt lat="43.31328" lon="5.69183">
        <ele>995.3</ele>
        <time>2022-10-16T13:36:56.000Z</time>
      </trkpt>
      <trkpt lat="43.31329" lon="5.69182">
        <ele>995</ele>
        <time>2022-10-16T13:36:57.000Z</time>
      </trkpt>
      <trkpt lat="43.3133" lon="5.69182">
        <ele>995.2</ele>
        <time>2022-10-16T13:37:02.000Z</time>
      </trkpt>
      <trkpt lat="43.3133" lon="5.69182">
        <ele>995.1</ele>
        <time>2022-10-16T13:37:03.000Z</time>
      </trkpt>
      <trkpt lat="43.3133" lon="5.69183">
        <ele>994.7</ele>
        <time>2022-10-16T13:37:06.000Z</time>
      </trkpt>
      <trkpt lat="43.31331" lon="5.69183">
        <ele>994.4</ele>
        <time>2022-10-16T13:37:08.000Z</time>
      </trkpt>
      <trkpt lat="43.31331" lon="5.69182">
        <ele>994.4</ele>
        <time>2022-10-16T13:37:11.000Z</time>
      </trkpt>
      <trkpt lat="43.31331" lon="5.69182">
        <ele>994.6</ele>
        <time>2022-10-16T13:37:14.000Z</time>
      </trkpt>
      <trkpt lat="43.3133" lon="5.69181">
        <ele>994.2</ele>
        <time>2022-10-16T13:37:18.000Z</time>
      </trkpt>
      <trkpt lat="43.3133" lon="5.6918">
        <ele>993.8</ele>
        <time>2022-10-16T13:37:24.000Z</time>
      </trkpt>
      <trkpt lat="43.3133" lon="5.6918">
        <ele>993.8</ele>
        <time>2022-10-16T13:37:25.000Z</time>
      </trkpt>
      <trkpt lat="43.3133" lon="5.6918">
        <ele>993.8</ele>
        <time>2022-10-16T13:37:27.000Z</time>
      </trkpt>
      <trkpt lat="43.3133" lon="5.6918">
        <ele>993.7</ele>
        <time>2022-10-16T13:37:28.000Z</time>
      </trkpt>
      <trkpt lat="43.3133" lon="5.6918">
        <ele>993.4</ele>
        <time>2022-10-16T13:37:34.000Z</time>
      </trkpt>
      <trkpt lat="43.3133" lon="5.6918">
        <ele>993.2</ele>
        <time>2022-10-16T13:37:35.000Z</time>
      </trkpt>
      <trkpt lat="43.3133" lon="5.6918">
        <ele>993.1</ele>
        <time>2022-10-16T13:37:44.000Z</time>
      </trkpt>
      <trkpt lat="43.3133" lon="5.6918">
        <ele>993</ele>
        <time>2022-10-16T13:37:45.000Z</time>
      </trkpt>
      <trkpt lat="43.3133" lon="5.69179">
        <ele>992.4</ele>
        <time>2022-10-16T13:37:57.000Z</time>
      </trkpt>
      <trkpt lat="43.31331" lon="5.69177">
        <ele>991.6</ele>
        <time>2022-10-16T13:38:06.000Z</time>
      </trkpt>
      <trkpt lat="43.3133" lon="5.69177">
        <ele>991.6</ele>
        <time>2022-10-16T13:38:07.000Z</time>
      </trkpt>
      <trkpt lat="43.3133" lon="5.69177">
        <ele>991.5</ele>
        <time>2022-10-16T13:38:08.000Z</time>
      </trkpt>
      <trkpt lat="43.3133" lon="5.69176">
        <ele>991.5</ele>
        <time>2022-10-16T13:38:11.000Z</time>
      </trkpt>
      <trkpt lat="43.31331" lon="5.69173">
        <ele>990.6</ele>
        <time>2022-10-16T13:38:25.000Z</time>
      </trkpt>
      <trkpt lat="43.31331" lon="5.69173">
        <ele>990.7</ele>
        <time>2022-10-16T13:38:26.000Z</time>
      </trkpt>
      <trkpt lat="43.31331" lon="5.69172">
        <ele>990.2</ele>
        <time>2022-10-16T13:38:29.000Z</time>
      </trkpt>
      <trkpt lat="43.31331" lon="5.69172">
        <ele>990.2</ele>
        <time>2022-10-16T13:38:30.000Z</time>
      </trkpt>
      <trkpt lat="43.31331" lon="5.69172">
        <ele>990</ele>
        <time>2022-10-16T13:38:35.000Z</time>
      </trkpt>
      <trkpt lat="43.31331" lon="5.69172">
        <ele>989.3</ele>
        <time>2022-10-16T13:38:37.000Z</time>
      </trkpt>
      <trkpt lat="43.31331" lon="5.69172">
        <ele>989.5</ele>
        <time>2022-10-16T13:38:38.000Z</time>
      </trkpt>
      <trkpt lat="43.31331" lon="5.69172">
        <ele>989.8</ele>
        <time>2022-10-16T13:38:39.000Z</time>
      </trkpt>
      <trkpt lat="43.3133" lon="5.6917">
        <ele>989</ele>
        <time>2022-10-16T13:38:44.000Z</time>
      </trkpt>
      <trkpt lat="43.31331" lon="5.6917">
        <ele>988.8</ele>
        <time>2022-10-16T13:38:49.000Z</time>
      </trkpt>
      <trkpt lat="43.3133" lon="5.6917">
        <ele>988.9</ele>
        <time>2022-10-16T13:38:52.000Z</time>
      </trkpt>
      <trkpt lat="43.3133" lon="5.69169">
        <ele>988.8</ele>
        <time>2022-10-16T13:38:54.000Z</time>
      </trkpt>
      <trkpt lat="43.3133" lon="5.69169">
        <ele>989</ele>
        <time>2022-10-16T13:38:57.000Z</time>
      </trkpt>
      <trkpt lat="43.3133" lon="5.6917">
        <ele>988.6</ele>
        <time>2022-10-16T13:39:06.000Z</time>
      </trkpt>
      <trkpt lat="43.31329" lon="5.6917">
        <ele>988.5</ele>
        <time>2022-10-16T13:39:10.000Z</time>
      </trkpt>
      <trkpt lat="43.3133" lon="5.6917">
        <ele>988.6</ele>
        <time>2022-10-16T13:39:11.000Z</time>
      </trkpt>
      <trkpt lat="43.31331" lon="5.69171">
        <ele>988.5</ele>
        <time>2022-10-16T13:39:16.000Z</time>
      </trkpt>
      <trkpt lat="43.31331" lon="5.69171">
        <ele>988.6</ele>
        <time>2022-10-16T13:39:21.000Z</time>
      </trkpt>
      <trkpt lat="43.31331" lon="5.69171">
        <ele>988.5</ele>
        <time>2022-10-16T13:39:22.000Z</time>
      </trkpt>
      <trkpt lat="43.31331" lon="5.69171">
        <ele>988.4</ele>
        <time>2022-10-16T13:39:23.000Z</time>
      </trkpt>
      <trkpt lat="43.31331" lon="5.69171">
        <ele>988.5</ele>
        <time>2022-10-16T13:39:25.000Z</time>
      </trkpt>
      <trkpt lat="43.31332" lon="5.69171">
        <ele>988.6</ele>
        <time>2022-10-16T13:39:26.000Z</time>
      </trkpt>
      <trkpt lat="43.31332" lon="5.69171">
        <ele>988.7</ele>
        <time>2022-10-16T13:39:27.000Z</time>
      </trkpt>
      <trkpt lat="43.31332" lon="5.69171">
        <ele>988.5</ele>
        <time>2022-10-16T13:39:32.000Z</time>
      </trkpt>
      <trkpt lat="43.31332" lon="5.69172">
        <ele>988.4</ele>
        <time>2022-10-16T13:39:34.000Z</time>
      </trkpt>
      <trkpt lat="43.31332" lon="5.69172">
        <ele>988.4</ele>
        <time>2022-10-16T13:39:35.000Z</time>
      </trkpt>
      <trkpt lat="43.31332" lon="5.69172">
        <ele>988.4</ele>
        <time>2022-10-16T13:39:36.000Z</time>
      </trkpt>
      <trkpt lat="43.31332" lon="5.69172">
        <ele>988.5</ele>
        <time>2022-10-16T13:39:52.000Z</time>
      </trkpt>
      <trkpt lat="43.31332" lon="5.69172">
        <ele>988.5</ele>
        <time>2022-10-16T13:39:53.000Z</time>
      </trkpt>
      <trkpt lat="43.31333" lon="5.69172">
        <ele>988</ele>
        <time>2022-10-16T13:40:23.000Z</time>
      </trkpt>
      <trkpt lat="43.31334" lon="5.69173">
        <ele>987.7</ele>
        <time>2022-10-16T13:40:28.000Z</time>
      </trkpt>
      <trkpt lat="43.31334" lon="5.69173">
        <ele>987.6</ele>
        <time>2022-10-16T13:40:29.000Z</time>
      </trkpt>
      <trkpt lat="43.31334" lon="5.69173">
        <ele>987.4</ele>
        <time>2022-10-16T13:40:30.000Z</time>
      </trkpt>
      <trkpt lat="43.31334" lon="5.69173">
        <ele>987</ele>
        <time>2022-10-16T13:40:35.000Z</time>
      </trkpt>
      <trkpt lat="43.31334" lon="5.69173">
        <ele>986.9</ele>
        <time>2022-10-16T13:40:36.000Z</time>
      </trkpt>
      <trkpt lat="43.31335" lon="5.69173">
        <ele>986.7</ele>
        <time>2022-10-16T13:40:37.000Z</time>
      </trkpt>
      <trkpt lat="43.31337" lon="5.69178">
        <ele>985.1</ele>
        <time>2022-10-16T13:40:53.000Z</time>
      </trkpt>
      <trkpt lat="43.31337" lon="5.69178">
        <ele>985</ele>
        <time>2022-10-16T13:40:55.000Z</time>
      </trkpt>
      <trkpt lat="43.3134" lon="5.6918">
        <ele>984.5</ele>
        <time>2022-10-16T13:41:04.000Z</time>
      </trkpt>
      <trkpt lat="43.3134" lon="5.6918">
        <ele>984.3</ele>
        <time>2022-10-16T13:41:10.000Z</time>
      </trkpt>
      <trkpt lat="43.3134" lon="5.6918">
        <ele>984.3</ele>
        <time>2022-10-16T13:41:11.000Z</time>
      </trkpt>
      <trkpt lat="43.3134" lon="5.6918">
        <ele>984.2</ele>
        <time>2022-10-16T13:41:13.000Z</time>
      </trkpt>
      <trkpt lat="43.31341" lon="5.69179">
        <ele>984.1</ele>
        <time>2022-10-16T13:41:18.000Z</time>
      </trkpt>
      <trkpt lat="43.31341" lon="5.69178">
        <ele>983.8</ele>
        <time>2022-10-16T13:41:19.000Z</time>
      </trkpt>
      <trkpt lat="43.31342" lon="5.69178">
        <ele>983.5</ele>
        <time>2022-10-16T13:41:22.000Z</time>
      </trkpt>
      <trkpt lat="43.31342" lon="5.69177">
        <ele>983.6</ele>
        <time>2022-10-16T13:41:25.000Z</time>
      </trkpt>
      <trkpt lat="43.31342" lon="5.69177">
        <ele>983.6</ele>
        <time>2022-10-16T13:41:26.000Z</time>
      </trkpt>
      <trkpt lat="43.31342" lon="5.69177">
        <ele>983.3</ele>
        <time>2022-10-16T13:41:28.000Z</time>
      </trkpt>
      <trkpt lat="43.31342" lon="5.69176">
        <ele>983.4</ele>
        <time>2022-10-16T13:41:30.000Z</time>
      </trkpt>
      <trkpt lat="43.31342" lon="5.69176">
        <ele>983.4</ele>
        <time>2022-10-16T13:41:31.000Z</time>
      </trkpt>
      <trkpt lat="43.31342" lon="5.69176">
        <ele>983.3</ele>
        <time>2022-10-16T13:41:32.000Z</time>
      </trkpt>
      <trkpt lat="43.31342" lon="5.69176">
        <ele>983.2</ele>
        <time>2022-10-16T13:41:34.000Z</time>
      </trkpt>
      <trkpt lat="43.31341" lon="5.69175">
        <ele>983.1</ele>
        <time>2022-10-16T13:41:37.000Z</time>
      </trkpt>
      <trkpt lat="43.31341" lon="5.69175">
        <ele>982.9</ele>
        <time>2022-10-16T13:41:38.000Z</time>
      </trkpt>
      <trkpt lat="43.3134" lon="5.69175">
        <ele>982.6</ele>
        <time>2022-10-16T13:41:40.000Z</time>
      </trkpt>
      <trkpt lat="43.3134" lon="5.69175">
        <ele>982.4</ele>
        <time>2022-10-16T13:41:45.000Z</time>
      </trkpt>
      <trkpt lat="43.31341" lon="5.69174">
        <ele>982</ele>
        <time>2022-10-16T13:41:49.000Z</time>
      </trkpt>
      <trkpt lat="43.31341" lon="5.69174">
        <ele>981.9</ele>
        <time>2022-10-16T13:41:53.000Z</time>
      </trkpt>
      <trkpt lat="43.31341" lon="5.69174">
        <ele>981.6</ele>
        <time>2022-10-16T13:41:56.000Z</time>
      </trkpt>
      <trkpt lat="43.31342" lon="5.69174">
        <ele>981.7</ele>
        <time>2022-10-16T13:41:58.000Z</time>
      </trkpt>
      <trkpt lat="43.31342" lon="5.69174">
        <ele>981.8</ele>
        <time>2022-10-16T13:41:59.000Z</time>
      </trkpt>
      <trkpt lat="43.31342" lon="5.69173">
        <ele>981.5</ele>
        <time>2022-10-16T13:42:02.000Z</time>
      </trkpt>
      <trkpt lat="43.31343" lon="5.69173">
        <ele>980.9</ele>
        <time>2022-10-16T13:42:07.000Z</time>
      </trkpt>
      <trkpt lat="43.31343" lon="5.69173">
        <ele>981.2</ele>
        <time>2022-10-16T13:42:09.000Z</time>
      </trkpt>
      <trkpt lat="43.31343" lon="5.69172">
        <ele>980.9</ele>
        <time>2022-10-16T13:42:12.000Z</time>
      </trkpt>
      <trkpt lat="43.31343" lon="5.69172">
        <ele>980.7</ele>
        <time>2022-10-16T13:42:15.000Z</time>
      </trkpt>
      <trkpt lat="43.31345" lon="5.69166">
        <ele>979.4</ele>
        <time>2022-10-16T13:42:31.000Z</time>
      </trkpt>
      <trkpt lat="43.31345" lon="5.69165">
        <ele>979.4</ele>
        <time>2022-10-16T13:42:32.000Z</time>
      </trkpt>
      <trkpt lat="43.31346" lon="5.69161">
        <ele>978.5</ele>
        <time>2022-10-16T13:42:45.000Z</time>
      </trkpt>
      <trkpt lat="43.31346" lon="5.69161">
        <ele>978.6</ele>
        <time>2022-10-16T13:42:46.000Z</time>
      </trkpt>
      <trkpt lat="43.31345" lon="5.6916">
        <ele>978.5</ele>
        <time>2022-10-16T13:42:49.000Z</time>
      </trkpt>
      <trkpt lat="43.31346" lon="5.6916">
        <ele>978.4</ele>
        <time>2022-10-16T13:42:51.000Z</time>
      </trkpt>
      <trkpt lat="43.31346" lon="5.6916">
        <ele>978.5</ele>
        <time>2022-10-16T13:42:52.000Z</time>
      </trkpt>
      <trkpt lat="43.31345" lon="5.6916">
        <ele>978.5</ele>
        <time>2022-10-16T13:42:53.000Z</time>
      </trkpt>
      <trkpt lat="43.31345" lon="5.69159">
        <ele>978.2</ele>
        <time>2022-10-16T13:42:56.000Z</time>
      </trkpt>
      <trkpt lat="43.31345" lon="5.69159">
        <ele>978</ele>
        <time>2022-10-16T13:42:59.000Z</time>
      </trkpt>
      <trkpt lat="43.31345" lon="5.69153">
        <ele>977.2</ele>
        <time>2022-10-16T13:43:12.000Z</time>
      </trkpt>
      <trkpt lat="43.31345" lon="5.69153">
        <ele>977</ele>
        <time>2022-10-16T13:43:13.000Z</time>
      </trkpt>
      <trkpt lat="43.31345" lon="5.69152">
        <ele>976.9</ele>
        <time>2022-10-16T13:43:14.000Z</time>
      </trkpt>
      <trkpt lat="43.31345" lon="5.69152">
        <ele>976.9</ele>
        <time>2022-10-16T13:43:15.000Z</time>
      </trkpt>
      <trkpt lat="43.31344" lon="5.69151">
        <ele>976.6</ele>
        <time>2022-10-16T13:43:18.000Z</time>
      </trkpt>
      <trkpt lat="43.31345" lon="5.69151">
        <ele>976.5</ele>
        <time>2022-10-16T13:43:19.000Z</time>
      </trkpt>
      <trkpt lat="43.31344" lon="5.6915">
        <ele>976.3</ele>
        <time>2022-10-16T13:43:22.000Z</time>
      </trkpt>
      <trkpt lat="43.31344" lon="5.6915">
        <ele>976.4</ele>
        <time>2022-10-16T13:43:23.000Z</time>
      </trkpt>
      <trkpt lat="43.31344" lon="5.6915">
        <ele>976.3</ele>
        <time>2022-10-16T13:43:25.000Z</time>
      </trkpt>
      <trkpt lat="43.31344" lon="5.6915">
        <ele>976.4</ele>
        <time>2022-10-16T13:43:31.000Z</time>
      </trkpt>
      <trkpt lat="43.31348" lon="5.69158">
        <ele>974.6</ele>
        <time>2022-10-16T13:43:47.000Z</time>
      </trkpt>
      <trkpt lat="43.31348" lon="5.69158">
        <ele>974.6</ele>
        <time>2022-10-16T13:43:48.000Z</time>
      </trkpt>
      <trkpt lat="43.31352" lon="5.69168">
        <ele>973.8</ele>
        <time>2022-10-16T13:44:03.000Z</time>
      </trkpt>
      <trkpt lat="43.31352" lon="5.69168">
        <ele>973.9</ele>
        <time>2022-10-16T13:44:04.000Z</time>
      </trkpt>
      <trkpt lat="43.31353" lon="5.69169">
        <ele>973.9</ele>
        <time>2022-10-16T13:44:06.000Z</time>
      </trkpt>
      <trkpt lat="43.31352" lon="5.69169">
        <ele>973.6</ele>
        <time>2022-10-16T13:44:09.000Z</time>
      </trkpt>
      <trkpt lat="43.31354" lon="5.69178">
        <ele>973</ele>
        <time>2022-10-16T13:44:31.000Z</time>
      </trkpt>
      <trkpt lat="43.31354" lon="5.69178">
        <ele>972.9</ele>
        <time>2022-10-16T13:44:32.000Z</time>
      </trkpt>
      <trkpt lat="43.31356" lon="5.69181">
        <ele>972.5</ele>
        <time>2022-10-16T13:44:42.000Z</time>
      </trkpt>
      <trkpt lat="43.31357" lon="5.69181">
        <ele>972.7</ele>
        <time>2022-10-16T13:44:44.000Z</time>
      </trkpt>
      <trkpt lat="43.31359" lon="5.69182">
        <ele>972.5</ele>
        <time>2022-10-16T13:44:48.000Z</time>
      </trkpt>
      <trkpt lat="43.3136" lon="5.69182">
        <ele>972.6</ele>
        <time>2022-10-16T13:44:52.000Z</time>
      </trkpt>
      <trkpt lat="43.3136" lon="5.69182">
        <ele>972.5</ele>
        <time>2022-10-16T13:44:53.000Z</time>
      </trkpt>
      <trkpt lat="43.31359" lon="5.69182">
        <ele>972.4</ele>
        <time>2022-10-16T13:44:55.000Z</time>
      </trkpt>
      <trkpt lat="43.3136" lon="5.69182">
        <ele>972.5</ele>
        <time>2022-10-16T13:44:58.000Z</time>
      </trkpt>
      <trkpt lat="43.3136" lon="5.69182">
        <ele>972.3</ele>
        <time>2022-10-16T13:45:09.000Z</time>
      </trkpt>
      <trkpt lat="43.3136" lon="5.69181">
        <ele>972.4</ele>
        <time>2022-10-16T13:45:14.000Z</time>
      </trkpt>
      <trkpt lat="43.3136" lon="5.69181">
        <ele>972.2</ele>
        <time>2022-10-16T13:45:15.000Z</time>
      </trkpt>
      <trkpt lat="43.3136" lon="5.69182">
        <ele>972.1</ele>
        <time>2022-10-16T13:45:18.000Z</time>
      </trkpt>
      <trkpt lat="43.3136" lon="5.69182">
        <ele>972</ele>
        <time>2022-10-16T13:45:24.000Z</time>
      </trkpt>
      <trkpt lat="43.3136" lon="5.69182">
        <ele>972</ele>
        <time>2022-10-16T13:45:25.000Z</time>
      </trkpt>
      <trkpt lat="43.3136" lon="5.69182">
        <ele>972.1</ele>
        <time>2022-10-16T13:45:29.000Z</time>
      </trkpt>
      <trkpt lat="43.3136" lon="5.69182">
        <ele>972.2</ele>
        <time>2022-10-16T13:45:30.000Z</time>
      </trkpt>
      <trkpt lat="43.3136" lon="5.69182">
        <ele>972.2</ele>
        <time>2022-10-16T13:45:36.000Z</time>
      </trkpt>
      <trkpt lat="43.3136" lon="5.69182">
        <ele>972.3</ele>
        <time>2022-10-16T13:45:37.000Z</time>
      </trkpt>
      <trkpt lat="43.3136" lon="5.69183">
        <ele>972.2</ele>
        <time>2022-10-16T13:45:38.000Z</time>
      </trkpt>
      <trkpt lat="43.3136" lon="5.69183">
        <ele>971.9</ele>
        <time>2022-10-16T13:45:41.000Z</time>
      </trkpt>
      <trkpt lat="43.31359" lon="5.69184">
        <ele>971.8</ele>
        <time>2022-10-16T13:45:43.000Z</time>
      </trkpt>
      <trkpt lat="43.31359" lon="5.69184">
        <ele>971.9</ele>
        <time>2022-10-16T13:45:44.000Z</time>
      </trkpt>
      <trkpt lat="43.3136" lon="5.69184">
        <ele>972.2</ele>
        <time>2022-10-16T13:45:59.000Z</time>
      </trkpt>
      <trkpt lat="43.3136" lon="5.69185">
        <ele>971.8</ele>
        <time>2022-10-16T13:46:02.000Z</time>
      </trkpt>
      <trkpt lat="43.31359" lon="5.69185">
        <ele>971.8</ele>
        <time>2022-10-16T13:46:03.000Z</time>
      </trkpt>
      <trkpt lat="43.3136" lon="5.69185">
        <ele>971.5</ele>
        <time>2022-10-16T13:46:06.000Z</time>
      </trkpt>
      <trkpt lat="43.3136" lon="5.69185">
        <ele>971.2</ele>
        <time>2022-10-16T13:46:09.000Z</time>
      </trkpt>
      <trkpt lat="43.31361" lon="5.69185">
        <ele>971.3</ele>
        <time>2022-10-16T13:46:12.000Z</time>
      </trkpt>
      <trkpt lat="43.31361" lon="5.69185">
        <ele>971.1</ele>
        <time>2022-10-16T13:46:13.000Z</time>
      </trkpt>
      <trkpt lat="43.31362" lon="5.69185">
        <ele>971.3</ele>
        <time>2022-10-16T13:46:15.000Z</time>
      </trkpt>
      <trkpt lat="43.31362" lon="5.69184">
        <ele>971.2</ele>
        <time>2022-10-16T13:46:20.000Z</time>
      </trkpt>
      <trkpt lat="43.31361" lon="5.69184">
        <ele>970.7</ele>
        <time>2022-10-16T13:46:27.000Z</time>
      </trkpt>
      <trkpt lat="43.31361" lon="5.69184">
        <ele>970.7</ele>
        <time>2022-10-16T13:46:29.000Z</time>
      </trkpt>
      <trkpt lat="43.31361" lon="5.69184">
        <ele>970.7</ele>
        <time>2022-10-16T13:46:32.000Z</time>
      </trkpt>
      <trkpt lat="43.31361" lon="5.69184">
        <ele>970.5</ele>
        <time>2022-10-16T13:46:33.000Z</time>
      </trkpt>
      <trkpt lat="43.31361" lon="5.69184">
        <ele>970.4</ele>
        <time>2022-10-16T13:46:35.000Z</time>
      </trkpt>
      <trkpt lat="43.31361" lon="5.69184">
        <ele>970.4</ele>
        <time>2022-10-16T13:46:36.000Z</time>
      </trkpt>
      <trkpt lat="43.31361" lon="5.69183">
        <ele>970.1</ele>
        <time>2022-10-16T13:46:40.000Z</time>
      </trkpt>
      <trkpt lat="43.31361" lon="5.69183">
        <ele>969.3</ele>
        <time>2022-10-16T13:46:50.000Z</time>
      </trkpt>
      <trkpt lat="43.31361" lon="5.69182">
        <ele>969.3</ele>
        <time>2022-10-16T13:46:53.000Z</time>
      </trkpt>
      <trkpt lat="43.31362" lon="5.69182">
        <ele>969.3</ele>
        <time>2022-10-16T13:46:54.000Z</time>
      </trkpt>
      <trkpt lat="43.31362" lon="5.69182">
        <ele>969</ele>
        <time>2022-10-16T13:46:55.000Z</time>
      </trkpt>
      <trkpt lat="43.31362" lon="5.69182">
        <ele>969</ele>
        <time>2022-10-16T13:46:56.000Z</time>
      </trkpt>
      <trkpt lat="43.31362" lon="5.69182">
        <ele>968.9</ele>
        <time>2022-10-16T13:46:57.000Z</time>
      </trkpt>
      <trkpt lat="43.31362" lon="5.69182">
        <ele>968.7</ele>
        <time>2022-10-16T13:46:58.000Z</time>
      </trkpt>
      <trkpt lat="43.31365" lon="5.69175">
        <ele>965.5</ele>
        <time>2022-10-16T13:47:25.000Z</time>
      </trkpt>
      <trkpt lat="43.31365" lon="5.69175">
        <ele>965.4</ele>
        <time>2022-10-16T13:47:26.000Z</time>
      </trkpt>
      <trkpt lat="43.31368" lon="5.6917">
        <ele>963.2</ele>
        <time>2022-10-16T13:47:43.000Z</time>
      </trkpt>
      <trkpt lat="43.31369" lon="5.6917">
        <ele>963</ele>
        <time>2022-10-16T13:47:50.000Z</time>
      </trkpt>
      <trkpt lat="43.31378" lon="5.69169">
        <ele>959.1</ele>
        <time>2022-10-16T13:48:06.000Z</time>
      </trkpt>
      <trkpt lat="43.31384" lon="5.69158">
        <ele>956.5</ele>
        <time>2022-10-16T13:48:20.000Z</time>
      </trkpt>
      <trkpt lat="43.31393" lon="5.6916">
        <ele>954.4</ele>
        <time>2022-10-16T13:48:34.000Z</time>
      </trkpt>
      <trkpt lat="43.31402" lon="5.69161">
        <ele>952.6</ele>
        <time>2022-10-16T13:48:48.000Z</time>
      </trkpt>
      <trkpt lat="43.31407" lon="5.69154">
        <ele>949.5</ele>
        <time>2022-10-16T13:49:08.000Z</time>
      </trkpt>
      <trkpt lat="43.31407" lon="5.69153">
        <ele>949.5</ele>
        <time>2022-10-16T13:49:09.000Z</time>
      </trkpt>
      <trkpt lat="43.31407" lon="5.69153">
        <ele>949.4</ele>
        <time>2022-10-16T13:49:10.000Z</time>
      </trkpt>
      <trkpt lat="43.31407" lon="5.69153">
        <ele>949.4</ele>
        <time>2022-10-16T13:49:11.000Z</time>
      </trkpt>
      <trkpt lat="43.31407" lon="5.69151">
        <ele>948.6</ele>
        <time>2022-10-16T13:49:16.000Z</time>
      </trkpt>
      <trkpt lat="43.31407" lon="5.69151">
        <ele>948.7</ele>
        <time>2022-10-16T13:49:17.000Z</time>
      </trkpt>
      <trkpt lat="43.31407" lon="5.69151">
        <ele>948.4</ele>
        <time>2022-10-16T13:49:18.000Z</time>
      </trkpt>
      <trkpt lat="43.31407" lon="5.69151">
        <ele>948.4</ele>
        <time>2022-10-16T13:49:19.000Z</time>
      </trkpt>
      <trkpt lat="43.31416" lon="5.69155">
        <ele>944</ele>
        <time>2022-10-16T13:49:44.000Z</time>
      </trkpt>
      <trkpt lat="43.31417" lon="5.69155">
        <ele>943.2</ele>
        <time>2022-10-16T13:49:48.000Z</time>
      </trkpt>
      <trkpt lat="43.31417" lon="5.69155">
        <ele>942.9</ele>
        <time>2022-10-16T13:49:50.000Z</time>
      </trkpt>
      <trkpt lat="43.31419" lon="5.69156">
        <ele>941.2</ele>
        <time>2022-10-16T13:50:02.000Z</time>
      </trkpt>
      <trkpt lat="43.3142" lon="5.69156">
        <ele>941</ele>
        <time>2022-10-16T13:50:03.000Z</time>
      </trkpt>
      <trkpt lat="43.3142" lon="5.69156">
        <ele>940.7</ele>
        <time>2022-10-16T13:50:06.000Z</time>
      </trkpt>
      <trkpt lat="43.3142" lon="5.69156">
        <ele>940.5</ele>
        <time>2022-10-16T13:50:07.000Z</time>
      </trkpt>
      <trkpt lat="43.31427" lon="5.69159">
        <ele>938.4</ele>
        <time>2022-10-16T13:50:27.000Z</time>
      </trkpt>
      <trkpt lat="43.31427" lon="5.69158">
        <ele>938</ele>
        <time>2022-10-16T13:50:30.000Z</time>
      </trkpt>
      <trkpt lat="43.31429" lon="5.69156">
        <ele>937.7</ele>
        <time>2022-10-16T13:50:36.000Z</time>
      </trkpt>
      <trkpt lat="43.31429" lon="5.69156">
        <ele>937.6</ele>
        <time>2022-10-16T13:50:56.000Z</time>
      </trkpt>
      <trkpt lat="43.31429" lon="5.69156">
        <ele>937.6</ele>
        <time>2022-10-16T13:50:57.000Z</time>
      </trkpt>
      <trkpt lat="43.31429" lon="5.69156">
        <ele>937.5</ele>
        <time>2022-10-16T13:51:02.000Z</time>
      </trkpt>
      <trkpt lat="43.31429" lon="5.69156">
        <ele>937.6</ele>
        <time>2022-10-16T13:51:03.000Z</time>
      </trkpt>
      <trkpt lat="43.31429" lon="5.69156">
        <ele>937.7</ele>
        <time>2022-10-16T13:51:05.000Z</time>
      </trkpt>
      <trkpt lat="43.31429" lon="5.69156">
        <ele>937.6</ele>
        <time>2022-10-16T13:51:06.000Z</time>
      </trkpt>
      <trkpt lat="43.31429" lon="5.69156">
        <ele>937.7</ele>
        <time>2022-10-16T13:51:22.000Z</time>
      </trkpt>
      <trkpt lat="43.31429" lon="5.69156">
        <ele>937.7</ele>
        <time>2022-10-16T13:51:23.000Z</time>
      </trkpt>
      <trkpt lat="43.31429" lon="5.69156">
        <ele>937.8</ele>
        <time>2022-10-16T13:51:32.000Z</time>
      </trkpt>
      <trkpt lat="43.3143" lon="5.69155">
        <ele>937.2</ele>
        <time>2022-10-16T13:51:36.000Z</time>
      </trkpt>
      <trkpt lat="43.3143" lon="5.69155">
        <ele>937.5</ele>
        <time>2022-10-16T13:52:01.000Z</time>
      </trkpt>
      <trkpt lat="43.3143" lon="5.69155">
        <ele>937.4</ele>
        <time>2022-10-16T13:52:03.000Z</time>
      </trkpt>
      <trkpt lat="43.3143" lon="5.69154">
        <ele>937.1</ele>
        <time>2022-10-16T13:52:30.000Z</time>
      </trkpt>
      <trkpt lat="43.3143" lon="5.69154">
        <ele>937.1</ele>
        <time>2022-10-16T13:52:31.000Z</time>
      </trkpt>
      <trkpt lat="43.3143" lon="5.69154">
        <ele>937</ele>
        <time>2022-10-16T13:52:34.000Z</time>
      </trkpt>
      <trkpt lat="43.3143" lon="5.69153">
        <ele>937</ele>
        <time>2022-10-16T13:52:37.000Z</time>
      </trkpt>
      <trkpt lat="43.31431" lon="5.69153">
        <ele>937.2</ele>
        <time>2022-10-16T13:52:59.000Z</time>
      </trkpt>
      <trkpt lat="43.31431" lon="5.69153">
        <ele>937</ele>
        <time>2022-10-16T13:53:00.000Z</time>
      </trkpt>
      <trkpt lat="43.3143" lon="5.69153">
        <ele>936.9</ele>
        <time>2022-10-16T13:53:02.000Z</time>
      </trkpt>
      <trkpt lat="43.3143" lon="5.69152">
        <ele>937.3</ele>
        <time>2022-10-16T13:53:07.000Z</time>
      </trkpt>
      <trkpt lat="43.3143" lon="5.69151">
        <ele>937.2</ele>
        <time>2022-10-16T13:53:10.000Z</time>
      </trkpt>
      <trkpt lat="43.31431" lon="5.69149">
        <ele>937</ele>
        <time>2022-10-16T13:53:17.000Z</time>
      </trkpt>
      <trkpt lat="43.31432" lon="5.69148">
        <ele>936.7</ele>
        <time>2022-10-16T13:53:28.000Z</time>
      </trkpt>
      <trkpt lat="43.31431" lon="5.69145">
        <ele>936</ele>
        <time>2022-10-16T13:53:35.000Z</time>
      </trkpt>
      <trkpt lat="43.31431" lon="5.69145">
        <ele>935.9</ele>
        <time>2022-10-16T13:53:36.000Z</time>
      </trkpt>
      <trkpt lat="43.31428" lon="5.69138">
        <ele>933.9</ele>
        <time>2022-10-16T13:53:50.000Z</time>
      </trkpt>
      <trkpt lat="43.31429" lon="5.69137">
        <ele>933.9</ele>
        <time>2022-10-16T13:53:53.000Z</time>
      </trkpt>
      <trkpt lat="43.31428" lon="5.69128">
        <ele>930.6</ele>
        <time>2022-10-16T13:54:15.000Z</time>
      </trkpt>
      <trkpt lat="43.31428" lon="5.69128">
        <ele>930.7</ele>
        <time>2022-10-16T13:54:16.000Z</time>
      </trkpt>
      <trkpt lat="43.31427" lon="5.69126">
        <ele>930.2</ele>
        <time>2022-10-16T13:54:22.000Z</time>
      </trkpt>
      <trkpt lat="43.31426" lon="5.69126">
        <ele>929.8</ele>
        <time>2022-10-16T13:54:24.000Z</time>
      </trkpt>
      <trkpt lat="43.3142" lon="5.69116">
        <ele>928</ele>
        <time>2022-10-16T13:54:39.000Z</time>
      </trkpt>
      <trkpt lat="43.3142" lon="5.69115">
        <ele>927.7</ele>
        <time>2022-10-16T13:54:42.000Z</time>
      </trkpt>
      <trkpt lat="43.3142" lon="5.69115">
        <ele>927.4</ele>
        <time>2022-10-16T13:54:43.000Z</time>
      </trkpt>
      <trkpt lat="43.3142" lon="5.69115">
        <ele>927.3</ele>
        <time>2022-10-16T13:54:44.000Z</time>
      </trkpt>
      <trkpt lat="43.3142" lon="5.69115">
        <ele>927.1</ele>
        <time>2022-10-16T13:54:45.000Z</time>
      </trkpt>
      <trkpt lat="43.3142" lon="5.69115">
        <ele>927</ele>
        <time>2022-10-16T13:54:46.000Z</time>
      </trkpt>
      <trkpt lat="43.3142" lon="5.69115">
        <ele>926.9</ele>
        <time>2022-10-16T13:54:47.000Z</time>
      </trkpt>
      <trkpt lat="43.3142" lon="5.69102">
        <ele>924.7</ele>
        <time>2022-10-16T13:55:10.000Z</time>
      </trkpt>
      <trkpt lat="43.31419" lon="5.69101">
        <ele>924.3</ele>
        <time>2022-10-16T13:55:14.000Z</time>
      </trkpt>
      <trkpt lat="43.31419" lon="5.691">
        <ele>924.1</ele>
        <time>2022-10-16T13:55:15.000Z</time>
      </trkpt>
      <trkpt lat="43.31419" lon="5.69099">
        <ele>923.7</ele>
        <time>2022-10-16T13:55:18.000Z</time>
      </trkpt>
      <trkpt lat="43.31419" lon="5.69098">
        <ele>923.5</ele>
        <time>2022-10-16T13:55:24.000Z</time>
      </trkpt>
      <trkpt lat="43.31415" lon="5.69091">
        <ele>921.9</ele>
        <time>2022-10-16T13:55:46.000Z</time>
      </trkpt>
      <trkpt lat="43.31415" lon="5.69091">
        <ele>921</ele>
        <time>2022-10-16T13:55:54.000Z</time>
      </trkpt>
      <trkpt lat="43.31415" lon="5.69091">
        <ele>920.8</ele>
        <time>2022-10-16T13:55:55.000Z</time>
      </trkpt>
      <trkpt lat="43.31415" lon="5.6909">
        <ele>920.8</ele>
        <time>2022-10-16T13:56:04.000Z</time>
      </trkpt>
      <trkpt lat="43.31415" lon="5.6909">
        <ele>920.8</ele>
        <time>2022-10-16T13:56:05.000Z</time>
      </trkpt>
      <trkpt lat="43.31416" lon="5.6909">
        <ele>920.5</ele>
        <time>2022-10-16T13:56:07.000Z</time>
      </trkpt>
      <trkpt lat="43.31415" lon="5.6909">
        <ele>920</ele>
        <time>2022-10-16T13:56:09.000Z</time>
      </trkpt>
      <trkpt lat="43.31415" lon="5.6909">
        <ele>920.1</ele>
        <time>2022-10-16T13:56:11.000Z</time>
      </trkpt>
      <trkpt lat="43.31415" lon="5.69088">
        <ele>920</ele>
        <time>2022-10-16T13:56:16.000Z</time>
      </trkpt>
      <trkpt lat="43.31415" lon="5.69088">
        <ele>920.1</ele>
        <time>2022-10-16T13:56:17.000Z</time>
      </trkpt>
      <trkpt lat="43.31414" lon="5.69088">
        <ele>919.5</ele>
        <time>2022-10-16T13:56:23.000Z</time>
      </trkpt>
      <trkpt lat="43.31414" lon="5.69087">
        <ele>918.8</ele>
        <time>2022-10-16T13:56:30.000Z</time>
      </trkpt>
      <trkpt lat="43.31414" lon="5.69087">
        <ele>918.9</ele>
        <time>2022-10-16T13:56:31.000Z</time>
      </trkpt>
      <trkpt lat="43.31414" lon="5.69087">
        <ele>918.5</ele>
        <time>2022-10-16T13:56:34.000Z</time>
      </trkpt>
      <trkpt lat="43.31414" lon="5.69086">
        <ele>918.5</ele>
        <time>2022-10-16T13:56:37.000Z</time>
      </trkpt>
      <trkpt lat="43.31414" lon="5.69086">
        <ele>918.2</ele>
        <time>2022-10-16T13:56:39.000Z</time>
      </trkpt>
      <trkpt lat="43.31414" lon="5.69085">
        <ele>918.2</ele>
        <time>2022-10-16T13:56:40.000Z</time>
      </trkpt>
      <trkpt lat="43.31414" lon="5.69085">
        <ele>918.1</ele>
        <time>2022-10-16T13:56:41.000Z</time>
      </trkpt>
      <trkpt lat="43.31408" lon="5.69076">
        <ele>915.9</ele>
        <time>2022-10-16T13:56:59.000Z</time>
      </trkpt>
      <trkpt lat="43.31407" lon="5.69075">
        <ele>915.7</ele>
        <time>2022-10-16T13:57:02.000Z</time>
      </trkpt>
      <trkpt lat="43.31406" lon="5.69074">
        <ele>915</ele>
        <time>2022-10-16T13:57:09.000Z</time>
      </trkpt>
      <trkpt lat="43.31406" lon="5.69074">
        <ele>914.9</ele>
        <time>2022-10-16T13:57:12.000Z</time>
      </trkpt>
      <trkpt lat="43.31406" lon="5.69074">
        <ele>915.1</ele>
        <time>2022-10-16T13:57:13.000Z</time>
      </trkpt>
      <trkpt lat="43.31406" lon="5.69074">
        <ele>915.1</ele>
        <time>2022-10-16T13:57:14.000Z</time>
      </trkpt>
      <trkpt lat="43.31406" lon="5.69073">
        <ele>915</ele>
        <time>2022-10-16T13:57:16.000Z</time>
      </trkpt>
      <trkpt lat="43.31407" lon="5.69072">
        <ele>914.3</ele>
        <time>2022-10-16T13:57:21.000Z</time>
      </trkpt>
      <trkpt lat="43.31406" lon="5.69072">
        <ele>914.1</ele>
        <time>2022-10-16T13:57:23.000Z</time>
      </trkpt>
      <trkpt lat="43.31406" lon="5.69071">
        <ele>914.1</ele>
        <time>2022-10-16T13:57:25.000Z</time>
      </trkpt>
      <trkpt lat="43.31406" lon="5.69071">
        <ele>914.1</ele>
        <time>2022-10-16T13:57:26.000Z</time>
      </trkpt>
      <trkpt lat="43.31406" lon="5.69071">
        <ele>914</ele>
        <time>2022-10-16T13:57:27.000Z</time>
      </trkpt>
      <trkpt lat="43.31406" lon="5.6907">
        <ele>913.8</ele>
        <time>2022-10-16T13:57:30.000Z</time>
      </trkpt>
      <trkpt lat="43.31406" lon="5.69071">
        <ele>913.8</ele>
        <time>2022-10-16T13:57:31.000Z</time>
      </trkpt>
      <trkpt lat="43.31406" lon="5.6907">
        <ele>913.3</ele>
        <time>2022-10-16T13:57:34.000Z</time>
      </trkpt>
      <trkpt lat="43.31407" lon="5.69065">
        <ele>912.7</ele>
        <time>2022-10-16T13:57:45.000Z</time>
      </trkpt>
      <trkpt lat="43.31407" lon="5.69065">
        <ele>912.5</ele>
        <time>2022-10-16T13:57:47.000Z</time>
      </trkpt>
      <trkpt lat="43.31407" lon="5.69063">
        <ele>912.1</ele>
        <time>2022-10-16T13:57:51.000Z</time>
      </trkpt>
      <trkpt lat="43.31407" lon="5.69063">
        <ele>912.1</ele>
        <time>2022-10-16T13:57:53.000Z</time>
      </trkpt>
      <trkpt lat="43.31407" lon="5.69063">
        <ele>912.2</ele>
        <time>2022-10-16T13:57:54.000Z</time>
      </trkpt>
      <trkpt lat="43.31406" lon="5.69063">
        <ele>912.1</ele>
        <time>2022-10-16T13:57:55.000Z</time>
      </trkpt>
      <trkpt lat="43.31406" lon="5.69062">
        <ele>911.8</ele>
        <time>2022-10-16T13:57:57.000Z</time>
      </trkpt>
      <trkpt lat="43.31406" lon="5.69062">
        <ele>911.3</ele>
        <time>2022-10-16T13:57:59.000Z</time>
      </trkpt>
      <trkpt lat="43.31408" lon="5.69061">
        <ele>911</ele>
        <time>2022-10-16T13:58:06.000Z</time>
      </trkpt>
      <trkpt lat="43.31408" lon="5.69061">
        <ele>911.1</ele>
        <time>2022-10-16T13:58:09.000Z</time>
      </trkpt>
      <trkpt lat="43.31408" lon="5.69061">
        <ele>910.8</ele>
        <time>2022-10-16T13:58:12.000Z</time>
      </trkpt>
      <trkpt lat="43.31408" lon="5.6906">
        <ele>910.8</ele>
        <time>2022-10-16T13:58:13.000Z</time>
      </trkpt>
      <trkpt lat="43.31408" lon="5.69059">
        <ele>910.2</ele>
        <time>2022-10-16T13:58:18.000Z</time>
      </trkpt>
      <trkpt lat="43.31409" lon="5.69059">
        <ele>910.3</ele>
        <time>2022-10-16T13:58:32.000Z</time>
      </trkpt>
      <trkpt lat="43.31409" lon="5.69059">
        <ele>910.3</ele>
        <time>2022-10-16T13:58:33.000Z</time>
      </trkpt>
      <trkpt lat="43.31408" lon="5.69058">
        <ele>910.2</ele>
        <time>2022-10-16T13:58:38.000Z</time>
      </trkpt>
      <trkpt lat="43.31408" lon="5.69058">
        <ele>910.1</ele>
        <time>2022-10-16T13:58:39.000Z</time>
      </trkpt>
      <trkpt lat="43.31408" lon="5.69058">
        <ele>910.3</ele>
        <time>2022-10-16T13:58:43.000Z</time>
      </trkpt>
      <trkpt lat="43.31408" lon="5.69057">
        <ele>910.2</ele>
        <time>2022-10-16T13:58:45.000Z</time>
      </trkpt>
      <trkpt lat="43.31408" lon="5.69058">
        <ele>909.9</ele>
        <time>2022-10-16T13:58:47.000Z</time>
      </trkpt>
      <trkpt lat="43.31409" lon="5.69056">
        <ele>909.4</ele>
        <time>2022-10-16T13:58:52.000Z</time>
      </trkpt>
      <trkpt lat="43.31408" lon="5.69056">
        <ele>909.4</ele>
        <time>2022-10-16T13:58:54.000Z</time>
      </trkpt>
      <trkpt lat="43.31409" lon="5.69055">
        <ele>909.2</ele>
        <time>2022-10-16T13:58:59.000Z</time>
      </trkpt>
      <trkpt lat="43.31409" lon="5.69055">
        <ele>908.4</ele>
        <time>2022-10-16T13:59:01.000Z</time>
      </trkpt>
      <trkpt lat="43.31408" lon="5.69055">
        <ele>909.1</ele>
        <time>2022-10-16T13:59:03.000Z</time>
      </trkpt>
      <trkpt lat="43.31409" lon="5.69055">
        <ele>908.7</ele>
        <time>2022-10-16T13:59:04.000Z</time>
      </trkpt>
      <trkpt lat="43.3141" lon="5.6905">
        <ele>907.1</ele>
        <time>2022-10-16T13:59:17.000Z</time>
      </trkpt>
      <trkpt lat="43.3141" lon="5.6905">
        <ele>906.8</ele>
        <time>2022-10-16T13:59:20.000Z</time>
      </trkpt>
      <trkpt lat="43.31408" lon="5.69049">
        <ele>906.8</ele>
        <time>2022-10-16T13:59:25.000Z</time>
      </trkpt>
      <trkpt lat="43.31408" lon="5.69048">
        <ele>906.3</ele>
        <time>2022-10-16T13:59:27.000Z</time>
      </trkpt>
      <trkpt lat="43.3141" lon="5.69047">
        <ele>905.4</ele>
        <time>2022-10-16T13:59:37.000Z</time>
      </trkpt>
      <trkpt lat="43.31411" lon="5.69047">
        <ele>905.3</ele>
        <time>2022-10-16T13:59:38.000Z</time>
      </trkpt>
      <trkpt lat="43.31411" lon="5.69046">
        <ele>905.3</ele>
        <time>2022-10-16T13:59:42.000Z</time>
      </trkpt>
      <trkpt lat="43.31411" lon="5.69046">
        <ele>905.4</ele>
        <time>2022-10-16T13:59:43.000Z</time>
      </trkpt>
      <trkpt lat="43.3141" lon="5.69045">
        <ele>904.6</ele>
        <time>2022-10-16T13:59:49.000Z</time>
      </trkpt>
      <trkpt lat="43.31411" lon="5.69045">
        <ele>904.4</ele>
        <time>2022-10-16T13:59:51.000Z</time>
      </trkpt>
      <trkpt lat="43.31417" lon="5.69035">
        <ele>901.3</ele>
        <time>2022-10-16T14:00:12.000Z</time>
      </trkpt>
      <trkpt lat="43.31417" lon="5.69035">
        <ele>901</ele>
        <time>2022-10-16T14:00:13.000Z</time>
      </trkpt>
      <trkpt lat="43.31417" lon="5.69035">
        <ele>901</ele>
        <time>2022-10-16T14:00:14.000Z</time>
      </trkpt>
      <trkpt lat="43.31417" lon="5.69035">
        <ele>901</ele>
        <time>2022-10-16T14:00:15.000Z</time>
      </trkpt>
      <trkpt lat="43.31418" lon="5.69035">
        <ele>901</ele>
        <time>2022-10-16T14:00:16.000Z</time>
      </trkpt>
      <trkpt lat="43.31419" lon="5.69033">
        <ele>899.8</ele>
        <time>2022-10-16T14:00:20.000Z</time>
      </trkpt>
      <trkpt lat="43.31421" lon="5.69033">
        <ele>899.7</ele>
        <time>2022-10-16T14:00:21.000Z</time>
      </trkpt>
      <trkpt lat="43.31424" lon="5.69034">
        <ele>898.7</ele>
        <time>2022-10-16T14:00:29.000Z</time>
      </trkpt>
      <trkpt lat="43.31424" lon="5.69034">
        <ele>898.6</ele>
        <time>2022-10-16T14:00:30.000Z</time>
      </trkpt>
      <trkpt lat="43.31425" lon="5.69032">
        <ele>897.9</ele>
        <time>2022-10-16T14:00:38.000Z</time>
      </trkpt>
      <trkpt lat="43.31425" lon="5.69032">
        <ele>897.9</ele>
        <time>2022-10-16T14:00:39.000Z</time>
      </trkpt>
      <trkpt lat="43.31424" lon="5.6903">
        <ele>898</ele>
        <time>2022-10-16T14:00:47.000Z</time>
      </trkpt>
      <trkpt lat="43.31424" lon="5.6903">
        <ele>897.8</ele>
        <time>2022-10-16T14:00:56.000Z</time>
      </trkpt>
      <trkpt lat="43.31424" lon="5.6903">
        <ele>898</ele>
        <time>2022-10-16T14:00:57.000Z</time>
      </trkpt>
      <trkpt lat="43.31424" lon="5.6903">
        <ele>898.1</ele>
        <time>2022-10-16T14:01:15.000Z</time>
      </trkpt>
      <trkpt lat="43.31424" lon="5.6903">
        <ele>898.1</ele>
        <time>2022-10-16T14:01:16.000Z</time>
      </trkpt>
      <trkpt lat="43.31424" lon="5.6903">
        <ele>897.7</ele>
        <time>2022-10-16T14:01:22.000Z</time>
      </trkpt>
      <trkpt lat="43.31423" lon="5.69029">
        <ele>898</ele>
        <time>2022-10-16T14:01:26.000Z</time>
      </trkpt>
      <trkpt lat="43.31423" lon="5.69029">
        <ele>898</ele>
        <time>2022-10-16T14:01:27.000Z</time>
      </trkpt>
      <trkpt lat="43.31423" lon="5.69029">
        <ele>898.1</ele>
        <time>2022-10-16T14:01:28.000Z</time>
      </trkpt>
      <trkpt lat="43.31423" lon="5.69028">
        <ele>898.1</ele>
        <time>2022-10-16T14:01:29.000Z</time>
      </trkpt>
      <trkpt lat="43.31432" lon="5.69028">
        <ele>894.1</ele>
        <time>2022-10-16T14:02:11.000Z</time>
      </trkpt>
      <trkpt lat="43.31439" lon="5.69023">
        <ele>892</ele>
        <time>2022-10-16T14:02:26.000Z</time>
      </trkpt>
      <trkpt lat="43.3144" lon="5.69022">
        <ele>891.9</ele>
        <time>2022-10-16T14:02:27.000Z</time>
      </trkpt>
      <trkpt lat="43.31447" lon="5.69015">
        <ele>888.6</ele>
        <time>2022-10-16T14:02:45.000Z</time>
      </trkpt>
      <trkpt lat="43.31455" lon="5.69009">
        <ele>886.6</ele>
        <time>2022-10-16T14:02:57.000Z</time>
      </trkpt>
      <trkpt lat="43.31463" lon="5.69003">
        <ele>884.9</ele>
        <time>2022-10-16T14:03:10.000Z</time>
      </trkpt>
      <trkpt lat="43.31467" lon="5.68998">
        <ele>883.4</ele>
        <time>2022-10-16T14:03:22.000Z</time>
      </trkpt>
      <trkpt lat="43.31467" lon="5.68997">
        <ele>883.2</ele>
        <time>2022-10-16T14:03:23.000Z</time>
      </trkpt>
      <trkpt lat="43.31475" lon="5.68996">
        <ele>881.1</ele>
        <time>2022-10-16T14:03:38.000Z</time>
      </trkpt>
      <trkpt lat="43.31475" lon="5.68996">
        <ele>880.9</ele>
        <time>2022-10-16T14:03:39.000Z</time>
      </trkpt>
      <trkpt lat="43.3148" lon="5.68988">
        <ele>880.2</ele>
        <time>2022-10-16T14:03:54.000Z</time>
      </trkpt>
      <trkpt lat="43.3148" lon="5.68989">
        <ele>880.1</ele>
        <time>2022-10-16T14:03:55.000Z</time>
      </trkpt>
      <trkpt lat="43.31482" lon="5.6899">
        <ele>879.2</ele>
        <time>2022-10-16T14:04:01.000Z</time>
      </trkpt>
      <trkpt lat="43.31482" lon="5.6899">
        <ele>879</ele>
        <time>2022-10-16T14:04:06.000Z</time>
      </trkpt>
      <trkpt lat="43.31482" lon="5.68988">
        <ele>878.9</ele>
        <time>2022-10-16T14:04:10.000Z</time>
      </trkpt>
      <trkpt lat="43.31482" lon="5.68988">
        <ele>878.5</ele>
        <time>2022-10-16T14:04:25.000Z</time>
      </trkpt>
      <trkpt lat="43.31482" lon="5.68988">
        <ele>878.1</ele>
        <time>2022-10-16T14:04:27.000Z</time>
      </trkpt>
      <trkpt lat="43.31482" lon="5.68988">
        <ele>878.2</ele>
        <time>2022-10-16T14:04:28.000Z</time>
      </trkpt>
      <trkpt lat="43.31481" lon="5.68988">
        <ele>878.4</ele>
        <time>2022-10-16T14:04:30.000Z</time>
      </trkpt>
      <trkpt lat="43.31481" lon="5.68987">
        <ele>878.1</ele>
        <time>2022-10-16T14:04:34.000Z</time>
      </trkpt>
      <trkpt lat="43.31481" lon="5.68985">
        <ele>878.1</ele>
        <time>2022-10-16T14:04:39.000Z</time>
      </trkpt>
      <trkpt lat="43.31481" lon="5.68985">
        <ele>878.3</ele>
        <time>2022-10-16T14:04:45.000Z</time>
      </trkpt>
      <trkpt lat="43.31488" lon="5.68977">
        <ele>875</ele>
        <time>2022-10-16T14:05:17.000Z</time>
      </trkpt>
      <trkpt lat="43.31498" lon="5.68972">
        <ele>873.7</ele>
        <time>2022-10-16T14:05:28.000Z</time>
      </trkpt>
      <trkpt lat="43.31503" lon="5.68964">
        <ele>871.3</ele>
        <time>2022-10-16T14:05:54.000Z</time>
      </trkpt>
      <trkpt lat="43.31503" lon="5.68964">
        <ele>871.1</ele>
        <time>2022-10-16T14:06:01.000Z</time>
      </trkpt>
      <trkpt lat="43.31503" lon="5.68964">
        <ele>871.1</ele>
        <time>2022-10-16T14:06:02.000Z</time>
      </trkpt>
      <trkpt lat="43.31503" lon="5.68964">
        <ele>871.1</ele>
        <time>2022-10-16T14:06:03.000Z</time>
      </trkpt>
      <trkpt lat="43.31508" lon="5.68964">
        <ele>870.5</ele>
        <time>2022-10-16T14:06:14.000Z</time>
      </trkpt>
      <trkpt lat="43.31509" lon="5.68964">
        <ele>870.4</ele>
        <time>2022-10-16T14:06:16.000Z</time>
      </trkpt>
      <trkpt lat="43.31509" lon="5.68964">
        <ele>870.3</ele>
        <time>2022-10-16T14:06:19.000Z</time>
      </trkpt>
      <trkpt lat="43.31509" lon="5.68964">
        <ele>870.3</ele>
        <time>2022-10-16T14:06:21.000Z</time>
      </trkpt>
      <trkpt lat="43.31509" lon="5.68964">
        <ele>870.3</ele>
        <time>2022-10-16T14:06:22.000Z</time>
      </trkpt>
      <trkpt lat="43.31509" lon="5.68964">
        <ele>870.3</ele>
        <time>2022-10-16T14:06:25.000Z</time>
      </trkpt>
      <trkpt lat="43.31509" lon="5.68964">
        <ele>870.2</ele>
        <time>2022-10-16T14:06:27.000Z</time>
      </trkpt>
      <trkpt lat="43.31509" lon="5.68963">
        <ele>870.1</ele>
        <time>2022-10-16T14:06:28.000Z</time>
      </trkpt>
      <trkpt lat="43.31504" lon="5.68952">
        <ele>869.9</ele>
        <time>2022-10-16T14:06:39.000Z</time>
      </trkpt>
      <trkpt lat="43.31502" lon="5.68949">
        <ele>869.8</ele>
        <time>2022-10-16T14:06:49.000Z</time>
      </trkpt>
      <trkpt lat="43.31502" lon="5.6895">
        <ele>869.6</ele>
        <time>2022-10-16T14:07:03.000Z</time>
      </trkpt>
      <trkpt lat="43.31503" lon="5.68951">
        <ele>869.7</ele>
        <time>2022-10-16T14:07:09.000Z</time>
      </trkpt>
      <trkpt lat="43.31503" lon="5.68951">
        <ele>869.6</ele>
        <time>2022-10-16T14:07:13.000Z</time>
      </trkpt>
      <trkpt lat="43.31503" lon="5.68951">
        <ele>869.7</ele>
        <time>2022-10-16T14:07:14.000Z</time>
      </trkpt>
      <trkpt lat="43.31503" lon="5.68952">
        <ele>869.5</ele>
        <time>2022-10-16T14:07:17.000Z</time>
      </trkpt>
      <trkpt lat="43.31509" lon="5.68962">
        <ele>869.4</ele>
        <time>2022-10-16T14:07:35.000Z</time>
      </trkpt>
      <trkpt lat="43.31516" lon="5.6897">
        <ele>868.7</ele>
        <time>2022-10-16T14:07:48.000Z</time>
      </trkpt>
      <trkpt lat="43.31516" lon="5.6897">
        <ele>868.8</ele>
        <time>2022-10-16T14:07:51.000Z</time>
      </trkpt>
      <trkpt lat="43.31516" lon="5.6897">
        <ele>868.8</ele>
        <time>2022-10-16T14:07:52.000Z</time>
      </trkpt>
      <trkpt lat="43.31516" lon="5.6897">
        <ele>868.6</ele>
        <time>2022-10-16T14:07:55.000Z</time>
      </trkpt>
      <trkpt lat="43.31521" lon="5.68982">
        <ele>867.5</ele>
        <time>2022-10-16T14:08:08.000Z</time>
      </trkpt>
      <trkpt lat="43.31528" lon="5.68989">
        <ele>865.8</ele>
        <time>2022-10-16T14:08:24.000Z</time>
      </trkpt>
      <trkpt lat="43.31536" lon="5.68995">
        <ele>863.9</ele>
        <time>2022-10-16T14:08:38.000Z</time>
      </trkpt>
      <trkpt lat="43.31545" lon="5.6899">
        <ele>863.6</ele>
        <time>2022-10-16T14:08:46.000Z</time>
      </trkpt>
      <trkpt lat="43.31547" lon="5.68986">
        <ele>863.8</ele>
        <time>2022-10-16T14:08:55.000Z</time>
      </trkpt>
      <trkpt lat="43.31548" lon="5.68986">
        <ele>863.8</ele>
        <time>2022-10-16T14:08:57.000Z</time>
      </trkpt>
      <trkpt lat="43.31548" lon="5.68986">
        <ele>863.7</ele>
        <time>2022-10-16T14:08:58.000Z</time>
      </trkpt>
      <trkpt lat="43.31548" lon="5.68987">
        <ele>863.8</ele>
        <time>2022-10-16T14:08:59.000Z</time>
      </trkpt>
      <trkpt lat="43.31548" lon="5.68987">
        <ele>864</ele>
        <time>2022-10-16T14:09:01.000Z</time>
      </trkpt>
      <trkpt lat="43.31548" lon="5.68986">
        <ele>863.7</ele>
        <time>2022-10-16T14:09:15.000Z</time>
      </trkpt>
      <trkpt lat="43.31548" lon="5.68986">
        <ele>863.8</ele>
        <time>2022-10-16T14:09:16.000Z</time>
      </trkpt>
      <trkpt lat="43.31548" lon="5.68986">
        <ele>863.8</ele>
        <time>2022-10-16T14:09:17.000Z</time>
      </trkpt>
      <trkpt lat="43.31548" lon="5.68986">
        <ele>863.8</ele>
        <time>2022-10-16T14:09:18.000Z</time>
      </trkpt>
      <trkpt lat="43.31549" lon="5.68986">
        <ele>863.8</ele>
        <time>2022-10-16T14:09:19.000Z</time>
      </trkpt>
      <trkpt lat="43.31549" lon="5.68986">
        <ele>863.7</ele>
        <time>2022-10-16T14:09:20.000Z</time>
      </trkpt>
      <trkpt lat="43.31549" lon="5.68986">
        <ele>863.6</ele>
        <time>2022-10-16T14:09:21.000Z</time>
      </trkpt>
      <trkpt lat="43.31548" lon="5.68986">
        <ele>863.7</ele>
        <time>2022-10-16T14:09:27.000Z</time>
      </trkpt>
      <trkpt lat="43.31549" lon="5.68986">
        <ele>863.7</ele>
        <time>2022-10-16T14:09:28.000Z</time>
      </trkpt>
      <trkpt lat="43.31549" lon="5.68986">
        <ele>863.7</ele>
        <time>2022-10-16T14:09:29.000Z</time>
      </trkpt>
      <trkpt lat="43.31549" lon="5.68986">
        <ele>863.6</ele>
        <time>2022-10-16T14:09:30.000Z</time>
      </trkpt>
      <trkpt lat="43.31557" lon="5.68982">
        <ele>864.9</ele>
        <time>2022-10-16T14:09:42.000Z</time>
      </trkpt>
      <trkpt lat="43.31559" lon="5.68976">
        <ele>865.3</ele>
        <time>2022-10-16T14:09:55.000Z</time>
      </trkpt>
      <trkpt lat="43.31559" lon="5.68976">
        <ele>865.4</ele>
        <time>2022-10-16T14:09:56.000Z</time>
      </trkpt>
      <trkpt lat="43.31559" lon="5.68976">
        <ele>865.4</ele>
        <time>2022-10-16T14:09:57.000Z</time>
      </trkpt>
      <trkpt lat="43.31559" lon="5.68976">
        <ele>865.4</ele>
        <time>2022-10-16T14:10:04.000Z</time>
      </trkpt>
      <trkpt lat="43.31561" lon="5.68978">
        <ele>865.1</ele>
        <time>2022-10-16T14:10:09.000Z</time>
      </trkpt>
      <trkpt lat="43.3156" lon="5.68978">
        <ele>865.1</ele>
        <time>2022-10-16T14:10:22.000Z</time>
      </trkpt>
      <trkpt lat="43.31565" lon="5.68989">
        <ele>863.5</ele>
        <time>2022-10-16T14:10:37.000Z</time>
      </trkpt>
      <trkpt lat="43.31569" lon="5.69001">
        <ele>861.7</ele>
        <time>2022-10-16T14:10:52.000Z</time>
      </trkpt>
      <trkpt lat="43.31575" lon="5.69009">
        <ele>859.9</ele>
        <time>2022-10-16T14:11:06.000Z</time>
      </trkpt>
      <trkpt lat="43.31581" lon="5.69019">
        <ele>858.6</ele>
        <time>2022-10-16T14:11:19.000Z</time>
      </trkpt>
      <trkpt lat="43.31585" lon="5.6903">
        <ele>856.6</ele>
        <time>2022-10-16T14:11:37.000Z</time>
      </trkpt>
      <trkpt lat="43.31591" lon="5.69041">
        <ele>855.3</ele>
        <time>2022-10-16T14:11:48.000Z</time>
      </trkpt>
      <trkpt lat="43.31593" lon="5.69049">
        <ele>853.2</ele>
        <time>2022-10-16T14:12:04.000Z</time>
      </trkpt>
      <trkpt lat="43.31593" lon="5.69049">
        <ele>852.9</ele>
        <time>2022-10-16T14:12:06.000Z</time>
      </trkpt>
      <trkpt lat="43.31598" lon="5.6906">
        <ele>850.3</ele>
        <time>2022-10-16T14:12:25.000Z</time>
      </trkpt>
      <trkpt lat="43.31599" lon="5.69061">
        <ele>849.7</ele>
        <time>2022-10-16T14:12:29.000Z</time>
      </trkpt>
      <trkpt lat="43.31599" lon="5.69061">
        <ele>849.5</ele>
        <time>2022-10-16T14:12:30.000Z</time>
      </trkpt>
      <trkpt lat="43.31601" lon="5.69063">
        <ele>848.8</ele>
        <time>2022-10-16T14:12:39.000Z</time>
      </trkpt>
      <trkpt lat="43.31601" lon="5.69064">
        <ele>848.5</ele>
        <time>2022-10-16T14:12:41.000Z</time>
      </trkpt>
      <trkpt lat="43.31601" lon="5.69064">
        <ele>848.5</ele>
        <time>2022-10-16T14:12:42.000Z</time>
      </trkpt>
      <trkpt lat="43.31601" lon="5.69064">
        <ele>848.4</ele>
        <time>2022-10-16T14:12:44.000Z</time>
      </trkpt>
      <trkpt lat="43.31606" lon="5.69075">
        <ele>846</ele>
        <time>2022-10-16T14:12:59.000Z</time>
      </trkpt>
      <trkpt lat="43.3161" lon="5.69087">
        <ele>843.7</ele>
        <time>2022-10-16T14:13:15.000Z</time>
      </trkpt>
      <trkpt lat="43.3161" lon="5.69089">
        <ele>843.4</ele>
        <time>2022-10-16T14:13:20.000Z</time>
      </trkpt>
      <trkpt lat="43.31611" lon="5.69089">
        <ele>843.2</ele>
        <time>2022-10-16T14:13:21.000Z</time>
      </trkpt>
      <trkpt lat="43.31612" lon="5.69092">
        <ele>842.7</ele>
        <time>2022-10-16T14:13:27.000Z</time>
      </trkpt>
      <trkpt lat="43.31613" lon="5.69092">
        <ele>842.3</ele>
        <time>2022-10-16T14:13:31.000Z</time>
      </trkpt>
      <trkpt lat="43.31613" lon="5.69092">
        <ele>842.2</ele>
        <time>2022-10-16T14:13:32.000Z</time>
      </trkpt>
      <trkpt lat="43.31612" lon="5.69093">
        <ele>842.1</ele>
        <time>2022-10-16T14:13:33.000Z</time>
      </trkpt>
      <trkpt lat="43.31618" lon="5.69104">
        <ele>840.3</ele>
        <time>2022-10-16T14:13:50.000Z</time>
      </trkpt>
      <trkpt lat="43.31624" lon="5.69113">
        <ele>837.7</ele>
        <time>2022-10-16T14:14:08.000Z</time>
      </trkpt>
      <trkpt lat="43.31627" lon="5.6912">
        <ele>836.2</ele>
        <time>2022-10-16T14:14:23.000Z</time>
      </trkpt>
      <trkpt lat="43.31627" lon="5.6912">
        <ele>836</ele>
        <time>2022-10-16T14:14:25.000Z</time>
      </trkpt>
      <trkpt lat="43.31631" lon="5.69126">
        <ele>834.8</ele>
        <time>2022-10-16T14:14:41.000Z</time>
      </trkpt>
      <trkpt lat="43.31631" lon="5.69126">
        <ele>834.7</ele>
        <time>2022-10-16T14:14:42.000Z</time>
      </trkpt>
      <trkpt lat="43.31631" lon="5.69127">
        <ele>834.6</ele>
        <time>2022-10-16T14:14:45.000Z</time>
      </trkpt>
      <trkpt lat="43.31631" lon="5.69127">
        <ele>834.5</ele>
        <time>2022-10-16T14:14:46.000Z</time>
      </trkpt>
      <trkpt lat="43.31637" lon="5.69137">
        <ele>832.4</ele>
        <time>2022-10-16T14:15:01.000Z</time>
      </trkpt>
      <trkpt lat="43.31642" lon="5.69148">
        <ele>830.6</ele>
        <time>2022-10-16T14:15:18.000Z</time>
      </trkpt>
      <trkpt lat="43.31645" lon="5.69154">
        <ele>829</ele>
        <time>2022-10-16T14:15:32.000Z</time>
      </trkpt>
      <trkpt lat="43.31645" lon="5.69154">
        <ele>828.8</ele>
        <time>2022-10-16T14:15:33.000Z</time>
      </trkpt>
      <trkpt lat="43.3165" lon="5.69164">
        <ele>826.4</ele>
        <time>2022-10-16T14:15:53.000Z</time>
      </trkpt>
      <trkpt lat="43.31654" lon="5.69176">
        <ele>823.6</ele>
        <time>2022-10-16T14:16:17.000Z</time>
      </trkpt>
      <trkpt lat="43.31659" lon="5.69186">
        <ele>821.4</ele>
        <time>2022-10-16T14:16:33.000Z</time>
      </trkpt>
      <trkpt lat="43.31661" lon="5.69187">
        <ele>820.9</ele>
        <time>2022-10-16T14:16:40.000Z</time>
      </trkpt>
      <trkpt lat="43.31661" lon="5.69187">
        <ele>821</ele>
        <time>2022-10-16T14:16:44.000Z</time>
      </trkpt>
      <trkpt lat="43.31661" lon="5.69188">
        <ele>820.9</ele>
        <time>2022-10-16T14:16:45.000Z</time>
      </trkpt>
      <trkpt lat="43.31661" lon="5.69188">
        <ele>820.7</ele>
        <time>2022-10-16T14:16:46.000Z</time>
      </trkpt>
      <trkpt lat="43.31663" lon="5.69193">
        <ele>819</ele>
        <time>2022-10-16T14:16:59.000Z</time>
      </trkpt>
      <trkpt lat="43.31663" lon="5.69193">
        <ele>818.7</ele>
        <time>2022-10-16T14:17:00.000Z</time>
      </trkpt>
      <trkpt lat="43.3167" lon="5.69203">
        <ele>817</ele>
        <time>2022-10-16T14:17:14.000Z</time>
      </trkpt>
      <trkpt lat="43.31674" lon="5.69214">
        <ele>815.4</ele>
        <time>2022-10-16T14:17:38.000Z</time>
      </trkpt>
      <trkpt lat="43.31675" lon="5.69216">
        <ele>815.1</ele>
        <time>2022-10-16T14:17:42.000Z</time>
      </trkpt>
      <trkpt lat="43.31675" lon="5.69216">
        <ele>814.8</ele>
        <time>2022-10-16T14:17:43.000Z</time>
      </trkpt>
      <trkpt lat="43.31675" lon="5.69216">
        <ele>814.6</ele>
        <time>2022-10-16T14:17:44.000Z</time>
      </trkpt>
      <trkpt lat="43.31675" lon="5.69217">
        <ele>814.5</ele>
        <time>2022-10-16T14:17:45.000Z</time>
      </trkpt>
      <trkpt lat="43.31676" lon="5.69219">
        <ele>814</ele>
        <time>2022-10-16T14:17:52.000Z</time>
      </trkpt>
      <trkpt lat="43.31677" lon="5.69219">
        <ele>814.1</ele>
        <time>2022-10-16T14:17:54.000Z</time>
      </trkpt>
      <trkpt lat="43.31681" lon="5.69231">
        <ele>811.8</ele>
        <time>2022-10-16T14:18:15.000Z</time>
      </trkpt>
      <trkpt lat="43.31686" lon="5.69241">
        <ele>809.7</ele>
        <time>2022-10-16T14:18:31.000Z</time>
      </trkpt>
      <trkpt lat="43.31687" lon="5.69245">
        <ele>808.7</ele>
        <time>2022-10-16T14:18:39.000Z</time>
      </trkpt>
      <trkpt lat="43.31687" lon="5.69246">
        <ele>808.5</ele>
        <time>2022-10-16T14:18:40.000Z</time>
      </trkpt>
      <trkpt lat="43.31692" lon="5.69256">
        <ele>806.8</ele>
        <time>2022-10-16T14:18:55.000Z</time>
      </trkpt>
      <trkpt lat="43.31696" lon="5.69267">
        <ele>805.1</ele>
        <time>2022-10-16T14:19:11.000Z</time>
      </trkpt>
      <trkpt lat="43.31699" lon="5.6928">
        <ele>804</ele>
        <time>2022-10-16T14:19:25.000Z</time>
      </trkpt>
      <trkpt lat="43.31705" lon="5.6929">
        <ele>802.5</ele>
        <time>2022-10-16T14:19:38.000Z</time>
      </trkpt>
      <trkpt lat="43.31706" lon="5.69291">
        <ele>802.2</ele>
        <time>2022-10-16T14:19:41.000Z</time>
      </trkpt>
      <trkpt lat="43.31706" lon="5.69292">
        <ele>801.8</ele>
        <time>2022-10-16T14:19:44.000Z</time>
      </trkpt>
      <trkpt lat="43.31712" lon="5.69302">
        <ele>800.4</ele>
        <time>2022-10-16T14:19:56.000Z</time>
      </trkpt>
      <trkpt lat="43.31717" lon="5.69312">
        <ele>799.4</ele>
        <time>2022-10-16T14:20:07.000Z</time>
      </trkpt>
      <trkpt lat="43.31722" lon="5.69323">
        <ele>797.3</ele>
        <time>2022-10-16T14:20:24.000Z</time>
      </trkpt>
      <trkpt lat="43.31726" lon="5.6933">
        <ele>796.5</ele>
        <time>2022-10-16T14:20:32.000Z</time>
      </trkpt>
      <trkpt lat="43.31726" lon="5.6933">
        <ele>796.3</ele>
        <time>2022-10-16T14:20:33.000Z</time>
      </trkpt>
      <trkpt lat="43.31726" lon="5.6933">
        <ele>796.2</ele>
        <time>2022-10-16T14:20:34.000Z</time>
      </trkpt>
      <trkpt lat="43.31726" lon="5.69331">
        <ele>796.1</ele>
        <time>2022-10-16T14:20:36.000Z</time>
      </trkpt>
      <trkpt lat="43.31731" lon="5.69342">
        <ele>794.9</ele>
        <time>2022-10-16T14:20:49.000Z</time>
      </trkpt>
      <trkpt lat="43.31736" lon="5.69353">
        <ele>793.8</ele>
        <time>2022-10-16T14:21:01.000Z</time>
      </trkpt>
      <trkpt lat="43.31742" lon="5.69364">
        <ele>793</ele>
        <time>2022-10-16T14:21:11.000Z</time>
      </trkpt>
      <trkpt lat="43.31747" lon="5.69374">
        <ele>791.9</ele>
        <time>2022-10-16T14:21:22.000Z</time>
      </trkpt>
      <trkpt lat="43.31751" lon="5.69387">
        <ele>790.6</ele>
        <time>2022-10-16T14:21:33.000Z</time>
      </trkpt>
      <trkpt lat="43.31756" lon="5.69399">
        <ele>789.5</ele>
        <time>2022-10-16T14:21:44.000Z</time>
      </trkpt>
      <trkpt lat="43.31762" lon="5.6941">
        <ele>788.7</ele>
        <time>2022-10-16T14:21:56.000Z</time>
      </trkpt>
      <trkpt lat="43.31771" lon="5.69417">
        <ele>787.5</ele>
        <time>2022-10-16T14:22:07.000Z</time>
      </trkpt>
      <trkpt lat="43.31775" lon="5.69429">
        <ele>786.8</ele>
        <time>2022-10-16T14:22:16.000Z</time>
      </trkpt>
      <trkpt lat="43.31778" lon="5.69442">
        <ele>785.9</ele>
        <time>2022-10-16T14:22:27.000Z</time>
      </trkpt>
      <trkpt lat="43.31782" lon="5.69453">
        <ele>784.6</ele>
        <time>2022-10-16T14:22:42.000Z</time>
      </trkpt>
      <trkpt lat="43.31785" lon="5.69464">
        <ele>783.7</ele>
        <time>2022-10-16T14:22:54.000Z</time>
      </trkpt>
      <trkpt lat="43.31792" lon="5.69473">
        <ele>783.2</ele>
        <time>2022-10-16T14:23:02.000Z</time>
      </trkpt>
      <trkpt lat="43.31794" lon="5.69485">
        <ele>781.9</ele>
        <time>2022-10-16T14:23:17.000Z</time>
      </trkpt>
      <trkpt lat="43.31795" lon="5.6949">
        <ele>781.1</ele>
        <time>2022-10-16T14:23:27.000Z</time>
      </trkpt>
      <trkpt lat="43.31796" lon="5.69491">
        <ele>781</ele>
        <time>2022-10-16T14:23:28.000Z</time>
      </trkpt>
      <trkpt lat="43.31803" lon="5.69499">
        <ele>780.4</ele>
        <time>2022-10-16T14:23:38.000Z</time>
      </trkpt>
      <trkpt lat="43.31806" lon="5.695">
        <ele>779.8</ele>
        <time>2022-10-16T14:23:44.000Z</time>
      </trkpt>
      <trkpt lat="43.31806" lon="5.69501">
        <ele>779.9</ele>
        <time>2022-10-16T14:23:45.000Z</time>
      </trkpt>
      <trkpt lat="43.31808" lon="5.69503">
        <ele>779.6</ele>
        <time>2022-10-16T14:23:52.000Z</time>
      </trkpt>
      <trkpt lat="43.31808" lon="5.69503">
        <ele>779.5</ele>
        <time>2022-10-16T14:23:54.000Z</time>
      </trkpt>
      <trkpt lat="43.31808" lon="5.69503">
        <ele>779.5</ele>
        <time>2022-10-16T14:23:57.000Z</time>
      </trkpt>
      <trkpt lat="43.31809" lon="5.69503">
        <ele>779.1</ele>
        <time>2022-10-16T14:24:21.000Z</time>
      </trkpt>
      <trkpt lat="43.31809" lon="5.69503">
        <ele>779</ele>
        <time>2022-10-16T14:24:22.000Z</time>
      </trkpt>
      <trkpt lat="43.31809" lon="5.69503">
        <ele>778.4</ele>
        <time>2022-10-16T14:24:24.000Z</time>
      </trkpt>
      <trkpt lat="43.31809" lon="5.69504">
        <ele>779.6</ele>
        <time>2022-10-16T14:24:28.000Z</time>
      </trkpt>
      <trkpt lat="43.31809" lon="5.69504">
        <ele>779.5</ele>
        <time>2022-10-16T14:24:29.000Z</time>
      </trkpt>
      <trkpt lat="43.31809" lon="5.69504">
        <ele>779.7</ele>
        <time>2022-10-16T14:24:31.000Z</time>
      </trkpt>
      <trkpt lat="43.31809" lon="5.69504">
        <ele>780</ele>
        <time>2022-10-16T14:24:37.000Z</time>
      </trkpt>
      <trkpt lat="43.31809" lon="5.69504">
        <ele>779.6</ele>
        <time>2022-10-16T14:24:38.000Z</time>
      </trkpt>
      <trkpt lat="43.31809" lon="5.69504">
        <ele>779.6</ele>
        <time>2022-10-16T14:25:24.000Z</time>
      </trkpt>
      <trkpt lat="43.31809" lon="5.69504">
        <ele>779.2</ele>
        <time>2022-10-16T14:25:25.000Z</time>
      </trkpt>
      <trkpt lat="43.3181" lon="5.69504">
        <ele>779.5</ele>
        <time>2022-10-16T14:25:36.000Z</time>
      </trkpt>
      <trkpt lat="43.31809" lon="5.69502">
        <ele>779.5</ele>
        <time>2022-10-16T14:25:43.000Z</time>
      </trkpt>
      <trkpt lat="43.31809" lon="5.69502">
        <ele>779.1</ele>
        <time>2022-10-16T14:26:01.000Z</time>
      </trkpt>
      <trkpt lat="43.31809" lon="5.69502">
        <ele>779.1</ele>
        <time>2022-10-16T14:26:02.000Z</time>
      </trkpt>
      <trkpt lat="43.31809" lon="5.69503">
        <ele>779.4</ele>
        <time>2022-10-16T14:26:17.000Z</time>
      </trkpt>
      <trkpt lat="43.3181" lon="5.69515">
        <ele>778.3</ele>
        <time>2022-10-16T14:26:31.000Z</time>
      </trkpt>
      <trkpt lat="43.31813" lon="5.69527">
        <ele>777.4</ele>
        <time>2022-10-16T14:26:42.000Z</time>
      </trkpt>
      <trkpt lat="43.31818" lon="5.69538">
        <ele>776.3</ele>
        <time>2022-10-16T14:26:53.000Z</time>
      </trkpt>
      <trkpt lat="43.31824" lon="5.6955">
        <ele>774.8</ele>
        <time>2022-10-16T14:27:04.000Z</time>
      </trkpt>
      <trkpt lat="43.31828" lon="5.69562">
        <ele>774</ele>
        <time>2022-10-16T14:27:15.000Z</time>
      </trkpt>
      <trkpt lat="43.31833" lon="5.69572">
        <ele>772.7</ele>
        <time>2022-10-16T14:27:30.000Z</time>
      </trkpt>
      <trkpt lat="43.3184" lon="5.6958">
        <ele>771.8</ele>
        <time>2022-10-16T14:27:38.000Z</time>
      </trkpt>
      <trkpt lat="43.31846" lon="5.6959">
        <ele>770.6</ele>
        <time>2022-10-16T14:27:47.000Z</time>
      </trkpt>
      <trkpt lat="43.31849" lon="5.69602">
        <ele>768.6</ele>
        <time>2022-10-16T14:28:02.000Z</time>
      </trkpt>
      <trkpt lat="43.31855" lon="5.69613">
        <ele>768.1</ele>
        <time>2022-10-16T14:28:12.000Z</time>
      </trkpt>
      <trkpt lat="43.3186" lon="5.69623">
        <ele>767.4</ele>
        <time>2022-10-16T14:28:21.000Z</time>
      </trkpt>
      <trkpt lat="43.31863" lon="5.69635">
        <ele>765.8</ele>
        <time>2022-10-16T14:28:34.000Z</time>
      </trkpt>
      <trkpt lat="43.3187" lon="5.69644">
        <ele>764.8</ele>
        <time>2022-10-16T14:28:44.000Z</time>
      </trkpt>
      <trkpt lat="43.31876" lon="5.69655">
        <ele>764</ele>
        <time>2022-10-16T14:28:52.000Z</time>
      </trkpt>
      <trkpt lat="43.31881" lon="5.69666">
        <ele>762.7</ele>
        <time>2022-10-16T14:29:08.000Z</time>
      </trkpt>
      <trkpt lat="43.31885" lon="5.69679">
        <ele>761.2</ele>
        <time>2022-10-16T14:29:23.000Z</time>
      </trkpt>
      <trkpt lat="43.3189" lon="5.69689">
        <ele>760.5</ele>
        <time>2022-10-16T14:29:30.000Z</time>
      </trkpt>
      <trkpt lat="43.31895" lon="5.697">
        <ele>759.4</ele>
        <time>2022-10-16T14:29:41.000Z</time>
      </trkpt>
      <trkpt lat="43.319" lon="5.6971">
        <ele>758.1</ele>
        <time>2022-10-16T14:29:53.000Z</time>
      </trkpt>
      <trkpt lat="43.31904" lon="5.69722">
        <ele>756.5</ele>
        <time>2022-10-16T14:30:08.000Z</time>
      </trkpt>
      <trkpt lat="43.31911" lon="5.69732">
        <ele>755.1</ele>
        <time>2022-10-16T14:30:18.000Z</time>
      </trkpt>
      <trkpt lat="43.31917" lon="5.69742">
        <ele>754</ele>
        <time>2022-10-16T14:30:28.000Z</time>
      </trkpt>
      <trkpt lat="43.31924" lon="5.69752">
        <ele>753.2</ele>
        <time>2022-10-16T14:30:38.000Z</time>
      </trkpt>
      <trkpt lat="43.3193" lon="5.69761">
        <ele>752.3</ele>
        <time>2022-10-16T14:30:48.000Z</time>
      </trkpt>
      <trkpt lat="43.31938" lon="5.69768">
        <ele>751.4</ele>
        <time>2022-10-16T14:31:00.000Z</time>
      </trkpt>
      <trkpt lat="43.31939" lon="5.69769">
        <ele>751.2</ele>
        <time>2022-10-16T14:31:02.000Z</time>
      </trkpt>
      <trkpt lat="43.31939" lon="5.6977">
        <ele>751.1</ele>
        <time>2022-10-16T14:31:03.000Z</time>
      </trkpt>
      <trkpt lat="43.31944" lon="5.6978">
        <ele>749.8</ele>
        <time>2022-10-16T14:31:13.000Z</time>
      </trkpt>
      <trkpt lat="43.31945" lon="5.6978">
        <ele>749.6</ele>
        <time>2022-10-16T14:31:15.000Z</time>
      </trkpt>
      <trkpt lat="43.31945" lon="5.69781">
        <ele>749.5</ele>
        <time>2022-10-16T14:31:16.000Z</time>
      </trkpt>
      <trkpt lat="43.31951" lon="5.69791">
        <ele>747.8</ele>
        <time>2022-10-16T14:31:28.000Z</time>
      </trkpt>
      <trkpt lat="43.31958" lon="5.69801">
        <ele>746.7</ele>
        <time>2022-10-16T14:31:38.000Z</time>
      </trkpt>
      <trkpt lat="43.31965" lon="5.69809">
        <ele>745.4</ele>
        <time>2022-10-16T14:31:48.000Z</time>
      </trkpt>
      <trkpt lat="43.31966" lon="5.69811">
        <ele>745.1</ele>
        <time>2022-10-16T14:31:52.000Z</time>
      </trkpt>
      <trkpt lat="43.31966" lon="5.69812">
        <ele>745</ele>
        <time>2022-10-16T14:31:53.000Z</time>
      </trkpt>
      <trkpt lat="43.31973" lon="5.6982">
        <ele>743.1</ele>
        <time>2022-10-16T14:32:10.000Z</time>
      </trkpt>
      <trkpt lat="43.31978" lon="5.69831">
        <ele>741.5</ele>
        <time>2022-10-16T14:32:25.000Z</time>
      </trkpt>
      <trkpt lat="43.31983" lon="5.69841">
        <ele>740.4</ele>
        <time>2022-10-16T14:32:35.000Z</time>
      </trkpt>
      <trkpt lat="43.3199" lon="5.69851">
        <ele>739</ele>
        <time>2022-10-16T14:32:47.000Z</time>
      </trkpt>
      <trkpt lat="43.31997" lon="5.69859">
        <ele>737.6</ele>
        <time>2022-10-16T14:32:58.000Z</time>
      </trkpt>
      <trkpt lat="43.32003" lon="5.69868">
        <ele>736.8</ele>
        <time>2022-10-16T14:33:08.000Z</time>
      </trkpt>
      <trkpt lat="43.3201" lon="5.69876">
        <ele>735.9</ele>
        <time>2022-10-16T14:33:16.000Z</time>
      </trkpt>
      <trkpt lat="43.32016" lon="5.69886">
        <ele>735.3</ele>
        <time>2022-10-16T14:33:27.000Z</time>
      </trkpt>
      <trkpt lat="43.32023" lon="5.69895">
        <ele>734.6</ele>
        <time>2022-10-16T14:33:39.000Z</time>
      </trkpt>
      <trkpt lat="43.32031" lon="5.69903">
        <ele>732.8</ele>
        <time>2022-10-16T14:33:53.000Z</time>
      </trkpt>
      <trkpt lat="43.32037" lon="5.69913">
        <ele>731.3</ele>
        <time>2022-10-16T14:34:06.000Z</time>
      </trkpt>
      <trkpt lat="43.32042" lon="5.69924">
        <ele>729.9</ele>
        <time>2022-10-16T14:34:16.000Z</time>
      </trkpt>
      <trkpt lat="43.32051" lon="5.69931">
        <ele>729</ele>
        <time>2022-10-16T14:34:27.000Z</time>
      </trkpt>
      <trkpt lat="43.32058" lon="5.6994">
        <ele>727.8</ele>
        <time>2022-10-16T14:34:38.000Z</time>
      </trkpt>
      <trkpt lat="43.32065" lon="5.69949">
        <ele>726.3</ele>
        <time>2022-10-16T14:34:49.000Z</time>
      </trkpt>
      <trkpt lat="43.32065" lon="5.69949">
        <ele>726.1</ele>
        <time>2022-10-16T14:34:50.000Z</time>
      </trkpt>
      <trkpt lat="43.32065" lon="5.69949">
        <ele>725.9</ele>
        <time>2022-10-16T14:34:51.000Z</time>
      </trkpt>
      <trkpt lat="43.32071" lon="5.69958">
        <ele>724.1</ele>
        <time>2022-10-16T14:35:06.000Z</time>
      </trkpt>
      <trkpt lat="43.32074" lon="5.69961">
        <ele>723.5</ele>
        <time>2022-10-16T14:35:15.000Z</time>
      </trkpt>
      <trkpt lat="43.32074" lon="5.69961">
        <ele>723.2</ele>
        <time>2022-10-16T14:35:19.000Z</time>
      </trkpt>
      <trkpt lat="43.32081" lon="5.69969">
        <ele>721.3</ele>
        <time>2022-10-16T14:35:35.000Z</time>
      </trkpt>
      <trkpt lat="43.32086" lon="5.69979">
        <ele>719.3</ele>
        <time>2022-10-16T14:35:49.000Z</time>
      </trkpt>
      <trkpt lat="43.32094" lon="5.69988">
        <ele>718.5</ele>
        <time>2022-10-16T14:36:01.000Z</time>
      </trkpt>
      <trkpt lat="43.321" lon="5.69998">
        <ele>717.2</ele>
        <time>2022-10-16T14:36:15.000Z</time>
      </trkpt>
      <trkpt lat="43.32106" lon="5.70007">
        <ele>715.7</ele>
        <time>2022-10-16T14:36:31.000Z</time>
      </trkpt>
      <trkpt lat="43.32113" lon="5.70015">
        <ele>713.4</ele>
        <time>2022-10-16T14:36:49.000Z</time>
      </trkpt>
      <trkpt lat="43.32114" lon="5.70017">
        <ele>713.2</ele>
        <time>2022-10-16T14:36:54.000Z</time>
      </trkpt>
      <trkpt lat="43.32115" lon="5.70017">
        <ele>713</ele>
        <time>2022-10-16T14:36:55.000Z</time>
      </trkpt>
      <trkpt lat="43.32115" lon="5.70018">
        <ele>712.3</ele>
        <time>2022-10-16T14:37:02.000Z</time>
      </trkpt>
      <trkpt lat="43.32116" lon="5.70019">
        <ele>712.1</ele>
        <time>2022-10-16T14:37:04.000Z</time>
      </trkpt>
      <trkpt lat="43.32117" lon="5.70021">
        <ele>711.5</ele>
        <time>2022-10-16T14:37:08.000Z</time>
      </trkpt>
      <trkpt lat="43.32116" lon="5.70022">
        <ele>711.3</ele>
        <time>2022-10-16T14:37:09.000Z</time>
      </trkpt>
      <trkpt lat="43.32116" lon="5.70024">
        <ele>710.4</ele>
        <time>2022-10-16T14:37:13.000Z</time>
      </trkpt>
      <trkpt lat="43.32117" lon="5.70025">
        <ele>710.3</ele>
        <time>2022-10-16T14:37:14.000Z</time>
      </trkpt>
      <trkpt lat="43.32107" lon="5.70029">
        <ele>708.4</ele>
        <time>2022-10-16T14:37:31.000Z</time>
      </trkpt>
      <trkpt lat="43.32099" lon="5.70035">
        <ele>706.6</ele>
        <time>2022-10-16T14:37:45.000Z</time>
      </trkpt>
      <trkpt lat="43.32094" lon="5.70046">
        <ele>705.2</ele>
        <time>2022-10-16T14:37:58.000Z</time>
      </trkpt>
      <trkpt lat="43.32091" lon="5.70058">
        <ele>703.6</ele>
        <time>2022-10-16T14:38:14.000Z</time>
      </trkpt>
      <trkpt lat="43.32093" lon="5.70071">
        <ele>702.5</ele>
        <time>2022-10-16T14:38:26.000Z</time>
      </trkpt>
      <trkpt lat="43.32096" lon="5.70083">
        <ele>701.8</ele>
        <time>2022-10-16T14:38:35.000Z</time>
      </trkpt>
      <trkpt lat="43.32098" lon="5.70095">
        <ele>701.1</ele>
        <time>2022-10-16T14:38:45.000Z</time>
      </trkpt>
      <trkpt lat="43.32104" lon="5.70105">
        <ele>700.1</ele>
        <time>2022-10-16T14:38:53.000Z</time>
      </trkpt>
      <trkpt lat="43.32109" lon="5.70116">
        <ele>699.6</ele>
        <time>2022-10-16T14:39:01.000Z</time>
      </trkpt>
      <trkpt lat="43.32117" lon="5.70124">
        <ele>698.6</ele>
        <time>2022-10-16T14:39:10.000Z</time>
      </trkpt>
      <trkpt lat="43.32126" lon="5.70128">
        <ele>697.5</ele>
        <time>2022-10-16T14:39:20.000Z</time>
      </trkpt>
      <trkpt lat="43.32135" lon="5.70132">
        <ele>697.4</ele>
        <time>2022-10-16T14:39:35.000Z</time>
      </trkpt>
      <trkpt lat="43.32143" lon="5.70137">
        <ele>696.4</ele>
        <time>2022-10-16T14:39:45.000Z</time>
      </trkpt>
      <trkpt lat="43.32148" lon="5.70149">
        <ele>695.4</ele>
        <time>2022-10-16T14:39:58.000Z</time>
      </trkpt>
      <trkpt lat="43.32152" lon="5.70161">
        <ele>694.3</ele>
        <time>2022-10-16T14:40:09.000Z</time>
      </trkpt>
      <trkpt lat="43.32153" lon="5.70163">
        <ele>694.4</ele>
        <time>2022-10-16T14:40:14.000Z</time>
      </trkpt>
      <trkpt lat="43.32153" lon="5.70163">
        <ele>694.1</ele>
        <time>2022-10-16T14:40:17.000Z</time>
      </trkpt>
      <trkpt lat="43.32158" lon="5.70174">
        <ele>694.4</ele>
        <time>2022-10-16T14:40:31.000Z</time>
      </trkpt>
      <trkpt lat="43.32164" lon="5.70184">
        <ele>694.9</ele>
        <time>2022-10-16T14:40:42.000Z</time>
      </trkpt>
      <trkpt lat="43.32171" lon="5.70193">
        <ele>695.8</ele>
        <time>2022-10-16T14:40:56.000Z</time>
      </trkpt>
      <trkpt lat="43.32179" lon="5.70202">
        <ele>696.4</ele>
        <time>2022-10-16T14:41:08.000Z</time>
      </trkpt>
      <trkpt lat="43.32186" lon="5.70211">
        <ele>697.2</ele>
        <time>2022-10-16T14:41:19.000Z</time>
      </trkpt>
      <trkpt lat="43.32192" lon="5.7022">
        <ele>697.4</ele>
        <time>2022-10-16T14:41:31.000Z</time>
      </trkpt>
      <trkpt lat="43.32197" lon="5.7023">
        <ele>697.9</ele>
        <time>2022-10-16T14:41:41.000Z</time>
      </trkpt>
      <trkpt lat="43.32205" lon="5.70238">
        <ele>698.1</ele>
        <time>2022-10-16T14:41:52.000Z</time>
      </trkpt>
      <trkpt lat="43.32212" lon="5.70248">
        <ele>698.6</ele>
        <time>2022-10-16T14:42:03.000Z</time>
      </trkpt>
      <trkpt lat="43.32217" lon="5.7026">
        <ele>698.9</ele>
        <time>2022-10-16T14:42:16.000Z</time>
      </trkpt>
      <trkpt lat="43.32224" lon="5.70268">
        <ele>699.4</ele>
        <time>2022-10-16T14:42:26.000Z</time>
      </trkpt>
      <trkpt lat="43.32232" lon="5.70274">
        <ele>699.5</ele>
        <time>2022-10-16T14:42:36.000Z</time>
      </trkpt>
      <trkpt lat="43.32239" lon="5.70282">
        <ele>699.3</ele>
        <time>2022-10-16T14:42:45.000Z</time>
      </trkpt>
      <trkpt lat="43.32247" lon="5.70291">
        <ele>699.6</ele>
        <time>2022-10-16T14:42:56.000Z</time>
      </trkpt>
      <trkpt lat="43.3225" lon="5.70303">
        <ele>699.9</ele>
        <time>2022-10-16T14:43:07.000Z</time>
      </trkpt>
      <trkpt lat="43.32256" lon="5.70313">
        <ele>700</ele>
        <time>2022-10-16T14:43:18.000Z</time>
      </trkpt>
      <trkpt lat="43.32261" lon="5.70324">
        <ele>700.3</ele>
        <time>2022-10-16T14:43:31.000Z</time>
      </trkpt>
      <trkpt lat="43.32266" lon="5.70336">
        <ele>700.2</ele>
        <time>2022-10-16T14:43:38.000Z</time>
      </trkpt>
      <trkpt lat="43.32272" lon="5.70346">
        <ele>699.7</ele>
        <time>2022-10-16T14:43:48.000Z</time>
      </trkpt>
      <trkpt lat="43.32278" lon="5.70357">
        <ele>699.6</ele>
        <time>2022-10-16T14:43:56.000Z</time>
      </trkpt>
      <trkpt lat="43.32279" lon="5.7037">
        <ele>699.1</ele>
        <time>2022-10-16T14:44:07.000Z</time>
      </trkpt>
      <trkpt lat="43.32281" lon="5.70383">
        <ele>697.9</ele>
        <time>2022-10-16T14:44:18.000Z</time>
      </trkpt>
      <trkpt lat="43.3228" lon="5.70396">
        <ele>696.5</ele>
        <time>2022-10-16T14:44:30.000Z</time>
      </trkpt>
      <trkpt lat="43.32282" lon="5.70408">
        <ele>694.9</ele>
        <time>2022-10-16T14:44:41.000Z</time>
      </trkpt>
      <trkpt lat="43.3228" lon="5.70421">
        <ele>693.6</ele>
        <time>2022-10-16T14:44:53.000Z</time>
      </trkpt>
      <trkpt lat="43.32282" lon="5.70435">
        <ele>692</ele>
        <time>2022-10-16T14:45:06.000Z</time>
      </trkpt>
      <trkpt lat="43.32284" lon="5.7045">
        <ele>692</ele>
        <time>2022-10-16T14:45:16.000Z</time>
      </trkpt>
      <trkpt lat="43.32282" lon="5.70462">
        <ele>691.9</ele>
        <time>2022-10-16T14:45:25.000Z</time>
      </trkpt>
      <trkpt lat="43.32288" lon="5.70472">
        <ele>691.8</ele>
        <time>2022-10-16T14:45:33.000Z</time>
      </trkpt>
      <trkpt lat="43.32294" lon="5.70482">
        <ele>691.6</ele>
        <time>2022-10-16T14:45:42.000Z</time>
      </trkpt>
      <trkpt lat="43.32299" lon="5.70493">
        <ele>691.9</ele>
        <time>2022-10-16T14:45:53.000Z</time>
      </trkpt>
      <trkpt lat="43.32304" lon="5.70504">
        <ele>692.1</ele>
        <time>2022-10-16T14:46:04.000Z</time>
      </trkpt>
      <trkpt lat="43.32309" lon="5.70515">
        <ele>692.3</ele>
        <time>2022-10-16T14:46:14.000Z</time>
      </trkpt>
      <trkpt lat="43.32312" lon="5.70527">
        <ele>692.4</ele>
        <time>2022-10-16T14:46:22.000Z</time>
      </trkpt>
      <trkpt lat="43.32312" lon="5.7054">
        <ele>691.3</ele>
        <time>2022-10-16T14:46:34.000Z</time>
      </trkpt>
      <trkpt lat="43.32319" lon="5.70549">
        <ele>690.1</ele>
        <time>2022-10-16T14:46:43.000Z</time>
      </trkpt>
      <trkpt lat="43.32326" lon="5.70558">
        <ele>689.8</ele>
        <time>2022-10-16T14:46:53.000Z</time>
      </trkpt>
      <trkpt lat="43.32328" lon="5.70571">
        <ele>689.5</ele>
        <time>2022-10-16T14:47:02.000Z</time>
      </trkpt>
      <trkpt lat="43.3233" lon="5.70584">
        <ele>689.2</ele>
        <time>2022-10-16T14:47:12.000Z</time>
      </trkpt>
      <trkpt lat="43.32334" lon="5.70595">
        <ele>688.9</ele>
        <time>2022-10-16T14:47:20.000Z</time>
      </trkpt>
      <trkpt lat="43.3234" lon="5.70606">
        <ele>688.7</ele>
        <time>2022-10-16T14:47:28.000Z</time>
      </trkpt>
      <trkpt lat="43.32346" lon="5.70616">
        <ele>688.8</ele>
        <time>2022-10-16T14:47:36.000Z</time>
      </trkpt>
      <trkpt lat="43.3235" lon="5.70628">
        <ele>688.8</ele>
        <time>2022-10-16T14:47:47.000Z</time>
      </trkpt>
      <trkpt lat="43.32349" lon="5.7064">
        <ele>689.5</ele>
        <time>2022-10-16T14:47:58.000Z</time>
      </trkpt>
      <trkpt lat="43.32349" lon="5.70653">
        <ele>689.9</ele>
        <time>2022-10-16T14:48:11.000Z</time>
      </trkpt>
      <trkpt lat="43.32351" lon="5.70661">
        <ele>690.1</ele>
        <time>2022-10-16T14:48:23.000Z</time>
      </trkpt>
      <trkpt lat="43.32351" lon="5.70662">
        <ele>690.2</ele>
        <time>2022-10-16T14:48:26.000Z</time>
      </trkpt>
      <trkpt lat="43.32357" lon="5.70673">
        <ele>689.7</ele>
        <time>2022-10-16T14:48:35.000Z</time>
      </trkpt>
      <trkpt lat="43.32362" lon="5.70684">
        <ele>689.1</ele>
        <time>2022-10-16T14:48:46.000Z</time>
      </trkpt>
      <trkpt lat="43.32365" lon="5.70697">
        <ele>688.4</ele>
        <time>2022-10-16T14:48:57.000Z</time>
      </trkpt>
      <trkpt lat="43.32366" lon="5.70707">
        <ele>687.9</ele>
        <time>2022-10-16T14:49:10.000Z</time>
      </trkpt>
      <trkpt lat="43.32367" lon="5.70708">
        <ele>688.2</ele>
        <time>2022-10-16T14:49:13.000Z</time>
      </trkpt>
      <trkpt lat="43.32368" lon="5.70706">
        <ele>688.1</ele>
        <time>2022-10-16T14:49:22.000Z</time>
      </trkpt>
      <trkpt lat="43.32368" lon="5.70706">
        <ele>688</ele>
        <time>2022-10-16T14:49:23.000Z</time>
      </trkpt>
      <trkpt lat="43.32367" lon="5.70705">
        <ele>688</ele>
        <time>2022-10-16T14:49:25.000Z</time>
      </trkpt>
      <trkpt lat="43.32367" lon="5.70705">
        <ele>687.9</ele>
        <time>2022-10-16T14:49:31.000Z</time>
      </trkpt>
      <trkpt lat="43.32367" lon="5.70705">
        <ele>688</ele>
        <time>2022-10-16T14:49:35.000Z</time>
      </trkpt>
      <trkpt lat="43.32367" lon="5.70704">
        <ele>687.8</ele>
        <time>2022-10-16T14:49:36.000Z</time>
      </trkpt>
      <trkpt lat="43.32367" lon="5.70704">
        <ele>687.7</ele>
        <time>2022-10-16T14:49:37.000Z</time>
      </trkpt>
      <trkpt lat="43.32367" lon="5.70704">
        <ele>688.2</ele>
        <time>2022-10-16T14:49:45.000Z</time>
      </trkpt>
      <trkpt lat="43.32367" lon="5.70704">
        <ele>688.1</ele>
        <time>2022-10-16T14:49:46.000Z</time>
      </trkpt>
      <trkpt lat="43.32368" lon="5.70704">
        <ele>688.1</ele>
        <time>2022-10-16T14:49:49.000Z</time>
      </trkpt>
      <trkpt lat="43.32369" lon="5.70705">
        <ele>688.1</ele>
        <time>2022-10-16T14:49:52.000Z</time>
      </trkpt>
      <trkpt lat="43.32369" lon="5.70704">
        <ele>688</ele>
        <time>2022-10-16T14:50:27.000Z</time>
      </trkpt>
      <trkpt lat="43.32369" lon="5.70704">
        <ele>688.2</ele>
        <time>2022-10-16T14:50:31.000Z</time>
      </trkpt>
      <trkpt lat="43.32369" lon="5.70703">
        <ele>688.5</ele>
        <time>2022-10-16T14:50:52.000Z</time>
      </trkpt>
      <trkpt lat="43.32368" lon="5.70712">
        <ele>688.3</ele>
        <time>2022-10-16T14:51:03.000Z</time>
      </trkpt>
      <trkpt lat="43.32368" lon="5.70712">
        <ele>687.8</ele>
        <time>2022-10-16T14:51:10.000Z</time>
      </trkpt>
      <trkpt lat="43.32368" lon="5.70714">
        <ele>688.9</ele>
        <time>2022-10-16T14:51:17.000Z</time>
      </trkpt>
      <trkpt lat="43.32368" lon="5.70714">
        <ele>688.7</ele>
        <time>2022-10-16T14:51:26.000Z</time>
      </trkpt>
      <trkpt lat="43.32368" lon="5.70714">
        <ele>688.7</ele>
        <time>2022-10-16T14:51:27.000Z</time>
      </trkpt>
      <trkpt lat="43.32368" lon="5.70713">
        <ele>688.7</ele>
        <time>2022-10-16T14:51:28.000Z</time>
      </trkpt>
      <trkpt lat="43.32369" lon="5.70713">
        <ele>688.9</ele>
        <time>2022-10-16T14:51:30.000Z</time>
      </trkpt>
      <trkpt lat="43.32368" lon="5.70714">
        <ele>688.6</ele>
        <time>2022-10-16T14:51:33.000Z</time>
      </trkpt>
      <trkpt lat="43.32368" lon="5.70714">
        <ele>688.6</ele>
        <time>2022-10-16T14:51:34.000Z</time>
      </trkpt>
      <trkpt lat="43.32368" lon="5.70714">
        <ele>688.5</ele>
        <time>2022-10-16T14:51:52.000Z</time>
      </trkpt>
      <trkpt lat="43.32368" lon="5.70714">
        <ele>688.6</ele>
        <time>2022-10-16T14:51:52.000Z</time>
      </trkpt>
      <trkpt lat="43.32368" lon="5.70714">
        <ele>688.6</ele>
        <time>2022-10-16T14:51:52.000Z</time>
      </trkpt>
      <trkpt lat="43.32368" lon="5.70714">
        <ele>688.6</ele>
        <time>2022-10-16T14:51:52.000Z</time>
      </trkpt>
    </trkseg>
  </trk>
</gpx>